<?xml version='1.0' encoding='UTF-8'?>
<gpx version="1.1" creator="https://www.komoot.de" xmlns="http://www.topografix.com/GPX/1/1" xmlns:xsi="http://www.w3.org/2001/XMLSchema-instance" xsi:schemaLocation="http://www.topografix.com/GPX/1/1 http://www.topografix.com/GPX/1/1/gpx.xsd">
  <metadata>
    <name>Ukraine Day 2 - Rivne to Ostroh</name>
    <author>
      <link href="https://www.komoot.de">
        <text>komoot</text>
        <type>text/html</type>
      </link>
    </author>
  </metadata>
  <trk>
    <name>Ukraine Day 2 - Rivne to Ostroh</name>
    <trkseg>
      <trkpt lat="50.620487" lon="26.247576">
        <ele>242.895861</ele>
        <time>2019-06-06T06:10:41.000Z</time>
      </trkpt>
      <trkpt lat="50.620174" lon="26.247490">
        <ele>242.895861</ele>
        <time>2019-06-06T06:10:42.000Z</time>
      </trkpt>
      <trkpt lat="50.620030" lon="26.247454">
        <ele>242.895861</ele>
        <time>2019-06-06T06:10:44.000Z</time>
      </trkpt>
      <trkpt lat="50.620102" lon="26.247362">
        <ele>242.895861</ele>
        <time>2019-06-06T06:11:32.000Z</time>
      </trkpt>
      <trkpt lat="50.620190" lon="26.247270">
        <ele>242.895861</ele>
        <time>2019-06-06T06:11:52.000Z</time>
      </trkpt>
      <trkpt lat="50.620255" lon="26.247171">
        <ele>242.895861</ele>
        <time>2019-06-06T06:12:15.000Z</time>
      </trkpt>
      <trkpt lat="50.620200" lon="26.247309">
        <ele>242.895861</ele>
        <time>2019-06-06T06:12:41.000Z</time>
      </trkpt>
      <trkpt lat="50.620205" lon="26.247456">
        <ele>242.284029</ele>
        <time>2019-06-06T06:12:49.000Z</time>
      </trkpt>
      <trkpt lat="50.620167" lon="26.247620">
        <ele>240.919568</ele>
        <time>2019-06-06T06:20:15.000Z</time>
      </trkpt>
      <trkpt lat="50.620180" lon="26.247766">
        <ele>239.767392</ele>
        <time>2019-06-06T06:20:21.000Z</time>
      </trkpt>
      <trkpt lat="50.620150" lon="26.247936">
        <ele>238.388402</ele>
        <time>2019-06-06T06:20:27.000Z</time>
      </trkpt>
      <trkpt lat="50.620130" lon="26.248090">
        <ele>237.159932</ele>
        <time>2019-06-06T06:20:31.000Z</time>
      </trkpt>
      <trkpt lat="50.620094" lon="26.248247">
        <ele>235.855299</ele>
        <time>2019-06-06T06:20:36.000Z</time>
      </trkpt>
      <trkpt lat="50.620003" lon="26.248283">
        <ele>234.699625</ele>
        <time>2019-06-06T06:20:40.000Z</time>
      </trkpt>
      <trkpt lat="50.619892" lon="26.248283">
        <ele>233.332367</ele>
        <time>2019-06-06T06:20:44.000Z</time>
      </trkpt>
      <trkpt lat="50.619800" lon="26.248259">
        <ele>232.183727</ele>
        <time>2019-06-06T06:20:49.000Z</time>
      </trkpt>
      <trkpt lat="50.619705" lon="26.248331">
        <ele>230.885294</ele>
        <time>2019-06-06T06:20:56.000Z</time>
      </trkpt>
      <trkpt lat="50.619610" lon="26.248340">
        <ele>229.713006</ele>
        <time>2019-06-06T06:21:16.000Z</time>
      </trkpt>
      <trkpt lat="50.619583" lon="26.248478">
        <ele>228.584405</ele>
        <time>2019-06-06T06:21:20.000Z</time>
      </trkpt>
      <trkpt lat="50.619556" lon="26.248663">
        <ele>227.100847</ele>
        <time>2019-06-06T06:21:24.000Z</time>
      </trkpt>
      <trkpt lat="50.619545" lon="26.248810">
        <ele>225.944060</ele>
        <time>2019-06-06T06:21:27.000Z</time>
      </trkpt>
      <trkpt lat="50.619526" lon="26.248968">
        <ele>224.687286</ele>
        <time>2019-06-06T06:21:30.000Z</time>
      </trkpt>
      <trkpt lat="50.619503" lon="26.249147">
        <ele>223.259977</ele>
        <time>2019-06-06T06:21:33.000Z</time>
      </trkpt>
      <trkpt lat="50.619488" lon="26.249327">
        <ele>221.841169</ele>
        <time>2019-06-06T06:21:36.000Z</time>
      </trkpt>
      <trkpt lat="50.619457" lon="26.249490">
        <ele>220.768116</ele>
        <time>2019-06-06T06:21:39.000Z</time>
      </trkpt>
      <trkpt lat="50.619442" lon="26.249674">
        <ele>220.940525</ele>
        <time>2019-06-06T06:21:42.000Z</time>
      </trkpt>
      <trkpt lat="50.619420" lon="26.249859">
        <ele>221.115451</ele>
        <time>2019-06-06T06:21:45.000Z</time>
      </trkpt>
      <trkpt lat="50.619396" lon="26.250030">
        <ele>221.278215</ele>
        <time>2019-06-06T06:21:48.000Z</time>
      </trkpt>
      <trkpt lat="50.619380" lon="26.250220">
        <ele>221.456343</ele>
        <time>2019-06-06T06:21:51.000Z</time>
      </trkpt>
      <trkpt lat="50.619343" lon="26.250399">
        <ele>221.631305</ele>
        <time>2019-06-06T06:21:54.000Z</time>
      </trkpt>
      <trkpt lat="50.619316" lon="26.250580">
        <ele>221.804107</ele>
        <time>2019-06-06T06:21:57.000Z</time>
      </trkpt>
      <trkpt lat="50.619297" lon="26.250751">
        <ele>221.965447</ele>
        <time>2019-06-06T06:22:00.000Z</time>
      </trkpt>
      <trkpt lat="50.619286" lon="26.250938">
        <ele>222.139984</ele>
        <time>2019-06-06T06:22:03.000Z</time>
      </trkpt>
      <trkpt lat="50.619250" lon="26.251120">
        <ele>222.317158</ele>
        <time>2019-06-06T06:22:06.000Z</time>
      </trkpt>
      <trkpt lat="50.619220" lon="26.251272">
        <ele>222.465100</ele>
        <time>2019-06-06T06:22:09.000Z</time>
      </trkpt>
      <trkpt lat="50.619198" lon="26.251432">
        <ele>222.617250</ele>
        <time>2019-06-06T06:22:13.000Z</time>
      </trkpt>
      <trkpt lat="50.619140" lon="26.251698">
        <ele>222.878654</ele>
        <time>2019-06-06T06:22:36.000Z</time>
      </trkpt>
      <trkpt lat="50.619125" lon="26.251862">
        <ele>223.032646</ele>
        <time>2019-06-06T06:22:39.000Z</time>
      </trkpt>
      <trkpt lat="50.619100" lon="26.252045">
        <ele>223.206619</ele>
        <time>2019-06-06T06:22:42.000Z</time>
      </trkpt>
      <trkpt lat="50.619057" lon="26.252230">
        <ele>223.394267</ele>
        <time>2019-06-06T06:22:45.000Z</time>
      </trkpt>
      <trkpt lat="50.619038" lon="26.252415">
        <ele>223.623869</ele>
        <time>2019-06-06T06:22:48.000Z</time>
      </trkpt>
      <trkpt lat="50.619050" lon="26.252623">
        <ele>223.879751</ele>
        <time>2019-06-06T06:22:51.000Z</time>
      </trkpt>
      <trkpt lat="50.619030" lon="26.252815">
        <ele>224.118128</ele>
        <time>2019-06-06T06:22:54.000Z</time>
      </trkpt>
      <trkpt lat="50.619007" lon="26.253010">
        <ele>224.361125</ele>
        <time>2019-06-06T06:22:57.000Z</time>
      </trkpt>
      <trkpt lat="50.618984" lon="26.253183">
        <ele>224.577678</ele>
        <time>2019-06-06T06:23:00.000Z</time>
      </trkpt>
      <trkpt lat="50.618960" lon="26.253370">
        <ele>224.811421</ele>
        <time>2019-06-06T06:23:03.000Z</time>
      </trkpt>
      <trkpt lat="50.618940" lon="26.253511">
        <ele>224.988431</ele>
        <time>2019-06-06T06:23:05.000Z</time>
      </trkpt>
      <trkpt lat="50.618920" lon="26.253650">
        <ele>225.163051</ele>
        <time>2019-06-06T06:23:07.000Z</time>
      </trkpt>
      <trkpt lat="50.618916" lon="26.253860">
        <ele>225.420448</ele>
        <time>2019-06-06T06:23:10.000Z</time>
      </trkpt>
      <trkpt lat="50.618890" lon="26.254059">
        <ele>225.669369</ele>
        <time>2019-06-06T06:23:13.000Z</time>
      </trkpt>
      <trkpt lat="50.618850" lon="26.254229">
        <ele>225.891505</ele>
        <time>2019-06-06T06:23:16.000Z</time>
      </trkpt>
      <trkpt lat="50.618820" lon="26.254404">
        <ele>226.113595</ele>
        <time>2019-06-06T06:23:19.000Z</time>
      </trkpt>
      <trkpt lat="50.618800" lon="26.254574">
        <ele>226.325421</ele>
        <time>2019-06-06T06:23:22.000Z</time>
      </trkpt>
      <trkpt lat="50.618782" lon="26.254732">
        <ele>226.522091</ele>
        <time>2019-06-06T06:23:25.000Z</time>
      </trkpt>
      <trkpt lat="50.618763" lon="26.254887">
        <ele>226.715501</ele>
        <time>2019-06-06T06:23:28.000Z</time>
      </trkpt>
      <trkpt lat="50.618748" lon="26.255035">
        <ele>226.920982</ele>
        <time>2019-06-06T06:23:31.000Z</time>
      </trkpt>
      <trkpt lat="50.618736" lon="26.255186">
        <ele>227.188059</ele>
        <time>2019-06-06T06:23:34.000Z</time>
      </trkpt>
      <trkpt lat="50.618713" lon="26.255354">
        <ele>227.489686</ele>
        <time>2019-06-06T06:23:38.000Z</time>
      </trkpt>
      <trkpt lat="50.618690" lon="26.255530">
        <ele>227.805051</ele>
        <time>2019-06-06T06:23:42.000Z</time>
      </trkpt>
      <trkpt lat="50.618660" lon="26.255697">
        <ele>228.109658</ele>
        <time>2019-06-06T06:23:46.000Z</time>
      </trkpt>
      <trkpt lat="50.618656" lon="26.255854">
        <ele>228.385417</ele>
        <time>2019-06-06T06:23:50.000Z</time>
      </trkpt>
      <trkpt lat="50.618650" lon="26.256031">
        <ele>228.696496</ele>
        <time>2019-06-06T06:23:55.000Z</time>
      </trkpt>
      <trkpt lat="50.618645" lon="26.256174">
        <ele>228.947844</ele>
        <time>2019-06-06T06:23:59.000Z</time>
      </trkpt>
      <trkpt lat="50.618620" lon="26.256320">
        <ele>229.213242</ele>
        <time>2019-06-06T06:24:03.000Z</time>
      </trkpt>
      <trkpt lat="50.618610" lon="26.256477">
        <ele>229.490164</ele>
        <time>2019-06-06T06:24:07.000Z</time>
      </trkpt>
      <trkpt lat="50.618590" lon="26.256618">
        <ele>229.743729</ele>
        <time>2019-06-06T06:24:11.000Z</time>
      </trkpt>
      <trkpt lat="50.618584" lon="26.256770">
        <ele>230.011007</ele>
        <time>2019-06-06T06:24:15.000Z</time>
      </trkpt>
      <trkpt lat="50.618560" lon="26.256933">
        <ele>230.304675</ele>
        <time>2019-06-06T06:24:19.000Z</time>
      </trkpt>
      <trkpt lat="50.618530" lon="26.257074">
        <ele>230.565675</ele>
        <time>2019-06-06T06:24:23.000Z</time>
      </trkpt>
      <trkpt lat="50.618504" lon="26.257217">
        <ele>230.826743</ele>
        <time>2019-06-06T06:24:27.000Z</time>
      </trkpt>
      <trkpt lat="50.618473" lon="26.257385">
        <ele>231.133802</ele>
        <time>2019-06-06T06:24:32.000Z</time>
      </trkpt>
      <trkpt lat="50.618440" lon="26.257523">
        <ele>231.392625</ele>
        <time>2019-06-06T06:24:36.000Z</time>
      </trkpt>
      <trkpt lat="50.618410" lon="26.257689">
        <ele>231.695545</ele>
        <time>2019-06-06T06:24:41.000Z</time>
      </trkpt>
      <trkpt lat="50.618397" lon="26.257854">
        <ele>232.109729</ele>
        <time>2019-06-06T06:24:46.000Z</time>
      </trkpt>
      <trkpt lat="50.618374" lon="26.258017">
        <ele>232.621998</ele>
        <time>2019-06-06T06:24:51.000Z</time>
      </trkpt>
      <trkpt lat="50.618343" lon="26.258158">
        <ele>233.079793</ele>
        <time>2019-06-06T06:24:55.000Z</time>
      </trkpt>
      <trkpt lat="50.618317" lon="26.258293">
        <ele>233.512607</ele>
        <time>2019-06-06T06:24:59.000Z</time>
      </trkpt>
      <trkpt lat="50.618294" lon="26.258450">
        <ele>234.006925</ele>
        <time>2019-06-06T06:25:04.000Z</time>
      </trkpt>
      <trkpt lat="50.618282" lon="26.258593">
        <ele>234.449443</ele>
        <time>2019-06-06T06:25:08.000Z</time>
      </trkpt>
      <trkpt lat="50.618263" lon="26.258759">
        <ele>234.966920</ele>
        <time>2019-06-06T06:25:13.000Z</time>
      </trkpt>
      <trkpt lat="50.618248" lon="26.258930">
        <ele>235.496506</ele>
        <time>2019-06-06T06:25:18.000Z</time>
      </trkpt>
      <trkpt lat="50.618230" lon="26.259098">
        <ele>236.019196</ele>
        <time>2019-06-06T06:25:23.000Z</time>
      </trkpt>
      <trkpt lat="50.618217" lon="26.259260">
        <ele>236.520142</ele>
        <time>2019-06-06T06:25:28.000Z</time>
      </trkpt>
      <trkpt lat="50.618195" lon="26.259405">
        <ele>236.977517</ele>
        <time>2019-06-06T06:25:32.000Z</time>
      </trkpt>
      <trkpt lat="50.618160" lon="26.259570">
        <ele>237.511247</ele>
        <time>2019-06-06T06:25:37.000Z</time>
      </trkpt>
      <trkpt lat="50.618140" lon="26.259727">
        <ele>238.002507</ele>
        <time>2019-06-06T06:25:42.000Z</time>
      </trkpt>
      <trkpt lat="50.618122" lon="26.259892">
        <ele>238.516126</ele>
        <time>2019-06-06T06:25:47.000Z</time>
      </trkpt>
      <trkpt lat="50.618110" lon="26.260046">
        <ele>238.992120</ele>
        <time>2019-06-06T06:25:52.000Z</time>
      </trkpt>
      <trkpt lat="50.618100" lon="26.260210">
        <ele>239.497562</ele>
        <time>2019-06-06T06:25:57.000Z</time>
      </trkpt>
      <trkpt lat="50.618076" lon="26.260380">
        <ele>240.031846</ele>
        <time>2019-06-06T06:26:02.000Z</time>
      </trkpt>
      <trkpt lat="50.618057" lon="26.260546">
        <ele>240.549974</ele>
        <time>2019-06-06T06:26:07.000Z</time>
      </trkpt>
      <trkpt lat="50.618034" lon="26.260700">
        <ele>241.046215</ele>
        <time>2019-06-06T06:26:12.000Z</time>
      </trkpt>
      <trkpt lat="50.618015" lon="26.260843">
        <ele>241.504480</ele>
        <time>2019-06-06T06:26:16.000Z</time>
      </trkpt>
      <trkpt lat="50.618000" lon="26.260983">
        <ele>241.949824</ele>
        <time>2019-06-06T06:26:20.000Z</time>
      </trkpt>
      <trkpt lat="50.617973" lon="26.261126">
        <ele>242.417800</ele>
        <time>2019-06-06T06:26:25.000Z</time>
      </trkpt>
      <trkpt lat="50.617940" lon="26.261286">
        <ele>242.945509</ele>
        <time>2019-06-06T06:26:30.000Z</time>
      </trkpt>
      <trkpt lat="50.617912" lon="26.261448">
        <ele>243.472158</ele>
        <time>2019-06-06T06:26:35.000Z</time>
      </trkpt>
      <trkpt lat="50.617897" lon="26.261616">
        <ele>244.004304</ele>
        <time>2019-06-06T06:26:40.000Z</time>
      </trkpt>
      <trkpt lat="50.617870" lon="26.261784">
        <ele>244.547899</ele>
        <time>2019-06-06T06:26:45.000Z</time>
      </trkpt>
      <trkpt lat="50.617847" lon="26.261950">
        <ele>245.080850</ele>
        <time>2019-06-06T06:26:50.000Z</time>
      </trkpt>
      <trkpt lat="50.617820" lon="26.262120">
        <ele>245.630529</ele>
        <time>2019-06-06T06:26:55.000Z</time>
      </trkpt>
      <trkpt lat="50.617805" lon="26.262280">
        <ele>246.137839</ele>
        <time>2019-06-06T06:27:00.000Z</time>
      </trkpt>
      <trkpt lat="50.617775" lon="26.262417">
        <ele>246.592430</ele>
        <time>2019-06-06T06:27:04.000Z</time>
      </trkpt>
      <trkpt lat="50.617752" lon="26.262556">
        <ele>247.043005</ele>
        <time>2019-06-06T06:27:08.000Z</time>
      </trkpt>
      <trkpt lat="50.617737" lon="26.262720">
        <ele>247.562731</ele>
        <time>2019-06-06T06:27:13.000Z</time>
      </trkpt>
      <trkpt lat="50.617710" lon="26.262857">
        <ele>248.012703</ele>
        <time>2019-06-06T06:27:17.000Z</time>
      </trkpt>
      <trkpt lat="50.617690" lon="26.262999">
        <ele>248.468947</ele>
        <time>2019-06-06T06:27:21.000Z</time>
      </trkpt>
      <trkpt lat="50.617672" lon="26.263147">
        <ele>248.941622</ele>
        <time>2019-06-06T06:27:25.000Z</time>
      </trkpt>
      <trkpt lat="50.617650" lon="26.263308">
        <ele>249.426679</ele>
        <time>2019-06-06T06:27:29.000Z</time>
      </trkpt>
      <trkpt lat="50.617626" lon="26.263453">
        <ele>249.575331</ele>
        <time>2019-06-06T06:27:33.000Z</time>
      </trkpt>
      <trkpt lat="50.617607" lon="26.263610">
        <ele>249.733881</ele>
        <time>2019-06-06T06:27:37.000Z</time>
      </trkpt>
      <trkpt lat="50.617596" lon="26.263771">
        <ele>249.894514</ele>
        <time>2019-06-06T06:27:41.000Z</time>
      </trkpt>
      <trkpt lat="50.617565" lon="26.263918">
        <ele>250.048180</ele>
        <time>2019-06-06T06:27:45.000Z</time>
      </trkpt>
      <trkpt lat="50.617530" lon="26.264061">
        <ele>250.200222</ele>
        <time>2019-06-06T06:27:49.000Z</time>
      </trkpt>
      <trkpt lat="50.617510" lon="26.264221">
        <ele>250.361992</ele>
        <time>2019-06-06T06:27:55.000Z</time>
      </trkpt>
      <trkpt lat="50.617480" lon="26.264385">
        <ele>250.531304</ele>
        <time>2019-06-06T06:28:00.000Z</time>
      </trkpt>
      <trkpt lat="50.617440" lon="26.264530">
        <ele>250.688150</ele>
        <time>2019-06-06T06:28:04.000Z</time>
      </trkpt>
      <trkpt lat="50.617420" lon="26.264688">
        <ele>250.847973</ele>
        <time>2019-06-06T06:28:08.000Z</time>
      </trkpt>
      <trkpt lat="50.617410" lon="26.264833">
        <ele>250.992659</ele>
        <time>2019-06-06T06:28:12.000Z</time>
      </trkpt>
      <trkpt lat="50.617367" lon="26.264969">
        <ele>251.143392</ele>
        <time>2019-06-06T06:28:17.000Z</time>
      </trkpt>
      <trkpt lat="50.617336" lon="26.265106">
        <ele>251.287679</ele>
        <time>2019-06-06T06:28:39.000Z</time>
      </trkpt>
      <trkpt lat="50.617300" lon="26.265260">
        <ele>251.450484</ele>
        <time>2019-06-06T06:28:44.000Z</time>
      </trkpt>
      <trkpt lat="50.617275" lon="26.265400">
        <ele>251.594759</ele>
        <time>2019-06-06T06:28:48.000Z</time>
      </trkpt>
      <trkpt lat="50.617260" lon="26.265560">
        <ele>251.755201</ele>
        <time>2019-06-06T06:28:52.000Z</time>
      </trkpt>
      <trkpt lat="50.617245" lon="26.265717">
        <ele>251.912700</ele>
        <time>2019-06-06T06:28:56.000Z</time>
      </trkpt>
      <trkpt lat="50.617240" lon="26.265896">
        <ele>252.090439</ele>
        <time>2019-06-06T06:29:01.000Z</time>
      </trkpt>
      <trkpt lat="50.617240" lon="26.266048">
        <ele>252.225953</ele>
        <time>2019-06-06T06:29:05.000Z</time>
      </trkpt>
      <trkpt lat="50.617184" lon="26.266190">
        <ele>252.243390</ele>
        <time>2019-06-06T06:29:10.000Z</time>
      </trkpt>
      <trkpt lat="50.617165" lon="26.266361">
        <ele>252.261494</ele>
        <time>2019-06-06T06:29:15.000Z</time>
      </trkpt>
      <trkpt lat="50.617140" lon="26.266525">
        <ele>252.279084</ele>
        <time>2019-06-06T06:29:19.000Z</time>
      </trkpt>
      <trkpt lat="50.617126" lon="26.266672">
        <ele>252.294586</ele>
        <time>2019-06-06T06:29:22.000Z</time>
      </trkpt>
      <trkpt lat="50.617110" lon="26.266827">
        <ele>252.310964</ele>
        <time>2019-06-06T06:29:25.000Z</time>
      </trkpt>
      <trkpt lat="50.617096" lon="26.266977">
        <ele>252.326775</ele>
        <time>2019-06-06T06:29:28.000Z</time>
      </trkpt>
      <trkpt lat="50.617080" lon="26.267141">
        <ele>252.344080</ele>
        <time>2019-06-06T06:29:32.000Z</time>
      </trkpt>
      <trkpt lat="50.617065" lon="26.267294">
        <ele>252.360225</ele>
        <time>2019-06-06T06:29:36.000Z</time>
      </trkpt>
      <trkpt lat="50.617046" lon="26.267433">
        <ele>252.375054</ele>
        <time>2019-06-06T06:29:40.000Z</time>
      </trkpt>
      <trkpt lat="50.617010" lon="26.267595">
        <ele>252.392955</ele>
        <time>2019-06-06T06:29:45.000Z</time>
      </trkpt>
      <trkpt lat="50.616978" lon="26.267775">
        <ele>252.412450</ele>
        <time>2019-06-06T06:29:49.000Z</time>
      </trkpt>
      <trkpt lat="50.616962" lon="26.267956">
        <ele>252.431508</ele>
        <time>2019-06-06T06:29:53.000Z</time>
      </trkpt>
      <trkpt lat="50.616932" lon="26.268147">
        <ele>252.452029</ele>
        <time>2019-06-06T06:29:57.000Z</time>
      </trkpt>
      <trkpt lat="50.616930" lon="26.268293">
        <ele>252.467259</ele>
        <time>2019-06-06T06:30:00.000Z</time>
      </trkpt>
      <trkpt lat="50.616886" lon="26.268436">
        <ele>252.483833</ele>
        <time>2019-06-06T06:30:04.000Z</time>
      </trkpt>
      <trkpt lat="50.616848" lon="26.268576">
        <ele>252.499713</ele>
        <time>2019-06-06T06:30:10.000Z</time>
      </trkpt>
      <trkpt lat="50.616850" lon="26.268736">
        <ele>252.516403</ele>
        <time>2019-06-06T06:30:15.000Z</time>
      </trkpt>
      <trkpt lat="50.616856" lon="26.268887">
        <ele>252.515154</ele>
        <time>2019-06-06T06:30:18.000Z</time>
      </trkpt>
      <trkpt lat="50.616844" lon="26.269045">
        <ele>252.508943</ele>
        <time>2019-06-06T06:30:22.000Z</time>
      </trkpt>
      <trkpt lat="50.616820" lon="26.269217">
        <ele>252.502069</ele>
        <time>2019-06-06T06:30:27.000Z</time>
      </trkpt>
      <trkpt lat="50.616802" lon="26.269379">
        <ele>252.495651</ele>
        <time>2019-06-06T06:30:30.000Z</time>
      </trkpt>
      <trkpt lat="50.616806" lon="26.269548">
        <ele>252.489050</ele>
        <time>2019-06-06T06:30:33.000Z</time>
      </trkpt>
      <trkpt lat="50.616760" lon="26.269700">
        <ele>252.482477</ele>
        <time>2019-06-06T06:30:36.000Z</time>
      </trkpt>
      <trkpt lat="50.616737" lon="26.269867">
        <ele>252.475808</ele>
        <time>2019-06-06T06:30:39.000Z</time>
      </trkpt>
      <trkpt lat="50.616730" lon="26.270073">
        <ele>252.467756</ele>
        <time>2019-06-06T06:30:42.000Z</time>
      </trkpt>
      <trkpt lat="50.616714" lon="26.270247">
        <ele>252.460894</ele>
        <time>2019-06-06T06:30:45.000Z</time>
      </trkpt>
      <trkpt lat="50.616684" lon="26.270426">
        <ele>252.453668</ele>
        <time>2019-06-06T06:30:48.000Z</time>
      </trkpt>
      <trkpt lat="50.616673" lon="26.270613">
        <ele>252.446338</ele>
        <time>2019-06-06T06:30:51.000Z</time>
      </trkpt>
      <trkpt lat="50.616676" lon="26.270796">
        <ele>252.439193</ele>
        <time>2019-06-06T06:30:54.000Z</time>
      </trkpt>
      <trkpt lat="50.616657" lon="26.270971">
        <ele>252.432264</ele>
        <time>2019-06-06T06:30:57.000Z</time>
      </trkpt>
      <trkpt lat="50.616653" lon="26.271141">
        <ele>252.425624</ele>
        <time>2019-06-06T06:31:01.000Z</time>
      </trkpt>
      <trkpt lat="50.616650" lon="26.271301">
        <ele>252.419377</ele>
        <time>2019-06-06T06:31:05.000Z</time>
      </trkpt>
      <trkpt lat="50.616640" lon="26.271458">
        <ele>252.413219</ele>
        <time>2019-06-06T06:31:08.000Z</time>
      </trkpt>
      <trkpt lat="50.616620" lon="26.271597">
        <ele>252.424608</ele>
        <time>2019-06-06T06:31:11.000Z</time>
      </trkpt>
      <trkpt lat="50.616615" lon="26.271780">
        <ele>252.498395</ele>
        <time>2019-06-06T06:31:15.000Z</time>
      </trkpt>
      <trkpt lat="50.616580" lon="26.271952">
        <ele>252.571158</ele>
        <time>2019-06-06T06:31:19.000Z</time>
      </trkpt>
      <trkpt lat="50.616558" lon="26.272137">
        <ele>252.646979</ele>
        <time>2019-06-06T06:31:23.000Z</time>
      </trkpt>
      <trkpt lat="50.616554" lon="26.272299">
        <ele>252.712287</ele>
        <time>2019-06-06T06:31:26.000Z</time>
      </trkpt>
      <trkpt lat="50.616530" lon="26.272480">
        <ele>252.786775</ele>
        <time>2019-06-06T06:31:29.000Z</time>
      </trkpt>
      <trkpt lat="50.616516" lon="26.272629">
        <ele>252.847451</ele>
        <time>2019-06-06T06:31:31.000Z</time>
      </trkpt>
      <trkpt lat="50.616505" lon="26.272772">
        <ele>252.905478</ele>
        <time>2019-06-06T06:31:34.000Z</time>
      </trkpt>
      <trkpt lat="50.616480" lon="26.272917">
        <ele>252.966007</ele>
        <time>2019-06-06T06:31:37.000Z</time>
      </trkpt>
      <trkpt lat="50.616470" lon="26.273060">
        <ele>253.023960</ele>
        <time>2019-06-06T06:31:40.000Z</time>
      </trkpt>
      <trkpt lat="50.616463" lon="26.273212">
        <ele>253.085352</ele>
        <time>2019-06-06T06:31:43.000Z</time>
      </trkpt>
      <trkpt lat="50.616455" lon="26.273375">
        <ele>253.151210</ele>
        <time>2019-06-06T06:31:47.000Z</time>
      </trkpt>
      <trkpt lat="50.616455" lon="26.273518">
        <ele>253.208815</ele>
        <time>2019-06-06T06:31:51.000Z</time>
      </trkpt>
      <trkpt lat="50.616398" lon="26.273647">
        <ele>253.272139</ele>
        <time>2019-06-06T06:31:55.000Z</time>
      </trkpt>
      <trkpt lat="50.616390" lon="26.273817">
        <ele>253.340809</ele>
        <time>2019-06-06T06:31:59.000Z</time>
      </trkpt>
      <trkpt lat="50.616375" lon="26.273964">
        <ele>253.400786</ele>
        <time>2019-06-06T06:32:02.000Z</time>
      </trkpt>
      <trkpt lat="50.616360" lon="26.274115">
        <ele>253.462355</ele>
        <time>2019-06-06T06:32:06.000Z</time>
      </trkpt>
      <trkpt lat="50.616344" lon="26.274298">
        <ele>253.536770</ele>
        <time>2019-06-06T06:32:10.000Z</time>
      </trkpt>
      <trkpt lat="50.616340" lon="26.274477">
        <ele>253.328492</ele>
        <time>2019-06-06T06:32:14.000Z</time>
      </trkpt>
      <trkpt lat="50.616325" lon="26.274626">
        <ele>253.094708</ele>
        <time>2019-06-06T06:32:17.000Z</time>
      </trkpt>
      <trkpt lat="50.616306" lon="26.274780">
        <ele>252.851594</ele>
        <time>2019-06-06T06:32:20.000Z</time>
      </trkpt>
      <trkpt lat="50.616300" lon="26.274937">
        <ele>252.607860</ele>
        <time>2019-06-06T06:32:23.000Z</time>
      </trkpt>
      <trkpt lat="50.616302" lon="26.275114">
        <ele>252.333530</ele>
        <time>2019-06-06T06:32:26.000Z</time>
      </trkpt>
      <trkpt lat="50.616287" lon="26.275278">
        <ele>252.076762</ele>
        <time>2019-06-06T06:32:29.000Z</time>
      </trkpt>
      <trkpt lat="50.616270" lon="26.275434">
        <ele>251.831479</ele>
        <time>2019-06-06T06:32:32.000Z</time>
      </trkpt>
      <trkpt lat="50.616245" lon="26.275583">
        <ele>251.592647</ele>
        <time>2019-06-06T06:32:35.000Z</time>
      </trkpt>
      <trkpt lat="50.616207" lon="26.275738">
        <ele>251.335147</ele>
        <time>2019-06-06T06:32:39.000Z</time>
      </trkpt>
      <trkpt lat="50.616196" lon="26.275923">
        <ele>251.047207</ele>
        <time>2019-06-06T06:32:43.000Z</time>
      </trkpt>
      <trkpt lat="50.616188" lon="26.276094">
        <ele>250.781499</ele>
        <time>2019-06-06T06:32:46.000Z</time>
      </trkpt>
      <trkpt lat="50.616188" lon="26.276299">
        <ele>250.463822</ele>
        <time>2019-06-06T06:32:49.000Z</time>
      </trkpt>
      <trkpt lat="50.616170" lon="26.276468">
        <ele>250.198268</ele>
        <time>2019-06-06T06:32:52.000Z</time>
      </trkpt>
      <trkpt lat="50.616165" lon="26.276651">
        <ele>249.914421</ele>
        <time>2019-06-06T06:32:55.000Z</time>
      </trkpt>
      <trkpt lat="50.616146" lon="26.276844">
        <ele>249.611761</ele>
        <time>2019-06-06T06:32:58.000Z</time>
      </trkpt>
      <trkpt lat="50.616123" lon="26.277033">
        <ele>249.313541</ele>
        <time>2019-06-06T06:33:01.000Z</time>
      </trkpt>
      <trkpt lat="50.616104" lon="26.277212">
        <ele>249.145422</ele>
        <time>2019-06-06T06:33:04.000Z</time>
      </trkpt>
      <trkpt lat="50.616090" lon="26.277382">
        <ele>249.118246</ele>
        <time>2019-06-06T06:33:07.000Z</time>
      </trkpt>
      <trkpt lat="50.616077" lon="26.277555">
        <ele>249.090629</ele>
        <time>2019-06-06T06:33:10.000Z</time>
      </trkpt>
      <trkpt lat="50.616050" lon="26.277796">
        <ele>249.051833</ele>
        <time>2019-06-06T06:33:14.000Z</time>
      </trkpt>
      <trkpt lat="50.616028" lon="26.277992">
        <ele>249.020280</ele>
        <time>2019-06-06T06:33:17.000Z</time>
      </trkpt>
      <trkpt lat="50.616024" lon="26.278255">
        <ele>248.978575</ele>
        <time>2019-06-06T06:33:21.000Z</time>
      </trkpt>
      <trkpt lat="50.616000" lon="26.278444">
        <ele>248.948020</ele>
        <time>2019-06-06T06:33:24.000Z</time>
      </trkpt>
      <trkpt lat="50.615970" lon="26.278612">
        <ele>248.920353</ele>
        <time>2019-06-06T06:33:27.000Z</time>
      </trkpt>
      <trkpt lat="50.615944" lon="26.278750">
        <ele>248.897532</ele>
        <time>2019-06-06T06:33:29.000Z</time>
      </trkpt>
      <trkpt lat="50.615930" lon="26.278889">
        <ele>248.875221</ele>
        <time>2019-06-06T06:33:31.000Z</time>
      </trkpt>
      <trkpt lat="50.615917" lon="26.279037">
        <ele>248.851535</ele>
        <time>2019-06-06T06:33:34.000Z</time>
      </trkpt>
      <trkpt lat="50.615890" lon="26.279228">
        <ele>248.820514</ele>
        <time>2019-06-06T06:33:38.000Z</time>
      </trkpt>
      <trkpt lat="50.615890" lon="26.279396">
        <ele>248.793881</ele>
        <time>2019-06-06T06:33:41.000Z</time>
      </trkpt>
      <trkpt lat="50.615870" lon="26.279585">
        <ele>248.763506</ele>
        <time>2019-06-06T06:33:44.000Z</time>
      </trkpt>
      <trkpt lat="50.615860" lon="26.279728">
        <ele>248.740699</ele>
        <time>2019-06-06T06:33:46.000Z</time>
      </trkpt>
      <trkpt lat="50.615840" lon="26.279922">
        <ele>248.709542</ele>
        <time>2019-06-06T06:33:49.000Z</time>
      </trkpt>
      <trkpt lat="50.615826" lon="26.280075">
        <ele>248.446792</ele>
        <time>2019-06-06T06:33:52.000Z</time>
      </trkpt>
      <trkpt lat="50.615833" lon="26.280235">
        <ele>248.167973</ele>
        <time>2019-06-06T06:33:55.000Z</time>
      </trkpt>
      <trkpt lat="50.615837" lon="26.280376">
        <ele>247.922601</ele>
        <time>2019-06-06T06:33:58.000Z</time>
      </trkpt>
      <trkpt lat="50.615840" lon="26.280525">
        <ele>247.663436</ele>
        <time>2019-06-06T06:34:01.000Z</time>
      </trkpt>
      <trkpt lat="50.615830" lon="26.280685">
        <ele>247.383931</ele>
        <time>2019-06-06T06:34:06.000Z</time>
      </trkpt>
      <trkpt lat="50.615830" lon="26.280842">
        <ele>247.110988</ele>
        <time>2019-06-06T06:34:14.000Z</time>
      </trkpt>
      <trkpt lat="50.615814" lon="26.280985">
        <ele>246.858548</ele>
        <time>2019-06-06T06:34:18.000Z</time>
      </trkpt>
      <trkpt lat="50.615820" lon="26.281140">
        <ele>246.588581</ele>
        <time>2019-06-06T06:34:22.000Z</time>
      </trkpt>
      <trkpt lat="50.615807" lon="26.281310">
        <ele>246.290899</ele>
        <time>2019-06-06T06:34:26.000Z</time>
      </trkpt>
      <trkpt lat="50.615795" lon="26.281464">
        <ele>246.021160</ele>
        <time>2019-06-06T06:34:29.000Z</time>
      </trkpt>
      <trkpt lat="50.615784" lon="26.281633">
        <ele>245.725813</ele>
        <time>2019-06-06T06:34:32.000Z</time>
      </trkpt>
      <trkpt lat="50.615770" lon="26.281792">
        <ele>245.446744</ele>
        <time>2019-06-06T06:34:35.000Z</time>
      </trkpt>
      <trkpt lat="50.615750" lon="26.281950">
        <ele>245.166649</ele>
        <time>2019-06-06T06:34:38.000Z</time>
      </trkpt>
      <trkpt lat="50.615738" lon="26.282104">
        <ele>244.896910</ele>
        <time>2019-06-06T06:34:41.000Z</time>
      </trkpt>
      <trkpt lat="50.615730" lon="26.282272">
        <ele>244.604021</ele>
        <time>2019-06-06T06:34:44.000Z</time>
      </trkpt>
      <trkpt lat="50.615710" lon="26.282473">
        <ele>244.250313</ele>
        <time>2019-06-06T06:34:47.000Z</time>
      </trkpt>
      <trkpt lat="50.615692" lon="26.282612">
        <ele>244.003681</ele>
        <time>2019-06-06T06:34:49.000Z</time>
      </trkpt>
      <trkpt lat="50.615670" lon="26.282825">
        <ele>243.619431</ele>
        <time>2019-06-06T06:34:52.000Z</time>
      </trkpt>
      <trkpt lat="50.615654" lon="26.282976">
        <ele>243.337430</ele>
        <time>2019-06-06T06:34:54.000Z</time>
      </trkpt>
      <trkpt lat="50.615627" lon="26.283237">
        <ele>242.850309</ele>
        <time>2019-06-06T06:34:58.000Z</time>
      </trkpt>
      <trkpt lat="50.615610" lon="26.283390">
        <ele>242.564187</ele>
        <time>2019-06-06T06:35:01.000Z</time>
      </trkpt>
      <trkpt lat="50.615597" lon="26.283531">
        <ele>242.301731</ele>
        <time>2019-06-06T06:35:04.000Z</time>
      </trkpt>
      <trkpt lat="50.615580" lon="26.283678">
        <ele>242.026489</ele>
        <time>2019-06-06T06:35:07.000Z</time>
      </trkpt>
      <trkpt lat="50.615566" lon="26.283834">
        <ele>241.736270</ele>
        <time>2019-06-06T06:35:12.000Z</time>
      </trkpt>
      <trkpt lat="50.615555" lon="26.283985">
        <ele>241.456293</ele>
        <time>2019-06-06T06:35:20.000Z</time>
      </trkpt>
      <trkpt lat="50.615540" lon="26.284132">
        <ele>241.182033</ele>
        <time>2019-06-06T06:35:28.000Z</time>
      </trkpt>
      <trkpt lat="50.615520" lon="26.284273">
        <ele>240.915893</ele>
        <time>2019-06-06T06:35:34.000Z</time>
      </trkpt>
      <trkpt lat="50.615513" lon="26.284420">
        <ele>240.644350</ele>
        <time>2019-06-06T06:35:37.000Z</time>
      </trkpt>
      <trkpt lat="50.615510" lon="26.284622">
        <ele>240.272154</ele>
        <time>2019-06-06T06:35:40.000Z</time>
      </trkpt>
      <trkpt lat="50.615490" lon="26.284819">
        <ele>239.904654</ele>
        <time>2019-06-06T06:35:43.000Z</time>
      </trkpt>
      <trkpt lat="50.615470" lon="26.284971">
        <ele>239.618705</ele>
        <time>2019-06-06T06:35:45.000Z</time>
      </trkpt>
      <trkpt lat="50.615425" lon="26.285177">
        <ele>239.217385</ele>
        <time>2019-06-06T06:35:48.000Z</time>
      </trkpt>
      <trkpt lat="50.615417" lon="26.285380">
        <ele>238.842727</ele>
        <time>2019-06-06T06:35:51.000Z</time>
      </trkpt>
      <trkpt lat="50.615420" lon="26.285585">
        <ele>238.659711</ele>
        <time>2019-06-06T06:35:54.000Z</time>
      </trkpt>
      <trkpt lat="50.615402" lon="26.285770">
        <ele>239.026553</ele>
        <time>2019-06-06T06:35:57.000Z</time>
      </trkpt>
      <trkpt lat="50.615383" lon="26.285940">
        <ele>239.364886</ele>
        <time>2019-06-06T06:36:00.000Z</time>
      </trkpt>
      <trkpt lat="50.615356" lon="26.286098">
        <ele>239.685604</ele>
        <time>2019-06-06T06:36:03.000Z</time>
      </trkpt>
      <trkpt lat="50.615334" lon="26.286250">
        <ele>239.991180</ele>
        <time>2019-06-06T06:36:06.000Z</time>
      </trkpt>
      <trkpt lat="50.615326" lon="26.286394">
        <ele>240.274504</ele>
        <time>2019-06-06T06:36:09.000Z</time>
      </trkpt>
      <trkpt lat="50.615314" lon="26.286537">
        <ele>240.557228</ele>
        <time>2019-06-06T06:36:12.000Z</time>
      </trkpt>
      <trkpt lat="50.615307" lon="26.286684">
        <ele>240.846162</ele>
        <time>2019-06-06T06:36:15.000Z</time>
      </trkpt>
      <trkpt lat="50.615290" lon="26.286830">
        <ele>241.137104</ele>
        <time>2019-06-06T06:36:18.000Z</time>
      </trkpt>
      <trkpt lat="50.615273" lon="26.286972">
        <ele>241.420339</ele>
        <time>2019-06-06T06:36:21.000Z</time>
      </trkpt>
      <trkpt lat="50.615253" lon="26.287115">
        <ele>241.707351</ele>
        <time>2019-06-06T06:36:24.000Z</time>
      </trkpt>
      <trkpt lat="50.615234" lon="26.287258">
        <ele>241.993714</ele>
        <time>2019-06-06T06:36:27.000Z</time>
      </trkpt>
      <trkpt lat="50.615210" lon="26.287437">
        <ele>242.352306</ele>
        <time>2019-06-06T06:36:31.000Z</time>
      </trkpt>
      <trkpt lat="50.615208" lon="26.287582">
        <ele>242.636578</ele>
        <time>2019-06-06T06:36:34.000Z</time>
      </trkpt>
      <trkpt lat="50.615192" lon="26.287773">
        <ele>243.014192</ele>
        <time>2019-06-06T06:36:38.000Z</time>
      </trkpt>
      <trkpt lat="50.615173" lon="26.287924">
        <ele>243.315920</ele>
        <time>2019-06-06T06:36:41.000Z</time>
      </trkpt>
      <trkpt lat="50.615158" lon="26.288070">
        <ele>243.605811</ele>
        <time>2019-06-06T06:36:44.000Z</time>
      </trkpt>
      <trkpt lat="50.615143" lon="26.288227">
        <ele>243.917005</ele>
        <time>2019-06-06T06:36:47.000Z</time>
      </trkpt>
      <trkpt lat="50.615128" lon="26.288368">
        <ele>244.065553</ele>
        <time>2019-06-06T06:36:50.000Z</time>
      </trkpt>
      <trkpt lat="50.615112" lon="26.288519">
        <ele>243.883387</ele>
        <time>2019-06-06T06:36:53.000Z</time>
      </trkpt>
      <trkpt lat="50.615100" lon="26.288662">
        <ele>243.711746</ele>
        <time>2019-06-06T06:36:56.000Z</time>
      </trkpt>
      <trkpt lat="50.615086" lon="26.288820">
        <ele>243.521913</ele>
        <time>2019-06-06T06:36:59.000Z</time>
      </trkpt>
      <trkpt lat="50.615063" lon="26.288998">
        <ele>243.305759</ele>
        <time>2019-06-06T06:37:02.000Z</time>
      </trkpt>
      <trkpt lat="50.615044" lon="26.289164">
        <ele>243.105043</ele>
        <time>2019-06-06T06:37:05.000Z</time>
      </trkpt>
      <trkpt lat="50.615032" lon="26.289343">
        <ele>242.890860</ele>
        <time>2019-06-06T06:37:08.000Z</time>
      </trkpt>
      <trkpt lat="50.615017" lon="26.289515">
        <ele>242.684269</ele>
        <time>2019-06-06T06:37:11.000Z</time>
      </trkpt>
      <trkpt lat="50.615005" lon="26.289700">
        <ele>242.462985</ele>
        <time>2019-06-06T06:37:14.000Z</time>
      </trkpt>
      <trkpt lat="50.614986" lon="26.289886">
        <ele>242.238808</ele>
        <time>2019-06-06T06:37:17.000Z</time>
      </trkpt>
      <trkpt lat="50.614956" lon="26.290081">
        <ele>242.000049</ele>
        <time>2019-06-06T06:37:20.000Z</time>
      </trkpt>
      <trkpt lat="50.614950" lon="26.290226">
        <ele>241.827143</ele>
        <time>2019-06-06T06:37:22.000Z</time>
      </trkpt>
      <trkpt lat="50.614930" lon="26.290428">
        <ele>241.583868</ele>
        <time>2019-06-06T06:37:25.000Z</time>
      </trkpt>
      <trkpt lat="50.614920" lon="26.290577">
        <ele>241.405580</ele>
        <time>2019-06-06T06:37:27.000Z</time>
      </trkpt>
      <trkpt lat="50.614906" lon="26.290724">
        <ele>241.228701</ele>
        <time>2019-06-06T06:37:29.000Z</time>
      </trkpt>
      <trkpt lat="50.614887" lon="26.290867">
        <ele>241.054850</ele>
        <time>2019-06-06T06:37:31.000Z</time>
      </trkpt>
      <trkpt lat="50.614864" lon="26.291075">
        <ele>240.803614</ele>
        <time>2019-06-06T06:37:34.000Z</time>
      </trkpt>
      <trkpt lat="50.614857" lon="26.291222">
        <ele>240.589579</ele>
        <time>2019-06-06T06:37:36.000Z</time>
      </trkpt>
      <trkpt lat="50.614845" lon="26.291363">
        <ele>240.362994</ele>
        <time>2019-06-06T06:37:38.000Z</time>
      </trkpt>
      <trkpt lat="50.614830" lon="26.291504">
        <ele>240.135286</ele>
        <time>2019-06-06T06:37:40.000Z</time>
      </trkpt>
      <trkpt lat="50.614820" lon="26.291645">
        <ele>239.909313</ele>
        <time>2019-06-06T06:37:42.000Z</time>
      </trkpt>
      <trkpt lat="50.614820" lon="26.291855">
        <ele>239.574841</ele>
        <time>2019-06-06T06:37:45.000Z</time>
      </trkpt>
      <trkpt lat="50.614800" lon="26.291996">
        <ele>239.344725</ele>
        <time>2019-06-06T06:37:47.000Z</time>
      </trkpt>
      <trkpt lat="50.614777" lon="26.292202">
        <ele>239.011583</ele>
        <time>2019-06-06T06:37:50.000Z</time>
      </trkpt>
      <trkpt lat="50.614760" lon="26.292418">
        <ele>238.664918</ele>
        <time>2019-06-06T06:37:53.000Z</time>
      </trkpt>
      <trkpt lat="50.614746" lon="26.292624">
        <ele>238.334940</ele>
        <time>2019-06-06T06:37:56.000Z</time>
      </trkpt>
      <trkpt lat="50.614735" lon="26.292770">
        <ele>238.100769</ele>
        <time>2019-06-06T06:37:58.000Z</time>
      </trkpt>
      <trkpt lat="50.614710" lon="26.292976">
        <ele>237.766720</ele>
        <time>2019-06-06T06:38:01.000Z</time>
      </trkpt>
      <trkpt lat="50.614700" lon="26.293120">
        <ele>237.535998</ele>
        <time>2019-06-06T06:38:03.000Z</time>
      </trkpt>
      <trkpt lat="50.614674" lon="26.293314">
        <ele>237.220192</ele>
        <time>2019-06-06T06:38:06.000Z</time>
      </trkpt>
      <trkpt lat="50.614647" lon="26.293518">
        <ele>236.888282</ele>
        <time>2019-06-06T06:38:09.000Z</time>
      </trkpt>
      <trkpt lat="50.614620" lon="26.293730">
        <ele>236.543890</ele>
        <time>2019-06-06T06:38:12.000Z</time>
      </trkpt>
      <trkpt lat="50.614610" lon="26.293884">
        <ele>236.297328</ele>
        <time>2019-06-06T06:38:14.000Z</time>
      </trkpt>
      <trkpt lat="50.614600" lon="26.294027">
        <ele>236.354232</ele>
        <time>2019-06-06T06:38:16.000Z</time>
      </trkpt>
      <trkpt lat="50.614590" lon="26.294176">
        <ele>236.543900</ele>
        <time>2019-06-06T06:38:18.000Z</time>
      </trkpt>
      <trkpt lat="50.614570" lon="26.294424">
        <ele>236.860362</ele>
        <time>2019-06-06T06:38:22.000Z</time>
      </trkpt>
      <trkpt lat="50.614555" lon="26.294592">
        <ele>237.075124</ele>
        <time>2019-06-06T06:38:25.000Z</time>
      </trkpt>
      <trkpt lat="50.614544" lon="26.294754">
        <ele>237.281367</ele>
        <time>2019-06-06T06:38:28.000Z</time>
      </trkpt>
      <trkpt lat="50.614530" lon="26.294910">
        <ele>237.480809</ele>
        <time>2019-06-06T06:38:31.000Z</time>
      </trkpt>
      <trkpt lat="50.614510" lon="26.295070">
        <ele>237.687242</ele>
        <time>2019-06-06T06:38:34.000Z</time>
      </trkpt>
      <trkpt lat="50.614500" lon="26.295235">
        <ele>237.897062</ele>
        <time>2019-06-06T06:38:37.000Z</time>
      </trkpt>
      <trkpt lat="50.614483" lon="26.295390">
        <ele>238.096183</ele>
        <time>2019-06-06T06:38:40.000Z</time>
      </trkpt>
      <trkpt lat="50.614470" lon="26.295559">
        <ele>238.311682</ele>
        <time>2019-06-06T06:38:43.000Z</time>
      </trkpt>
      <trkpt lat="50.614460" lon="26.295732">
        <ele>238.531586</ele>
        <time>2019-06-06T06:38:46.000Z</time>
      </trkpt>
      <trkpt lat="50.614452" lon="26.295906">
        <ele>238.752426</ele>
        <time>2019-06-06T06:38:49.000Z</time>
      </trkpt>
      <trkpt lat="50.614437" lon="26.296074">
        <ele>238.967189</ele>
        <time>2019-06-06T06:38:52.000Z</time>
      </trkpt>
      <trkpt lat="50.614433" lon="26.296230">
        <ele>239.164827</ele>
        <time>2019-06-06T06:38:55.000Z</time>
      </trkpt>
      <trkpt lat="50.614420" lon="26.296394">
        <ele>239.374045</ele>
        <time>2019-06-06T06:38:58.000Z</time>
      </trkpt>
      <trkpt lat="50.614414" lon="26.296568">
        <ele>239.594633</ele>
        <time>2019-06-06T06:39:01.000Z</time>
      </trkpt>
      <trkpt lat="50.614400" lon="26.296734">
        <ele>239.806617</ele>
        <time>2019-06-06T06:39:04.000Z</time>
      </trkpt>
      <trkpt lat="50.614380" lon="26.296902">
        <ele>239.935400</ele>
        <time>2019-06-06T06:39:07.000Z</time>
      </trkpt>
      <trkpt lat="50.614360" lon="26.297075">
        <ele>240.063893</ele>
        <time>2019-06-06T06:39:10.000Z</time>
      </trkpt>
      <trkpt lat="50.614338" lon="26.297264">
        <ele>240.204301</ele>
        <time>2019-06-06T06:39:13.000Z</time>
      </trkpt>
      <trkpt lat="50.614315" lon="26.297445">
        <ele>240.339185</ele>
        <time>2019-06-06T06:39:16.000Z</time>
      </trkpt>
      <trkpt lat="50.614304" lon="26.297626">
        <ele>240.472048</ele>
        <time>2019-06-06T06:39:19.000Z</time>
      </trkpt>
      <trkpt lat="50.614290" lon="26.297820">
        <ele>240.614719</ele>
        <time>2019-06-06T06:39:22.000Z</time>
      </trkpt>
      <trkpt lat="50.614260" lon="26.298002">
        <ele>240.752121</ele>
        <time>2019-06-06T06:39:25.000Z</time>
      </trkpt>
      <trkpt lat="50.614240" lon="26.298180">
        <ele>240.884210</ele>
        <time>2019-06-06T06:39:28.000Z</time>
      </trkpt>
      <trkpt lat="50.614212" lon="26.298359">
        <ele>241.018923</ele>
        <time>2019-06-06T06:39:31.000Z</time>
      </trkpt>
      <trkpt lat="50.614185" lon="26.298544">
        <ele>241.157633</ele>
        <time>2019-06-06T06:39:34.000Z</time>
      </trkpt>
      <trkpt lat="50.614178" lon="26.298729">
        <ele>241.293055</ele>
        <time>2019-06-06T06:39:37.000Z</time>
      </trkpt>
      <trkpt lat="50.614170" lon="26.298910">
        <ele>241.425633</ele>
        <time>2019-06-06T06:39:40.000Z</time>
      </trkpt>
      <trkpt lat="50.614150" lon="26.299097">
        <ele>241.564203</ele>
        <time>2019-06-06T06:39:43.000Z</time>
      </trkpt>
      <trkpt lat="50.614132" lon="26.299282">
        <ele>241.700964</ele>
        <time>2019-06-06T06:39:46.000Z</time>
      </trkpt>
      <trkpt lat="50.614120" lon="26.299477">
        <ele>241.844121</ele>
        <time>2019-06-06T06:39:49.000Z</time>
      </trkpt>
      <trkpt lat="50.614113" lon="26.299683">
        <ele>241.860395</ele>
        <time>2019-06-06T06:39:52.000Z</time>
      </trkpt>
      <trkpt lat="50.614098" lon="26.299868">
        <ele>241.826714</ele>
        <time>2019-06-06T06:39:55.000Z</time>
      </trkpt>
      <trkpt lat="50.614082" lon="26.300056">
        <ele>241.792459</ele>
        <time>2019-06-06T06:39:58.000Z</time>
      </trkpt>
      <trkpt lat="50.614056" lon="26.300245">
        <ele>241.757535</ele>
        <time>2019-06-06T06:40:01.000Z</time>
      </trkpt>
      <trkpt lat="50.614040" lon="26.300440">
        <ele>241.722027</ele>
        <time>2019-06-06T06:40:04.000Z</time>
      </trkpt>
      <trkpt lat="50.614025" lon="26.300634">
        <ele>241.686733</ele>
        <time>2019-06-06T06:40:07.000Z</time>
      </trkpt>
      <trkpt lat="50.614002" lon="26.300833">
        <ele>241.650205</ele>
        <time>2019-06-06T06:40:10.000Z</time>
      </trkpt>
      <trkpt lat="50.613987" lon="26.300974">
        <ele>241.624386</ele>
        <time>2019-06-06T06:40:12.000Z</time>
      </trkpt>
      <trkpt lat="50.613968" lon="26.301117">
        <ele>241.598002</ele>
        <time>2019-06-06T06:40:14.000Z</time>
      </trkpt>
      <trkpt lat="50.613956" lon="26.301260">
        <ele>241.571953</ele>
        <time>2019-06-06T06:40:16.000Z</time>
      </trkpt>
      <trkpt lat="50.613945" lon="26.301409">
        <ele>241.544863</ele>
        <time>2019-06-06T06:40:18.000Z</time>
      </trkpt>
      <trkpt lat="50.613930" lon="26.301554">
        <ele>241.518332</ele>
        <time>2019-06-06T06:40:20.000Z</time>
      </trkpt>
      <trkpt lat="50.613922" lon="26.301752">
        <ele>241.482503</ele>
        <time>2019-06-06T06:40:23.000Z</time>
      </trkpt>
      <trkpt lat="50.613907" lon="26.301928">
        <ele>241.450434</ele>
        <time>2019-06-06T06:40:26.000Z</time>
      </trkpt>
      <trkpt lat="50.613884" lon="26.302109">
        <ele>241.417098</ele>
        <time>2019-06-06T06:40:29.000Z</time>
      </trkpt>
      <trkpt lat="50.613865" lon="26.302317">
        <ele>241.379148</ele>
        <time>2019-06-06T06:40:32.000Z</time>
      </trkpt>
      <trkpt lat="50.613842" lon="26.302523">
        <ele>241.203323</ele>
        <time>2019-06-06T06:40:35.000Z</time>
      </trkpt>
      <trkpt lat="50.613830" lon="26.302668">
        <ele>241.068981</ele>
        <time>2019-06-06T06:40:37.000Z</time>
      </trkpt>
      <trkpt lat="50.613820" lon="26.302813">
        <ele>240.934983</ele>
        <time>2019-06-06T06:40:39.000Z</time>
      </trkpt>
      <trkpt lat="50.613800" lon="26.302960">
        <ele>240.796862</ele>
        <time>2019-06-06T06:40:41.000Z</time>
      </trkpt>
      <trkpt lat="50.613780" lon="26.303100">
        <ele>240.665023</ele>
        <time>2019-06-06T06:40:43.000Z</time>
      </trkpt>
      <trkpt lat="50.613766" lon="26.303251">
        <ele>240.524823</ele>
        <time>2019-06-06T06:40:45.000Z</time>
      </trkpt>
      <trkpt lat="50.613758" lon="26.303398">
        <ele>240.389276</ele>
        <time>2019-06-06T06:40:47.000Z</time>
      </trkpt>
      <trkpt lat="50.613747" lon="26.303541">
        <ele>240.256938</ele>
        <time>2019-06-06T06:40:49.000Z</time>
      </trkpt>
      <trkpt lat="50.613728" lon="26.303686">
        <ele>240.120913</ele>
        <time>2019-06-06T06:40:51.000Z</time>
      </trkpt>
      <trkpt lat="50.613716" lon="26.303835">
        <ele>239.982926</ele>
        <time>2019-06-06T06:40:53.000Z</time>
      </trkpt>
      <trkpt lat="50.613710" lon="26.303988">
        <ele>239.842094</ele>
        <time>2019-06-06T06:40:55.000Z</time>
      </trkpt>
      <trkpt lat="50.613697" lon="26.304132">
        <ele>239.708466</ele>
        <time>2019-06-06T06:40:57.000Z</time>
      </trkpt>
      <trkpt lat="50.613697" lon="26.304283">
        <ele>239.569739</ele>
        <time>2019-06-06T06:40:59.000Z</time>
      </trkpt>
      <trkpt lat="50.613690" lon="26.304495">
        <ele>239.374708</ele>
        <time>2019-06-06T06:41:02.000Z</time>
      </trkpt>
      <trkpt lat="50.613667" lon="26.304636">
        <ele>239.240956</ele>
        <time>2019-06-06T06:41:04.000Z</time>
      </trkpt>
      <trkpt lat="50.613636" lon="26.304829">
        <ele>239.058051</ele>
        <time>2019-06-06T06:41:07.000Z</time>
      </trkpt>
      <trkpt lat="50.613625" lon="26.304974">
        <ele>238.923888</ele>
        <time>2019-06-06T06:41:09.000Z</time>
      </trkpt>
      <trkpt lat="50.613620" lon="26.305120">
        <ele>238.789560</ele>
        <time>2019-06-06T06:41:11.000Z</time>
      </trkpt>
      <trkpt lat="50.613610" lon="26.305271">
        <ele>238.809541</ele>
        <time>2019-06-06T06:41:13.000Z</time>
      </trkpt>
      <trkpt lat="50.613590" lon="26.305412">
        <ele>238.851835</ele>
        <time>2019-06-06T06:41:15.000Z</time>
      </trkpt>
      <trkpt lat="50.613570" lon="26.305609">
        <ele>238.910237</ele>
        <time>2019-06-06T06:41:18.000Z</time>
      </trkpt>
      <trkpt lat="50.613556" lon="26.305754">
        <ele>238.953171</ele>
        <time>2019-06-06T06:41:20.000Z</time>
      </trkpt>
      <trkpt lat="50.613530" lon="26.305954">
        <ele>239.012934</ele>
        <time>2019-06-06T06:41:23.000Z</time>
      </trkpt>
      <trkpt lat="50.613518" lon="26.306154">
        <ele>239.071742</ele>
        <time>2019-06-06T06:41:26.000Z</time>
      </trkpt>
      <trkpt lat="50.613500" lon="26.306345">
        <ele>239.128267</ele>
        <time>2019-06-06T06:41:29.000Z</time>
      </trkpt>
      <trkpt lat="50.613487" lon="26.306538">
        <ele>239.185082</ele>
        <time>2019-06-06T06:41:32.000Z</time>
      </trkpt>
      <trkpt lat="50.613464" lon="26.306725">
        <ele>239.240842</ele>
        <time>2019-06-06T06:41:35.000Z</time>
      </trkpt>
      <trkpt lat="50.613450" lon="26.306906">
        <ele>239.294218</ele>
        <time>2019-06-06T06:41:38.000Z</time>
      </trkpt>
      <trkpt lat="50.613438" lon="26.307087">
        <ele>239.347492</ele>
        <time>2019-06-06T06:41:41.000Z</time>
      </trkpt>
      <trkpt lat="50.613420" lon="26.307253">
        <ele>239.396790</ele>
        <time>2019-06-06T06:41:44.000Z</time>
      </trkpt>
      <trkpt lat="50.613400" lon="26.307428">
        <ele>239.448842</ele>
        <time>2019-06-06T06:41:47.000Z</time>
      </trkpt>
      <trkpt lat="50.613380" lon="26.307604">
        <ele>239.501183</ele>
        <time>2019-06-06T06:41:50.000Z</time>
      </trkpt>
      <trkpt lat="50.613365" lon="26.307787">
        <ele>239.555198</ele>
        <time>2019-06-06T06:41:53.000Z</time>
      </trkpt>
      <trkpt lat="50.613354" lon="26.307962">
        <ele>239.630860</ele>
        <time>2019-06-06T06:41:56.000Z</time>
      </trkpt>
      <trkpt lat="50.613342" lon="26.308125">
        <ele>239.875459</ele>
        <time>2019-06-06T06:41:59.000Z</time>
      </trkpt>
      <trkpt lat="50.613330" lon="26.308287">
        <ele>240.118578</ele>
        <time>2019-06-06T06:42:02.000Z</time>
      </trkpt>
      <trkpt lat="50.613293" lon="26.308420">
        <ele>240.335045</ele>
        <time>2019-06-06T06:42:05.000Z</time>
      </trkpt>
      <trkpt lat="50.613216" lon="26.308502">
        <ele>240.553350</ele>
        <time>2019-06-06T06:42:09.000Z</time>
      </trkpt>
      <trkpt lat="50.613182" lon="26.308670">
        <ele>240.816201</ele>
        <time>2019-06-06T06:42:13.000Z</time>
      </trkpt>
      <trkpt lat="50.613170" lon="26.308817">
        <ele>241.037127</ele>
        <time>2019-06-06T06:42:16.000Z</time>
      </trkpt>
      <trkpt lat="50.613160" lon="26.308989">
        <ele>241.294587</ele>
        <time>2019-06-06T06:42:19.000Z</time>
      </trkpt>
      <trkpt lat="50.613144" lon="26.309155">
        <ele>241.544867</ele>
        <time>2019-06-06T06:42:22.000Z</time>
      </trkpt>
      <trkpt lat="50.613117" lon="26.309319">
        <ele>241.797422</ele>
        <time>2019-06-06T06:42:25.000Z</time>
      </trkpt>
      <trkpt lat="50.613102" lon="26.309475">
        <ele>242.032612</ele>
        <time>2019-06-06T06:42:28.000Z</time>
      </trkpt>
      <trkpt lat="50.613083" lon="26.309622">
        <ele>242.256232</ele>
        <time>2019-06-06T06:42:31.000Z</time>
      </trkpt>
      <trkpt lat="50.613080" lon="26.309767">
        <ele>242.472487</ele>
        <time>2019-06-06T06:42:35.000Z</time>
      </trkpt>
      <trkpt lat="50.613068" lon="26.309908">
        <ele>242.684546</ele>
        <time>2019-06-06T06:42:41.000Z</time>
      </trkpt>
      <trkpt lat="50.613030" lon="26.310060">
        <ele>242.928070</ele>
        <time>2019-06-06T06:42:46.000Z</time>
      </trkpt>
      <trkpt lat="50.613083" lon="26.310173">
        <ele>243.137527</ele>
        <time>2019-06-06T06:42:57.000Z</time>
      </trkpt>
      <trkpt lat="50.613106" lon="26.310324">
        <ele>243.369004</ele>
        <time>2019-06-06T06:43:07.000Z</time>
      </trkpt>
      <trkpt lat="50.613106" lon="26.310474">
        <ele>243.592597</ele>
        <time>2019-06-06T06:43:15.000Z</time>
      </trkpt>
      <trkpt lat="50.613070" lon="26.310623">
        <ele>243.835826</ele>
        <time>2019-06-06T06:43:27.000Z</time>
      </trkpt>
      <trkpt lat="50.613020" lon="26.310776">
        <ele>244.422278</ele>
        <time>2019-06-06T06:43:32.000Z</time>
      </trkpt>
      <trkpt lat="50.613010" lon="26.310923">
        <ele>244.926075</ele>
        <time>2019-06-06T06:43:36.000Z</time>
      </trkpt>
      <trkpt lat="50.613007" lon="26.311075">
        <ele>245.444291</ele>
        <time>2019-06-06T06:43:40.000Z</time>
      </trkpt>
      <trkpt lat="50.612988" lon="26.311216">
        <ele>245.935486</ele>
        <time>2019-06-06T06:43:44.000Z</time>
      </trkpt>
      <trkpt lat="50.612976" lon="26.311369">
        <ele>246.460827</ele>
        <time>2019-06-06T06:43:50.000Z</time>
      </trkpt>
      <trkpt lat="50.612953" lon="26.311530">
        <ele>247.023193</ele>
        <time>2019-06-06T06:43:57.000Z</time>
      </trkpt>
      <trkpt lat="50.613000" lon="26.311653">
        <ele>247.512464</ele>
        <time>2019-06-06T06:44:19.000Z</time>
      </trkpt>
      <trkpt lat="50.613100" lon="26.311703">
        <ele>248.075862</ele>
        <time>2019-06-06T06:44:26.000Z</time>
      </trkpt>
      <trkpt lat="50.613102" lon="26.311850">
        <ele>248.576903</ele>
        <time>2019-06-06T06:44:37.000Z</time>
      </trkpt>
      <trkpt lat="50.613094" lon="26.312020">
        <ele>249.157796</ele>
        <time>2019-06-06T06:44:43.000Z</time>
      </trkpt>
      <trkpt lat="50.613130" lon="26.312164">
        <ele>249.685209</ele>
        <time>2019-06-06T06:44:49.000Z</time>
      </trkpt>
      <trkpt lat="50.613220" lon="26.312197">
        <ele>250.181434</ele>
        <time>2019-06-06T06:44:54.000Z</time>
      </trkpt>
      <trkpt lat="50.613308" lon="26.312252">
        <ele>250.689817</ele>
        <time>2019-06-06T06:45:01.000Z</time>
      </trkpt>
      <trkpt lat="50.613365" lon="26.312128">
        <ele>251.211586</ele>
        <time>2019-06-06T06:46:59.000Z</time>
      </trkpt>
      <trkpt lat="50.613422" lon="26.312252">
        <ele>251.733355</ele>
        <time>2019-06-06T06:54:18.000Z</time>
      </trkpt>
      <trkpt lat="50.613525" lon="26.312263">
        <ele>252.287751</ele>
        <time>2019-06-06T06:54:24.000Z</time>
      </trkpt>
      <trkpt lat="50.613620" lon="26.312286">
        <ele>252.803902</ele>
        <time>2019-06-06T06:54:30.000Z</time>
      </trkpt>
      <trkpt lat="50.613710" lon="26.312305">
        <ele>253.291534</ele>
        <time>2019-06-06T06:54:36.000Z</time>
      </trkpt>
      <trkpt lat="50.613800" lon="26.312323">
        <ele>253.748006</ele>
        <time>2019-06-06T06:54:43.000Z</time>
      </trkpt>
      <trkpt lat="50.613890" lon="26.312353">
        <ele>254.190360</ele>
        <time>2019-06-06T06:54:50.000Z</time>
      </trkpt>
      <trkpt lat="50.613987" lon="26.312380">
        <ele>254.664019</ele>
        <time>2019-06-06T06:54:58.000Z</time>
      </trkpt>
      <trkpt lat="50.614080" lon="26.312407">
        <ele>255.118749</ele>
        <time>2019-06-06T06:55:06.000Z</time>
      </trkpt>
      <trkpt lat="50.614174" lon="26.312395">
        <ele>255.572243</ele>
        <time>2019-06-06T06:55:16.000Z</time>
      </trkpt>
      <trkpt lat="50.614265" lon="26.312393">
        <ele>256.009873</ele>
        <time>2019-06-06T06:55:24.000Z</time>
      </trkpt>
      <trkpt lat="50.614360" lon="26.312400">
        <ele>256.467194</ele>
        <time>2019-06-06T06:55:32.000Z</time>
      </trkpt>
      <trkpt lat="50.614450" lon="26.312426">
        <ele>256.907184</ele>
        <time>2019-06-06T06:55:39.000Z</time>
      </trkpt>
      <trkpt lat="50.614536" lon="26.312471">
        <ele>257.342927</ele>
        <time>2019-06-06T06:55:47.000Z</time>
      </trkpt>
      <trkpt lat="50.614628" lon="26.312480">
        <ele>257.786174</ele>
        <time>2019-06-06T06:55:54.000Z</time>
      </trkpt>
      <trkpt lat="50.614716" lon="26.312500">
        <ele>258.213713</ele>
        <time>2019-06-06T06:56:00.000Z</time>
      </trkpt>
      <trkpt lat="50.614815" lon="26.312506">
        <ele>258.690122</ele>
        <time>2019-06-06T06:56:07.000Z</time>
      </trkpt>
      <trkpt lat="50.614910" lon="26.312544">
        <ele>259.161428</ele>
        <time>2019-06-06T06:56:15.000Z</time>
      </trkpt>
      <trkpt lat="50.615013" lon="26.312561">
        <ele>259.659428</ele>
        <time>2019-06-06T06:56:23.000Z</time>
      </trkpt>
      <trkpt lat="50.615100" lon="26.312595">
        <ele>260.090452</ele>
        <time>2019-06-06T06:56:31.000Z</time>
      </trkpt>
      <trkpt lat="50.615208" lon="26.312634">
        <ele>260.623245</ele>
        <time>2019-06-06T06:56:39.000Z</time>
      </trkpt>
      <trkpt lat="50.615310" lon="26.312690">
        <ele>261.142638</ele>
        <time>2019-06-06T06:56:45.000Z</time>
      </trkpt>
      <trkpt lat="50.615383" lon="26.312815">
        <ele>261.660990</ele>
        <time>2019-06-06T06:56:49.000Z</time>
      </trkpt>
      <trkpt lat="50.615460" lon="26.312946">
        <ele>262.092481</ele>
        <time>2019-06-06T06:56:53.000Z</time>
      </trkpt>
      <trkpt lat="50.615517" lon="26.313068">
        <ele>261.825492</ele>
        <time>2019-06-06T06:56:58.000Z</time>
      </trkpt>
      <trkpt lat="50.615460" lon="26.312956">
        <ele>261.572477</ele>
        <time>2019-06-06T07:29:11.000Z</time>
      </trkpt>
      <trkpt lat="50.615383" lon="26.312860">
        <ele>261.299800</ele>
        <time>2019-06-06T07:29:22.000Z</time>
      </trkpt>
      <trkpt lat="50.615322" lon="26.312750">
        <ele>261.042353</ele>
        <time>2019-06-06T07:29:30.000Z</time>
      </trkpt>
      <trkpt lat="50.615253" lon="26.312641">
        <ele>260.771023</ele>
        <time>2019-06-06T07:29:38.000Z</time>
      </trkpt>
      <trkpt lat="50.615166" lon="26.312595">
        <ele>260.516162</ele>
        <time>2019-06-06T07:29:46.000Z</time>
      </trkpt>
      <trkpt lat="50.615070" lon="26.312578">
        <ele>260.247865</ele>
        <time>2019-06-06T07:29:55.000Z</time>
      </trkpt>
      <trkpt lat="50.614906" lon="26.312550">
        <ele>259.789724</ele>
        <time>2019-06-06T07:30:38.000Z</time>
      </trkpt>
      <trkpt lat="50.614810" lon="26.312538">
        <ele>259.522267</ele>
        <time>2019-06-06T07:30:48.000Z</time>
      </trkpt>
      <trkpt lat="50.614720" lon="26.312530">
        <ele>259.271913</ele>
        <time>2019-06-06T07:30:56.000Z</time>
      </trkpt>
      <trkpt lat="50.614628" lon="26.312520">
        <ele>259.015795</ele>
        <time>2019-06-06T07:31:04.000Z</time>
      </trkpt>
      <trkpt lat="50.614532" lon="26.312504">
        <ele>258.747688</ele>
        <time>2019-06-06T07:31:13.000Z</time>
      </trkpt>
      <trkpt lat="50.614437" lon="26.312470">
        <ele>258.477128</ele>
        <time>2019-06-06T07:31:22.000Z</time>
      </trkpt>
      <trkpt lat="50.614338" lon="26.312456">
        <ele>258.201071</ele>
        <time>2019-06-06T07:31:29.000Z</time>
      </trkpt>
      <trkpt lat="50.614246" lon="26.312426">
        <ele>257.940148</ele>
        <time>2019-06-06T07:31:37.000Z</time>
      </trkpt>
      <trkpt lat="50.614090" lon="26.312393">
        <ele>257.503005</ele>
        <time>2019-06-06T07:43:15.000Z</time>
      </trkpt>
      <trkpt lat="50.613953" lon="26.312351">
        <ele>257.131844</ele>
        <time>2019-06-06T07:45:56.000Z</time>
      </trkpt>
      <trkpt lat="50.613834" lon="26.312346">
        <ele>257.035359</ele>
        <time>2019-06-06T07:45:59.000Z</time>
      </trkpt>
      <trkpt lat="50.613730" lon="26.312325">
        <ele>256.950378</ele>
        <time>2019-06-06T07:46:01.000Z</time>
      </trkpt>
      <trkpt lat="50.613632" lon="26.312294">
        <ele>256.869364</ele>
        <time>2019-06-06T07:46:03.000Z</time>
      </trkpt>
      <trkpt lat="50.613530" lon="26.312265">
        <ele>256.785358</ele>
        <time>2019-06-06T07:46:05.000Z</time>
      </trkpt>
      <trkpt lat="50.613430" lon="26.312239">
        <ele>256.703211</ele>
        <time>2019-06-06T07:46:07.000Z</time>
      </trkpt>
      <trkpt lat="50.613340" lon="26.312210">
        <ele>256.628757</ele>
        <time>2019-06-06T07:46:09.000Z</time>
      </trkpt>
      <trkpt lat="50.613220" lon="26.312197">
        <ele>256.531267</ele>
        <time>2019-06-06T07:46:12.000Z</time>
      </trkpt>
      <trkpt lat="50.613106" lon="26.312222">
        <ele>256.437979</ele>
        <time>2019-06-06T07:46:16.000Z</time>
      </trkpt>
      <trkpt lat="50.613068" lon="26.312347">
        <ele>256.366693</ele>
        <time>2019-06-06T07:46:21.000Z</time>
      </trkpt>
      <trkpt lat="50.613056" lon="26.312498">
        <ele>256.288426</ele>
        <time>2019-06-06T07:46:25.000Z</time>
      </trkpt>
      <trkpt lat="50.613040" lon="26.312653">
        <ele>256.207660</ele>
        <time>2019-06-06T07:46:30.000Z</time>
      </trkpt>
      <trkpt lat="50.613026" lon="26.312807">
        <ele>256.127647</ele>
        <time>2019-06-06T07:46:34.000Z</time>
      </trkpt>
      <trkpt lat="50.613010" lon="26.312954">
        <ele>256.050940</ele>
        <time>2019-06-06T07:46:38.000Z</time>
      </trkpt>
      <trkpt lat="50.613000" lon="26.313100">
        <ele>255.975414</ele>
        <time>2019-06-06T07:46:42.000Z</time>
      </trkpt>
      <trkpt lat="50.612995" lon="26.313260">
        <ele>255.893025</ele>
        <time>2019-06-06T07:46:46.000Z</time>
      </trkpt>
      <trkpt lat="50.612972" lon="26.313420">
        <ele>255.808650</ele>
        <time>2019-06-06T07:46:50.000Z</time>
      </trkpt>
      <trkpt lat="50.612953" lon="26.313593">
        <ele>255.718351</ele>
        <time>2019-06-06T07:46:55.000Z</time>
      </trkpt>
      <trkpt lat="50.612930" lon="26.313766">
        <ele>256.025540</ele>
        <time>2019-06-06T07:47:00.000Z</time>
      </trkpt>
      <trkpt lat="50.612915" lon="26.313940">
        <ele>256.608840</ele>
        <time>2019-06-06T07:47:05.000Z</time>
      </trkpt>
      <trkpt lat="50.612896" lon="26.314089">
        <ele>257.113681</ele>
        <time>2019-06-06T07:47:09.000Z</time>
      </trkpt>
      <trkpt lat="50.612885" lon="26.314243">
        <ele>257.628468</ele>
        <time>2019-06-06T07:47:13.000Z</time>
      </trkpt>
      <trkpt lat="50.612880" lon="26.314390">
        <ele>258.117472</ele>
        <time>2019-06-06T07:47:17.000Z</time>
      </trkpt>
      <trkpt lat="50.612865" lon="26.314535">
        <ele>258.605490</ele>
        <time>2019-06-06T07:47:21.000Z</time>
      </trkpt>
      <trkpt lat="50.612854" lon="26.314707">
        <ele>259.179733</ele>
        <time>2019-06-06T07:47:26.000Z</time>
      </trkpt>
      <trkpt lat="50.612830" lon="26.314878">
        <ele>259.761487</ele>
        <time>2019-06-06T07:47:31.000Z</time>
      </trkpt>
      <trkpt lat="50.612820" lon="26.315042">
        <ele>260.308771</ele>
        <time>2019-06-06T07:47:36.000Z</time>
      </trkpt>
      <trkpt lat="50.612810" lon="26.315191">
        <ele>260.806479</ele>
        <time>2019-06-06T07:47:41.000Z</time>
      </trkpt>
      <trkpt lat="50.612793" lon="26.315348">
        <ele>261.335539</ele>
        <time>2019-06-06T07:47:46.000Z</time>
      </trkpt>
      <trkpt lat="50.612710" lon="26.315422">
        <ele>261.834744</ele>
        <time>2019-06-06T07:47:51.000Z</time>
      </trkpt>
      <trkpt lat="50.612656" lon="26.315552">
        <ele>262.350874</ele>
        <time>2019-06-06T07:47:55.000Z</time>
      </trkpt>
      <trkpt lat="50.612637" lon="26.315693">
        <ele>262.829692</ele>
        <time>2019-06-06T07:47:59.000Z</time>
      </trkpt>
      <trkpt lat="50.612614" lon="26.315845">
        <ele>263.348764</ele>
        <time>2019-06-06T07:48:03.000Z</time>
      </trkpt>
      <trkpt lat="50.612610" lon="26.316002">
        <ele>263.870708</ele>
        <time>2019-06-06T07:48:07.000Z</time>
      </trkpt>
      <trkpt lat="50.612600" lon="26.316153">
        <ele>264.375026</ele>
        <time>2019-06-06T07:48:11.000Z</time>
      </trkpt>
      <trkpt lat="50.612583" lon="26.316301">
        <ele>264.874643</ele>
        <time>2019-06-06T07:48:15.000Z</time>
      </trkpt>
      <trkpt lat="50.612560" lon="26.316471">
        <ele>265.191644</ele>
        <time>2019-06-06T07:48:19.000Z</time>
      </trkpt>
      <trkpt lat="50.612534" lon="26.316631">
        <ele>265.338585</ele>
        <time>2019-06-06T07:48:25.000Z</time>
      </trkpt>
      <trkpt lat="50.612507" lon="26.316770">
        <ele>265.467914</ele>
        <time>2019-06-06T07:48:29.000Z</time>
      </trkpt>
      <trkpt lat="50.612450" lon="26.316916">
        <ele>265.620422</ele>
        <time>2019-06-06T07:48:33.000Z</time>
      </trkpt>
      <trkpt lat="50.612410" lon="26.317045">
        <ele>265.748160</ele>
        <time>2019-06-06T07:48:38.000Z</time>
      </trkpt>
      <trkpt lat="50.612316" lon="26.317204">
        <ele>265.941497</ele>
        <time>2019-06-06T07:49:16.000Z</time>
      </trkpt>
      <trkpt lat="50.612297" lon="26.317364">
        <ele>266.086317</ele>
        <time>2019-06-06T07:49:21.000Z</time>
      </trkpt>
      <trkpt lat="50.612324" lon="26.317510">
        <ele>266.221614</ele>
        <time>2019-06-06T07:49:25.000Z</time>
      </trkpt>
      <trkpt lat="50.612380" lon="26.317661">
        <ele>266.377216</ele>
        <time>2019-06-06T07:49:29.000Z</time>
      </trkpt>
      <trkpt lat="50.612404" lon="26.317800">
        <ele>266.505377</ele>
        <time>2019-06-06T07:49:32.000Z</time>
      </trkpt>
      <trkpt lat="50.612423" lon="26.317951">
        <ele>266.642334</ele>
        <time>2019-06-06T07:49:35.000Z</time>
      </trkpt>
      <trkpt lat="50.612423" lon="26.318140">
        <ele>266.810482</ele>
        <time>2019-06-06T07:49:39.000Z</time>
      </trkpt>
      <trkpt lat="50.612415" lon="26.318298">
        <ele>266.951498</ele>
        <time>2019-06-06T07:49:42.000Z</time>
      </trkpt>
      <trkpt lat="50.612400" lon="26.318450">
        <ele>267.088355</ele>
        <time>2019-06-06T07:49:45.000Z</time>
      </trkpt>
      <trkpt lat="50.612373" lon="26.318604">
        <ele>267.230498</ele>
        <time>2019-06-06T07:49:48.000Z</time>
      </trkpt>
      <trkpt lat="50.612354" lon="26.318754">
        <ele>267.366582</ele>
        <time>2019-06-06T07:49:51.000Z</time>
      </trkpt>
      <trkpt lat="50.612340" lon="26.318914">
        <ele>267.510278</ele>
        <time>2019-06-06T07:49:54.000Z</time>
      </trkpt>
      <trkpt lat="50.612324" lon="26.319088">
        <ele>267.673333</ele>
        <time>2019-06-06T07:49:57.000Z</time>
      </trkpt>
      <trkpt lat="50.612312" lon="26.319262">
        <ele>267.850323</ele>
        <time>2019-06-06T07:50:00.000Z</time>
      </trkpt>
      <trkpt lat="50.612270" lon="26.319433">
        <ele>268.035744</ele>
        <time>2019-06-06T07:50:03.000Z</time>
      </trkpt>
      <trkpt lat="50.612244" lon="26.319601">
        <ele>268.210610</ele>
        <time>2019-06-06T07:50:06.000Z</time>
      </trkpt>
      <trkpt lat="50.612225" lon="26.319765">
        <ele>268.379193</ele>
        <time>2019-06-06T07:50:09.000Z</time>
      </trkpt>
      <trkpt lat="50.612206" lon="26.319935">
        <ele>268.553749</ele>
        <time>2019-06-06T07:50:12.000Z</time>
      </trkpt>
      <trkpt lat="50.612198" lon="26.320099">
        <ele>268.720080</ele>
        <time>2019-06-06T07:50:15.000Z</time>
      </trkpt>
      <trkpt lat="50.612220" lon="26.320257">
        <ele>268.883656</ele>
        <time>2019-06-06T07:50:18.000Z</time>
      </trkpt>
      <trkpt lat="50.612217" lon="26.320412">
        <ele>269.040469</ele>
        <time>2019-06-06T07:50:21.000Z</time>
      </trkpt>
      <trkpt lat="50.612194" lon="26.320583">
        <ele>269.217232</ele>
        <time>2019-06-06T07:50:24.000Z</time>
      </trkpt>
      <trkpt lat="50.612152" lon="26.320732">
        <ele>269.382102</ele>
        <time>2019-06-06T07:50:27.000Z</time>
      </trkpt>
      <trkpt lat="50.612137" lon="26.320892">
        <ele>269.545655</ele>
        <time>2019-06-06T07:50:30.000Z</time>
      </trkpt>
      <trkpt lat="50.612125" lon="26.321058">
        <ele>269.714606</ele>
        <time>2019-06-06T07:50:33.000Z</time>
      </trkpt>
      <trkpt lat="50.612114" lon="26.321218">
        <ele>269.877350</ele>
        <time>2019-06-06T07:50:36.000Z</time>
      </trkpt>
      <trkpt lat="50.612118" lon="26.321373">
        <ele>270.034221</ele>
        <time>2019-06-06T07:50:39.000Z</time>
      </trkpt>
      <trkpt lat="50.612114" lon="26.321527">
        <ele>270.190081</ele>
        <time>2019-06-06T07:50:42.000Z</time>
      </trkpt>
      <trkpt lat="50.612110" lon="26.321682">
        <ele>270.346952</ele>
        <time>2019-06-06T07:50:45.000Z</time>
      </trkpt>
      <trkpt lat="50.612083" lon="26.321844">
        <ele>270.512187</ele>
        <time>2019-06-06T07:50:48.000Z</time>
      </trkpt>
      <trkpt lat="50.612076" lon="26.322002">
        <ele>270.651561</ele>
        <time>2019-06-06T07:50:51.000Z</time>
      </trkpt>
      <trkpt lat="50.612057" lon="26.322170">
        <ele>270.801727</ele>
        <time>2019-06-06T07:50:54.000Z</time>
      </trkpt>
      <trkpt lat="50.612053" lon="26.322330">
        <ele>270.942632</ele>
        <time>2019-06-06T07:50:57.000Z</time>
      </trkpt>
      <trkpt lat="50.612040" lon="26.322489">
        <ele>271.083705</ele>
        <time>2019-06-06T07:51:00.000Z</time>
      </trkpt>
      <trkpt lat="50.612030" lon="26.322668">
        <ele>271.241829</ele>
        <time>2019-06-06T07:51:04.000Z</time>
      </trkpt>
      <trkpt lat="50.612003" lon="26.322807">
        <ele>271.369748</ele>
        <time>2019-06-06T07:51:07.000Z</time>
      </trkpt>
      <trkpt lat="50.611996" lon="26.322954">
        <ele>271.499469</ele>
        <time>2019-06-06T07:51:10.000Z</time>
      </trkpt>
      <trkpt lat="50.611984" lon="26.323105">
        <ele>271.633383</ele>
        <time>2019-06-06T07:51:13.000Z</time>
      </trkpt>
      <trkpt lat="50.611970" lon="26.323252">
        <ele>271.764189</ele>
        <time>2019-06-06T07:51:16.000Z</time>
      </trkpt>
      <trkpt lat="50.611954" lon="26.323399">
        <ele>271.895434</ele>
        <time>2019-06-06T07:51:19.000Z</time>
      </trkpt>
      <trkpt lat="50.611942" lon="26.323551">
        <ele>272.030222</ele>
        <time>2019-06-06T07:51:22.000Z</time>
      </trkpt>
      <trkpt lat="50.611930" lon="26.323710">
        <ele>272.171125</ele>
        <time>2019-06-06T07:51:25.000Z</time>
      </trkpt>
      <trkpt lat="50.611910" lon="26.323883">
        <ele>272.325867</ele>
        <time>2019-06-06T07:51:28.000Z</time>
      </trkpt>
      <trkpt lat="50.611890" lon="26.324053">
        <ele>272.478012</ele>
        <time>2019-06-06T07:51:31.000Z</time>
      </trkpt>
      <trkpt lat="50.611870" lon="26.324219">
        <ele>272.626698</ele>
        <time>2019-06-06T07:51:34.000Z</time>
      </trkpt>
      <trkpt lat="50.611860" lon="26.324379">
        <ele>272.768176</ele>
        <time>2019-06-06T07:51:37.000Z</time>
      </trkpt>
      <trkpt lat="50.611855" lon="26.324541">
        <ele>272.910901</ele>
        <time>2019-06-06T07:51:40.000Z</time>
      </trkpt>
      <trkpt lat="50.611847" lon="26.324724">
        <ele>272.855016</ele>
        <time>2019-06-06T07:51:43.000Z</time>
      </trkpt>
      <trkpt lat="50.611830" lon="26.324915">
        <ele>272.630958</ele>
        <time>2019-06-06T07:51:46.000Z</time>
      </trkpt>
      <trkpt lat="50.611805" lon="26.325110">
        <ele>272.399849</ele>
        <time>2019-06-06T07:51:49.000Z</time>
      </trkpt>
      <trkpt lat="50.611782" lon="26.325312">
        <ele>272.161436</ele>
        <time>2019-06-06T07:51:52.000Z</time>
      </trkpt>
      <trkpt lat="50.611763" lon="26.325470">
        <ele>271.974620</ele>
        <time>2019-06-06T07:51:54.000Z</time>
      </trkpt>
      <trkpt lat="50.611736" lon="26.325634">
        <ele>271.777793</ele>
        <time>2019-06-06T07:51:56.000Z</time>
      </trkpt>
      <trkpt lat="50.611720" lon="26.325804">
        <ele>271.578142</ele>
        <time>2019-06-06T07:51:58.000Z</time>
      </trkpt>
      <trkpt lat="50.611710" lon="26.325983">
        <ele>271.369392</ele>
        <time>2019-06-06T07:52:00.000Z</time>
      </trkpt>
      <trkpt lat="50.611702" lon="26.326170">
        <ele>271.151660</ele>
        <time>2019-06-06T07:52:02.000Z</time>
      </trkpt>
      <trkpt lat="50.611683" lon="26.326357">
        <ele>270.931653</ele>
        <time>2019-06-06T07:52:04.000Z</time>
      </trkpt>
      <trkpt lat="50.611668" lon="26.326546">
        <ele>270.710379</ele>
        <time>2019-06-06T07:52:06.000Z</time>
      </trkpt>
      <trkpt lat="50.611650" lon="26.326723">
        <ele>270.502133</ele>
        <time>2019-06-06T07:52:08.000Z</time>
      </trkpt>
      <trkpt lat="50.611637" lon="26.326895">
        <ele>270.300907</ele>
        <time>2019-06-06T07:52:10.000Z</time>
      </trkpt>
      <trkpt lat="50.611620" lon="26.327055">
        <ele>270.112446</ele>
        <time>2019-06-06T07:52:12.000Z</time>
      </trkpt>
      <trkpt lat="50.611607" lon="26.327204">
        <ele>269.937723</ele>
        <time>2019-06-06T07:52:14.000Z</time>
      </trkpt>
      <trkpt lat="50.611600" lon="26.327394">
        <ele>269.716626</ele>
        <time>2019-06-06T07:52:17.000Z</time>
      </trkpt>
      <trkpt lat="50.611584" lon="26.327550">
        <ele>269.853794</ele>
        <time>2019-06-06T07:52:20.000Z</time>
      </trkpt>
      <trkpt lat="50.611572" lon="26.327730">
        <ele>270.084757</ele>
        <time>2019-06-06T07:52:23.000Z</time>
      </trkpt>
      <trkpt lat="50.611550" lon="26.327913">
        <ele>270.322437</ele>
        <time>2019-06-06T07:52:26.000Z</time>
      </trkpt>
      <trkpt lat="50.611526" lon="26.328102">
        <ele>270.568402</ele>
        <time>2019-06-06T07:52:29.000Z</time>
      </trkpt>
      <trkpt lat="50.611504" lon="26.328276">
        <ele>270.794809</ele>
        <time>2019-06-06T07:52:32.000Z</time>
      </trkpt>
      <trkpt lat="50.611485" lon="26.328455">
        <ele>271.026405</ele>
        <time>2019-06-06T07:52:35.000Z</time>
      </trkpt>
      <trkpt lat="50.611446" lon="26.328630">
        <ele>271.263095</ele>
        <time>2019-06-06T07:52:38.000Z</time>
      </trkpt>
      <trkpt lat="50.611427" lon="26.328814">
        <ele>271.500987</ele>
        <time>2019-06-06T07:52:41.000Z</time>
      </trkpt>
      <trkpt lat="50.611416" lon="26.328985">
        <ele>271.720319</ele>
        <time>2019-06-06T07:52:44.000Z</time>
      </trkpt>
      <trkpt lat="50.611410" lon="26.329150">
        <ele>271.931222</ele>
        <time>2019-06-06T07:52:47.000Z</time>
      </trkpt>
      <trkpt lat="50.611397" lon="26.329313">
        <ele>272.140864</ele>
        <time>2019-06-06T07:52:50.000Z</time>
      </trkpt>
      <trkpt lat="50.611378" lon="26.329468">
        <ele>272.342317</ele>
        <time>2019-06-06T07:52:53.000Z</time>
      </trkpt>
      <trkpt lat="50.611355" lon="26.329653">
        <ele>272.582886</ele>
        <time>2019-06-06T07:52:56.000Z</time>
      </trkpt>
      <trkpt lat="50.611336" lon="26.329830">
        <ele>272.811966</ele>
        <time>2019-06-06T07:52:59.000Z</time>
      </trkpt>
      <trkpt lat="50.611305" lon="26.329970">
        <ele>273.001185</ele>
        <time>2019-06-06T07:53:02.000Z</time>
      </trkpt>
      <trkpt lat="50.611298" lon="26.330153">
        <ele>273.235137</ele>
        <time>2019-06-06T07:53:06.000Z</time>
      </trkpt>
      <trkpt lat="50.611298" lon="26.330320">
        <ele>273.188929</ele>
        <time>2019-06-06T07:53:10.000Z</time>
      </trkpt>
      <trkpt lat="50.611282" lon="26.330477">
        <ele>273.029838</ele>
        <time>2019-06-06T07:53:15.000Z</time>
      </trkpt>
      <trkpt lat="50.611280" lon="26.330658">
        <ele>272.848719</ele>
        <time>2019-06-06T07:53:19.000Z</time>
      </trkpt>
      <trkpt lat="50.611260" lon="26.330801">
        <ele>272.702214</ele>
        <time>2019-06-06T07:53:22.000Z</time>
      </trkpt>
      <trkpt lat="50.611240" lon="26.330960">
        <ele>272.540039</ele>
        <time>2019-06-06T07:53:25.000Z</time>
      </trkpt>
      <trkpt lat="50.611230" lon="26.331125">
        <ele>272.374205</ele>
        <time>2019-06-06T07:53:28.000Z</time>
      </trkpt>
      <trkpt lat="50.611220" lon="26.331308">
        <ele>272.190436</ele>
        <time>2019-06-06T07:53:31.000Z</time>
      </trkpt>
      <trkpt lat="50.611210" lon="26.331490">
        <ele>272.007663</ele>
        <time>2019-06-06T07:53:34.000Z</time>
      </trkpt>
      <trkpt lat="50.611190" lon="26.331692">
        <ele>271.803116</ele>
        <time>2019-06-06T07:53:37.000Z</time>
      </trkpt>
      <trkpt lat="50.611183" lon="26.331837">
        <ele>271.657624</ele>
        <time>2019-06-06T07:53:39.000Z</time>
      </trkpt>
      <trkpt lat="50.611164" lon="26.331985">
        <ele>271.506550</ele>
        <time>2019-06-06T07:53:41.000Z</time>
      </trkpt>
      <trkpt lat="50.611145" lon="26.332134">
        <ele>271.354495</ele>
        <time>2019-06-06T07:53:43.000Z</time>
      </trkpt>
      <trkpt lat="50.611137" lon="26.332283">
        <ele>271.204887</ele>
        <time>2019-06-06T07:53:45.000Z</time>
      </trkpt>
      <trkpt lat="50.611130" lon="26.332434">
        <ele>271.053408</ele>
        <time>2019-06-06T07:53:47.000Z</time>
      </trkpt>
      <trkpt lat="50.611122" lon="26.332584">
        <ele>270.902804</ele>
        <time>2019-06-06T07:53:49.000Z</time>
      </trkpt>
      <trkpt lat="50.611107" lon="26.332735">
        <ele>270.749888</ele>
        <time>2019-06-06T07:53:51.000Z</time>
      </trkpt>
      <trkpt lat="50.611090" lon="26.332895">
        <ele>270.587579</ele>
        <time>2019-06-06T07:53:53.000Z</time>
      </trkpt>
      <trkpt lat="50.611080" lon="26.333052">
        <ele>270.464844</ele>
        <time>2019-06-06T07:53:55.000Z</time>
      </trkpt>
      <trkpt lat="50.611065" lon="26.333206">
        <ele>270.455514</ele>
        <time>2019-06-06T07:53:56.000Z</time>
      </trkpt>
      <trkpt lat="50.611057" lon="26.333370">
        <ele>270.445665</ele>
        <time>2019-06-06T07:53:59.000Z</time>
      </trkpt>
      <trkpt lat="50.611040" lon="26.333530">
        <ele>270.435950</ele>
        <time>2019-06-06T07:54:01.000Z</time>
      </trkpt>
      <trkpt lat="50.611023" lon="26.333675">
        <ele>270.427121</ele>
        <time>2019-06-06T07:54:03.000Z</time>
      </trkpt>
      <trkpt lat="50.611008" lon="26.333820">
        <ele>270.418323</ele>
        <time>2019-06-06T07:54:05.000Z</time>
      </trkpt>
      <trkpt lat="50.610980" lon="26.334017">
        <ele>270.406234</ele>
        <time>2019-06-06T07:54:08.000Z</time>
      </trkpt>
      <trkpt lat="50.610966" lon="26.334156">
        <ele>270.397807</ele>
        <time>2019-06-06T07:54:10.000Z</time>
      </trkpt>
      <trkpt lat="50.610950" lon="26.334297">
        <ele>270.389229</ele>
        <time>2019-06-06T07:54:12.000Z</time>
      </trkpt>
      <trkpt lat="50.610935" lon="26.334446">
        <ele>270.380196</ele>
        <time>2019-06-06T07:54:14.000Z</time>
      </trkpt>
      <trkpt lat="50.610920" lon="26.334587">
        <ele>270.371634</ele>
        <time>2019-06-06T07:54:16.000Z</time>
      </trkpt>
      <trkpt lat="50.610893" lon="26.334790">
        <ele>270.359214</ele>
        <time>2019-06-06T07:54:19.000Z</time>
      </trkpt>
      <trkpt lat="50.610867" lon="26.334984">
        <ele>270.347341</ele>
        <time>2019-06-06T07:54:22.000Z</time>
      </trkpt>
      <trkpt lat="50.610847" lon="26.335173">
        <ele>270.335867</ele>
        <time>2019-06-06T07:54:25.000Z</time>
      </trkpt>
      <trkpt lat="50.610825" lon="26.335360">
        <ele>270.324479</ele>
        <time>2019-06-06T07:54:28.000Z</time>
      </trkpt>
      <trkpt lat="50.610813" lon="26.335540">
        <ele>270.313641</ele>
        <time>2019-06-06T07:54:31.000Z</time>
      </trkpt>
      <trkpt lat="50.610790" lon="26.335718">
        <ele>270.302763</ele>
        <time>2019-06-06T07:54:34.000Z</time>
      </trkpt>
      <trkpt lat="50.610775" lon="26.335886">
        <ele>270.251695</ele>
        <time>2019-06-06T07:54:37.000Z</time>
      </trkpt>
      <trkpt lat="50.610764" lon="26.336048">
        <ele>270.157929</ele>
        <time>2019-06-06T07:54:40.000Z</time>
      </trkpt>
      <trkpt lat="50.610750" lon="26.336199">
        <ele>270.070103</ele>
        <time>2019-06-06T07:54:43.000Z</time>
      </trkpt>
      <trkpt lat="50.610740" lon="26.336359">
        <ele>269.977574</ele>
        <time>2019-06-06T07:54:47.000Z</time>
      </trkpt>
      <trkpt lat="50.610703" lon="26.336575">
        <ele>269.848813</ele>
        <time>2019-06-06T07:55:08.000Z</time>
      </trkpt>
      <trkpt lat="50.610676" lon="26.336740">
        <ele>269.750745</ele>
        <time>2019-06-06T07:55:12.000Z</time>
      </trkpt>
      <trkpt lat="50.610645" lon="26.336880">
        <ele>269.665408</ele>
        <time>2019-06-06T07:55:15.000Z</time>
      </trkpt>
      <trkpt lat="50.610590" lon="26.337025">
        <ele>269.568187</ele>
        <time>2019-06-06T07:55:18.000Z</time>
      </trkpt>
      <trkpt lat="50.610527" lon="26.337181">
        <ele>269.461767</ele>
        <time>2019-06-06T07:55:21.000Z</time>
      </trkpt>
      <trkpt lat="50.610470" lon="26.337305">
        <ele>269.373646</ele>
        <time>2019-06-06T07:55:24.000Z</time>
      </trkpt>
      <trkpt lat="50.610400" lon="26.337425">
        <ele>269.279838</ele>
        <time>2019-06-06T07:55:27.000Z</time>
      </trkpt>
      <trkpt lat="50.610325" lon="26.337557">
        <ele>269.177868</ele>
        <time>2019-06-06T07:55:30.000Z</time>
      </trkpt>
      <trkpt lat="50.610233" lon="26.337683">
        <ele>269.067322</ele>
        <time>2019-06-06T07:55:33.000Z</time>
      </trkpt>
      <trkpt lat="50.610134" lon="26.337809">
        <ele>268.951910</ele>
        <time>2019-06-06T07:55:36.000Z</time>
      </trkpt>
      <trkpt lat="50.610060" lon="26.337902">
        <ele>268.866068</ele>
        <time>2019-06-06T07:55:38.000Z</time>
      </trkpt>
      <trkpt lat="50.609993" lon="26.337997">
        <ele>268.784327</ele>
        <time>2019-06-06T07:55:40.000Z</time>
      </trkpt>
      <trkpt lat="50.609920" lon="26.338087">
        <ele>268.700266</ele>
        <time>2019-06-06T07:55:42.000Z</time>
      </trkpt>
      <trkpt lat="50.609814" lon="26.338202">
        <ele>268.790302</ele>
        <time>2019-06-06T07:55:45.000Z</time>
      </trkpt>
      <trkpt lat="50.609720" lon="26.338308">
        <ele>268.947946</ele>
        <time>2019-06-06T07:55:48.000Z</time>
      </trkpt>
      <trkpt lat="50.609634" lon="26.338420">
        <ele>269.100107</ele>
        <time>2019-06-06T07:55:51.000Z</time>
      </trkpt>
      <trkpt lat="50.609550" lon="26.338528">
        <ele>269.247963</ele>
        <time>2019-06-06T07:55:54.000Z</time>
      </trkpt>
      <trkpt lat="50.609460" lon="26.338642">
        <ele>269.405447</ele>
        <time>2019-06-06T07:55:57.000Z</time>
      </trkpt>
      <trkpt lat="50.609370" lon="26.338768">
        <ele>269.569637</ele>
        <time>2019-06-06T07:56:00.000Z</time>
      </trkpt>
      <trkpt lat="50.609272" lon="26.338880">
        <ele>269.734744</ele>
        <time>2019-06-06T07:56:03.000Z</time>
      </trkpt>
      <trkpt lat="50.609177" lon="26.338999">
        <ele>269.900256</ele>
        <time>2019-06-06T07:56:06.000Z</time>
      </trkpt>
      <trkpt lat="50.609080" lon="26.339110">
        <ele>270.063751</ele>
        <time>2019-06-06T07:56:09.000Z</time>
      </trkpt>
      <trkpt lat="50.608982" lon="26.339226">
        <ele>270.230913</ele>
        <time>2019-06-06T07:56:12.000Z</time>
      </trkpt>
      <trkpt lat="50.608880" lon="26.339344">
        <ele>270.403488</ele>
        <time>2019-06-06T07:56:15.000Z</time>
      </trkpt>
      <trkpt lat="50.608776" lon="26.339460">
        <ele>270.577263</ele>
        <time>2019-06-06T07:56:18.000Z</time>
      </trkpt>
      <trkpt lat="50.608680" lon="26.339584">
        <ele>270.746556</ele>
        <time>2019-06-06T07:56:21.000Z</time>
      </trkpt>
      <trkpt lat="50.608597" lon="26.339691">
        <ele>270.892810</ele>
        <time>2019-06-06T07:56:24.000Z</time>
      </trkpt>
      <trkpt lat="50.608530" lon="26.339783">
        <ele>271.014012</ele>
        <time>2019-06-06T07:56:27.000Z</time>
      </trkpt>
      <trkpt lat="50.608450" lon="26.339872">
        <ele>271.188637</ele>
        <time>2019-06-06T07:56:30.000Z</time>
      </trkpt>
      <trkpt lat="50.608370" lon="26.339977">
        <ele>271.535928</ele>
        <time>2019-06-06T07:56:33.000Z</time>
      </trkpt>
      <trkpt lat="50.608288" lon="26.340073">
        <ele>271.876676</ele>
        <time>2019-06-06T07:56:36.000Z</time>
      </trkpt>
      <trkpt lat="50.608196" lon="26.340174">
        <ele>272.250686</ele>
        <time>2019-06-06T07:56:39.000Z</time>
      </trkpt>
      <trkpt lat="50.608110" lon="26.340252">
        <ele>272.581672</ele>
        <time>2019-06-06T07:56:42.000Z</time>
      </trkpt>
      <trkpt lat="50.608020" lon="26.340315">
        <ele>272.910166</ele>
        <time>2019-06-06T07:56:44.000Z</time>
      </trkpt>
      <trkpt lat="50.607910" lon="26.340400">
        <ele>273.318826</ele>
        <time>2019-06-06T07:56:49.000Z</time>
      </trkpt>
      <trkpt lat="50.607822" lon="26.340452">
        <ele>273.632320</ele>
        <time>2019-06-06T07:56:52.000Z</time>
      </trkpt>
      <trkpt lat="50.607740" lon="26.340515">
        <ele>273.936619</ele>
        <time>2019-06-06T07:56:56.000Z</time>
      </trkpt>
      <trkpt lat="50.607635" lon="26.340527">
        <ele>274.287777</ele>
        <time>2019-06-06T07:57:02.000Z</time>
      </trkpt>
      <trkpt lat="50.607540" lon="26.340550">
        <ele>274.608378</ele>
        <time>2019-06-06T07:57:07.000Z</time>
      </trkpt>
      <trkpt lat="50.607437" lon="26.340557">
        <ele>274.952264</ele>
        <time>2019-06-06T07:57:12.000Z</time>
      </trkpt>
      <trkpt lat="50.607338" lon="26.340572">
        <ele>275.284012</ele>
        <time>2019-06-06T07:57:16.000Z</time>
      </trkpt>
      <trkpt lat="50.607240" lon="26.340574">
        <ele>275.610929</ele>
        <time>2019-06-06T07:57:20.000Z</time>
      </trkpt>
      <trkpt lat="50.607140" lon="26.340572">
        <ele>275.944516</ele>
        <time>2019-06-06T07:57:24.000Z</time>
      </trkpt>
      <trkpt lat="50.607030" lon="26.340560">
        <ele>276.312310</ele>
        <time>2019-06-06T07:57:28.000Z</time>
      </trkpt>
      <trkpt lat="50.606915" lon="26.340557">
        <ele>276.695957</ele>
        <time>2019-06-06T07:57:32.000Z</time>
      </trkpt>
      <trkpt lat="50.606792" lon="26.340550">
        <ele>277.106503</ele>
        <time>2019-06-06T07:57:36.000Z</time>
      </trkpt>
      <trkpt lat="50.606700" lon="26.340546">
        <ele>277.416894</ele>
        <time>2019-06-06T07:57:39.000Z</time>
      </trkpt>
      <trkpt lat="50.606610" lon="26.340542">
        <ele>277.720681</ele>
        <time>2019-06-06T07:57:42.000Z</time>
      </trkpt>
      <trkpt lat="50.606483" lon="26.340534">
        <ele>278.149529</ele>
        <time>2019-06-06T07:57:46.000Z</time>
      </trkpt>
      <trkpt lat="50.606390" lon="26.340523">
        <ele>278.464200</ele>
        <time>2019-06-06T07:57:49.000Z</time>
      </trkpt>
      <trkpt lat="50.606277" lon="26.340525">
        <ele>278.845493</ele>
        <time>2019-06-06T07:57:53.000Z</time>
      </trkpt>
      <trkpt lat="50.606167" lon="26.340510">
        <ele>279.218028</ele>
        <time>2019-06-06T07:57:57.000Z</time>
      </trkpt>
      <trkpt lat="50.606075" lon="26.340506">
        <ele>279.528560</ele>
        <time>2019-06-06T07:58:00.000Z</time>
      </trkpt>
      <trkpt lat="50.605984" lon="26.340496">
        <ele>279.836345</ele>
        <time>2019-06-06T07:58:03.000Z</time>
      </trkpt>
      <trkpt lat="50.605870" lon="26.340494">
        <ele>280.221012</ele>
        <time>2019-06-06T07:58:07.000Z</time>
      </trkpt>
      <trkpt lat="50.605778" lon="26.340496">
        <ele>280.531456</ele>
        <time>2019-06-06T07:58:10.000Z</time>
      </trkpt>
      <trkpt lat="50.605675" lon="26.340480">
        <ele>280.880669</ele>
        <time>2019-06-06T07:58:14.000Z</time>
      </trkpt>
      <trkpt lat="50.605550" lon="26.340488">
        <ele>281.302775</ele>
        <time>2019-06-06T07:59:08.000Z</time>
      </trkpt>
      <trkpt lat="50.605427" lon="26.340471">
        <ele>281.719378</ele>
        <time>2019-06-06T07:59:12.000Z</time>
      </trkpt>
      <trkpt lat="50.605330" lon="26.340470">
        <ele>282.046669</ele>
        <time>2019-06-06T07:59:15.000Z</time>
      </trkpt>
      <trkpt lat="50.605225" lon="26.340462">
        <ele>282.401360</ele>
        <time>2019-06-06T07:59:18.000Z</time>
      </trkpt>
      <trkpt lat="50.605106" lon="26.340475">
        <ele>282.803837</ele>
        <time>2019-06-06T07:59:21.000Z</time>
      </trkpt>
      <trkpt lat="50.604990" lon="26.340466">
        <ele>283.191544</ele>
        <time>2019-06-06T07:59:24.000Z</time>
      </trkpt>
      <trkpt lat="50.604866" lon="26.340467">
        <ele>283.398816</ele>
        <time>2019-06-06T07:59:27.000Z</time>
      </trkpt>
      <trkpt lat="50.604763" lon="26.340477">
        <ele>283.571309</ele>
        <time>2019-06-06T07:59:30.000Z</time>
      </trkpt>
      <trkpt lat="50.604664" lon="26.340462">
        <ele>283.737554</ele>
        <time>2019-06-06T07:59:33.000Z</time>
      </trkpt>
      <trkpt lat="50.604557" lon="26.340450">
        <ele>283.916859</ele>
        <time>2019-06-06T07:59:37.000Z</time>
      </trkpt>
      <trkpt lat="50.604446" lon="26.340443">
        <ele>284.102547</ele>
        <time>2019-06-06T07:59:41.000Z</time>
      </trkpt>
      <trkpt lat="50.604332" lon="26.340443">
        <ele>284.293101</ele>
        <time>2019-06-06T07:59:45.000Z</time>
      </trkpt>
      <trkpt lat="50.604220" lon="26.340440">
        <ele>284.480339</ele>
        <time>2019-06-06T07:59:49.000Z</time>
      </trkpt>
      <trkpt lat="50.604103" lon="26.340450">
        <ele>284.676195</ele>
        <time>2019-06-06T07:59:53.000Z</time>
      </trkpt>
      <trkpt lat="50.603992" lon="26.340443">
        <ele>284.861883</ele>
        <time>2019-06-06T07:59:57.000Z</time>
      </trkpt>
      <trkpt lat="50.603900" lon="26.340431">
        <ele>285.016189</ele>
        <time>2019-06-06T08:00:00.000Z</time>
      </trkpt>
      <trkpt lat="50.603806" lon="26.340414">
        <ele>285.174344</ele>
        <time>2019-06-06T08:00:03.000Z</time>
      </trkpt>
      <trkpt lat="50.603718" lon="26.340403">
        <ele>285.321901</ele>
        <time>2019-06-06T08:00:06.000Z</time>
      </trkpt>
      <trkpt lat="50.603622" lon="26.340384">
        <ele>285.483628</ele>
        <time>2019-06-06T08:00:09.000Z</time>
      </trkpt>
      <trkpt lat="50.603535" lon="26.340368">
        <ele>285.630038</ele>
        <time>2019-06-06T08:00:12.000Z</time>
      </trkpt>
      <trkpt lat="50.603413" lon="26.340343">
        <ele>285.835682</ele>
        <time>2019-06-06T08:00:16.000Z</time>
      </trkpt>
      <trkpt lat="50.603310" lon="26.340324">
        <ele>286.009025</ele>
        <time>2019-06-06T08:00:19.000Z</time>
      </trkpt>
      <trkpt lat="50.603207" lon="26.340305">
        <ele>286.182368</ele>
        <time>2019-06-06T08:00:22.000Z</time>
      </trkpt>
      <trkpt lat="50.603096" lon="26.340279">
        <ele>286.111457</ele>
        <time>2019-06-06T08:00:25.000Z</time>
      </trkpt>
      <trkpt lat="50.602997" lon="26.340258">
        <ele>286.033209</ele>
        <time>2019-06-06T08:00:28.000Z</time>
      </trkpt>
      <trkpt lat="50.602886" lon="26.340233">
        <ele>285.945378</ele>
        <time>2019-06-06T08:00:31.000Z</time>
      </trkpt>
      <trkpt lat="50.602776" lon="26.340193">
        <ele>285.856949</ele>
        <time>2019-06-06T08:00:34.000Z</time>
      </trkpt>
      <trkpt lat="50.602665" lon="26.340160">
        <ele>285.768467</ele>
        <time>2019-06-06T08:00:37.000Z</time>
      </trkpt>
      <trkpt lat="50.602540" lon="26.340130">
        <ele>285.669424</ele>
        <time>2019-06-06T08:00:40.000Z</time>
      </trkpt>
      <trkpt lat="50.602413" lon="26.340096">
        <ele>285.568517</ele>
        <time>2019-06-06T08:00:43.000Z</time>
      </trkpt>
      <trkpt lat="50.602283" lon="26.340054">
        <ele>285.464568</ele>
        <time>2019-06-06T08:00:46.000Z</time>
      </trkpt>
      <trkpt lat="50.602165" lon="26.340010">
        <ele>285.369584</ele>
        <time>2019-06-06T08:00:49.000Z</time>
      </trkpt>
      <trkpt lat="50.602036" lon="26.339966">
        <ele>285.266196</ele>
        <time>2019-06-06T08:00:52.000Z</time>
      </trkpt>
      <trkpt lat="50.601906" lon="26.339903">
        <ele>285.159657</ele>
        <time>2019-06-06T08:00:55.000Z</time>
      </trkpt>
      <trkpt lat="50.601810" lon="26.339870">
        <ele>285.082691</ele>
        <time>2019-06-06T08:00:57.000Z</time>
      </trkpt>
      <trkpt lat="50.601707" lon="26.339834">
        <ele>285.000048</ele>
        <time>2019-06-06T08:00:59.000Z</time>
      </trkpt>
      <trkpt lat="50.601610" lon="26.339787">
        <ele>284.920555</ele>
        <time>2019-06-06T08:01:01.000Z</time>
      </trkpt>
      <trkpt lat="50.601517" lon="26.339750">
        <ele>284.845420</ele>
        <time>2019-06-06T08:01:03.000Z</time>
      </trkpt>
      <trkpt lat="50.601425" lon="26.339710">
        <ele>284.766307</ele>
        <time>2019-06-06T08:01:05.000Z</time>
      </trkpt>
      <trkpt lat="50.601330" lon="26.339660">
        <ele>284.664089</ele>
        <time>2019-06-06T08:01:07.000Z</time>
      </trkpt>
      <trkpt lat="50.601192" lon="26.339600">
        <ele>284.517991</ele>
        <time>2019-06-06T08:01:10.000Z</time>
      </trkpt>
      <trkpt lat="50.601097" lon="26.339560">
        <ele>284.417637</ele>
        <time>2019-06-06T08:01:12.000Z</time>
      </trkpt>
      <trkpt lat="50.601006" lon="26.339512">
        <ele>284.319701</ele>
        <time>2019-06-06T08:01:14.000Z</time>
      </trkpt>
      <trkpt lat="50.600918" lon="26.339458">
        <ele>284.223322</ele>
        <time>2019-06-06T08:01:16.000Z</time>
      </trkpt>
      <trkpt lat="50.600826" lon="26.339401">
        <ele>284.122434</ele>
        <time>2019-06-06T08:01:18.000Z</time>
      </trkpt>
      <trkpt lat="50.600730" lon="26.339357">
        <ele>284.020401</ele>
        <time>2019-06-06T08:01:20.000Z</time>
      </trkpt>
      <trkpt lat="50.600630" lon="26.339306">
        <ele>283.913133</ele>
        <time>2019-06-06T08:01:22.000Z</time>
      </trkpt>
      <trkpt lat="50.600540" lon="26.339247">
        <ele>283.813650</ele>
        <time>2019-06-06T08:01:24.000Z</time>
      </trkpt>
      <trkpt lat="50.600445" lon="26.339195">
        <ele>283.711015</ele>
        <time>2019-06-06T08:01:26.000Z</time>
      </trkpt>
      <trkpt lat="50.600346" lon="26.339136">
        <ele>283.602994</ele>
        <time>2019-06-06T08:01:28.000Z</time>
      </trkpt>
      <trkpt lat="50.600250" lon="26.339075">
        <ele>283.497355</ele>
        <time>2019-06-06T08:01:30.000Z</time>
      </trkpt>
      <trkpt lat="50.600160" lon="26.339018">
        <ele>283.398362</ele>
        <time>2019-06-06T08:01:32.000Z</time>
      </trkpt>
      <trkpt lat="50.600063" lon="26.338959">
        <ele>283.292249</ele>
        <time>2019-06-06T08:01:34.000Z</time>
      </trkpt>
      <trkpt lat="50.599964" lon="26.338898">
        <ele>283.183763</ele>
        <time>2019-06-06T08:01:36.000Z</time>
      </trkpt>
      <trkpt lat="50.599870" lon="26.338837">
        <ele>283.080013</ele>
        <time>2019-06-06T08:01:38.000Z</time>
      </trkpt>
      <trkpt lat="50.599773" lon="26.338780">
        <ele>282.974359</ele>
        <time>2019-06-06T08:01:40.000Z</time>
      </trkpt>
      <trkpt lat="50.599678" lon="26.338710">
        <ele>282.892062</ele>
        <time>2019-06-06T08:01:42.000Z</time>
      </trkpt>
      <trkpt lat="50.599594" lon="26.338646">
        <ele>282.825517</ele>
        <time>2019-06-06T08:01:44.000Z</time>
      </trkpt>
      <trkpt lat="50.599500" lon="26.338585">
        <ele>282.753013</ele>
        <time>2019-06-06T08:01:46.000Z</time>
      </trkpt>
      <trkpt lat="50.599403" lon="26.338522">
        <ele>282.678186</ele>
        <time>2019-06-06T08:01:48.000Z</time>
      </trkpt>
      <trkpt lat="50.599320" lon="26.338453">
        <ele>282.611256</ele>
        <time>2019-06-06T08:01:50.000Z</time>
      </trkpt>
      <trkpt lat="50.599236" lon="26.338394">
        <ele>282.545665</ele>
        <time>2019-06-06T08:01:52.000Z</time>
      </trkpt>
      <trkpt lat="50.599144" lon="26.338331">
        <ele>282.474121</ele>
        <time>2019-06-06T08:01:54.000Z</time>
      </trkpt>
      <trkpt lat="50.599060" lon="26.338266">
        <ele>282.407378</ele>
        <time>2019-06-06T08:01:56.000Z</time>
      </trkpt>
      <trkpt lat="50.598972" lon="26.338203">
        <ele>282.338441</ele>
        <time>2019-06-06T08:01:58.000Z</time>
      </trkpt>
      <trkpt lat="50.598892" lon="26.338129">
        <ele>282.272279</ele>
        <time>2019-06-06T08:02:00.000Z</time>
      </trkpt>
      <trkpt lat="50.598797" lon="26.338057">
        <ele>282.197094</ele>
        <time>2019-06-06T08:02:02.000Z</time>
      </trkpt>
      <trkpt lat="50.598717" lon="26.337986">
        <ele>282.131609</ele>
        <time>2019-06-06T08:02:04.000Z</time>
      </trkpt>
      <trkpt lat="50.598637" lon="26.337915">
        <ele>282.066124</ele>
        <time>2019-06-06T08:02:06.000Z</time>
      </trkpt>
      <trkpt lat="50.598557" lon="26.337850">
        <ele>282.001928</ele>
        <time>2019-06-06T08:02:08.000Z</time>
      </trkpt>
      <trkpt lat="50.598470" lon="26.337763">
        <ele>281.928437</ele>
        <time>2019-06-06T08:02:10.000Z</time>
      </trkpt>
      <trkpt lat="50.598385" lon="26.337694">
        <ele>281.860242</ele>
        <time>2019-06-06T08:02:12.000Z</time>
      </trkpt>
      <trkpt lat="50.598270" lon="26.337590">
        <ele>281.765673</ele>
        <time>2019-06-06T08:02:15.000Z</time>
      </trkpt>
      <trkpt lat="50.598186" lon="26.337507">
        <ele>281.694957</ele>
        <time>2019-06-06T08:02:17.000Z</time>
      </trkpt>
      <trkpt lat="50.598110" lon="26.337427">
        <ele>281.685986</ele>
        <time>2019-06-06T08:02:19.000Z</time>
      </trkpt>
      <trkpt lat="50.598026" lon="26.337349">
        <ele>281.722334</ele>
        <time>2019-06-06T08:02:21.000Z</time>
      </trkpt>
      <trkpt lat="50.597946" lon="26.337284">
        <ele>281.755888</ele>
        <time>2019-06-06T08:02:23.000Z</time>
      </trkpt>
      <trkpt lat="50.597866" lon="26.337206">
        <ele>281.790959</ele>
        <time>2019-06-06T08:02:25.000Z</time>
      </trkpt>
      <trkpt lat="50.597794" lon="26.337124">
        <ele>281.824078</ele>
        <time>2019-06-06T08:02:27.000Z</time>
      </trkpt>
      <trkpt lat="50.597717" lon="26.337038">
        <ele>281.859263</ele>
        <time>2019-06-06T08:02:29.000Z</time>
      </trkpt>
      <trkpt lat="50.597607" lon="26.336939">
        <ele>281.906488</ele>
        <time>2019-06-06T08:02:32.000Z</time>
      </trkpt>
      <trkpt lat="50.597534" lon="26.336859">
        <ele>281.939637</ele>
        <time>2019-06-06T08:02:34.000Z</time>
      </trkpt>
      <trkpt lat="50.597454" lon="26.336777">
        <ele>281.975215</ele>
        <time>2019-06-06T08:02:36.000Z</time>
      </trkpt>
      <trkpt lat="50.597378" lon="26.336690">
        <ele>282.010236</ele>
        <time>2019-06-06T08:02:38.000Z</time>
      </trkpt>
      <trkpt lat="50.597300" lon="26.336603">
        <ele>282.045862</ele>
        <time>2019-06-06T08:02:40.000Z</time>
      </trkpt>
      <trkpt lat="50.597225" lon="26.336521">
        <ele>282.079893</ele>
        <time>2019-06-06T08:02:42.000Z</time>
      </trkpt>
      <trkpt lat="50.597122" lon="26.336391">
        <ele>282.129091</ele>
        <time>2019-06-06T08:02:45.000Z</time>
      </trkpt>
      <trkpt lat="50.597020" lon="26.336275">
        <ele>282.175987</ele>
        <time>2019-06-06T08:02:48.000Z</time>
      </trkpt>
      <trkpt lat="50.596912" lon="26.336157">
        <ele>282.224981</ele>
        <time>2019-06-06T08:02:51.000Z</time>
      </trkpt>
      <trkpt lat="50.596806" lon="26.336039">
        <ele>282.273365</ele>
        <time>2019-06-06T08:02:54.000Z</time>
      </trkpt>
      <trkpt lat="50.596706" lon="26.335913">
        <ele>282.321099</ele>
        <time>2019-06-06T08:02:57.000Z</time>
      </trkpt>
      <trkpt lat="50.596615" lon="26.335794">
        <ele>282.401124</ele>
        <time>2019-06-06T08:03:00.000Z</time>
      </trkpt>
      <trkpt lat="50.596527" lon="26.335686">
        <ele>282.496060</ele>
        <time>2019-06-06T08:03:03.000Z</time>
      </trkpt>
      <trkpt lat="50.596430" lon="26.335558">
        <ele>282.603746</ele>
        <time>2019-06-06T08:03:06.000Z</time>
      </trkpt>
      <trkpt lat="50.596330" lon="26.335436">
        <ele>282.711388</ele>
        <time>2019-06-06T08:03:09.000Z</time>
      </trkpt>
      <trkpt lat="50.596230" lon="26.335323">
        <ele>282.816123</ele>
        <time>2019-06-06T08:03:12.000Z</time>
      </trkpt>
      <trkpt lat="50.596130" lon="26.335205">
        <ele>282.922455</ele>
        <time>2019-06-06T08:03:15.000Z</time>
      </trkpt>
      <trkpt lat="50.596040" lon="26.335085">
        <ele>283.022801</ele>
        <time>2019-06-06T08:03:18.000Z</time>
      </trkpt>
      <trkpt lat="50.595947" lon="26.334969">
        <ele>283.123754</ele>
        <time>2019-06-06T08:03:21.000Z</time>
      </trkpt>
      <trkpt lat="50.595863" lon="26.334867">
        <ele>283.214014</ele>
        <time>2019-06-06T08:03:24.000Z</time>
      </trkpt>
      <trkpt lat="50.595780" lon="26.334768">
        <ele>283.302615</ele>
        <time>2019-06-06T08:03:27.000Z</time>
      </trkpt>
      <trkpt lat="50.595688" lon="26.334652">
        <ele>283.402902</ele>
        <time>2019-06-06T08:03:30.000Z</time>
      </trkpt>
      <trkpt lat="50.595590" lon="26.334532">
        <ele>283.508537</ele>
        <time>2019-06-06T08:03:33.000Z</time>
      </trkpt>
      <trkpt lat="50.595486" lon="26.334420">
        <ele>283.615751</ele>
        <time>2019-06-06T08:03:36.000Z</time>
      </trkpt>
      <trkpt lat="50.595394" lon="26.334310">
        <ele>283.714046</ele>
        <time>2019-06-06T08:03:39.000Z</time>
      </trkpt>
      <trkpt lat="50.595300" lon="26.334188">
        <ele>283.817698</ele>
        <time>2019-06-06T08:03:42.000Z</time>
      </trkpt>
      <trkpt lat="50.595203" lon="26.334066">
        <ele>283.877419</ele>
        <time>2019-06-06T08:03:45.000Z</time>
      </trkpt>
      <trkpt lat="50.595110" lon="26.333954">
        <ele>283.894516</ele>
        <time>2019-06-06T08:03:48.000Z</time>
      </trkpt>
      <trkpt lat="50.595016" lon="26.333836">
        <ele>283.912071</ele>
        <time>2019-06-06T08:03:51.000Z</time>
      </trkpt>
      <trkpt lat="50.594917" lon="26.333714">
        <ele>283.930429</ele>
        <time>2019-06-06T08:03:54.000Z</time>
      </trkpt>
      <trkpt lat="50.594822" lon="26.333605">
        <ele>283.947594</ele>
        <time>2019-06-06T08:03:57.000Z</time>
      </trkpt>
      <trkpt lat="50.594734" lon="26.333488">
        <ele>283.964413</ele>
        <time>2019-06-06T08:04:00.000Z</time>
      </trkpt>
      <trkpt lat="50.594640" lon="26.333366">
        <ele>283.982201</ele>
        <time>2019-06-06T08:04:03.000Z</time>
      </trkpt>
      <trkpt lat="50.594540" lon="26.333250">
        <ele>284.000339</ele>
        <time>2019-06-06T08:04:06.000Z</time>
      </trkpt>
      <trkpt lat="50.594440" lon="26.333130">
        <ele>284.018700</ele>
        <time>2019-06-06T08:04:09.000Z</time>
      </trkpt>
      <trkpt lat="50.594350" lon="26.333021">
        <ele>284.035280</ele>
        <time>2019-06-06T08:04:12.000Z</time>
      </trkpt>
      <trkpt lat="50.594257" lon="26.332909">
        <ele>284.052378</ele>
        <time>2019-06-06T08:04:15.000Z</time>
      </trkpt>
      <trkpt lat="50.594160" lon="26.332779">
        <ele>284.070979</ele>
        <time>2019-06-06T08:04:18.000Z</time>
      </trkpt>
      <trkpt lat="50.594063" lon="26.332666">
        <ele>284.088599</ele>
        <time>2019-06-06T08:04:21.000Z</time>
      </trkpt>
      <trkpt lat="50.593964" lon="26.332552">
        <ele>284.106509</ele>
        <time>2019-06-06T08:04:24.000Z</time>
      </trkpt>
      <trkpt lat="50.593872" lon="26.332434">
        <ele>284.123837</ele>
        <time>2019-06-06T08:04:27.000Z</time>
      </trkpt>
      <trkpt lat="50.593773" lon="26.332314">
        <ele>283.992604</ele>
        <time>2019-06-06T08:04:30.000Z</time>
      </trkpt>
      <trkpt lat="50.593670" lon="26.332197">
        <ele>283.769592</ele>
        <time>2019-06-06T08:04:33.000Z</time>
      </trkpt>
      <trkpt lat="50.593580" lon="26.332083">
        <ele>283.566775</ele>
        <time>2019-06-06T08:04:36.000Z</time>
      </trkpt>
      <trkpt lat="50.593487" lon="26.331968">
        <ele>283.359138</ele>
        <time>2019-06-06T08:04:39.000Z</time>
      </trkpt>
      <trkpt lat="50.593388" lon="26.331835">
        <ele>283.130634</ele>
        <time>2019-06-06T08:04:42.000Z</time>
      </trkpt>
      <trkpt lat="50.593285" lon="26.331705">
        <ele>282.898846</ele>
        <time>2019-06-06T08:04:45.000Z</time>
      </trkpt>
      <trkpt lat="50.593180" lon="26.331575">
        <ele>282.664306</ele>
        <time>2019-06-06T08:04:48.000Z</time>
      </trkpt>
      <trkpt lat="50.593056" lon="26.331415">
        <ele>282.382807</ele>
        <time>2019-06-06T08:04:52.000Z</time>
      </trkpt>
      <trkpt lat="50.592960" lon="26.331306">
        <ele>282.174982</ele>
        <time>2019-06-06T08:04:54.000Z</time>
      </trkpt>
      <trkpt lat="50.592865" lon="26.331194">
        <ele>281.966591</ele>
        <time>2019-06-06T08:04:58.000Z</time>
      </trkpt>
      <trkpt lat="50.592780" lon="26.331066">
        <ele>281.760078</ele>
        <time>2019-06-06T08:05:01.000Z</time>
      </trkpt>
      <trkpt lat="50.592710" lon="26.330950">
        <ele>281.581646</ele>
        <time>2019-06-06T08:05:04.000Z</time>
      </trkpt>
      <trkpt lat="50.592620" lon="26.330849">
        <ele>281.387581</ele>
        <time>2019-06-06T08:05:07.000Z</time>
      </trkpt>
      <trkpt lat="50.592525" lon="26.330742">
        <ele>281.182482</ele>
        <time>2019-06-06T08:05:10.000Z</time>
      </trkpt>
      <trkpt lat="50.592415" lon="26.330626">
        <ele>280.925643</ele>
        <time>2019-06-06T08:05:13.000Z</time>
      </trkpt>
      <trkpt lat="50.592340" lon="26.330538">
        <ele>280.578170</ele>
        <time>2019-06-06T08:05:15.000Z</time>
      </trkpt>
      <trkpt lat="50.592262" lon="26.330442">
        <ele>280.210388</ele>
        <time>2019-06-06T08:05:17.000Z</time>
      </trkpt>
      <trkpt lat="50.592160" lon="26.330318">
        <ele>279.731668</ele>
        <time>2019-06-06T08:05:20.000Z</time>
      </trkpt>
      <trkpt lat="50.592050" lon="26.330194">
        <ele>279.229088</ele>
        <time>2019-06-06T08:05:23.000Z</time>
      </trkpt>
      <trkpt lat="50.591938" lon="26.330067">
        <ele>278.716344</ele>
        <time>2019-06-06T08:05:26.000Z</time>
      </trkpt>
      <trkpt lat="50.591850" lon="26.329971">
        <ele>278.318624</ele>
        <time>2019-06-06T08:05:28.000Z</time>
      </trkpt>
      <trkpt lat="50.591763" lon="26.329872">
        <ele>277.919852</ele>
        <time>2019-06-06T08:05:30.000Z</time>
      </trkpt>
      <trkpt lat="50.591675" lon="26.329765">
        <ele>277.506808</ele>
        <time>2019-06-06T08:05:32.000Z</time>
      </trkpt>
      <trkpt lat="50.591590" lon="26.329655">
        <ele>277.098075</ele>
        <time>2019-06-06T08:05:34.000Z</time>
      </trkpt>
      <trkpt lat="50.591507" lon="26.329552">
        <ele>276.705483</ele>
        <time>2019-06-06T08:05:36.000Z</time>
      </trkpt>
      <trkpt lat="50.591410" lon="26.329441">
        <ele>276.260014</ele>
        <time>2019-06-06T08:05:38.000Z</time>
      </trkpt>
      <trkpt lat="50.591328" lon="26.329329">
        <ele>275.856756</ele>
        <time>2019-06-06T08:05:40.000Z</time>
      </trkpt>
      <trkpt lat="50.591232" lon="26.329210">
        <ele>275.402866</ele>
        <time>2019-06-06T08:05:42.000Z</time>
      </trkpt>
      <trkpt lat="50.591137" lon="26.329098">
        <ele>274.961977</ele>
        <time>2019-06-06T08:05:44.000Z</time>
      </trkpt>
      <trkpt lat="50.591040" lon="26.328985">
        <ele>274.513718</ele>
        <time>2019-06-06T08:05:46.000Z</time>
      </trkpt>
      <trkpt lat="50.590940" lon="26.328860">
        <ele>273.888139</ele>
        <time>2019-06-06T08:05:48.000Z</time>
      </trkpt>
      <trkpt lat="50.590830" lon="26.328728">
        <ele>273.062982</ele>
        <time>2019-06-06T08:05:50.000Z</time>
      </trkpt>
      <trkpt lat="50.590720" lon="26.328598">
        <ele>272.242394</ele>
        <time>2019-06-06T08:05:52.000Z</time>
      </trkpt>
      <trkpt lat="50.590614" lon="26.328460">
        <ele>271.421802</ele>
        <time>2019-06-06T08:05:54.000Z</time>
      </trkpt>
      <trkpt lat="50.590508" lon="26.328323">
        <ele>270.603618</ele>
        <time>2019-06-06T08:05:56.000Z</time>
      </trkpt>
      <trkpt lat="50.590400" lon="26.328194">
        <ele>269.794836</ele>
        <time>2019-06-06T08:05:58.000Z</time>
      </trkpt>
      <trkpt lat="50.590305" lon="26.328058">
        <ele>269.028817</ele>
        <time>2019-06-06T08:06:00.000Z</time>
      </trkpt>
      <trkpt lat="50.590202" lon="26.327925">
        <ele>268.234082</ele>
        <time>2019-06-06T08:06:02.000Z</time>
      </trkpt>
      <trkpt lat="50.590088" lon="26.327795">
        <ele>267.394275</ele>
        <time>2019-06-06T08:06:04.000Z</time>
      </trkpt>
      <trkpt lat="50.589970" lon="26.327648">
        <ele>266.496556</ele>
        <time>2019-06-06T08:06:06.000Z</time>
      </trkpt>
      <trkpt lat="50.589855" lon="26.327500">
        <ele>265.610415</ele>
        <time>2019-06-06T08:06:08.000Z</time>
      </trkpt>
      <trkpt lat="50.589730" lon="26.327360">
        <ele>264.695190</ele>
        <time>2019-06-06T08:06:10.000Z</time>
      </trkpt>
      <trkpt lat="50.589603" lon="26.327230">
        <ele>263.791401</ele>
        <time>2019-06-06T08:06:12.000Z</time>
      </trkpt>
      <trkpt lat="50.589470" lon="26.327093">
        <ele>263.039857</ele>
        <time>2019-06-06T08:06:14.000Z</time>
      </trkpt>
      <trkpt lat="50.589333" lon="26.326962">
        <ele>262.347321</ele>
        <time>2019-06-06T08:06:16.000Z</time>
      </trkpt>
      <trkpt lat="50.589190" lon="26.326834">
        <ele>261.636599</ele>
        <time>2019-06-06T08:06:18.000Z</time>
      </trkpt>
      <trkpt lat="50.589046" lon="26.326693">
        <ele>260.903929</ele>
        <time>2019-06-06T08:06:20.000Z</time>
      </trkpt>
      <trkpt lat="50.588886" lon="26.326565">
        <ele>260.128488</ele>
        <time>2019-06-06T08:06:22.000Z</time>
      </trkpt>
      <trkpt lat="50.588806" lon="26.326502">
        <ele>259.742003</ele>
        <time>2019-06-06T08:06:23.000Z</time>
      </trkpt>
      <trkpt lat="50.588654" lon="26.326374">
        <ele>258.997218</ele>
        <time>2019-06-06T08:06:25.000Z</time>
      </trkpt>
      <trkpt lat="50.588497" lon="26.326258">
        <ele>258.247875</ele>
        <time>2019-06-06T08:06:27.000Z</time>
      </trkpt>
      <trkpt lat="50.588333" lon="26.326157">
        <ele>257.486971</ele>
        <time>2019-06-06T08:06:29.000Z</time>
      </trkpt>
      <trkpt lat="50.588177" lon="26.326054">
        <ele>256.756050</ele>
        <time>2019-06-06T08:06:31.000Z</time>
      </trkpt>
      <trkpt lat="50.588024" lon="26.325956">
        <ele>256.042347</ele>
        <time>2019-06-06T08:06:33.000Z</time>
      </trkpt>
      <trkpt lat="50.587864" lon="26.325865">
        <ele>255.175190</ele>
        <time>2019-06-06T08:06:35.000Z</time>
      </trkpt>
      <trkpt lat="50.587708" lon="26.325770">
        <ele>254.252296</ele>
        <time>2019-06-06T08:06:37.000Z</time>
      </trkpt>
      <trkpt lat="50.587620" lon="26.325724">
        <ele>253.740676</ele>
        <time>2019-06-06T08:06:38.000Z</time>
      </trkpt>
      <trkpt lat="50.587532" lon="26.325674">
        <ele>253.224470</ele>
        <time>2019-06-06T08:06:39.000Z</time>
      </trkpt>
      <trkpt lat="50.587450" lon="26.325620">
        <ele>252.734044</ele>
        <time>2019-06-06T08:06:40.000Z</time>
      </trkpt>
      <trkpt lat="50.587364" lon="26.325565">
        <ele>252.221876</ele>
        <time>2019-06-06T08:06:41.000Z</time>
      </trkpt>
      <trkpt lat="50.587273" lon="26.325518">
        <ele>251.693438</ele>
        <time>2019-06-06T08:06:42.000Z</time>
      </trkpt>
      <trkpt lat="50.587185" lon="26.325478">
        <ele>251.188044</ele>
        <time>2019-06-06T08:06:43.000Z</time>
      </trkpt>
      <trkpt lat="50.587097" lon="26.325432">
        <ele>250.676424</ele>
        <time>2019-06-06T08:06:44.000Z</time>
      </trkpt>
      <trkpt lat="50.587010" lon="26.325384">
        <ele>250.167764</ele>
        <time>2019-06-06T08:06:45.000Z</time>
      </trkpt>
      <trkpt lat="50.586920" lon="26.325329">
        <ele>249.635080</ele>
        <time>2019-06-06T08:06:46.000Z</time>
      </trkpt>
      <trkpt lat="50.586830" lon="26.325275">
        <ele>249.103654</ele>
        <time>2019-06-06T08:06:47.000Z</time>
      </trkpt>
      <trkpt lat="50.586660" lon="26.325178">
        <ele>248.105949</ele>
        <time>2019-06-06T08:06:49.000Z</time>
      </trkpt>
      <trkpt lat="50.586575" lon="26.325125">
        <ele>247.601510</ele>
        <time>2019-06-06T08:06:50.000Z</time>
      </trkpt>
      <trkpt lat="50.586490" lon="26.325073">
        <ele>247.098348</ele>
        <time>2019-06-06T08:06:51.000Z</time>
      </trkpt>
      <trkpt lat="50.586327" lon="26.324980">
        <ele>246.141732</ele>
        <time>2019-06-06T08:06:53.000Z</time>
      </trkpt>
      <trkpt lat="50.586163" lon="26.324879">
        <ele>245.185503</ele>
        <time>2019-06-06T08:06:55.000Z</time>
      </trkpt>
      <trkpt lat="50.585995" lon="26.324774">
        <ele>244.210496</ele>
        <time>2019-06-06T08:06:57.000Z</time>
      </trkpt>
      <trkpt lat="50.585835" lon="26.324665">
        <ele>243.270111</ele>
        <time>2019-06-06T08:06:59.000Z</time>
      </trkpt>
      <trkpt lat="50.585750" lon="26.324602">
        <ele>242.763352</ele>
        <time>2019-06-06T08:07:00.000Z</time>
      </trkpt>
      <trkpt lat="50.585670" lon="26.324535">
        <ele>242.274580</ele>
        <time>2019-06-06T08:07:01.000Z</time>
      </trkpt>
      <trkpt lat="50.585583" lon="26.324465">
        <ele>241.747573</ele>
        <time>2019-06-06T08:07:02.000Z</time>
      </trkpt>
      <trkpt lat="50.585506" lon="26.324394">
        <ele>241.266254</ele>
        <time>2019-06-06T08:07:03.000Z</time>
      </trkpt>
      <trkpt lat="50.585350" lon="26.324257">
        <ele>240.302746</ele>
        <time>2019-06-06T08:07:05.000Z</time>
      </trkpt>
      <trkpt lat="50.585274" lon="26.324180">
        <ele>239.815269</ele>
        <time>2019-06-06T08:07:06.000Z</time>
      </trkpt>
      <trkpt lat="50.585197" lon="26.324102">
        <ele>239.321403</ele>
        <time>2019-06-06T08:07:07.000Z</time>
      </trkpt>
      <trkpt lat="50.585045" lon="26.323946">
        <ele>238.342726</ele>
        <time>2019-06-06T08:07:09.000Z</time>
      </trkpt>
      <trkpt lat="50.584972" lon="26.323860">
        <ele>237.850958</ele>
        <time>2019-06-06T08:07:10.000Z</time>
      </trkpt>
      <trkpt lat="50.584900" lon="26.323774">
        <ele>237.363498</ele>
        <time>2019-06-06T08:07:11.000Z</time>
      </trkpt>
      <trkpt lat="50.584760" lon="26.323597">
        <ele>236.395054</ele>
        <time>2019-06-06T08:07:13.000Z</time>
      </trkpt>
      <trkpt lat="50.584620" lon="26.323404">
        <ele>235.975586</ele>
        <time>2019-06-06T08:07:15.000Z</time>
      </trkpt>
      <trkpt lat="50.584488" lon="26.323212">
        <ele>235.746115</ele>
        <time>2019-06-06T08:07:17.000Z</time>
      </trkpt>
      <trkpt lat="50.584423" lon="26.323114">
        <ele>235.631199</ele>
        <time>2019-06-06T08:07:18.000Z</time>
      </trkpt>
      <trkpt lat="50.584360" lon="26.323011">
        <ele>235.515229</ele>
        <time>2019-06-06T08:07:19.000Z</time>
      </trkpt>
      <trkpt lat="50.584250" lon="26.322815">
        <ele>235.303110</ele>
        <time>2019-06-06T08:07:21.000Z</time>
      </trkpt>
      <trkpt lat="50.584156" lon="26.322655">
        <ele>235.126351</ele>
        <time>2019-06-06T08:07:23.000Z</time>
      </trkpt>
      <trkpt lat="50.584100" lon="26.322525">
        <ele>234.998965</ele>
        <time>2019-06-06T08:07:25.000Z</time>
      </trkpt>
      <trkpt lat="50.584040" lon="26.322374">
        <ele>234.854522</ele>
        <time>2019-06-06T08:07:28.000Z</time>
      </trkpt>
      <trkpt lat="50.583996" lon="26.322237">
        <ele>234.730027</ele>
        <time>2019-06-06T08:07:31.000Z</time>
      </trkpt>
      <trkpt lat="50.583958" lon="26.322092">
        <ele>234.602827</ele>
        <time>2019-06-06T08:07:34.000Z</time>
      </trkpt>
      <trkpt lat="50.583904" lon="26.321957">
        <ele>234.473446</ele>
        <time>2019-06-06T08:07:37.000Z</time>
      </trkpt>
      <trkpt lat="50.583800" lon="26.321882">
        <ele>234.327367</ele>
        <time>2019-06-06T08:07:41.000Z</time>
      </trkpt>
      <trkpt lat="50.583730" lon="26.321796">
        <ele>234.213987</ele>
        <time>2019-06-06T08:07:50.000Z</time>
      </trkpt>
      <trkpt lat="50.583640" lon="26.321888">
        <ele>234.076960</ele>
        <time>2019-06-06T08:09:13.000Z</time>
      </trkpt>
      <trkpt lat="50.583570" lon="26.322014">
        <ele>233.941200</ele>
        <time>2019-06-06T08:09:17.000Z</time>
      </trkpt>
      <trkpt lat="50.583515" lon="26.322178">
        <ele>234.057531</ele>
        <time>2019-06-06T08:09:21.000Z</time>
      </trkpt>
      <trkpt lat="50.583460" lon="26.322329">
        <ele>234.462450</ele>
        <time>2019-06-06T08:09:25.000Z</time>
      </trkpt>
      <trkpt lat="50.583393" lon="26.322437">
        <ele>234.813662</ele>
        <time>2019-06-06T08:09:29.000Z</time>
      </trkpt>
      <trkpt lat="50.583310" lon="26.322520">
        <ele>235.173833</ele>
        <time>2019-06-06T08:09:33.000Z</time>
      </trkpt>
      <trkpt lat="50.583210" lon="26.322577">
        <ele>235.563421</ele>
        <time>2019-06-06T08:09:37.000Z</time>
      </trkpt>
      <trkpt lat="50.583103" lon="26.322586">
        <ele>235.955955</ele>
        <time>2019-06-06T08:09:41.000Z</time>
      </trkpt>
      <trkpt lat="50.582993" lon="26.322598">
        <ele>236.359887</ele>
        <time>2019-06-06T08:09:45.000Z</time>
      </trkpt>
      <trkpt lat="50.582874" lon="26.322575">
        <ele>236.799093</ele>
        <time>2019-06-06T08:09:49.000Z</time>
      </trkpt>
      <trkpt lat="50.582760" lon="26.322567">
        <ele>237.217127</ele>
        <time>2019-06-06T08:09:53.000Z</time>
      </trkpt>
      <trkpt lat="50.582653" lon="26.322548">
        <ele>237.611587</ele>
        <time>2019-06-06T08:09:57.000Z</time>
      </trkpt>
      <trkpt lat="50.582554" lon="26.322536">
        <ele>237.975328</ele>
        <time>2019-06-06T08:10:01.000Z</time>
      </trkpt>
      <trkpt lat="50.582447" lon="26.322556">
        <ele>238.370056</ele>
        <time>2019-06-06T08:10:05.000Z</time>
      </trkpt>
      <trkpt lat="50.582340" lon="26.322580">
        <ele>238.765987</ele>
        <time>2019-06-06T08:10:09.000Z</time>
      </trkpt>
      <trkpt lat="50.582250" lon="26.322584">
        <ele>239.095818</ele>
        <time>2019-06-06T08:10:12.000Z</time>
      </trkpt>
      <trkpt lat="50.582140" lon="26.322613">
        <ele>239.504391</ele>
        <time>2019-06-06T08:10:16.000Z</time>
      </trkpt>
      <trkpt lat="50.582043" lon="26.322632">
        <ele>239.862471</ele>
        <time>2019-06-06T08:10:20.000Z</time>
      </trkpt>
      <trkpt lat="50.581940" lon="26.322607">
        <ele>240.244249</ele>
        <time>2019-06-06T08:10:24.000Z</time>
      </trkpt>
      <trkpt lat="50.581850" lon="26.322588">
        <ele>240.302276</ele>
        <time>2019-06-06T08:10:27.000Z</time>
      </trkpt>
      <trkpt lat="50.581720" lon="26.322540">
        <ele>239.743014</ele>
        <time>2019-06-06T08:10:30.000Z</time>
      </trkpt>
      <trkpt lat="50.581497" lon="26.322437">
        <ele>238.769649</ele>
        <time>2019-06-06T08:10:33.000Z</time>
      </trkpt>
      <trkpt lat="50.581370" lon="26.322336">
        <ele>238.173741</ele>
        <time>2019-06-06T08:10:36.000Z</time>
      </trkpt>
      <trkpt lat="50.581240" lon="26.322273">
        <ele>237.604046</ele>
        <time>2019-06-06T08:10:38.000Z</time>
      </trkpt>
      <trkpt lat="50.581097" lon="26.322214">
        <ele>236.984885</ele>
        <time>2019-06-06T08:10:40.000Z</time>
      </trkpt>
      <trkpt lat="50.580950" lon="26.322157">
        <ele>236.350796</ele>
        <time>2019-06-06T08:10:42.000Z</time>
      </trkpt>
      <trkpt lat="50.580803" lon="26.322096">
        <ele>235.714079</ele>
        <time>2019-06-06T08:10:44.000Z</time>
      </trkpt>
      <trkpt lat="50.580654" lon="26.322031">
        <ele>235.066500</ele>
        <time>2019-06-06T08:10:46.000Z</time>
      </trkpt>
      <trkpt lat="50.580517" lon="26.321962">
        <ele>234.464052</ele>
        <time>2019-06-06T08:10:48.000Z</time>
      </trkpt>
      <trkpt lat="50.580400" lon="26.321890">
        <ele>233.937919</ele>
        <time>2019-06-06T08:10:50.000Z</time>
      </trkpt>
      <trkpt lat="50.580270" lon="26.321820">
        <ele>233.362472</ele>
        <time>2019-06-06T08:10:52.000Z</time>
      </trkpt>
      <trkpt lat="50.580135" lon="26.321775">
        <ele>232.839938</ele>
        <time>2019-06-06T08:10:54.000Z</time>
      </trkpt>
      <trkpt lat="50.579998" lon="26.321735">
        <ele>232.503757</ele>
        <time>2019-06-06T08:10:56.000Z</time>
      </trkpt>
      <trkpt lat="50.579850" lon="26.321695">
        <ele>232.141448</ele>
        <time>2019-06-06T08:10:58.000Z</time>
      </trkpt>
      <trkpt lat="50.579697" lon="26.321670">
        <ele>231.770314</ele>
        <time>2019-06-06T08:11:00.000Z</time>
      </trkpt>
      <trkpt lat="50.579533" lon="26.321644">
        <ele>231.372621</ele>
        <time>2019-06-06T08:11:02.000Z</time>
      </trkpt>
      <trkpt lat="50.579360" lon="26.321623">
        <ele>230.953976</ele>
        <time>2019-06-06T08:11:04.000Z</time>
      </trkpt>
      <trkpt lat="50.579197" lon="26.321579">
        <ele>230.554960</ele>
        <time>2019-06-06T08:11:06.000Z</time>
      </trkpt>
      <trkpt lat="50.579052" lon="26.321514">
        <ele>230.191212</ele>
        <time>2019-06-06T08:11:08.000Z</time>
      </trkpt>
      <trkpt lat="50.578915" lon="26.321444">
        <ele>229.843700</ele>
        <time>2019-06-06T08:11:10.000Z</time>
      </trkpt>
      <trkpt lat="50.578780" lon="26.321379">
        <ele>229.503093</ele>
        <time>2019-06-06T08:11:12.000Z</time>
      </trkpt>
      <trkpt lat="50.578663" lon="26.321318">
        <ele>229.205731</ele>
        <time>2019-06-06T08:11:14.000Z</time>
      </trkpt>
      <trkpt lat="50.578550" lon="26.321259">
        <ele>228.918495</ele>
        <time>2019-06-06T08:11:16.000Z</time>
      </trkpt>
      <trkpt lat="50.578440" lon="26.321200">
        <ele>228.638119</ele>
        <time>2019-06-06T08:11:18.000Z</time>
      </trkpt>
      <trkpt lat="50.578340" lon="26.321148">
        <ele>228.530298</ele>
        <time>2019-06-06T08:11:20.000Z</time>
      </trkpt>
      <trkpt lat="50.578240" lon="26.321110">
        <ele>228.471637</ele>
        <time>2019-06-06T08:11:22.000Z</time>
      </trkpt>
      <trkpt lat="50.578140" lon="26.321070">
        <ele>228.412801</ele>
        <time>2019-06-06T08:11:24.000Z</time>
      </trkpt>
      <trkpt lat="50.578053" lon="26.321026">
        <ele>228.360695</ele>
        <time>2019-06-06T08:11:26.000Z</time>
      </trkpt>
      <trkpt lat="50.577923" lon="26.320982">
        <ele>228.284870</ele>
        <time>2019-06-06T08:11:29.000Z</time>
      </trkpt>
      <trkpt lat="50.577800" lon="26.320972">
        <ele>228.214637</ele>
        <time>2019-06-06T08:11:32.000Z</time>
      </trkpt>
      <trkpt lat="50.577694" lon="26.320960">
        <ele>228.154035</ele>
        <time>2019-06-06T08:11:35.000Z</time>
      </trkpt>
      <trkpt lat="50.577587" lon="26.320967">
        <ele>228.092967</ele>
        <time>2019-06-06T08:11:38.000Z</time>
      </trkpt>
      <trkpt lat="50.577477" lon="26.320978">
        <ele>228.030114</ele>
        <time>2019-06-06T08:11:41.000Z</time>
      </trkpt>
      <trkpt lat="50.577366" lon="26.320974">
        <ele>227.966800</ele>
        <time>2019-06-06T08:11:44.000Z</time>
      </trkpt>
      <trkpt lat="50.577248" lon="26.320986">
        <ele>227.899371</ele>
        <time>2019-06-06T08:11:47.000Z</time>
      </trkpt>
      <trkpt lat="50.577126" lon="26.320992">
        <ele>227.829768</ele>
        <time>2019-06-06T08:11:50.000Z</time>
      </trkpt>
      <trkpt lat="50.577007" lon="26.320997">
        <ele>227.761885</ele>
        <time>2019-06-06T08:11:53.000Z</time>
      </trkpt>
      <trkpt lat="50.576890" lon="26.321000">
        <ele>227.695158</ele>
        <time>2019-06-06T08:11:56.000Z</time>
      </trkpt>
      <trkpt lat="50.576760" lon="26.320997">
        <ele>227.621018</ele>
        <time>2019-06-06T08:11:59.000Z</time>
      </trkpt>
      <trkpt lat="50.576633" lon="26.321009">
        <ele>227.553986</ele>
        <time>2019-06-06T08:12:02.000Z</time>
      </trkpt>
      <trkpt lat="50.576520" lon="26.321005">
        <ele>227.737120</ele>
        <time>2019-06-06T08:12:05.000Z</time>
      </trkpt>
      <trkpt lat="50.576405" lon="26.321012">
        <ele>227.923587</ele>
        <time>2019-06-06T08:12:08.000Z</time>
      </trkpt>
      <trkpt lat="50.576298" lon="26.321012">
        <ele>228.096953</ele>
        <time>2019-06-06T08:12:11.000Z</time>
      </trkpt>
      <trkpt lat="50.576187" lon="26.321016">
        <ele>228.276847</ele>
        <time>2019-06-06T08:12:14.000Z</time>
      </trkpt>
      <trkpt lat="50.576077" lon="26.321020">
        <ele>228.455121</ele>
        <time>2019-06-06T08:12:17.000Z</time>
      </trkpt>
      <trkpt lat="50.575966" lon="26.321030">
        <ele>228.635262</ele>
        <time>2019-06-06T08:12:20.000Z</time>
      </trkpt>
      <trkpt lat="50.575860" lon="26.321043">
        <ele>228.807528</ele>
        <time>2019-06-06T08:12:23.000Z</time>
      </trkpt>
      <trkpt lat="50.575745" lon="26.321050">
        <ele>228.993995</ele>
        <time>2019-06-06T08:12:26.000Z</time>
      </trkpt>
      <trkpt lat="50.575630" lon="26.321056">
        <ele>229.180425</ele>
        <time>2019-06-06T08:12:29.000Z</time>
      </trkpt>
      <trkpt lat="50.575527" lon="26.321083">
        <ele>229.349607</ele>
        <time>2019-06-06T08:12:32.000Z</time>
      </trkpt>
      <trkpt lat="50.575420" lon="26.321100">
        <ele>229.523853</ele>
        <time>2019-06-06T08:12:35.000Z</time>
      </trkpt>
      <trkpt lat="50.575320" lon="26.321138">
        <ele>229.690528</ele>
        <time>2019-06-06T08:12:38.000Z</time>
      </trkpt>
      <trkpt lat="50.575222" lon="26.321196">
        <ele>229.860157</ele>
        <time>2019-06-06T08:12:41.000Z</time>
      </trkpt>
      <trkpt lat="50.575120" lon="26.321280">
        <ele>230.046659</ele>
        <time>2019-06-06T08:12:44.000Z</time>
      </trkpt>
      <trkpt lat="50.575027" lon="26.321370">
        <ele>230.223524</ele>
        <time>2019-06-06T08:12:47.000Z</time>
      </trkpt>
      <trkpt lat="50.574936" lon="26.321468">
        <ele>230.402151</ele>
        <time>2019-06-06T08:12:50.000Z</time>
      </trkpt>
      <trkpt lat="50.574856" lon="26.321570">
        <ele>230.543392</ele>
        <time>2019-06-06T08:12:53.000Z</time>
      </trkpt>
      <trkpt lat="50.574780" lon="26.321672">
        <ele>230.665753</ele>
        <time>2019-06-06T08:12:56.000Z</time>
      </trkpt>
      <trkpt lat="50.574696" lon="26.321783">
        <ele>230.800121</ele>
        <time>2019-06-06T08:12:59.000Z</time>
      </trkpt>
      <trkpt lat="50.574615" lon="26.321898">
        <ele>230.933759</ele>
        <time>2019-06-06T08:13:02.000Z</time>
      </trkpt>
      <trkpt lat="50.574535" lon="26.321999">
        <ele>231.059402</ele>
        <time>2019-06-06T08:13:05.000Z</time>
      </trkpt>
      <trkpt lat="50.574450" lon="26.322104">
        <ele>231.191780</ele>
        <time>2019-06-06T08:13:08.000Z</time>
      </trkpt>
      <trkpt lat="50.574375" lon="26.322224">
        <ele>231.322797</ele>
        <time>2019-06-06T08:13:11.000Z</time>
      </trkpt>
      <trkpt lat="50.574284" lon="26.322351">
        <ele>231.471794</ele>
        <time>2019-06-06T08:13:14.000Z</time>
      </trkpt>
      <trkpt lat="50.574192" lon="26.322464">
        <ele>231.614763</ele>
        <time>2019-06-06T08:13:17.000Z</time>
      </trkpt>
      <trkpt lat="50.574093" lon="26.322561">
        <ele>231.757637</ele>
        <time>2019-06-06T08:13:20.000Z</time>
      </trkpt>
      <trkpt lat="50.574005" lon="26.322638">
        <ele>231.880996</ele>
        <time>2019-06-06T08:13:23.000Z</time>
      </trkpt>
      <trkpt lat="50.573930" lon="26.322708">
        <ele>231.987826</ele>
        <time>2019-06-06T08:13:26.000Z</time>
      </trkpt>
      <trkpt lat="50.573845" lon="26.322770">
        <ele>232.102611</ele>
        <time>2019-06-06T08:13:29.000Z</time>
      </trkpt>
      <trkpt lat="50.573753" lon="26.322830">
        <ele>232.224627</ele>
        <time>2019-06-06T08:13:32.000Z</time>
      </trkpt>
      <trkpt lat="50.573658" lon="26.322895">
        <ele>232.351547</ele>
        <time>2019-06-06T08:13:35.000Z</time>
      </trkpt>
      <trkpt lat="50.573563" lon="26.322950">
        <ele>232.475572</ele>
        <time>2019-06-06T08:13:38.000Z</time>
      </trkpt>
      <trkpt lat="50.573460" lon="26.323002">
        <ele>232.608108</ele>
        <time>2019-06-06T08:13:41.000Z</time>
      </trkpt>
      <trkpt lat="50.573364" lon="26.323053">
        <ele>232.800354</ele>
        <time>2019-06-06T08:13:44.000Z</time>
      </trkpt>
      <trkpt lat="50.573270" lon="26.323100">
        <ele>233.049399</ele>
        <time>2019-06-06T08:13:47.000Z</time>
      </trkpt>
      <trkpt lat="50.573174" lon="26.323149">
        <ele>233.304232</ele>
        <time>2019-06-06T08:13:50.000Z</time>
      </trkpt>
      <trkpt lat="50.573082" lon="26.323190">
        <ele>233.545672</ele>
        <time>2019-06-06T08:13:53.000Z</time>
      </trkpt>
      <trkpt lat="50.572990" lon="26.323240">
        <ele>233.791436</ele>
        <time>2019-06-06T08:13:56.000Z</time>
      </trkpt>
      <trkpt lat="50.572900" lon="26.323292">
        <ele>234.033517</ele>
        <time>2019-06-06T08:13:59.000Z</time>
      </trkpt>
      <trkpt lat="50.572800" lon="26.323347">
        <ele>234.300994</ele>
        <time>2019-06-06T08:14:02.000Z</time>
      </trkpt>
      <trkpt lat="50.572704" lon="26.323399">
        <ele>234.557352</ele>
        <time>2019-06-06T08:14:05.000Z</time>
      </trkpt>
      <trkpt lat="50.572613" lon="26.323439">
        <ele>234.795928</ele>
        <time>2019-06-06T08:14:08.000Z</time>
      </trkpt>
      <trkpt lat="50.572514" lon="26.323486">
        <ele>235.057034</ele>
        <time>2019-06-06T08:14:11.000Z</time>
      </trkpt>
      <trkpt lat="50.572422" lon="26.323523">
        <ele>235.296807</ele>
        <time>2019-06-06T08:14:14.000Z</time>
      </trkpt>
      <trkpt lat="50.572330" lon="26.323574">
        <ele>235.543099</ele>
        <time>2019-06-06T08:14:17.000Z</time>
      </trkpt>
      <trkpt lat="50.572235" lon="26.323633">
        <ele>235.800975</ele>
        <time>2019-06-06T08:14:20.000Z</time>
      </trkpt>
      <trkpt lat="50.572147" lon="26.323677">
        <ele>236.034124</ele>
        <time>2019-06-06T08:14:23.000Z</time>
      </trkpt>
      <trkpt lat="50.572056" lon="26.323725">
        <ele>236.276464</ele>
        <time>2019-06-06T08:14:26.000Z</time>
      </trkpt>
      <trkpt lat="50.571968" lon="26.323770">
        <ele>236.510103</ele>
        <time>2019-06-06T08:14:29.000Z</time>
      </trkpt>
      <trkpt lat="50.571880" lon="26.323820">
        <ele>236.746342</ele>
        <time>2019-06-06T08:14:32.000Z</time>
      </trkpt>
      <trkpt lat="50.571790" lon="26.323874">
        <ele>236.989548</ele>
        <time>2019-06-06T08:14:35.000Z</time>
      </trkpt>
      <trkpt lat="50.571693" lon="26.323923">
        <ele>237.261393</ele>
        <time>2019-06-06T08:14:38.000Z</time>
      </trkpt>
      <trkpt lat="50.571600" lon="26.323973">
        <ele>237.607849</ele>
        <time>2019-06-06T08:14:41.000Z</time>
      </trkpt>
      <trkpt lat="50.571495" lon="26.324015">
        <ele>237.989783</ele>
        <time>2019-06-06T08:14:45.000Z</time>
      </trkpt>
      <trkpt lat="50.571396" lon="26.324091">
        <ele>238.378081</ele>
        <time>2019-06-06T08:14:49.000Z</time>
      </trkpt>
      <trkpt lat="50.571310" lon="26.324144">
        <ele>238.703669</ele>
        <time>2019-06-06T08:14:52.000Z</time>
      </trkpt>
      <trkpt lat="50.571200" lon="26.324210">
        <ele>239.118675</ele>
        <time>2019-06-06T08:14:56.000Z</time>
      </trkpt>
      <trkpt lat="50.571106" lon="26.324251">
        <ele>239.462551</ele>
        <time>2019-06-06T08:14:59.000Z</time>
      </trkpt>
      <trkpt lat="50.571020" lon="26.324295">
        <ele>239.781348</ele>
        <time>2019-06-06T08:15:02.000Z</time>
      </trkpt>
      <trkpt lat="50.570908" lon="26.324354">
        <ele>240.197715</ele>
        <time>2019-06-06T08:15:06.000Z</time>
      </trkpt>
      <trkpt lat="50.570793" lon="26.324411">
        <ele>240.622760</ele>
        <time>2019-06-06T08:15:10.000Z</time>
      </trkpt>
      <trkpt lat="50.570710" lon="26.324455">
        <ele>240.931515</ele>
        <time>2019-06-06T08:15:13.000Z</time>
      </trkpt>
      <trkpt lat="50.570614" lon="26.324500">
        <ele>241.284642</ele>
        <time>2019-06-06T08:15:16.000Z</time>
      </trkpt>
      <trkpt lat="50.570507" lon="26.324556">
        <ele>241.682162</ele>
        <time>2019-06-06T08:15:20.000Z</time>
      </trkpt>
      <trkpt lat="50.570396" lon="26.324610">
        <ele>242.091745</ele>
        <time>2019-06-06T08:15:24.000Z</time>
      </trkpt>
      <trkpt lat="50.570290" lon="26.324657">
        <ele>242.479981</ele>
        <time>2019-06-06T08:15:28.000Z</time>
      </trkpt>
      <trkpt lat="50.570206" lon="26.324705">
        <ele>242.795022</ele>
        <time>2019-06-06T08:15:31.000Z</time>
      </trkpt>
      <trkpt lat="50.570118" lon="26.324753">
        <ele>243.123354</ele>
        <time>2019-06-06T08:15:34.000Z</time>
      </trkpt>
      <trkpt lat="50.569980" lon="26.324823">
        <ele>243.633111</ele>
        <time>2019-06-06T08:15:39.000Z</time>
      </trkpt>
      <trkpt lat="50.569870" lon="26.324867">
        <ele>244.026594</ele>
        <time>2019-06-06T08:15:43.000Z</time>
      </trkpt>
      <trkpt lat="50.569770" lon="26.324932">
        <ele>244.401677</ele>
        <time>2019-06-06T08:15:47.000Z</time>
      </trkpt>
      <trkpt lat="50.569664" lon="26.324990">
        <ele>244.790738</ele>
        <time>2019-06-06T08:15:51.000Z</time>
      </trkpt>
      <trkpt lat="50.569560" lon="26.325052">
        <ele>245.176286</ele>
        <time>2019-06-06T08:15:55.000Z</time>
      </trkpt>
      <trkpt lat="50.569458" lon="26.325113">
        <ele>245.554571</ele>
        <time>2019-06-06T08:15:59.000Z</time>
      </trkpt>
      <trkpt lat="50.569370" lon="26.325151">
        <ele>245.870933</ele>
        <time>2019-06-06T08:16:02.000Z</time>
      </trkpt>
      <trkpt lat="50.569260" lon="26.325214">
        <ele>246.276750</ele>
        <time>2019-06-06T08:16:06.000Z</time>
      </trkpt>
      <trkpt lat="50.569176" lon="26.325254">
        <ele>246.581006</ele>
        <time>2019-06-06T08:16:09.000Z</time>
      </trkpt>
      <trkpt lat="50.569084" lon="26.325312">
        <ele>246.924589</ele>
        <time>2019-06-06T08:16:12.000Z</time>
      </trkpt>
      <trkpt lat="50.568974" lon="26.325369">
        <ele>247.326082</ele>
        <time>2019-06-06T08:16:16.000Z</time>
      </trkpt>
      <trkpt lat="50.568863" lon="26.325417">
        <ele>247.725169</ele>
        <time>2019-06-06T08:16:20.000Z</time>
      </trkpt>
      <trkpt lat="50.568756" lon="26.325462">
        <ele>248.109144</ele>
        <time>2019-06-06T08:16:24.000Z</time>
      </trkpt>
      <trkpt lat="50.568640" lon="26.325520">
        <ele>248.531108</ele>
        <time>2019-06-06T08:16:28.000Z</time>
      </trkpt>
      <trkpt lat="50.568535" lon="26.325567">
        <ele>248.909569</ele>
        <time>2019-06-06T08:16:32.000Z</time>
      </trkpt>
      <trkpt lat="50.568424" lon="26.325626">
        <ele>249.315744</ele>
        <time>2019-06-06T08:16:36.000Z</time>
      </trkpt>
      <trkpt lat="50.568310" lon="26.325691">
        <ele>249.736101</ele>
        <time>2019-06-06T08:16:40.000Z</time>
      </trkpt>
      <trkpt lat="50.568203" lon="26.325750">
        <ele>250.070042</ele>
        <time>2019-06-06T08:16:44.000Z</time>
      </trkpt>
      <trkpt lat="50.568092" lon="26.325817">
        <ele>250.411006</ele>
        <time>2019-06-06T08:16:48.000Z</time>
      </trkpt>
      <trkpt lat="50.568005" lon="26.325869">
        <ele>250.677915</ele>
        <time>2019-06-06T08:16:51.000Z</time>
      </trkpt>
      <trkpt lat="50.567920" lon="26.325920">
        <ele>250.938814</ele>
        <time>2019-06-06T08:16:54.000Z</time>
      </trkpt>
      <trkpt lat="50.567810" lon="26.325987">
        <ele>251.277101</ele>
        <time>2019-06-06T08:16:58.000Z</time>
      </trkpt>
      <trkpt lat="50.567710" lon="26.326040">
        <ele>251.579735</ele>
        <time>2019-06-06T08:17:02.000Z</time>
      </trkpt>
      <trkpt lat="50.567608" lon="26.326109">
        <ele>251.898152</ele>
        <time>2019-06-06T08:17:06.000Z</time>
      </trkpt>
      <trkpt lat="50.567510" lon="26.326181">
        <ele>252.208333</ele>
        <time>2019-06-06T08:17:10.000Z</time>
      </trkpt>
      <trkpt lat="50.567406" lon="26.326260">
        <ele>252.539529</ele>
        <time>2019-06-06T08:17:14.000Z</time>
      </trkpt>
      <trkpt lat="50.567303" lon="26.326353">
        <ele>252.880087</ele>
        <time>2019-06-06T08:17:18.000Z</time>
      </trkpt>
      <trkpt lat="50.567204" lon="26.326458">
        <ele>253.222459</ele>
        <time>2019-06-06T08:17:22.000Z</time>
      </trkpt>
      <trkpt lat="50.567104" lon="26.326567">
        <ele>253.571309</ele>
        <time>2019-06-06T08:17:26.000Z</time>
      </trkpt>
      <trkpt lat="50.567036" lon="26.326658">
        <ele>253.827285</ele>
        <time>2019-06-06T08:17:29.000Z</time>
      </trkpt>
      <trkpt lat="50.566948" lon="26.326777">
        <ele>254.160009</ele>
        <time>2019-06-06T08:17:33.000Z</time>
      </trkpt>
      <trkpt lat="50.566880" lon="26.326870">
        <ele>254.418359</ele>
        <time>2019-06-06T08:17:36.000Z</time>
      </trkpt>
      <trkpt lat="50.566814" lon="26.326973">
        <ele>254.684903</ele>
        <time>2019-06-06T08:17:39.000Z</time>
      </trkpt>
      <trkpt lat="50.566760" lon="26.327087">
        <ele>254.943982</ele>
        <time>2019-06-06T08:17:42.000Z</time>
      </trkpt>
      <trkpt lat="50.566692" lon="26.327234">
        <ele>255.151194</ele>
        <time>2019-06-06T08:17:46.000Z</time>
      </trkpt>
      <trkpt lat="50.566630" lon="26.327349">
        <ele>255.322532</ele>
        <time>2019-06-06T08:17:49.000Z</time>
      </trkpt>
      <trkpt lat="50.566578" lon="26.327465">
        <ele>255.483806</ele>
        <time>2019-06-06T08:17:52.000Z</time>
      </trkpt>
      <trkpt lat="50.566525" lon="26.327590">
        <ele>255.654521</ele>
        <time>2019-06-06T08:17:55.000Z</time>
      </trkpt>
      <trkpt lat="50.566470" lon="26.327719">
        <ele>255.831002</ele>
        <time>2019-06-06T08:17:58.000Z</time>
      </trkpt>
      <trkpt lat="50.566420" lon="26.327848">
        <ele>256.002659</ele>
        <time>2019-06-06T08:18:01.000Z</time>
      </trkpt>
      <trkpt lat="50.566370" lon="26.327984">
        <ele>256.181153</ele>
        <time>2019-06-06T08:18:04.000Z</time>
      </trkpt>
      <trkpt lat="50.566315" lon="26.328112">
        <ele>256.356692</ele>
        <time>2019-06-06T08:18:07.000Z</time>
      </trkpt>
      <trkpt lat="50.566270" lon="26.328232">
        <ele>256.514982</ele>
        <time>2019-06-06T08:18:10.000Z</time>
      </trkpt>
      <trkpt lat="50.566220" lon="26.328354">
        <ele>256.679905</ele>
        <time>2019-06-06T08:18:13.000Z</time>
      </trkpt>
      <trkpt lat="50.566170" lon="26.328472">
        <ele>256.841029</ele>
        <time>2019-06-06T08:18:16.000Z</time>
      </trkpt>
      <trkpt lat="50.566113" lon="26.328604">
        <ele>257.022337</ele>
        <time>2019-06-06T08:18:19.000Z</time>
      </trkpt>
      <trkpt lat="50.566060" lon="26.328718">
        <ele>257.182810</ele>
        <time>2019-06-06T08:18:22.000Z</time>
      </trkpt>
      <trkpt lat="50.566010" lon="26.328848">
        <ele>257.355440</ele>
        <time>2019-06-06T08:18:25.000Z</time>
      </trkpt>
      <trkpt lat="50.565956" lon="26.328970">
        <ele>257.524349</ele>
        <time>2019-06-06T08:18:28.000Z</time>
      </trkpt>
      <trkpt lat="50.565895" lon="26.329130">
        <ele>257.736319</ele>
        <time>2019-06-06T08:18:32.000Z</time>
      </trkpt>
      <trkpt lat="50.565840" lon="26.329294">
        <ele>257.946980</ele>
        <time>2019-06-06T08:18:36.000Z</time>
      </trkpt>
      <trkpt lat="50.565792" lon="26.329414">
        <ele>258.108066</ele>
        <time>2019-06-06T08:18:39.000Z</time>
      </trkpt>
      <trkpt lat="50.565740" lon="26.329542">
        <ele>258.367837</ele>
        <time>2019-06-06T08:18:42.000Z</time>
      </trkpt>
      <trkpt lat="50.565678" lon="26.329704">
        <ele>258.740821</ele>
        <time>2019-06-06T08:18:46.000Z</time>
      </trkpt>
      <trkpt lat="50.565624" lon="26.329828">
        <ele>259.037310</ele>
        <time>2019-06-06T08:18:49.000Z</time>
      </trkpt>
      <trkpt lat="50.565570" lon="26.329948">
        <ele>259.327328</ele>
        <time>2019-06-06T08:18:52.000Z</time>
      </trkpt>
      <trkpt lat="50.565514" lon="26.330072">
        <ele>259.627373</ele>
        <time>2019-06-06T08:18:55.000Z</time>
      </trkpt>
      <trkpt lat="50.565464" lon="26.330200">
        <ele>259.923711</ele>
        <time>2019-06-06T08:18:58.000Z</time>
      </trkpt>
      <trkpt lat="50.565400" lon="26.330349">
        <ele>260.278428</ele>
        <time>2019-06-06T08:19:02.000Z</time>
      </trkpt>
      <trkpt lat="50.565353" lon="26.330471">
        <ele>260.559814</ele>
        <time>2019-06-06T08:19:05.000Z</time>
      </trkpt>
      <trkpt lat="50.565308" lon="26.330599">
        <ele>260.848325</ele>
        <time>2019-06-06T08:19:08.000Z</time>
      </trkpt>
      <trkpt lat="50.565254" lon="26.330723">
        <ele>261.144816</ele>
        <time>2019-06-06T08:19:11.000Z</time>
      </trkpt>
      <trkpt lat="50.565197" lon="26.330847">
        <ele>261.446671</ele>
        <time>2019-06-06T08:19:14.000Z</time>
      </trkpt>
      <trkpt lat="50.565136" lon="26.330970">
        <ele>261.754414</ele>
        <time>2019-06-06T08:19:17.000Z</time>
      </trkpt>
      <trkpt lat="50.565086" lon="26.331089">
        <ele>262.035789</ele>
        <time>2019-06-06T08:19:20.000Z</time>
      </trkpt>
      <trkpt lat="50.565040" lon="26.331215">
        <ele>262.322391</ele>
        <time>2019-06-06T08:19:23.000Z</time>
      </trkpt>
      <trkpt lat="50.564990" lon="26.331345">
        <ele>262.622099</ele>
        <time>2019-06-06T08:19:26.000Z</time>
      </trkpt>
      <trkpt lat="50.564938" lon="26.331470">
        <ele>262.916773</ele>
        <time>2019-06-06T08:19:29.000Z</time>
      </trkpt>
      <trkpt lat="50.564890" lon="26.331590">
        <ele>263.196438</ele>
        <time>2019-06-06T08:19:32.000Z</time>
      </trkpt>
      <trkpt lat="50.564840" lon="26.331720">
        <ele>263.496147</ele>
        <time>2019-06-06T08:19:35.000Z</time>
      </trkpt>
      <trkpt lat="50.564790" lon="26.331839">
        <ele>263.779342</ele>
        <time>2019-06-06T08:19:38.000Z</time>
      </trkpt>
      <trkpt lat="50.564735" lon="26.331957">
        <ele>264.084869</ele>
        <time>2019-06-06T08:19:41.000Z</time>
      </trkpt>
      <trkpt lat="50.564680" lon="26.332113">
        <ele>264.457319</ele>
        <time>2019-06-06T08:19:45.000Z</time>
      </trkpt>
      <trkpt lat="50.564620" lon="26.332247">
        <ele>264.799558</ele>
        <time>2019-06-06T08:19:50.000Z</time>
      </trkpt>
      <trkpt lat="50.564556" lon="26.332375">
        <ele>265.139608</ele>
        <time>2019-06-06T08:19:55.000Z</time>
      </trkpt>
      <trkpt lat="50.564500" lon="26.332495">
        <ele>265.450446</ele>
        <time>2019-06-06T08:20:00.000Z</time>
      </trkpt>
      <trkpt lat="50.564453" lon="26.332682">
        <ele>265.870260</ele>
        <time>2019-06-06T08:22:38.000Z</time>
      </trkpt>
      <trkpt lat="50.564390" lon="26.332815">
        <ele>266.216598</ele>
        <time>2019-06-06T08:22:43.000Z</time>
      </trkpt>
      <trkpt lat="50.564335" lon="26.332940">
        <ele>266.534025</ele>
        <time>2019-06-06T08:22:47.000Z</time>
      </trkpt>
      <trkpt lat="50.564274" lon="26.333086">
        <ele>266.898823</ele>
        <time>2019-06-06T08:22:52.000Z</time>
      </trkpt>
      <trkpt lat="50.564220" lon="26.333214">
        <ele>267.219589</ele>
        <time>2019-06-06T08:22:56.000Z</time>
      </trkpt>
      <trkpt lat="50.564175" lon="26.333350">
        <ele>267.539702</ele>
        <time>2019-06-06T08:23:00.000Z</time>
      </trkpt>
      <trkpt lat="50.564106" lon="26.333483">
        <ele>267.898177</ele>
        <time>2019-06-06T08:23:04.000Z</time>
      </trkpt>
      <trkpt lat="50.564050" lon="26.333620">
        <ele>268.238266</ele>
        <time>2019-06-06T08:23:08.000Z</time>
      </trkpt>
      <trkpt lat="50.563990" lon="26.333765">
        <ele>268.599519</ele>
        <time>2019-06-06T08:23:12.000Z</time>
      </trkpt>
      <trkpt lat="50.563934" lon="26.333908">
        <ele>268.950208</ele>
        <time>2019-06-06T08:23:16.000Z</time>
      </trkpt>
      <trkpt lat="50.563870" lon="26.334047">
        <ele>269.308586</ele>
        <time>2019-06-06T08:23:20.000Z</time>
      </trkpt>
      <trkpt lat="50.563810" lon="26.334175">
        <ele>269.640670</ele>
        <time>2019-06-06T08:23:24.000Z</time>
      </trkpt>
      <trkpt lat="50.563760" lon="26.334309">
        <ele>270.150418</ele>
        <time>2019-06-06T08:23:28.000Z</time>
      </trkpt>
      <trkpt lat="50.563705" lon="26.334436">
        <ele>270.664555</ele>
        <time>2019-06-06T08:23:32.000Z</time>
      </trkpt>
      <trkpt lat="50.563656" lon="26.334580">
        <ele>271.210981</ele>
        <time>2019-06-06T08:23:36.000Z</time>
      </trkpt>
      <trkpt lat="50.563602" lon="26.334715">
        <ele>271.744617</ele>
        <time>2019-06-06T08:23:40.000Z</time>
      </trkpt>
      <trkpt lat="50.563557" lon="26.334852">
        <ele>272.260512</ele>
        <time>2019-06-06T08:23:44.000Z</time>
      </trkpt>
      <trkpt lat="50.563496" lon="26.334976">
        <ele>272.785120</ele>
        <time>2019-06-06T08:23:48.000Z</time>
      </trkpt>
      <trkpt lat="50.563460" lon="26.335115">
        <ele>273.287226</ele>
        <time>2019-06-06T08:23:53.000Z</time>
      </trkpt>
      <trkpt lat="50.563408" lon="26.335232">
        <ele>273.764865</ele>
        <time>2019-06-06T08:23:59.000Z</time>
      </trkpt>
      <trkpt lat="50.563350" lon="26.335348">
        <ele>274.258659</ele>
        <time>2019-06-06T08:24:08.000Z</time>
      </trkpt>
      <trkpt lat="50.563335" lon="26.335493">
        <ele>274.750066</ele>
        <time>2019-06-06T08:24:15.000Z</time>
      </trkpt>
      <trkpt lat="50.563263" lon="26.335575">
        <ele>275.218016</ele>
        <time>2019-06-06T08:24:23.000Z</time>
      </trkpt>
      <trkpt lat="50.563213" lon="26.335695">
        <ele>275.698056</ele>
        <time>2019-06-06T08:24:29.000Z</time>
      </trkpt>
      <trkpt lat="50.563164" lon="26.335825">
        <ele>276.203690</ele>
        <time>2019-06-06T08:24:36.000Z</time>
      </trkpt>
      <trkpt lat="50.563100" lon="26.335947">
        <ele>276.732943</ele>
        <time>2019-06-06T08:24:43.000Z</time>
      </trkpt>
      <trkpt lat="50.563060" lon="26.336092">
        <ele>277.261725</ele>
        <time>2019-06-06T08:24:50.000Z</time>
      </trkpt>
      <trkpt lat="50.563015" lon="26.336245">
        <ele>277.825701</ele>
        <time>2019-06-06T08:24:58.000Z</time>
      </trkpt>
      <trkpt lat="50.562930" lon="26.336310">
        <ele>278.323306</ele>
        <time>2019-06-06T08:25:04.000Z</time>
      </trkpt>
      <trkpt lat="50.562893" lon="26.336449">
        <ele>278.827429</ele>
        <time>2019-06-06T08:25:10.000Z</time>
      </trkpt>
      <trkpt lat="50.562830" lon="26.336569">
        <ele>279.248443</ele>
        <time>2019-06-06T08:25:19.000Z</time>
      </trkpt>
      <trkpt lat="50.562805" lon="26.336706">
        <ele>279.508629</ele>
        <time>2019-06-06T08:25:25.000Z</time>
      </trkpt>
      <trkpt lat="50.562748" lon="26.336819">
        <ele>279.772015</ele>
        <time>2019-06-06T08:25:33.000Z</time>
      </trkpt>
      <trkpt lat="50.562680" lon="26.336940">
        <ele>280.066910</ele>
        <time>2019-06-06T08:25:40.000Z</time>
      </trkpt>
      <trkpt lat="50.562634" lon="26.337067">
        <ele>280.333767</ele>
        <time>2019-06-06T08:25:46.000Z</time>
      </trkpt>
      <trkpt lat="50.562588" lon="26.337210">
        <ele>280.626353</ele>
        <time>2019-06-06T08:25:52.000Z</time>
      </trkpt>
      <trkpt lat="50.562508" lon="26.337320">
        <ele>280.931577</ele>
        <time>2019-06-06T08:26:01.000Z</time>
      </trkpt>
      <trkpt lat="50.562470" lon="26.337467">
        <ele>281.221271</ele>
        <time>2019-06-06T08:26:06.000Z</time>
      </trkpt>
      <trkpt lat="50.562400" lon="26.337559">
        <ele>281.483304</ele>
        <time>2019-06-06T08:26:13.000Z</time>
      </trkpt>
      <trkpt lat="50.562340" lon="26.337667">
        <ele>281.745200</ele>
        <time>2019-06-06T08:26:19.000Z</time>
      </trkpt>
      <trkpt lat="50.562250" lon="26.337748">
        <ele>282.043098</ele>
        <time>2019-06-06T08:26:26.000Z</time>
      </trkpt>
      <trkpt lat="50.562170" lon="26.337862">
        <ele>282.353175</ele>
        <time>2019-06-06T08:26:31.000Z</time>
      </trkpt>
      <trkpt lat="50.562100" lon="26.337957">
        <ele>282.618752</ele>
        <time>2019-06-06T08:26:35.000Z</time>
      </trkpt>
      <trkpt lat="50.562010" lon="26.338060">
        <ele>282.938488</ele>
        <time>2019-06-06T08:26:40.000Z</time>
      </trkpt>
      <trkpt lat="50.561943" lon="26.338182">
        <ele>283.232868</ele>
        <time>2019-06-06T08:26:45.000Z</time>
      </trkpt>
      <trkpt lat="50.561863" lon="26.338306">
        <ele>283.555480</ele>
        <time>2019-06-06T08:26:50.000Z</time>
      </trkpt>
      <trkpt lat="50.561780" lon="26.338362">
        <ele>283.814965</ele>
        <time>2019-06-06T08:26:54.000Z</time>
      </trkpt>
      <trkpt lat="50.561700" lon="26.338442">
        <ele>284.087307</ele>
        <time>2019-06-06T08:26:58.000Z</time>
      </trkpt>
      <trkpt lat="50.561640" lon="26.338558">
        <ele>284.320428</ele>
        <time>2019-06-06T08:27:02.000Z</time>
      </trkpt>
      <trkpt lat="50.561543" lon="26.338593">
        <ele>284.425938</ele>
        <time>2019-06-06T08:27:14.000Z</time>
      </trkpt>
      <trkpt lat="50.561450" lon="26.338660">
        <ele>284.534377</ele>
        <time>2019-06-06T08:27:18.000Z</time>
      </trkpt>
      <trkpt lat="50.561375" lon="26.338741">
        <ele>284.630811</ele>
        <time>2019-06-06T08:27:21.000Z</time>
      </trkpt>
      <trkpt lat="50.561283" lon="26.338858">
        <ele>284.756207</ele>
        <time>2019-06-06T08:27:25.000Z</time>
      </trkpt>
      <trkpt lat="50.561180" lon="26.338926">
        <ele>284.874628</ele>
        <time>2019-06-06T08:27:29.000Z</time>
      </trkpt>
      <trkpt lat="50.561090" lon="26.338950">
        <ele>284.971409</ele>
        <time>2019-06-06T08:27:33.000Z</time>
      </trkpt>
      <trkpt lat="50.560997" lon="26.339037">
        <ele>285.086110</ele>
        <time>2019-06-06T08:27:38.000Z</time>
      </trkpt>
      <trkpt lat="50.560910" lon="26.339120">
        <ele>285.193969</ele>
        <time>2019-06-06T08:27:42.000Z</time>
      </trkpt>
      <trkpt lat="50.560810" lon="26.339170">
        <ele>285.305213</ele>
        <time>2019-06-06T08:27:48.000Z</time>
      </trkpt>
      <trkpt lat="50.560715" lon="26.339230">
        <ele>285.413741</ele>
        <time>2019-06-06T08:27:52.000Z</time>
      </trkpt>
      <trkpt lat="50.560610" lon="26.339294">
        <ele>285.533121</ele>
        <time>2019-06-06T08:27:56.000Z</time>
      </trkpt>
      <trkpt lat="50.560528" lon="26.339350">
        <ele>285.627891</ele>
        <time>2019-06-06T08:27:59.000Z</time>
      </trkpt>
      <trkpt lat="50.560413" lon="26.339415">
        <ele>285.757440</ele>
        <time>2019-06-06T08:28:03.000Z</time>
      </trkpt>
      <trkpt lat="50.560330" lon="26.339478">
        <ele>285.855137</ele>
        <time>2019-06-06T08:28:06.000Z</time>
      </trkpt>
      <trkpt lat="50.560238" lon="26.339539">
        <ele>285.960979</ele>
        <time>2019-06-06T08:28:09.000Z</time>
      </trkpt>
      <trkpt lat="50.560150" lon="26.339605">
        <ele>286.064330</ele>
        <time>2019-06-06T08:28:12.000Z</time>
      </trkpt>
      <trkpt lat="50.560062" lon="26.339666">
        <ele>286.166277</ele>
        <time>2019-06-06T08:28:15.000Z</time>
      </trkpt>
      <trkpt lat="50.559975" lon="26.339722">
        <ele>286.162089</ele>
        <time>2019-06-06T08:28:18.000Z</time>
      </trkpt>
      <trkpt lat="50.559883" lon="26.339779">
        <ele>286.090928</ele>
        <time>2019-06-06T08:28:21.000Z</time>
      </trkpt>
      <trkpt lat="50.559790" lon="26.339844">
        <ele>286.017690</ele>
        <time>2019-06-06T08:28:24.000Z</time>
      </trkpt>
      <trkpt lat="50.559700" lon="26.339916">
        <ele>285.945027</ele>
        <time>2019-06-06T08:28:27.000Z</time>
      </trkpt>
      <trkpt lat="50.559610" lon="26.339987">
        <ele>285.872570</ele>
        <time>2019-06-06T08:28:30.000Z</time>
      </trkpt>
      <trkpt lat="50.559517" lon="26.340052">
        <ele>285.799332</ele>
        <time>2019-06-06T08:28:33.000Z</time>
      </trkpt>
      <trkpt lat="50.559420" lon="26.340117">
        <ele>285.723454</ele>
        <time>2019-06-06T08:28:36.000Z</time>
      </trkpt>
      <trkpt lat="50.559326" lon="26.340181">
        <ele>285.649740</ele>
        <time>2019-06-06T08:28:39.000Z</time>
      </trkpt>
      <trkpt lat="50.559230" lon="26.340239">
        <ele>285.575730</ele>
        <time>2019-06-06T08:28:42.000Z</time>
      </trkpt>
      <trkpt lat="50.559130" lon="26.340313">
        <ele>285.496198</ele>
        <time>2019-06-06T08:28:45.000Z</time>
      </trkpt>
      <trkpt lat="50.559036" lon="26.340382">
        <ele>285.421547</ele>
        <time>2019-06-06T08:28:48.000Z</time>
      </trkpt>
      <trkpt lat="50.558945" lon="26.340448">
        <ele>285.349432</ele>
        <time>2019-06-06T08:28:51.000Z</time>
      </trkpt>
      <trkpt lat="50.558857" lon="26.340510">
        <ele>285.280040</ele>
        <time>2019-06-06T08:28:54.000Z</time>
      </trkpt>
      <trkpt lat="50.558758" lon="26.340565">
        <ele>285.204477</ele>
        <time>2019-06-06T08:28:57.000Z</time>
      </trkpt>
      <trkpt lat="50.558660" lon="26.340643">
        <ele>285.125438</ele>
        <time>2019-06-06T08:29:00.000Z</time>
      </trkpt>
      <trkpt lat="50.558563" lon="26.340706">
        <ele>285.049913</ele>
        <time>2019-06-06T08:29:03.000Z</time>
      </trkpt>
      <trkpt lat="50.558460" lon="26.340767">
        <ele>284.970705</ele>
        <time>2019-06-06T08:29:06.000Z</time>
      </trkpt>
      <trkpt lat="50.558365" lon="26.340864">
        <ele>284.897804</ele>
        <time>2019-06-06T08:29:09.000Z</time>
      </trkpt>
      <trkpt lat="50.558258" lon="26.340956">
        <ele>284.847216</ele>
        <time>2019-06-06T08:29:12.000Z</time>
      </trkpt>
      <trkpt lat="50.558147" lon="26.341028">
        <ele>284.797404</ele>
        <time>2019-06-06T08:29:15.000Z</time>
      </trkpt>
      <trkpt lat="50.558033" lon="26.341130">
        <ele>284.742996</ele>
        <time>2019-06-06T08:29:18.000Z</time>
      </trkpt>
      <trkpt lat="50.557930" lon="26.341217">
        <ele>284.694496</ele>
        <time>2019-06-06T08:29:21.000Z</time>
      </trkpt>
      <trkpt lat="50.557827" lon="26.341309">
        <ele>284.645359</ele>
        <time>2019-06-06T08:29:24.000Z</time>
      </trkpt>
      <trkpt lat="50.557716" lon="26.341394">
        <ele>284.594142</ele>
        <time>2019-06-06T08:29:27.000Z</time>
      </trkpt>
      <trkpt lat="50.557610" lon="26.341470">
        <ele>284.545814</ele>
        <time>2019-06-06T08:29:30.000Z</time>
      </trkpt>
      <trkpt lat="50.557500" lon="26.341580">
        <ele>284.491742</ele>
        <time>2019-06-06T08:29:33.000Z</time>
      </trkpt>
      <trkpt lat="50.557390" lon="26.341673">
        <ele>284.439934</ele>
        <time>2019-06-06T08:29:36.000Z</time>
      </trkpt>
      <trkpt lat="50.557293" lon="26.341774">
        <ele>284.391679</ele>
        <time>2019-06-06T08:29:39.000Z</time>
      </trkpt>
      <trkpt lat="50.557186" lon="26.341864">
        <ele>284.341342</ele>
        <time>2019-06-06T08:29:42.000Z</time>
      </trkpt>
      <trkpt lat="50.557083" lon="26.341957">
        <ele>284.292074</ele>
        <time>2019-06-06T08:29:45.000Z</time>
      </trkpt>
      <trkpt lat="50.556973" lon="26.342054">
        <ele>284.239759</ele>
        <time>2019-06-06T08:29:48.000Z</time>
      </trkpt>
      <trkpt lat="50.556873" lon="26.342161">
        <ele>284.189589</ele>
        <time>2019-06-06T08:29:51.000Z</time>
      </trkpt>
      <trkpt lat="50.556786" lon="26.342247">
        <ele>284.191576</ele>
        <time>2019-06-06T08:29:54.000Z</time>
      </trkpt>
      <trkpt lat="50.556698" lon="26.342335">
        <ele>284.266972</ele>
        <time>2019-06-06T08:29:57.000Z</time>
      </trkpt>
      <trkpt lat="50.556595" lon="26.342415">
        <ele>284.350034</ele>
        <time>2019-06-06T08:30:00.000Z</time>
      </trkpt>
      <trkpt lat="50.556496" lon="26.342503">
        <ele>284.432255</ele>
        <time>2019-06-06T08:30:03.000Z</time>
      </trkpt>
      <trkpt lat="50.556404" lon="26.342587">
        <ele>284.509171</ele>
        <time>2019-06-06T08:30:06.000Z</time>
      </trkpt>
      <trkpt lat="50.556320" lon="26.342688">
        <ele>284.585613</ele>
        <time>2019-06-06T08:30:09.000Z</time>
      </trkpt>
      <trkpt lat="50.556230" lon="26.342773">
        <ele>284.661516</ele>
        <time>2019-06-06T08:30:12.000Z</time>
      </trkpt>
      <trkpt lat="50.556130" lon="26.342848">
        <ele>284.741624</ele>
        <time>2019-06-06T08:30:15.000Z</time>
      </trkpt>
      <trkpt lat="50.556040" lon="26.342916">
        <ele>284.813820</ele>
        <time>2019-06-06T08:30:18.000Z</time>
      </trkpt>
      <trkpt lat="50.555954" lon="26.342993">
        <ele>284.885370</ele>
        <time>2019-06-06T08:30:21.000Z</time>
      </trkpt>
      <trkpt lat="50.555860" lon="26.343082">
        <ele>284.964700</ele>
        <time>2019-06-06T08:30:24.000Z</time>
      </trkpt>
      <trkpt lat="50.555763" lon="26.343150">
        <ele>285.041490</ele>
        <time>2019-06-06T08:30:27.000Z</time>
      </trkpt>
      <trkpt lat="50.555676" lon="26.343231">
        <ele>285.114589</ele>
        <time>2019-06-06T08:30:30.000Z</time>
      </trkpt>
      <trkpt lat="50.555590" lon="26.343325">
        <ele>285.190307</ele>
        <time>2019-06-06T08:30:33.000Z</time>
      </trkpt>
      <trkpt lat="50.555508" lon="26.343414">
        <ele>285.262339</ele>
        <time>2019-06-06T08:30:36.000Z</time>
      </trkpt>
      <trkpt lat="50.555412" lon="26.343475">
        <ele>285.337208</ele>
        <time>2019-06-06T08:30:39.000Z</time>
      </trkpt>
      <trkpt lat="50.555320" lon="26.343555">
        <ele>285.413218</ele>
        <time>2019-06-06T08:30:42.000Z</time>
      </trkpt>
      <trkpt lat="50.555230" lon="26.343641">
        <ele>285.442166</ele>
        <time>2019-06-06T08:30:45.000Z</time>
      </trkpt>
      <trkpt lat="50.555140" lon="26.343723">
        <ele>285.377644</ele>
        <time>2019-06-06T08:30:48.000Z</time>
      </trkpt>
      <trkpt lat="50.555054" lon="26.343813">
        <ele>285.313567</ele>
        <time>2019-06-06T08:30:51.000Z</time>
      </trkpt>
      <trkpt lat="50.554970" lon="26.343872">
        <ele>285.256494</ele>
        <time>2019-06-06T08:30:54.000Z</time>
      </trkpt>
      <trkpt lat="50.554874" lon="26.343927">
        <ele>285.193107</ele>
        <time>2019-06-06T08:30:57.000Z</time>
      </trkpt>
      <trkpt lat="50.554787" lon="26.344017">
        <ele>285.128512</ele>
        <time>2019-06-06T08:31:00.000Z</time>
      </trkpt>
      <trkpt lat="50.554688" lon="26.344150">
        <ele>285.047754</ele>
        <time>2019-06-06T08:31:03.000Z</time>
      </trkpt>
      <trkpt lat="50.554604" lon="26.344238">
        <ele>284.985146</ele>
        <time>2019-06-06T08:31:06.000Z</time>
      </trkpt>
      <trkpt lat="50.554510" lon="26.344332">
        <ele>284.916047</ele>
        <time>2019-06-06T08:31:09.000Z</time>
      </trkpt>
      <trkpt lat="50.554417" lon="26.344427">
        <ele>284.847257</ele>
        <time>2019-06-06T08:31:12.000Z</time>
      </trkpt>
      <trkpt lat="50.554320" lon="26.344520">
        <ele>284.776785</ele>
        <time>2019-06-06T08:31:15.000Z</time>
      </trkpt>
      <trkpt lat="50.554220" lon="26.344625">
        <ele>284.702200</ele>
        <time>2019-06-06T08:31:18.000Z</time>
      </trkpt>
      <trkpt lat="50.554115" lon="26.344713">
        <ele>284.628392</ele>
        <time>2019-06-06T08:31:21.000Z</time>
      </trkpt>
      <trkpt lat="50.554005" lon="26.344805">
        <ele>284.551103</ele>
        <time>2019-06-06T08:31:24.000Z</time>
      </trkpt>
      <trkpt lat="50.553905" lon="26.344894">
        <ele>284.479825</ele>
        <time>2019-06-06T08:31:27.000Z</time>
      </trkpt>
      <trkpt lat="50.553806" lon="26.345000">
        <ele>284.405534</ele>
        <time>2019-06-06T08:31:30.000Z</time>
      </trkpt>
      <trkpt lat="50.553700" lon="26.345098">
        <ele>284.343804</ele>
        <time>2019-06-06T08:31:33.000Z</time>
      </trkpt>
      <trkpt lat="50.553604" lon="26.345194">
        <ele>284.328078</ele>
        <time>2019-06-06T08:31:36.000Z</time>
      </trkpt>
      <trkpt lat="50.553510" lon="26.345290">
        <ele>284.312585</ele>
        <time>2019-06-06T08:31:39.000Z</time>
      </trkpt>
      <trkpt lat="50.553394" lon="26.345371">
        <ele>284.295039</ele>
        <time>2019-06-06T08:31:42.000Z</time>
      </trkpt>
      <trkpt lat="50.553272" lon="26.345470">
        <ele>284.276061</ele>
        <time>2019-06-06T08:31:45.000Z</time>
      </trkpt>
      <trkpt lat="50.553160" lon="26.345581">
        <ele>284.257761</ele>
        <time>2019-06-06T08:31:48.000Z</time>
      </trkpt>
      <trkpt lat="50.553060" lon="26.345663">
        <ele>284.242171</ele>
        <time>2019-06-06T08:31:51.000Z</time>
      </trkpt>
      <trkpt lat="50.552970" lon="26.345741">
        <ele>284.227965</ele>
        <time>2019-06-06T08:31:54.000Z</time>
      </trkpt>
      <trkpt lat="50.552880" lon="26.345818">
        <ele>284.213802</ele>
        <time>2019-06-06T08:31:57.000Z</time>
      </trkpt>
      <trkpt lat="50.552790" lon="26.345915">
        <ele>284.198720</ele>
        <time>2019-06-06T08:32:00.000Z</time>
      </trkpt>
      <trkpt lat="50.552710" lon="26.345993">
        <ele>284.185709</ele>
        <time>2019-06-06T08:32:03.000Z</time>
      </trkpt>
      <trkpt lat="50.552605" lon="26.346107">
        <ele>284.168072</ele>
        <time>2019-06-06T08:32:06.000Z</time>
      </trkpt>
      <trkpt lat="50.552505" lon="26.346207">
        <ele>284.151691</ele>
        <time>2019-06-06T08:32:09.000Z</time>
      </trkpt>
      <trkpt lat="50.552400" lon="26.346302">
        <ele>284.134945</ele>
        <time>2019-06-06T08:32:12.000Z</time>
      </trkpt>
      <trkpt lat="50.552307" lon="26.346401">
        <ele>284.119422</ele>
        <time>2019-06-06T08:32:15.000Z</time>
      </trkpt>
      <trkpt lat="50.552220" lon="26.346502">
        <ele>284.104475</ele>
        <time>2019-06-06T08:32:18.000Z</time>
      </trkpt>
      <trkpt lat="50.552128" lon="26.346619">
        <ele>284.063474</ele>
        <time>2019-06-06T08:32:21.000Z</time>
      </trkpt>
      <trkpt lat="50.552044" lon="26.346712">
        <ele>284.017935</ele>
        <time>2019-06-06T08:32:24.000Z</time>
      </trkpt>
      <trkpt lat="50.551952" lon="26.346817">
        <ele>283.967545</ele>
        <time>2019-06-06T08:32:27.000Z</time>
      </trkpt>
      <trkpt lat="50.551865" lon="26.346935">
        <ele>283.916620</ele>
        <time>2019-06-06T08:32:30.000Z</time>
      </trkpt>
      <trkpt lat="50.551770" lon="26.347063">
        <ele>283.861168</ele>
        <time>2019-06-06T08:32:33.000Z</time>
      </trkpt>
      <trkpt lat="50.551680" lon="26.347197">
        <ele>283.806234</ele>
        <time>2019-06-06T08:32:36.000Z</time>
      </trkpt>
      <trkpt lat="50.551598" lon="26.347326">
        <ele>283.754825</ele>
        <time>2019-06-06T08:32:39.000Z</time>
      </trkpt>
      <trkpt lat="50.551514" lon="26.347416">
        <ele>283.709767</ele>
        <time>2019-06-06T08:32:42.000Z</time>
      </trkpt>
      <trkpt lat="50.551426" lon="26.347538">
        <ele>283.657767</ele>
        <time>2019-06-06T08:32:45.000Z</time>
      </trkpt>
      <trkpt lat="50.551334" lon="26.347660">
        <ele>283.604424</ele>
        <time>2019-06-06T08:32:48.000Z</time>
      </trkpt>
      <trkpt lat="50.551243" lon="26.347790">
        <ele>283.549930</ele>
        <time>2019-06-06T08:32:51.000Z</time>
      </trkpt>
      <trkpt lat="50.551147" lon="26.347914">
        <ele>283.494862</ele>
        <time>2019-06-06T08:32:54.000Z</time>
      </trkpt>
      <trkpt lat="50.551064" lon="26.348040">
        <ele>283.443729</ele>
        <time>2019-06-06T08:32:57.000Z</time>
      </trkpt>
      <trkpt lat="50.550972" lon="26.348175">
        <ele>283.387955</ele>
        <time>2019-06-06T08:33:00.000Z</time>
      </trkpt>
      <trkpt lat="50.550884" lon="26.348293">
        <ele>283.336693</ele>
        <time>2019-06-06T08:33:03.000Z</time>
      </trkpt>
      <trkpt lat="50.550793" lon="26.348417">
        <ele>283.257684</ele>
        <time>2019-06-06T08:33:06.000Z</time>
      </trkpt>
      <trkpt lat="50.550697" lon="26.348522">
        <ele>283.133759</ele>
        <time>2019-06-06T08:33:09.000Z</time>
      </trkpt>
      <trkpt lat="50.550600" lon="26.348612">
        <ele>283.014396</ele>
        <time>2019-06-06T08:33:12.000Z</time>
      </trkpt>
      <trkpt lat="50.550510" lon="26.348717">
        <ele>282.895637</ele>
        <time>2019-06-06T08:33:15.000Z</time>
      </trkpt>
      <trkpt lat="50.550423" lon="26.348831">
        <ele>282.775633</ele>
        <time>2019-06-06T08:33:18.000Z</time>
      </trkpt>
      <trkpt lat="50.550340" lon="26.348942">
        <ele>282.660174</ele>
        <time>2019-06-06T08:33:21.000Z</time>
      </trkpt>
      <trkpt lat="50.550243" lon="26.349047">
        <ele>282.535376</ele>
        <time>2019-06-06T08:33:24.000Z</time>
      </trkpt>
      <trkpt lat="50.550175" lon="26.349138">
        <ele>282.440756</ele>
        <time>2019-06-06T08:33:26.000Z</time>
      </trkpt>
      <trkpt lat="50.550070" lon="26.349240">
        <ele>282.309956</ele>
        <time>2019-06-06T08:33:29.000Z</time>
      </trkpt>
      <trkpt lat="50.549960" lon="26.349342">
        <ele>282.174617</ele>
        <time>2019-06-06T08:33:32.000Z</time>
      </trkpt>
      <trkpt lat="50.549860" lon="26.349438">
        <ele>282.050448</ele>
        <time>2019-06-06T08:33:35.000Z</time>
      </trkpt>
      <trkpt lat="50.549760" lon="26.349525">
        <ele>281.929324</ele>
        <time>2019-06-06T08:33:38.000Z</time>
      </trkpt>
      <trkpt lat="50.549670" lon="26.349613">
        <ele>281.817007</ele>
        <time>2019-06-06T08:33:41.000Z</time>
      </trkpt>
      <trkpt lat="50.549572" lon="26.349714">
        <ele>281.692830</ele>
        <time>2019-06-06T08:33:44.000Z</time>
      </trkpt>
      <trkpt lat="50.549470" lon="26.349825">
        <ele>281.561374</ele>
        <time>2019-06-06T08:33:47.000Z</time>
      </trkpt>
      <trkpt lat="50.549370" lon="26.349924">
        <ele>281.436140</ele>
        <time>2019-06-06T08:33:50.000Z</time>
      </trkpt>
      <trkpt lat="50.549274" lon="26.350023">
        <ele>281.240214</ele>
        <time>2019-06-06T08:33:53.000Z</time>
      </trkpt>
      <trkpt lat="50.549170" lon="26.350132">
        <ele>280.985790</ele>
        <time>2019-06-06T08:33:56.000Z</time>
      </trkpt>
      <trkpt lat="50.549070" lon="26.350237">
        <ele>280.741012</ele>
        <time>2019-06-06T08:33:59.000Z</time>
      </trkpt>
      <trkpt lat="50.548960" lon="26.350355">
        <ele>280.469948</ele>
        <time>2019-06-06T08:34:02.000Z</time>
      </trkpt>
      <trkpt lat="50.548885" lon="26.350440">
        <ele>280.281756</ele>
        <time>2019-06-06T08:34:04.000Z</time>
      </trkpt>
      <trkpt lat="50.548810" lon="26.350527">
        <ele>280.092041</ele>
        <time>2019-06-06T08:34:06.000Z</time>
      </trkpt>
      <trkpt lat="50.548733" lon="26.350603">
        <ele>279.906971</ele>
        <time>2019-06-06T08:34:08.000Z</time>
      </trkpt>
      <trkpt lat="50.548622" lon="26.350714">
        <ele>279.639185</ele>
        <time>2019-06-06T08:34:11.000Z</time>
      </trkpt>
      <trkpt lat="50.548546" lon="26.350784">
        <ele>279.459881</ele>
        <time>2019-06-06T08:34:13.000Z</time>
      </trkpt>
      <trkpt lat="50.548470" lon="26.350872">
        <ele>279.267758</ele>
        <time>2019-06-06T08:34:15.000Z</time>
      </trkpt>
      <trkpt lat="50.548360" lon="26.350980">
        <ele>279.003763</ele>
        <time>2019-06-06T08:34:18.000Z</time>
      </trkpt>
      <trkpt lat="50.548252" lon="26.351095">
        <ele>278.738248</ele>
        <time>2019-06-06T08:34:21.000Z</time>
      </trkpt>
      <trkpt lat="50.548176" lon="26.351170">
        <ele>278.555590</ele>
        <time>2019-06-06T08:34:23.000Z</time>
      </trkpt>
      <trkpt lat="50.548065" lon="26.351292">
        <ele>278.279909</ele>
        <time>2019-06-06T08:34:26.000Z</time>
      </trkpt>
      <trkpt lat="50.547960" lon="26.351420">
        <ele>278.009468</ele>
        <time>2019-06-06T08:34:29.000Z</time>
      </trkpt>
      <trkpt lat="50.547880" lon="26.351501">
        <ele>277.815772</ele>
        <time>2019-06-06T08:34:31.000Z</time>
      </trkpt>
      <trkpt lat="50.547800" lon="26.351568">
        <ele>277.639471</ele>
        <time>2019-06-06T08:34:33.000Z</time>
      </trkpt>
      <trkpt lat="50.547718" lon="26.351645">
        <ele>277.460791</ele>
        <time>2019-06-06T08:34:35.000Z</time>
      </trkpt>
      <trkpt lat="50.547640" lon="26.351723">
        <ele>277.287863</ele>
        <time>2019-06-06T08:34:37.000Z</time>
      </trkpt>
      <trkpt lat="50.547565" lon="26.351805">
        <ele>277.116976</ele>
        <time>2019-06-06T08:34:39.000Z</time>
      </trkpt>
      <trkpt lat="50.547490" lon="26.351885">
        <ele>276.947435</ele>
        <time>2019-06-06T08:34:41.000Z</time>
      </trkpt>
      <trkpt lat="50.547405" lon="26.351969">
        <ele>276.759622</ele>
        <time>2019-06-06T08:34:43.000Z</time>
      </trkpt>
      <trkpt lat="50.547325" lon="26.352053">
        <ele>276.579663</ele>
        <time>2019-06-06T08:34:45.000Z</time>
      </trkpt>
      <trkpt lat="50.547215" lon="26.352173">
        <ele>276.329210</ele>
        <time>2019-06-06T08:34:48.000Z</time>
      </trkpt>
      <trkpt lat="50.547108" lon="26.352272">
        <ele>276.096949</ele>
        <time>2019-06-06T08:34:51.000Z</time>
      </trkpt>
      <trkpt lat="50.547028" lon="26.352348">
        <ele>275.922090</ele>
        <time>2019-06-06T08:34:53.000Z</time>
      </trkpt>
      <trkpt lat="50.546917" lon="26.352459">
        <ele>275.675998</ele>
        <time>2019-06-06T08:34:56.000Z</time>
      </trkpt>
      <trkpt lat="50.546820" lon="26.352564">
        <ele>275.455696</ele>
        <time>2019-06-06T08:34:59.000Z</time>
      </trkpt>
      <trkpt lat="50.546715" lon="26.352676">
        <ele>275.218337</ele>
        <time>2019-06-06T08:35:02.000Z</time>
      </trkpt>
      <trkpt lat="50.546623" lon="26.352777">
        <ele>275.008435</ele>
        <time>2019-06-06T08:35:05.000Z</time>
      </trkpt>
      <trkpt lat="50.546543" lon="26.352852">
        <ele>274.834187</ele>
        <time>2019-06-06T08:35:07.000Z</time>
      </trkpt>
      <trkpt lat="50.546436" lon="26.352972">
        <ele>274.588325</ele>
        <time>2019-06-06T08:35:10.000Z</time>
      </trkpt>
      <trkpt lat="50.546330" lon="26.353062">
        <ele>274.359081</ele>
        <time>2019-06-06T08:35:13.000Z</time>
      </trkpt>
      <trkpt lat="50.546250" lon="26.353136">
        <ele>274.023747</ele>
        <time>2019-06-06T08:35:15.000Z</time>
      </trkpt>
      <trkpt lat="50.546146" lon="26.353258">
        <ele>273.554998</ele>
        <time>2019-06-06T08:35:18.000Z</time>
      </trkpt>
      <trkpt lat="50.546070" lon="26.353340">
        <ele>273.222009</ele>
        <time>2019-06-06T08:35:20.000Z</time>
      </trkpt>
      <trkpt lat="50.545963" lon="26.353441">
        <ele>272.771123</ele>
        <time>2019-06-06T08:35:23.000Z</time>
      </trkpt>
      <trkpt lat="50.545883" lon="26.353514">
        <ele>272.436946</ele>
        <time>2019-06-06T08:35:25.000Z</time>
      </trkpt>
      <trkpt lat="50.545807" lon="26.353601">
        <ele>272.097331</ele>
        <time>2019-06-06T08:35:27.000Z</time>
      </trkpt>
      <trkpt lat="50.545715" lon="26.353706">
        <ele>271.686644</ele>
        <time>2019-06-06T08:35:29.000Z</time>
      </trkpt>
      <trkpt lat="50.545620" lon="26.353804">
        <ele>271.276160</ele>
        <time>2019-06-06T08:35:31.000Z</time>
      </trkpt>
      <trkpt lat="50.545525" lon="26.353903">
        <ele>270.864414</ele>
        <time>2019-06-06T08:35:33.000Z</time>
      </trkpt>
      <trkpt lat="50.545425" lon="26.354002">
        <ele>270.437485</ele>
        <time>2019-06-06T08:35:35.000Z</time>
      </trkpt>
      <trkpt lat="50.545320" lon="26.354103">
        <ele>269.992781</ele>
        <time>2019-06-06T08:35:37.000Z</time>
      </trkpt>
      <trkpt lat="50.545210" lon="26.354221">
        <ele>269.511706</ele>
        <time>2019-06-06T08:35:39.000Z</time>
      </trkpt>
      <trkpt lat="50.545100" lon="26.354336">
        <ele>269.034477</ele>
        <time>2019-06-06T08:35:41.000Z</time>
      </trkpt>
      <trkpt lat="50.545002" lon="26.354439">
        <ele>268.608615</ele>
        <time>2019-06-06T08:35:43.000Z</time>
      </trkpt>
      <trkpt lat="50.544903" lon="26.354530">
        <ele>268.194303</ele>
        <time>2019-06-06T08:35:45.000Z</time>
      </trkpt>
      <trkpt lat="50.544804" lon="26.354624">
        <ele>267.836584</ele>
        <time>2019-06-06T08:35:47.000Z</time>
      </trkpt>
      <trkpt lat="50.544724" lon="26.354706">
        <ele>267.719583</ele>
        <time>2019-06-06T08:35:49.000Z</time>
      </trkpt>
      <trkpt lat="50.544632" lon="26.354797">
        <ele>267.586417</ele>
        <time>2019-06-06T08:35:51.000Z</time>
      </trkpt>
      <trkpt lat="50.544537" lon="26.354895">
        <ele>267.447212</ele>
        <time>2019-06-06T08:35:53.000Z</time>
      </trkpt>
      <trkpt lat="50.544445" lon="26.354986">
        <ele>267.314047</ele>
        <time>2019-06-06T08:35:55.000Z</time>
      </trkpt>
      <trkpt lat="50.544353" lon="26.355078">
        <ele>267.180465</ele>
        <time>2019-06-06T08:35:57.000Z</time>
      </trkpt>
      <trkpt lat="50.544266" lon="26.355171">
        <ele>267.051576</ele>
        <time>2019-06-06T08:35:59.000Z</time>
      </trkpt>
      <trkpt lat="50.544170" lon="26.355265">
        <ele>266.913015</ele>
        <time>2019-06-06T08:36:01.000Z</time>
      </trkpt>
      <trkpt lat="50.544080" lon="26.355371">
        <ele>266.775252</ele>
        <time>2019-06-06T08:36:03.000Z</time>
      </trkpt>
      <trkpt lat="50.543987" lon="26.355465">
        <ele>266.639798</ele>
        <time>2019-06-06T08:36:05.000Z</time>
      </trkpt>
      <trkpt lat="50.543888" lon="26.355576">
        <ele>266.490831</ele>
        <time>2019-06-06T08:36:07.000Z</time>
      </trkpt>
      <trkpt lat="50.543790" lon="26.355670">
        <ele>266.350182</ele>
        <time>2019-06-06T08:36:09.000Z</time>
      </trkpt>
      <trkpt lat="50.543694" lon="26.355782">
        <ele>266.203731</ele>
        <time>2019-06-06T08:36:11.000Z</time>
      </trkpt>
      <trkpt lat="50.543600" lon="26.355867">
        <ele>266.070872</ele>
        <time>2019-06-06T08:36:13.000Z</time>
      </trkpt>
      <trkpt lat="50.543507" lon="26.355963">
        <ele>265.934570</ele>
        <time>2019-06-06T08:36:15.000Z</time>
      </trkpt>
      <trkpt lat="50.543420" lon="26.356066">
        <ele>265.801148</ele>
        <time>2019-06-06T08:36:17.000Z</time>
      </trkpt>
      <trkpt lat="50.543335" lon="26.356153">
        <ele>265.676887</ele>
        <time>2019-06-06T08:36:19.000Z</time>
      </trkpt>
      <trkpt lat="50.543260" lon="26.356232">
        <ele>266.110937</ele>
        <time>2019-06-06T08:36:21.000Z</time>
      </trkpt>
      <trkpt lat="50.543182" lon="26.356312">
        <ele>266.637744</ele>
        <time>2019-06-06T08:36:23.000Z</time>
      </trkpt>
      <trkpt lat="50.543076" lon="26.356413">
        <ele>267.338894</ele>
        <time>2019-06-06T08:36:26.000Z</time>
      </trkpt>
      <trkpt lat="50.542973" lon="26.356514">
        <ele>268.025580</ele>
        <time>2019-06-06T08:36:29.000Z</time>
      </trkpt>
      <trkpt lat="50.542880" lon="26.356606">
        <ele>268.647136</ele>
        <time>2019-06-06T08:36:32.000Z</time>
      </trkpt>
      <trkpt lat="50.542805" lon="26.356703">
        <ele>269.196442</ele>
        <time>2019-06-06T08:36:35.000Z</time>
      </trkpt>
      <trkpt lat="50.542720" lon="26.356773">
        <ele>269.739270</ele>
        <time>2019-06-06T08:36:38.000Z</time>
      </trkpt>
      <trkpt lat="50.542625" lon="26.356863">
        <ele>270.366696</ele>
        <time>2019-06-06T08:36:42.000Z</time>
      </trkpt>
      <trkpt lat="50.542538" lon="26.356964">
        <ele>270.978428</ele>
        <time>2019-06-06T08:36:46.000Z</time>
      </trkpt>
      <trkpt lat="50.542450" lon="26.357044">
        <ele>271.553470</ele>
        <time>2019-06-06T08:36:50.000Z</time>
      </trkpt>
      <trkpt lat="50.542374" lon="26.357136">
        <ele>272.096015</ele>
        <time>2019-06-06T08:36:54.000Z</time>
      </trkpt>
      <trkpt lat="50.542324" lon="26.357270">
        <ele>272.654768</ele>
        <time>2019-06-06T08:36:59.000Z</time>
      </trkpt>
      <trkpt lat="50.542233" lon="26.357319">
        <ele>273.198973</ele>
        <time>2019-06-06T08:37:13.000Z</time>
      </trkpt>
      <trkpt lat="50.542164" lon="26.357431">
        <ele>273.759879</ele>
        <time>2019-06-06T08:37:22.000Z</time>
      </trkpt>
      <trkpt lat="50.542076" lon="26.357496">
        <ele>274.309926</ele>
        <time>2019-06-06T08:37:30.000Z</time>
      </trkpt>
      <trkpt lat="50.541990" lon="26.357584">
        <ele>274.890367</ele>
        <time>2019-06-06T08:37:38.000Z</time>
      </trkpt>
      <trkpt lat="50.541910" lon="26.357668">
        <ele>275.434544</ele>
        <time>2019-06-06T08:37:46.000Z</time>
      </trkpt>
      <trkpt lat="50.541820" lon="26.357740">
        <ele>275.911344</ele>
        <time>2019-06-06T08:37:54.000Z</time>
      </trkpt>
      <trkpt lat="50.541740" lon="26.357830">
        <ele>276.150255</ele>
        <time>2019-06-06T08:38:02.000Z</time>
      </trkpt>
      <trkpt lat="50.541668" lon="26.357916">
        <ele>276.369855</ele>
        <time>2019-06-06T08:38:09.000Z</time>
      </trkpt>
      <trkpt lat="50.541584" lon="26.358000">
        <ele>276.611644</ele>
        <time>2019-06-06T08:38:16.000Z</time>
      </trkpt>
      <trkpt lat="50.541508" lon="26.358088">
        <ele>276.840876</ele>
        <time>2019-06-06T08:38:23.000Z</time>
      </trkpt>
      <trkpt lat="50.541428" lon="26.358171">
        <ele>277.073668</ele>
        <time>2019-06-06T08:38:30.000Z</time>
      </trkpt>
      <trkpt lat="50.541344" lon="26.358255">
        <ele>277.315457</ele>
        <time>2019-06-06T08:38:38.000Z</time>
      </trkpt>
      <trkpt lat="50.541264" lon="26.358341">
        <ele>277.550831</ele>
        <time>2019-06-06T08:38:45.000Z</time>
      </trkpt>
      <trkpt lat="50.541183" lon="26.358418">
        <ele>277.780732</ele>
        <time>2019-06-06T08:38:52.000Z</time>
      </trkpt>
      <trkpt lat="50.541107" lon="26.358496">
        <ele>278.001166</ele>
        <time>2019-06-06T08:38:59.000Z</time>
      </trkpt>
      <trkpt lat="50.541035" lon="26.358590">
        <ele>278.228447</ele>
        <time>2019-06-06T08:39:06.000Z</time>
      </trkpt>
      <trkpt lat="50.540950" lon="26.358667">
        <ele>278.466719</ele>
        <time>2019-06-06T08:39:14.000Z</time>
      </trkpt>
      <trkpt lat="50.540860" lon="26.358742">
        <ele>278.714131</ele>
        <time>2019-06-06T08:39:21.000Z</time>
      </trkpt>
      <trkpt lat="50.540775" lon="26.358828">
        <ele>278.959631</ele>
        <time>2019-06-06T08:39:29.000Z</time>
      </trkpt>
      <trkpt lat="50.540700" lon="26.358920">
        <ele>279.190657</ele>
        <time>2019-06-06T08:39:37.000Z</time>
      </trkpt>
      <trkpt lat="50.540607" lon="26.359007">
        <ele>279.453501</ele>
        <time>2019-06-06T08:39:43.000Z</time>
      </trkpt>
      <trkpt lat="50.540520" lon="26.359108">
        <ele>279.716155</ele>
        <time>2019-06-06T08:39:48.000Z</time>
      </trkpt>
      <trkpt lat="50.540443" lon="26.359186">
        <ele>279.938628</ele>
        <time>2019-06-06T08:39:52.000Z</time>
      </trkpt>
      <trkpt lat="50.540356" lon="26.359274">
        <ele>280.189885</ele>
        <time>2019-06-06T08:39:56.000Z</time>
      </trkpt>
      <trkpt lat="50.540280" lon="26.359354">
        <ele>280.108788</ele>
        <time>2019-06-06T08:39:59.000Z</time>
      </trkpt>
      <trkpt lat="50.540200" lon="26.359446">
        <ele>279.988523</ele>
        <time>2019-06-06T08:40:02.000Z</time>
      </trkpt>
      <trkpt lat="50.540110" lon="26.359535">
        <ele>279.859509</ele>
        <time>2019-06-06T08:40:05.000Z</time>
      </trkpt>
      <trkpt lat="50.540028" lon="26.359621">
        <ele>279.739903</ele>
        <time>2019-06-06T08:40:08.000Z</time>
      </trkpt>
      <trkpt lat="50.539936" lon="26.359716">
        <ele>279.606345</ele>
        <time>2019-06-06T08:40:11.000Z</time>
      </trkpt>
      <trkpt lat="50.539850" lon="26.359798">
        <ele>279.484298</ele>
        <time>2019-06-06T08:40:14.000Z</time>
      </trkpt>
      <trkpt lat="50.539745" lon="26.359894">
        <ele>279.336907</ele>
        <time>2019-06-06T08:40:17.000Z</time>
      </trkpt>
      <trkpt lat="50.539640" lon="26.360008">
        <ele>279.182075</ele>
        <time>2019-06-06T08:40:20.000Z</time>
      </trkpt>
      <trkpt lat="50.539562" lon="26.360090">
        <ele>279.068220</ele>
        <time>2019-06-06T08:40:22.000Z</time>
      </trkpt>
      <trkpt lat="50.539474" lon="26.360178">
        <ele>278.941669</ele>
        <time>2019-06-06T08:40:24.000Z</time>
      </trkpt>
      <trkpt lat="50.539387" lon="26.360275">
        <ele>278.812255</ele>
        <time>2019-06-06T08:40:26.000Z</time>
      </trkpt>
      <trkpt lat="50.539295" lon="26.360361">
        <ele>278.682376</ele>
        <time>2019-06-06T08:40:28.000Z</time>
      </trkpt>
      <trkpt lat="50.539207" lon="26.360460">
        <ele>278.551078</ele>
        <time>2019-06-06T08:40:30.000Z</time>
      </trkpt>
      <trkpt lat="50.539116" lon="26.360552">
        <ele>278.419797</ele>
        <time>2019-06-06T08:40:32.000Z</time>
      </trkpt>
      <trkpt lat="50.539032" lon="26.360641">
        <ele>278.296886</ele>
        <time>2019-06-06T08:40:34.000Z</time>
      </trkpt>
      <trkpt lat="50.538948" lon="26.360733">
        <ele>278.172668</ele>
        <time>2019-06-06T08:40:36.000Z</time>
      </trkpt>
      <trkpt lat="50.538860" lon="26.360820">
        <ele>278.046529</ele>
        <time>2019-06-06T08:40:38.000Z</time>
      </trkpt>
      <trkpt lat="50.538776" lon="26.360914">
        <ele>278.144155</ele>
        <time>2019-06-06T08:40:40.000Z</time>
      </trkpt>
      <trkpt lat="50.538696" lon="26.361000">
        <ele>278.275119</ele>
        <time>2019-06-06T08:40:42.000Z</time>
      </trkpt>
      <trkpt lat="50.538612" lon="26.361092">
        <ele>278.413461</ele>
        <time>2019-06-06T08:40:44.000Z</time>
      </trkpt>
      <trkpt lat="50.538520" lon="26.361187">
        <ele>278.562205</ele>
        <time>2019-06-06T08:40:46.000Z</time>
      </trkpt>
      <trkpt lat="50.538445" lon="26.361273">
        <ele>278.687648</ele>
        <time>2019-06-06T08:40:48.000Z</time>
      </trkpt>
      <trkpt lat="50.538360" lon="26.361350">
        <ele>278.820223</ele>
        <time>2019-06-06T08:40:50.000Z</time>
      </trkpt>
      <trkpt lat="50.538277" lon="26.361430">
        <ele>278.951791</ele>
        <time>2019-06-06T08:40:52.000Z</time>
      </trkpt>
      <trkpt lat="50.538197" lon="26.361519">
        <ele>279.084227</ele>
        <time>2019-06-06T08:40:54.000Z</time>
      </trkpt>
      <trkpt lat="50.538116" lon="26.361610">
        <ele>279.218760</ele>
        <time>2019-06-06T08:40:56.000Z</time>
      </trkpt>
      <trkpt lat="50.538006" lon="26.361725">
        <ele>279.397277</ele>
        <time>2019-06-06T08:40:59.000Z</time>
      </trkpt>
      <trkpt lat="50.537920" lon="26.361813">
        <ele>279.535943</ele>
        <time>2019-06-06T08:41:01.000Z</time>
      </trkpt>
      <trkpt lat="50.537840" lon="26.361880">
        <ele>279.658444</ele>
        <time>2019-06-06T08:41:03.000Z</time>
      </trkpt>
      <trkpt lat="50.537760" lon="26.361948">
        <ele>279.781350</ele>
        <time>2019-06-06T08:41:05.000Z</time>
      </trkpt>
      <trkpt lat="50.537655" lon="26.362059">
        <ele>279.952339</ele>
        <time>2019-06-06T08:41:08.000Z</time>
      </trkpt>
      <trkpt lat="50.537544" lon="26.362170">
        <ele>280.130116</ele>
        <time>2019-06-06T08:41:11.000Z</time>
      </trkpt>
      <trkpt lat="50.537430" lon="26.362274">
        <ele>280.308238</ele>
        <time>2019-06-06T08:41:14.000Z</time>
      </trkpt>
      <trkpt lat="50.537340" lon="26.362385">
        <ele>280.456138</ele>
        <time>2019-06-06T08:41:17.000Z</time>
      </trkpt>
      <trkpt lat="50.537250" lon="26.362495">
        <ele>280.395893</ele>
        <time>2019-06-06T08:41:20.000Z</time>
      </trkpt>
      <trkpt lat="50.537163" lon="26.362590">
        <ele>280.339911</ele>
        <time>2019-06-06T08:41:23.000Z</time>
      </trkpt>
      <trkpt lat="50.537075" lon="26.362673">
        <ele>280.285674</ele>
        <time>2019-06-06T08:41:26.000Z</time>
      </trkpt>
      <trkpt lat="50.536980" lon="26.362774">
        <ele>280.225064</ele>
        <time>2019-06-06T08:41:30.000Z</time>
      </trkpt>
      <trkpt lat="50.536884" lon="26.362870">
        <ele>280.164933</ele>
        <time>2019-06-06T08:41:34.000Z</time>
      </trkpt>
      <trkpt lat="50.536804" lon="26.362947">
        <ele>280.115357</ele>
        <time>2019-06-06T08:41:37.000Z</time>
      </trkpt>
      <trkpt lat="50.536720" lon="26.363033">
        <ele>280.062379</ele>
        <time>2019-06-06T08:41:40.000Z</time>
      </trkpt>
      <trkpt lat="50.536640" lon="26.363125">
        <ele>280.009996</ele>
        <time>2019-06-06T08:41:43.000Z</time>
      </trkpt>
      <trkpt lat="50.536556" lon="26.363210">
        <ele>279.957201</ele>
        <time>2019-06-06T08:41:46.000Z</time>
      </trkpt>
      <trkpt lat="50.536465" lon="26.363283">
        <ele>279.903204</ele>
        <time>2019-06-06T08:41:49.000Z</time>
      </trkpt>
      <trkpt lat="50.536377" lon="26.363361">
        <ele>279.849810</ele>
        <time>2019-06-06T08:41:52.000Z</time>
      </trkpt>
      <trkpt lat="50.536285" lon="26.363450">
        <ele>279.792719</ele>
        <time>2019-06-06T08:41:55.000Z</time>
      </trkpt>
      <trkpt lat="50.536194" lon="26.363535">
        <ele>279.736775</ele>
        <time>2019-06-06T08:41:58.000Z</time>
      </trkpt>
      <trkpt lat="50.536100" lon="26.363619">
        <ele>279.679628</ele>
        <time>2019-06-06T08:42:01.000Z</time>
      </trkpt>
      <trkpt lat="50.536007" lon="26.363705">
        <ele>279.622603</ele>
        <time>2019-06-06T08:42:04.000Z</time>
      </trkpt>
      <trkpt lat="50.535892" lon="26.363773">
        <ele>279.557659</ele>
        <time>2019-06-06T08:42:07.000Z</time>
      </trkpt>
      <trkpt lat="50.535780" lon="26.363844">
        <ele>279.329974</ele>
        <time>2019-06-06T08:42:10.000Z</time>
      </trkpt>
      <trkpt lat="50.535670" lon="26.363897">
        <ele>278.524091</ele>
        <time>2019-06-06T08:42:13.000Z</time>
      </trkpt>
      <trkpt lat="50.535557" lon="26.363953">
        <ele>277.694176</ele>
        <time>2019-06-06T08:42:16.000Z</time>
      </trkpt>
      <trkpt lat="50.535470" lon="26.363995">
        <ele>277.056689</ele>
        <time>2019-06-06T08:42:19.000Z</time>
      </trkpt>
      <trkpt lat="50.535370" lon="26.364030">
        <ele>276.339057</ele>
        <time>2019-06-06T08:42:23.000Z</time>
      </trkpt>
      <trkpt lat="50.535213" lon="26.364115">
        <ele>275.175963</ele>
        <time>2019-06-06T08:42:53.000Z</time>
      </trkpt>
      <trkpt lat="50.535090" lon="26.364176">
        <ele>274.272545</ele>
        <time>2019-06-06T08:42:56.000Z</time>
      </trkpt>
      <trkpt lat="50.534977" lon="26.364262">
        <ele>273.393220</ele>
        <time>2019-06-06T08:42:58.000Z</time>
      </trkpt>
      <trkpt lat="50.534855" lon="26.364380">
        <ele>272.390018</ele>
        <time>2019-06-06T08:43:00.000Z</time>
      </trkpt>
      <trkpt lat="50.534733" lon="26.364504">
        <ele>271.372570</ele>
        <time>2019-06-06T08:43:02.000Z</time>
      </trkpt>
      <trkpt lat="50.534615" lon="26.364641">
        <ele>270.345263</ele>
        <time>2019-06-06T08:43:04.000Z</time>
      </trkpt>
      <trkpt lat="50.534534" lon="26.364716">
        <ele>269.686878</ele>
        <time>2019-06-06T08:43:05.000Z</time>
      </trkpt>
      <trkpt lat="50.534416" lon="26.364872">
        <ele>268.607189</ele>
        <time>2019-06-06T08:43:07.000Z</time>
      </trkpt>
      <trkpt lat="50.534298" lon="26.365040">
        <ele>267.492375</ele>
        <time>2019-06-06T08:43:09.000Z</time>
      </trkpt>
      <trkpt lat="50.534160" lon="26.365217">
        <ele>266.385660</ele>
        <time>2019-06-06T08:43:11.000Z</time>
      </trkpt>
      <trkpt lat="50.534092" lon="26.365314">
        <ele>265.879072</ele>
        <time>2019-06-06T08:43:12.000Z</time>
      </trkpt>
      <trkpt lat="50.534023" lon="26.365408">
        <ele>265.375333</ele>
        <time>2019-06-06T08:43:13.000Z</time>
      </trkpt>
      <trkpt lat="50.533950" lon="26.365500">
        <ele>264.859119</ele>
        <time>2019-06-06T08:43:14.000Z</time>
      </trkpt>
      <trkpt lat="50.533882" lon="26.365590">
        <ele>264.368687</ele>
        <time>2019-06-06T08:43:15.000Z</time>
      </trkpt>
      <trkpt lat="50.533810" lon="26.365680">
        <ele>263.861162</ele>
        <time>2019-06-06T08:43:16.000Z</time>
      </trkpt>
      <trkpt lat="50.533740" lon="26.365768">
        <ele>263.366642</ele>
        <time>2019-06-06T08:43:17.000Z</time>
      </trkpt>
      <trkpt lat="50.533670" lon="26.365856">
        <ele>262.872121</ele>
        <time>2019-06-06T08:43:18.000Z</time>
      </trkpt>
      <trkpt lat="50.533596" lon="26.365953">
        <ele>262.340534</ele>
        <time>2019-06-06T08:43:19.000Z</time>
      </trkpt>
      <trkpt lat="50.533524" lon="26.366049">
        <ele>261.819654</ele>
        <time>2019-06-06T08:43:20.000Z</time>
      </trkpt>
      <trkpt lat="50.533394" lon="26.366241">
        <ele>260.835568</ele>
        <time>2019-06-06T08:43:22.000Z</time>
      </trkpt>
      <trkpt lat="50.533270" lon="26.366423">
        <ele>259.899629</ele>
        <time>2019-06-06T08:43:24.000Z</time>
      </trkpt>
      <trkpt lat="50.533200" lon="26.366512">
        <ele>259.402910</ele>
        <time>2019-06-06T08:43:25.000Z</time>
      </trkpt>
      <trkpt lat="50.533123" lon="26.366604">
        <ele>258.869284</ele>
        <time>2019-06-06T08:43:26.000Z</time>
      </trkpt>
      <trkpt lat="50.533050" lon="26.366693">
        <ele>258.359580</ele>
        <time>2019-06-06T08:43:27.000Z</time>
      </trkpt>
      <trkpt lat="50.532920" lon="26.366880">
        <ele>257.387411</ele>
        <time>2019-06-06T08:43:29.000Z</time>
      </trkpt>
      <trkpt lat="50.532852" lon="26.366978">
        <ele>256.924782</ele>
        <time>2019-06-06T08:43:30.000Z</time>
      </trkpt>
      <trkpt lat="50.532726" lon="26.367167">
        <ele>256.398766</ele>
        <time>2019-06-06T08:43:32.000Z</time>
      </trkpt>
      <trkpt lat="50.532604" lon="26.367361">
        <ele>255.874647</ele>
        <time>2019-06-06T08:43:34.000Z</time>
      </trkpt>
      <trkpt lat="50.532547" lon="26.367474">
        <ele>255.597592</ele>
        <time>2019-06-06T08:43:35.000Z</time>
      </trkpt>
      <trkpt lat="50.532500" lon="26.367600">
        <ele>255.317010</ele>
        <time>2019-06-06T08:43:36.000Z</time>
      </trkpt>
      <trkpt lat="50.532387" lon="26.367926">
        <ele>254.603865</ele>
        <time>2019-06-06T08:43:39.000Z</time>
      </trkpt>
      <trkpt lat="50.532320" lon="26.368101">
        <ele>254.211508</ele>
        <time>2019-06-06T08:43:41.000Z</time>
      </trkpt>
      <trkpt lat="50.532272" lon="26.368237">
        <ele>253.912748</ele>
        <time>2019-06-06T08:43:43.000Z</time>
      </trkpt>
      <trkpt lat="50.532220" lon="26.368385">
        <ele>253.587971</ele>
        <time>2019-06-06T08:43:46.000Z</time>
      </trkpt>
      <trkpt lat="50.532166" lon="26.368505">
        <ele>253.305594</ele>
        <time>2019-06-06T08:43:50.000Z</time>
      </trkpt>
      <trkpt lat="50.532085" lon="26.368656">
        <ele>252.926120</ele>
        <time>2019-06-06T09:35:05.000Z</time>
      </trkpt>
      <trkpt lat="50.532040" lon="26.368809">
        <ele>252.602339</ele>
        <time>2019-06-06T09:35:10.000Z</time>
      </trkpt>
      <trkpt lat="50.532030" lon="26.368970">
        <ele>252.291653</ele>
        <time>2019-06-06T09:35:17.000Z</time>
      </trkpt>
      <trkpt lat="50.532020" lon="26.369130">
        <ele>251.982879</ele>
        <time>2019-06-06T09:35:23.000Z</time>
      </trkpt>
      <trkpt lat="50.531975" lon="26.369268">
        <ele>251.684998</ele>
        <time>2019-06-06T09:35:27.000Z</time>
      </trkpt>
      <trkpt lat="50.531937" lon="26.369396">
        <ele>251.648519</ele>
        <time>2019-06-06T09:35:31.000Z</time>
      </trkpt>
      <trkpt lat="50.531887" lon="26.369545">
        <ele>251.897908</ele>
        <time>2019-06-06T09:35:36.000Z</time>
      </trkpt>
      <trkpt lat="50.531845" lon="26.369690">
        <ele>252.133765</ele>
        <time>2019-06-06T09:35:40.000Z</time>
      </trkpt>
      <trkpt lat="50.531796" lon="26.369825">
        <ele>252.363868</ele>
        <time>2019-06-06T09:35:44.000Z</time>
      </trkpt>
      <trkpt lat="50.531746" lon="26.369970">
        <ele>252.608039</ele>
        <time>2019-06-06T09:35:49.000Z</time>
      </trkpt>
      <trkpt lat="50.531685" lon="26.370132">
        <ele>252.886739</ele>
        <time>2019-06-06T09:35:53.000Z</time>
      </trkpt>
      <trkpt lat="50.531635" lon="26.370289">
        <ele>253.146661</ele>
        <time>2019-06-06T09:35:57.000Z</time>
      </trkpt>
      <trkpt lat="50.531580" lon="26.370447">
        <ele>253.413299</ele>
        <time>2019-06-06T09:36:00.000Z</time>
      </trkpt>
      <trkpt lat="50.531536" lon="26.370583">
        <ele>253.639177</ele>
        <time>2019-06-06T09:36:04.000Z</time>
      </trkpt>
      <trkpt lat="50.531500" lon="26.370724">
        <ele>253.864087</ele>
        <time>2019-06-06T09:36:07.000Z</time>
      </trkpt>
      <trkpt lat="50.531460" lon="26.370863">
        <ele>254.089933</ele>
        <time>2019-06-06T09:36:10.000Z</time>
      </trkpt>
      <trkpt lat="50.531418" lon="26.370996">
        <ele>254.309751</ele>
        <time>2019-06-06T09:36:13.000Z</time>
      </trkpt>
      <trkpt lat="50.531376" lon="26.371128">
        <ele>254.528245</ele>
        <time>2019-06-06T09:36:16.000Z</time>
      </trkpt>
      <trkpt lat="50.531320" lon="26.371275">
        <ele>254.781914</ele>
        <time>2019-06-06T09:36:20.000Z</time>
      </trkpt>
      <trkpt lat="50.531260" lon="26.371416">
        <ele>255.033068</ele>
        <time>2019-06-06T09:36:24.000Z</time>
      </trkpt>
      <trkpt lat="50.531220" lon="26.371557">
        <ele>255.261615</ele>
        <time>2019-06-06T09:36:28.000Z</time>
      </trkpt>
      <trkpt lat="50.531178" lon="26.371690">
        <ele>255.481434</ele>
        <time>2019-06-06T09:36:32.000Z</time>
      </trkpt>
      <trkpt lat="50.531140" lon="26.371826">
        <ele>255.701328</ele>
        <time>2019-06-06T09:36:36.000Z</time>
      </trkpt>
      <trkpt lat="50.531094" lon="26.371950">
        <ele>256.573629</ele>
        <time>2019-06-06T09:36:40.000Z</time>
      </trkpt>
      <trkpt lat="50.531060" lon="26.372087">
        <ele>257.592619</ele>
        <time>2019-06-06T09:36:46.000Z</time>
      </trkpt>
      <trkpt lat="50.531002" lon="26.372198">
        <ele>258.588174</ele>
        <time>2019-06-06T09:36:53.000Z</time>
      </trkpt>
      <trkpt lat="50.530952" lon="26.372324">
        <ele>259.617319</ele>
        <time>2019-06-06T09:36:59.000Z</time>
      </trkpt>
      <trkpt lat="50.530914" lon="26.372454">
        <ele>260.608703</ele>
        <time>2019-06-06T09:37:06.000Z</time>
      </trkpt>
      <trkpt lat="50.530853" lon="26.372572">
        <ele>261.662505</ele>
        <time>2019-06-06T09:37:17.000Z</time>
      </trkpt>
      <trkpt lat="50.530804" lon="26.372690">
        <ele>262.639069</ele>
        <time>2019-06-06T09:37:27.000Z</time>
      </trkpt>
      <trkpt lat="50.530766" lon="26.372826">
        <ele>263.668371</ele>
        <time>2019-06-06T09:37:35.000Z</time>
      </trkpt>
      <trkpt lat="50.530693" lon="26.372923">
        <ele>264.709907</ele>
        <time>2019-06-06T09:37:46.000Z</time>
      </trkpt>
      <trkpt lat="50.530613" lon="26.373001">
        <ele>265.735782</ele>
        <time>2019-06-06T09:37:56.000Z</time>
      </trkpt>
      <trkpt lat="50.530537" lon="26.373102">
        <ele>266.820184</ele>
        <time>2019-06-06T09:38:06.000Z</time>
      </trkpt>
      <trkpt lat="50.530464" lon="26.373190">
        <ele>267.822617</ele>
        <time>2019-06-06T09:38:15.000Z</time>
      </trkpt>
      <trkpt lat="50.530390" lon="26.373272">
        <ele>268.809212</ele>
        <time>2019-06-06T09:38:26.000Z</time>
      </trkpt>
      <trkpt lat="50.530310" lon="26.373340">
        <ele>269.800340</ele>
        <time>2019-06-06T09:38:36.000Z</time>
      </trkpt>
      <trkpt lat="50.530224" lon="26.373404">
        <ele>270.837316</ele>
        <time>2019-06-06T09:38:45.000Z</time>
      </trkpt>
      <trkpt lat="50.530144" lon="26.373474">
        <ele>271.835106</ele>
        <time>2019-06-06T09:38:55.000Z</time>
      </trkpt>
      <trkpt lat="50.530070" lon="26.373575">
        <ele>272.902952</ele>
        <time>2019-06-06T09:39:05.000Z</time>
      </trkpt>
      <trkpt lat="50.530014" lon="26.373695">
        <ele>273.934394</ele>
        <time>2019-06-06T09:39:15.000Z</time>
      </trkpt>
      <trkpt lat="50.529964" lon="26.373833">
        <ele>275.034967</ele>
        <time>2019-06-06T09:39:30.000Z</time>
      </trkpt>
      <trkpt lat="50.529920" lon="26.373966">
        <ele>275.627904</ele>
        <time>2019-06-06T09:39:39.000Z</time>
      </trkpt>
      <trkpt lat="50.529873" lon="26.374107">
        <ele>276.061237</ele>
        <time>2019-06-06T09:39:49.000Z</time>
      </trkpt>
      <trkpt lat="50.529820" lon="26.374231">
        <ele>276.467937</ele>
        <time>2019-06-06T09:39:58.000Z</time>
      </trkpt>
      <trkpt lat="50.529774" lon="26.374367">
        <ele>276.887239</ele>
        <time>2019-06-06T09:40:07.000Z</time>
      </trkpt>
      <trkpt lat="50.529728" lon="26.374500">
        <ele>277.299350</ele>
        <time>2019-06-06T09:40:16.000Z</time>
      </trkpt>
      <trkpt lat="50.529682" lon="26.374626">
        <ele>277.694830</ele>
        <time>2019-06-06T09:40:25.000Z</time>
      </trkpt>
      <trkpt lat="50.529613" lon="26.374723">
        <ele>278.091047</ele>
        <time>2019-06-06T09:40:33.000Z</time>
      </trkpt>
      <trkpt lat="50.529556" lon="26.374853">
        <ele>278.520887</ele>
        <time>2019-06-06T09:40:42.000Z</time>
      </trkpt>
      <trkpt lat="50.529488" lon="26.374954">
        <ele>278.921316</ele>
        <time>2019-06-06T09:40:50.000Z</time>
      </trkpt>
      <trkpt lat="50.529415" lon="26.375040">
        <ele>279.311814</ele>
        <time>2019-06-06T09:40:58.000Z</time>
      </trkpt>
      <trkpt lat="50.529335" lon="26.375137">
        <ele>279.744291</ele>
        <time>2019-06-06T09:41:09.000Z</time>
      </trkpt>
      <trkpt lat="50.529255" lon="26.375225">
        <ele>280.162264</ele>
        <time>2019-06-06T09:41:18.000Z</time>
      </trkpt>
      <trkpt lat="50.529180" lon="26.375300">
        <ele>280.542784</ele>
        <time>2019-06-06T09:41:26.000Z</time>
      </trkpt>
      <trkpt lat="50.529110" lon="26.375391">
        <ele>280.931603</ele>
        <time>2019-06-06T09:41:34.000Z</time>
      </trkpt>
      <trkpt lat="50.529030" lon="26.375475">
        <ele>281.343435</ele>
        <time>2019-06-06T09:41:42.000Z</time>
      </trkpt>
      <trkpt lat="50.528957" lon="26.375568">
        <ele>281.745644</ele>
        <time>2019-06-06T09:41:51.000Z</time>
      </trkpt>
      <trkpt lat="50.528870" lon="26.375647">
        <ele>282.175759</ele>
        <time>2019-06-06T09:41:59.000Z</time>
      </trkpt>
      <trkpt lat="50.528786" lon="26.375727">
        <ele>282.596202</ele>
        <time>2019-06-06T09:42:07.000Z</time>
      </trkpt>
      <trkpt lat="50.528713" lon="26.375813">
        <ele>282.986702</ele>
        <time>2019-06-06T09:42:14.000Z</time>
      </trkpt>
      <trkpt lat="50.528625" lon="26.375890">
        <ele>283.090750</ele>
        <time>2019-06-06T09:42:23.000Z</time>
      </trkpt>
      <trkpt lat="50.528538" lon="26.375994">
        <ele>283.152846</ele>
        <time>2019-06-06T09:42:30.000Z</time>
      </trkpt>
      <trkpt lat="50.528450" lon="26.376108">
        <ele>283.217629</ele>
        <time>2019-06-06T09:42:35.000Z</time>
      </trkpt>
      <trkpt lat="50.528374" lon="26.376207">
        <ele>283.273704</ele>
        <time>2019-06-06T09:42:39.000Z</time>
      </trkpt>
      <trkpt lat="50.528300" lon="26.376291">
        <ele>283.325562</ele>
        <time>2019-06-06T09:42:43.000Z</time>
      </trkpt>
      <trkpt lat="50.528230" lon="26.376385">
        <ele>283.377864</ele>
        <time>2019-06-06T09:42:47.000Z</time>
      </trkpt>
      <trkpt lat="50.528150" lon="26.376484">
        <ele>283.435708</ele>
        <time>2019-06-06T09:42:51.000Z</time>
      </trkpt>
      <trkpt lat="50.528070" lon="26.376566">
        <ele>283.489970</ele>
        <time>2019-06-06T09:42:55.000Z</time>
      </trkpt>
      <trkpt lat="50.527966" lon="26.376675">
        <ele>283.560987</ele>
        <time>2019-06-06T09:43:00.000Z</time>
      </trkpt>
      <trkpt lat="50.527880" lon="26.376766">
        <ele>283.619887</ele>
        <time>2019-06-06T09:43:04.000Z</time>
      </trkpt>
      <trkpt lat="50.527798" lon="26.376856">
        <ele>283.676707</ele>
        <time>2019-06-06T09:43:08.000Z</time>
      </trkpt>
      <trkpt lat="50.527702" lon="26.376955">
        <ele>283.741940</ele>
        <time>2019-06-06T09:43:12.000Z</time>
      </trkpt>
      <trkpt lat="50.527607" lon="26.377045">
        <ele>283.804961</ele>
        <time>2019-06-06T09:43:16.000Z</time>
      </trkpt>
      <trkpt lat="50.527530" lon="26.377125">
        <ele>283.857401</ele>
        <time>2019-06-06T09:43:19.000Z</time>
      </trkpt>
      <trkpt lat="50.527435" lon="26.377230">
        <ele>283.923381</ele>
        <time>2019-06-06T09:43:23.000Z</time>
      </trkpt>
      <trkpt lat="50.527340" lon="26.377321">
        <ele>283.986590</ele>
        <time>2019-06-06T09:43:27.000Z</time>
      </trkpt>
      <trkpt lat="50.527250" lon="26.377436">
        <ele>284.052482</ele>
        <time>2019-06-06T09:43:31.000Z</time>
      </trkpt>
      <trkpt lat="50.527164" lon="26.377537">
        <ele>283.964724</ele>
        <time>2019-06-06T09:43:35.000Z</time>
      </trkpt>
      <trkpt lat="50.527060" lon="26.377634">
        <ele>283.831648</ele>
        <time>2019-06-06T09:43:39.000Z</time>
      </trkpt>
      <trkpt lat="50.526980" lon="26.377712">
        <ele>283.728054</ele>
        <time>2019-06-06T09:43:42.000Z</time>
      </trkpt>
      <trkpt lat="50.526894" lon="26.377800">
        <ele>283.615133</ele>
        <time>2019-06-06T09:43:45.000Z</time>
      </trkpt>
      <trkpt lat="50.526806" lon="26.377890">
        <ele>283.499604</ele>
        <time>2019-06-06T09:43:48.000Z</time>
      </trkpt>
      <trkpt lat="50.526714" lon="26.377989">
        <ele>283.376918</ele>
        <time>2019-06-06T09:43:51.000Z</time>
      </trkpt>
      <trkpt lat="50.526623" lon="26.378080">
        <ele>283.258233</ele>
        <time>2019-06-06T09:43:54.000Z</time>
      </trkpt>
      <trkpt lat="50.526546" lon="26.378160">
        <ele>283.156666</ele>
        <time>2019-06-06T09:43:57.000Z</time>
      </trkpt>
      <trkpt lat="50.526466" lon="26.378237">
        <ele>283.053438</ele>
        <time>2019-06-06T09:44:00.000Z</time>
      </trkpt>
      <trkpt lat="50.526380" lon="26.378326">
        <ele>282.940135</ele>
        <time>2019-06-06T09:44:03.000Z</time>
      </trkpt>
      <trkpt lat="50.526302" lon="26.378408">
        <ele>282.836876</ele>
        <time>2019-06-06T09:44:06.000Z</time>
      </trkpt>
      <trkpt lat="50.526210" lon="26.378500">
        <ele>282.716887</ele>
        <time>2019-06-06T09:44:09.000Z</time>
      </trkpt>
      <trkpt lat="50.526123" lon="26.378588">
        <ele>282.603041</ele>
        <time>2019-06-06T09:44:12.000Z</time>
      </trkpt>
      <trkpt lat="50.526043" lon="26.378680">
        <ele>282.493968</ele>
        <time>2019-06-06T09:44:15.000Z</time>
      </trkpt>
      <trkpt lat="50.525955" lon="26.378777">
        <ele>282.375697</ele>
        <time>2019-06-06T09:44:18.000Z</time>
      </trkpt>
      <trkpt lat="50.525867" lon="26.378881">
        <ele>282.254549</ele>
        <time>2019-06-06T09:44:21.000Z</time>
      </trkpt>
      <trkpt lat="50.525784" lon="26.378975">
        <ele>282.141980</ele>
        <time>2019-06-06T09:44:24.000Z</time>
      </trkpt>
      <trkpt lat="50.525684" lon="26.379074">
        <ele>281.999024</ele>
        <time>2019-06-06T09:44:27.000Z</time>
      </trkpt>
      <trkpt lat="50.525597" lon="26.379164">
        <ele>281.863644</ele>
        <time>2019-06-06T09:44:30.000Z</time>
      </trkpt>
      <trkpt lat="50.525510" lon="26.379261">
        <ele>281.725001</ele>
        <time>2019-06-06T09:44:33.000Z</time>
      </trkpt>
      <trkpt lat="50.525425" lon="26.379364">
        <ele>281.585500</ele>
        <time>2019-06-06T09:44:36.000Z</time>
      </trkpt>
      <trkpt lat="50.525333" lon="26.379465">
        <ele>281.439637</ele>
        <time>2019-06-06T09:44:39.000Z</time>
      </trkpt>
      <trkpt lat="50.525246" lon="26.379568">
        <ele>281.298068</ele>
        <time>2019-06-06T09:44:42.000Z</time>
      </trkpt>
      <trkpt lat="50.525160" lon="26.379663">
        <ele>281.161440</ele>
        <time>2019-06-06T09:44:45.000Z</time>
      </trkpt>
      <trkpt lat="50.525070" lon="26.379765">
        <ele>281.017220</ele>
        <time>2019-06-06T09:44:48.000Z</time>
      </trkpt>
      <trkpt lat="50.524986" lon="26.379862">
        <ele>280.881739</ele>
        <time>2019-06-06T09:44:51.000Z</time>
      </trkpt>
      <trkpt lat="50.524900" lon="26.379969">
        <ele>280.739179</ele>
        <time>2019-06-06T09:44:54.000Z</time>
      </trkpt>
      <trkpt lat="50.524807" lon="26.380077">
        <ele>280.588885</ele>
        <time>2019-06-06T09:44:57.000Z</time>
      </trkpt>
      <trkpt lat="50.524715" lon="26.380188">
        <ele>280.438139</ele>
        <time>2019-06-06T09:45:00.000Z</time>
      </trkpt>
      <trkpt lat="50.524620" lon="26.380293">
        <ele>280.287184</ele>
        <time>2019-06-06T09:45:03.000Z</time>
      </trkpt>
      <trkpt lat="50.524540" lon="26.380402">
        <ele>280.149579</ele>
        <time>2019-06-06T09:45:06.000Z</time>
      </trkpt>
      <trkpt lat="50.524450" lon="26.380512">
        <ele>280.001395</ele>
        <time>2019-06-06T09:45:09.000Z</time>
      </trkpt>
      <trkpt lat="50.524357" lon="26.380621">
        <ele>279.850608</ele>
        <time>2019-06-06T09:45:12.000Z</time>
      </trkpt>
      <trkpt lat="50.524270" lon="26.380733">
        <ele>279.750220</ele>
        <time>2019-06-06T09:45:15.000Z</time>
      </trkpt>
      <trkpt lat="50.524180" lon="26.380850">
        <ele>279.771113</ele>
        <time>2019-06-06T09:45:18.000Z</time>
      </trkpt>
      <trkpt lat="50.524090" lon="26.380955">
        <ele>279.791165</ele>
        <time>2019-06-06T09:45:21.000Z</time>
      </trkpt>
      <trkpt lat="50.524000" lon="26.381065">
        <ele>279.811560</ele>
        <time>2019-06-06T09:45:24.000Z</time>
      </trkpt>
      <trkpt lat="50.523907" lon="26.381176">
        <ele>279.832451</ele>
        <time>2019-06-06T09:45:27.000Z</time>
      </trkpt>
      <trkpt lat="50.523815" lon="26.381289">
        <ele>279.853338</ele>
        <time>2019-06-06T09:45:30.000Z</time>
      </trkpt>
      <trkpt lat="50.523724" lon="26.381395">
        <ele>279.873601</ele>
        <time>2019-06-06T09:45:33.000Z</time>
      </trkpt>
      <trkpt lat="50.523630" lon="26.381510">
        <ele>279.894911</ele>
        <time>2019-06-06T09:45:36.000Z</time>
      </trkpt>
      <trkpt lat="50.523533" lon="26.381628">
        <ele>279.916854</ele>
        <time>2019-06-06T09:45:39.000Z</time>
      </trkpt>
      <trkpt lat="50.523438" lon="26.381746">
        <ele>279.938515</ele>
        <time>2019-06-06T09:45:42.000Z</time>
      </trkpt>
      <trkpt lat="50.523346" lon="26.381863">
        <ele>279.959686</ele>
        <time>2019-06-06T09:45:45.000Z</time>
      </trkpt>
      <trkpt lat="50.523254" lon="26.381977">
        <ele>279.980644</ele>
        <time>2019-06-06T09:45:48.000Z</time>
      </trkpt>
      <trkpt lat="50.523163" lon="26.382093">
        <ele>280.001604</ele>
        <time>2019-06-06T09:45:51.000Z</time>
      </trkpt>
      <trkpt lat="50.523070" lon="26.382210">
        <ele>280.022914</ele>
        <time>2019-06-06T09:45:54.000Z</time>
      </trkpt>
      <trkpt lat="50.522984" lon="26.382320">
        <ele>280.042749</ele>
        <time>2019-06-06T09:45:57.000Z</time>
      </trkpt>
      <trkpt lat="50.522890" lon="26.382433">
        <ele>280.063920</ele>
        <time>2019-06-06T09:46:00.000Z</time>
      </trkpt>
      <trkpt lat="50.522797" lon="26.382545">
        <ele>280.026105</ele>
        <time>2019-06-06T09:46:03.000Z</time>
      </trkpt>
      <trkpt lat="50.522697" lon="26.382668">
        <ele>279.976027</ele>
        <time>2019-06-06T09:46:06.000Z</time>
      </trkpt>
      <trkpt lat="50.522602" lon="26.382792">
        <ele>279.927327</ele>
        <time>2019-06-06T09:46:09.000Z</time>
      </trkpt>
      <trkpt lat="50.522500" lon="26.382908">
        <ele>279.877674</ele>
        <time>2019-06-06T09:46:12.000Z</time>
      </trkpt>
      <trkpt lat="50.522400" lon="26.383030">
        <ele>279.827749</ele>
        <time>2019-06-06T09:46:15.000Z</time>
      </trkpt>
      <trkpt lat="50.522305" lon="26.383156">
        <ele>279.778728</ele>
        <time>2019-06-06T09:46:18.000Z</time>
      </trkpt>
      <trkpt lat="50.522205" lon="26.383266">
        <ele>279.730589</ele>
        <time>2019-06-06T09:46:21.000Z</time>
      </trkpt>
      <trkpt lat="50.522110" lon="26.383392">
        <ele>279.681568</ele>
        <time>2019-06-06T09:46:24.000Z</time>
      </trkpt>
      <trkpt lat="50.522015" lon="26.383509">
        <ele>279.633970</ele>
        <time>2019-06-06T09:46:27.000Z</time>
      </trkpt>
      <trkpt lat="50.521923" lon="26.383627">
        <ele>279.587140</ele>
        <time>2019-06-06T09:46:30.000Z</time>
      </trkpt>
      <trkpt lat="50.521824" lon="26.383753">
        <ele>279.536902</ele>
        <time>2019-06-06T09:46:33.000Z</time>
      </trkpt>
      <trkpt lat="50.521725" lon="26.383867">
        <ele>279.488500</ele>
        <time>2019-06-06T09:46:36.000Z</time>
      </trkpt>
      <trkpt lat="50.521620" lon="26.383990">
        <ele>279.436853</ele>
        <time>2019-06-06T09:46:39.000Z</time>
      </trkpt>
      <trkpt lat="50.521520" lon="26.384117">
        <ele>279.386150</ele>
        <time>2019-06-06T09:46:42.000Z</time>
      </trkpt>
      <trkpt lat="50.521416" lon="26.384245">
        <ele>279.346216</ele>
        <time>2019-06-06T09:46:45.000Z</time>
      </trkpt>
      <trkpt lat="50.521313" lon="26.384367">
        <ele>279.322309</ele>
        <time>2019-06-06T09:46:48.000Z</time>
      </trkpt>
      <trkpt lat="50.521214" lon="26.384483">
        <ele>279.299420</ele>
        <time>2019-06-06T09:46:51.000Z</time>
      </trkpt>
      <trkpt lat="50.521122" lon="26.384610">
        <ele>279.276724</ele>
        <time>2019-06-06T09:46:54.000Z</time>
      </trkpt>
      <trkpt lat="50.521020" lon="26.384724">
        <ele>279.253524</ele>
        <time>2019-06-06T09:46:57.000Z</time>
      </trkpt>
      <trkpt lat="50.520920" lon="26.384838">
        <ele>279.230625</ele>
        <time>2019-06-06T09:47:00.000Z</time>
      </trkpt>
      <trkpt lat="50.520824" lon="26.384968">
        <ele>279.207137</ele>
        <time>2019-06-06T09:47:03.000Z</time>
      </trkpt>
      <trkpt lat="50.520730" lon="26.385088">
        <ele>279.184691</ele>
        <time>2019-06-06T09:47:06.000Z</time>
      </trkpt>
      <trkpt lat="50.520626" lon="26.385212">
        <ele>279.160494</ele>
        <time>2019-06-06T09:47:09.000Z</time>
      </trkpt>
      <trkpt lat="50.520554" lon="26.385298">
        <ele>279.143731</ele>
        <time>2019-06-06T09:47:11.000Z</time>
      </trkpt>
      <trkpt lat="50.520450" lon="26.385427">
        <ele>279.119173</ele>
        <time>2019-06-06T09:47:14.000Z</time>
      </trkpt>
      <trkpt lat="50.520374" lon="26.385515">
        <ele>279.101675</ele>
        <time>2019-06-06T09:47:16.000Z</time>
      </trkpt>
      <trkpt lat="50.520267" lon="26.385635">
        <ele>279.077310</ele>
        <time>2019-06-06T09:47:19.000Z</time>
      </trkpt>
      <trkpt lat="50.520164" lon="26.385767">
        <ele>279.052675</ele>
        <time>2019-06-06T09:47:22.000Z</time>
      </trkpt>
      <trkpt lat="50.520060" lon="26.385885">
        <ele>279.028899</ele>
        <time>2019-06-06T09:47:25.000Z</time>
      </trkpt>
      <trkpt lat="50.519966" lon="26.385992">
        <ele>279.096451</ele>
        <time>2019-06-06T09:47:28.000Z</time>
      </trkpt>
      <trkpt lat="50.519882" lon="26.386106">
        <ele>279.189479</ele>
        <time>2019-06-06T09:47:31.000Z</time>
      </trkpt>
      <trkpt lat="50.519783" lon="26.386220">
        <ele>279.292357</ele>
        <time>2019-06-06T09:47:34.000Z</time>
      </trkpt>
      <trkpt lat="50.519688" lon="26.386337">
        <ele>279.393526</ele>
        <time>2019-06-06T09:47:37.000Z</time>
      </trkpt>
      <trkpt lat="50.519600" lon="26.386461">
        <ele>279.492593</ele>
        <time>2019-06-06T09:47:40.000Z</time>
      </trkpt>
      <trkpt lat="50.519505" lon="26.386568">
        <ele>279.590566</ele>
        <time>2019-06-06T09:47:43.000Z</time>
      </trkpt>
      <trkpt lat="50.519405" lon="26.386680">
        <ele>279.693500</ele>
        <time>2019-06-06T09:47:46.000Z</time>
      </trkpt>
      <trkpt lat="50.519310" lon="26.386795">
        <ele>279.794017</ele>
        <time>2019-06-06T09:47:49.000Z</time>
      </trkpt>
      <trkpt lat="50.519220" lon="26.386911">
        <ele>279.891581</ele>
        <time>2019-06-06T09:47:52.000Z</time>
      </trkpt>
      <trkpt lat="50.519100" lon="26.387068">
        <ele>280.022460</ele>
        <time>2019-06-06T09:47:56.000Z</time>
      </trkpt>
      <trkpt lat="50.519005" lon="26.387184">
        <ele>280.123302</ele>
        <time>2019-06-06T09:47:59.000Z</time>
      </trkpt>
      <trkpt lat="50.518910" lon="26.387300">
        <ele>280.224145</ele>
        <time>2019-06-06T09:48:02.000Z</time>
      </trkpt>
      <trkpt lat="50.518806" lon="26.387420">
        <ele>280.332296</ele>
        <time>2019-06-06T09:48:05.000Z</time>
      </trkpt>
      <trkpt lat="50.518707" lon="26.387531">
        <ele>280.434239</ele>
        <time>2019-06-06T09:48:08.000Z</time>
      </trkpt>
      <trkpt lat="50.518623" lon="26.387644">
        <ele>280.526919</ele>
        <time>2019-06-06T09:48:10.000Z</time>
      </trkpt>
      <trkpt lat="50.518528" lon="26.387758">
        <ele>280.488185</ele>
        <time>2019-06-06T09:48:14.000Z</time>
      </trkpt>
      <trkpt lat="50.518440" lon="26.387880">
        <ele>280.443447</ele>
        <time>2019-06-06T09:48:17.000Z</time>
      </trkpt>
      <trkpt lat="50.518345" lon="26.387980">
        <ele>280.399850</ele>
        <time>2019-06-06T09:48:20.000Z</time>
      </trkpt>
      <trkpt lat="50.518260" lon="26.388084">
        <ele>280.358778</ele>
        <time>2019-06-06T09:48:23.000Z</time>
      </trkpt>
      <trkpt lat="50.518166" lon="26.388195">
        <ele>280.313949</ele>
        <time>2019-06-06T09:48:26.000Z</time>
      </trkpt>
      <trkpt lat="50.518080" lon="26.388300">
        <ele>280.272428</ele>
        <time>2019-06-06T09:48:29.000Z</time>
      </trkpt>
      <trkpt lat="50.517994" lon="26.388409">
        <ele>280.230304</ele>
        <time>2019-06-06T09:48:32.000Z</time>
      </trkpt>
      <trkpt lat="50.517914" lon="26.388515">
        <ele>280.190410</ele>
        <time>2019-06-06T09:48:35.000Z</time>
      </trkpt>
      <trkpt lat="50.517822" lon="26.388632">
        <ele>280.145288</ele>
        <time>2019-06-06T09:48:38.000Z</time>
      </trkpt>
      <trkpt lat="50.517730" lon="26.388744">
        <ele>280.100918</ele>
        <time>2019-06-06T09:48:41.000Z</time>
      </trkpt>
      <trkpt lat="50.517635" lon="26.388847">
        <ele>280.056912</ele>
        <time>2019-06-06T09:48:44.000Z</time>
      </trkpt>
      <trkpt lat="50.517550" lon="26.388962">
        <ele>280.014150</ele>
        <time>2019-06-06T09:48:47.000Z</time>
      </trkpt>
      <trkpt lat="50.517452" lon="26.389076">
        <ele>279.967663</ele>
        <time>2019-06-06T09:48:50.000Z</time>
      </trkpt>
      <trkpt lat="50.517360" lon="26.389200">
        <ele>279.921454</ele>
        <time>2019-06-06T09:48:53.000Z</time>
      </trkpt>
      <trkpt lat="50.517270" lon="26.389315">
        <ele>279.877230</ele>
        <time>2019-06-06T09:48:56.000Z</time>
      </trkpt>
      <trkpt lat="50.517166" lon="26.389435">
        <ele>279.820566</ele>
        <time>2019-06-06T09:48:59.000Z</time>
      </trkpt>
      <trkpt lat="50.517070" lon="26.389557">
        <ele>279.753543</ele>
        <time>2019-06-06T09:49:02.000Z</time>
      </trkpt>
      <trkpt lat="50.516975" lon="26.389680">
        <ele>279.686722</ele>
        <time>2019-06-06T09:49:05.000Z</time>
      </trkpt>
      <trkpt lat="50.516880" lon="26.389782">
        <ele>279.624259</ele>
        <time>2019-06-06T09:49:08.000Z</time>
      </trkpt>
      <trkpt lat="50.516792" lon="26.389893">
        <ele>279.563001</ele>
        <time>2019-06-06T09:49:11.000Z</time>
      </trkpt>
      <trkpt lat="50.516697" lon="26.390010">
        <ele>279.497478</ele>
        <time>2019-06-06T09:49:14.000Z</time>
      </trkpt>
      <trkpt lat="50.516605" lon="26.390127">
        <ele>279.433229</ele>
        <time>2019-06-06T09:49:17.000Z</time>
      </trkpt>
      <trkpt lat="50.516510" lon="26.390244">
        <ele>279.367705</ele>
        <time>2019-06-06T09:49:20.000Z</time>
      </trkpt>
      <trkpt lat="50.516420" lon="26.390368">
        <ele>279.302730</ele>
        <time>2019-06-06T09:49:23.000Z</time>
      </trkpt>
      <trkpt lat="50.516323" lon="26.390482">
        <ele>279.236973</ele>
        <time>2019-06-06T09:49:26.000Z</time>
      </trkpt>
      <trkpt lat="50.516230" lon="26.390593">
        <ele>279.173574</ele>
        <time>2019-06-06T09:49:29.000Z</time>
      </trkpt>
      <trkpt lat="50.516136" lon="26.390707">
        <ele>279.109115</ele>
        <time>2019-06-06T09:49:32.000Z</time>
      </trkpt>
      <trkpt lat="50.516050" lon="26.390830">
        <ele>279.045990</ele>
        <time>2019-06-06T09:49:35.000Z</time>
      </trkpt>
      <trkpt lat="50.515945" lon="26.390950">
        <ele>278.975507</ele>
        <time>2019-06-06T09:49:38.000Z</time>
      </trkpt>
      <trkpt lat="50.515858" lon="26.391064">
        <ele>278.914013</ele>
        <time>2019-06-06T09:49:41.000Z</time>
      </trkpt>
      <trkpt lat="50.515762" lon="26.391180">
        <ele>278.872900</ele>
        <time>2019-06-06T09:49:44.000Z</time>
      </trkpt>
      <trkpt lat="50.515667" lon="26.391290">
        <ele>278.885160</ele>
        <time>2019-06-06T09:49:47.000Z</time>
      </trkpt>
      <trkpt lat="50.515568" lon="26.391405">
        <ele>278.897950</ele>
        <time>2019-06-06T09:49:50.000Z</time>
      </trkpt>
      <trkpt lat="50.515480" lon="26.391520">
        <ele>278.909840</ele>
        <time>2019-06-06T09:49:53.000Z</time>
      </trkpt>
      <trkpt lat="50.515390" lon="26.391640">
        <ele>278.922102</ele>
        <time>2019-06-06T09:49:56.000Z</time>
      </trkpt>
      <trkpt lat="50.515290" lon="26.391754">
        <ele>278.934937</ele>
        <time>2019-06-06T09:49:59.000Z</time>
      </trkpt>
      <trkpt lat="50.515194" lon="26.391867">
        <ele>278.947398</ele>
        <time>2019-06-06T09:50:02.000Z</time>
      </trkpt>
      <trkpt lat="50.515100" lon="26.391994">
        <ele>278.960277</ele>
        <time>2019-06-06T09:50:05.000Z</time>
      </trkpt>
      <trkpt lat="50.514970" lon="26.392153">
        <ele>278.977391</ele>
        <time>2019-06-06T09:50:09.000Z</time>
      </trkpt>
      <trkpt lat="50.514874" lon="26.392265">
        <ele>278.989813</ele>
        <time>2019-06-06T09:50:12.000Z</time>
      </trkpt>
      <trkpt lat="50.514780" lon="26.392380">
        <ele>279.002189</ele>
        <time>2019-06-06T09:50:15.000Z</time>
      </trkpt>
      <trkpt lat="50.514683" lon="26.392492">
        <ele>279.014694</ele>
        <time>2019-06-06T09:50:18.000Z</time>
      </trkpt>
      <trkpt lat="50.514595" lon="26.392618">
        <ele>279.027062</ele>
        <time>2019-06-06T09:50:21.000Z</time>
      </trkpt>
      <trkpt lat="50.514496" lon="26.392735">
        <ele>279.039931</ele>
        <time>2019-06-06T09:50:24.000Z</time>
      </trkpt>
      <trkpt lat="50.514393" lon="26.392849">
        <ele>279.053020</ele>
        <time>2019-06-06T09:50:27.000Z</time>
      </trkpt>
      <trkpt lat="50.514297" lon="26.392971">
        <ele>279.107231</ele>
        <time>2019-06-06T09:50:30.000Z</time>
      </trkpt>
      <trkpt lat="50.514194" lon="26.393091">
        <ele>279.175746</ele>
        <time>2019-06-06T09:50:33.000Z</time>
      </trkpt>
      <trkpt lat="50.514095" lon="26.393215">
        <ele>279.243393</ele>
        <time>2019-06-06T09:50:36.000Z</time>
      </trkpt>
      <trkpt lat="50.513996" lon="26.393341">
        <ele>279.311467</ele>
        <time>2019-06-06T09:50:39.000Z</time>
      </trkpt>
      <trkpt lat="50.513900" lon="26.393461">
        <ele>279.377013</ele>
        <time>2019-06-06T09:50:42.000Z</time>
      </trkpt>
      <trkpt lat="50.513798" lon="26.393580">
        <ele>279.444896</ele>
        <time>2019-06-06T09:50:45.000Z</time>
      </trkpt>
      <trkpt lat="50.513700" lon="26.393705">
        <ele>279.512341</ele>
        <time>2019-06-06T09:50:48.000Z</time>
      </trkpt>
      <trkpt lat="50.513596" lon="26.393827">
        <ele>279.581690</ele>
        <time>2019-06-06T09:50:51.000Z</time>
      </trkpt>
      <trkpt lat="50.513500" lon="26.393948">
        <ele>279.647449</ele>
        <time>2019-06-06T09:50:54.000Z</time>
      </trkpt>
      <trkpt lat="50.513400" lon="26.394072">
        <ele>279.715516</ele>
        <time>2019-06-06T09:50:57.000Z</time>
      </trkpt>
      <trkpt lat="50.513298" lon="26.394190">
        <ele>279.783198</ele>
        <time>2019-06-06T09:51:00.000Z</time>
      </trkpt>
      <trkpt lat="50.513200" lon="26.394318">
        <ele>279.851289</ele>
        <time>2019-06-06T09:51:03.000Z</time>
      </trkpt>
      <trkpt lat="50.513096" lon="26.394444">
        <ele>279.921460</ele>
        <time>2019-06-06T09:51:06.000Z</time>
      </trkpt>
      <trkpt lat="50.512997" lon="26.394575">
        <ele>279.990616</ele>
        <time>2019-06-06T09:51:09.000Z</time>
      </trkpt>
      <trkpt lat="50.512894" lon="26.394688">
        <ele>280.046875</ele>
        <time>2019-06-06T09:51:12.000Z</time>
      </trkpt>
      <trkpt lat="50.512783" lon="26.394814">
        <ele>280.100421</ele>
        <time>2019-06-06T09:51:15.000Z</time>
      </trkpt>
      <trkpt lat="50.512714" lon="26.394903">
        <ele>280.135326</ele>
        <time>2019-06-06T09:51:17.000Z</time>
      </trkpt>
      <trkpt lat="50.512610" lon="26.395033">
        <ele>280.187290</ele>
        <time>2019-06-06T09:51:20.000Z</time>
      </trkpt>
      <trkpt lat="50.512510" lon="26.395155">
        <ele>280.236794</ele>
        <time>2019-06-06T09:51:23.000Z</time>
      </trkpt>
      <trkpt lat="50.512405" lon="26.395273">
        <ele>280.287273</ele>
        <time>2019-06-06T09:51:26.000Z</time>
      </trkpt>
      <trkpt lat="50.512310" lon="26.395397">
        <ele>280.335563</ele>
        <time>2019-06-06T09:51:29.000Z</time>
      </trkpt>
      <trkpt lat="50.512200" lon="26.395527">
        <ele>280.389384</ele>
        <time>2019-06-06T09:51:32.000Z</time>
      </trkpt>
      <trkpt lat="50.512093" lon="26.395650">
        <ele>280.441225</ele>
        <time>2019-06-06T09:51:35.000Z</time>
      </trkpt>
      <trkpt lat="50.511997" lon="26.395773">
        <ele>280.489660</ele>
        <time>2019-06-06T09:51:38.000Z</time>
      </trkpt>
      <trkpt lat="50.511900" lon="26.395903">
        <ele>280.539510</ele>
        <time>2019-06-06T09:51:41.000Z</time>
      </trkpt>
      <trkpt lat="50.511803" lon="26.396023">
        <ele>280.587783</ele>
        <time>2019-06-06T09:51:44.000Z</time>
      </trkpt>
      <trkpt lat="50.511703" lon="26.396145">
        <ele>280.637288</ele>
        <time>2019-06-06T09:51:47.000Z</time>
      </trkpt>
      <trkpt lat="50.511600" lon="26.396273">
        <ele>280.688636</ele>
        <time>2019-06-06T09:51:50.000Z</time>
      </trkpt>
      <trkpt lat="50.511497" lon="26.396387">
        <ele>280.724172</ele>
        <time>2019-06-06T09:51:53.000Z</time>
      </trkpt>
      <trkpt lat="50.511402" lon="26.396515">
        <ele>280.733960</ele>
        <time>2019-06-06T09:51:56.000Z</time>
      </trkpt>
      <trkpt lat="50.511307" lon="26.396639">
        <ele>280.743619</ele>
        <time>2019-06-06T09:51:59.000Z</time>
      </trkpt>
      <trkpt lat="50.511210" lon="26.396765">
        <ele>280.753463</ele>
        <time>2019-06-06T09:52:02.000Z</time>
      </trkpt>
      <trkpt lat="50.511120" lon="26.396889">
        <ele>280.762824</ele>
        <time>2019-06-06T09:52:05.000Z</time>
      </trkpt>
      <trkpt lat="50.511032" lon="26.397010">
        <ele>280.771970</ele>
        <time>2019-06-06T09:52:08.000Z</time>
      </trkpt>
      <trkpt lat="50.510944" lon="26.397140">
        <ele>280.781417</ele>
        <time>2019-06-06T09:52:11.000Z</time>
      </trkpt>
      <trkpt lat="50.510860" lon="26.397285">
        <ele>280.791175</ele>
        <time>2019-06-06T09:52:14.000Z</time>
      </trkpt>
      <trkpt lat="50.510780" lon="26.397423">
        <ele>280.800466</ele>
        <time>2019-06-06T09:52:17.000Z</time>
      </trkpt>
      <trkpt lat="50.510700" lon="26.397572">
        <ele>280.810168</ele>
        <time>2019-06-06T09:52:20.000Z</time>
      </trkpt>
      <trkpt lat="50.510635" lon="26.397718">
        <ele>280.819035</ele>
        <time>2019-06-06T09:52:23.000Z</time>
      </trkpt>
      <trkpt lat="50.510567" lon="26.397871">
        <ele>280.828322</ele>
        <time>2019-06-06T09:52:26.000Z</time>
      </trkpt>
      <trkpt lat="50.510487" lon="26.398016">
        <ele>280.837873</ele>
        <time>2019-06-06T09:52:29.000Z</time>
      </trkpt>
      <trkpt lat="50.510418" lon="26.398165">
        <ele>280.847044</ele>
        <time>2019-06-06T09:52:32.000Z</time>
      </trkpt>
      <trkpt lat="50.510345" lon="26.398320">
        <ele>280.856640</ele>
        <time>2019-06-06T09:52:35.000Z</time>
      </trkpt>
      <trkpt lat="50.510280" lon="26.398472">
        <ele>280.910099</ele>
        <time>2019-06-06T09:52:38.000Z</time>
      </trkpt>
      <trkpt lat="50.510216" lon="26.398602">
        <ele>281.002753</ele>
        <time>2019-06-06T09:52:41.000Z</time>
      </trkpt>
      <trkpt lat="50.510150" lon="26.398743">
        <ele>281.101423</ele>
        <time>2019-06-06T09:52:44.000Z</time>
      </trkpt>
      <trkpt lat="50.510086" lon="26.398893">
        <ele>281.203224</ele>
        <time>2019-06-06T09:52:47.000Z</time>
      </trkpt>
      <trkpt lat="50.510017" lon="26.399040">
        <ele>281.306194</ele>
        <time>2019-06-06T09:52:50.000Z</time>
      </trkpt>
      <trkpt lat="50.509956" lon="26.399195">
        <ele>281.408923</ele>
        <time>2019-06-06T09:52:53.000Z</time>
      </trkpt>
      <trkpt lat="50.509895" lon="26.399338">
        <ele>281.505967</ele>
        <time>2019-06-06T09:52:56.000Z</time>
      </trkpt>
      <trkpt lat="50.509830" lon="26.399483">
        <ele>281.605949</ele>
        <time>2019-06-06T09:52:59.000Z</time>
      </trkpt>
      <trkpt lat="50.509777" lon="26.399633">
        <ele>281.702659</ele>
        <time>2019-06-06T09:53:02.000Z</time>
      </trkpt>
      <trkpt lat="50.509724" lon="26.399797">
        <ele>281.806337</ele>
        <time>2019-06-06T09:53:05.000Z</time>
      </trkpt>
      <trkpt lat="50.509670" lon="26.399954">
        <ele>281.906932</ele>
        <time>2019-06-06T09:53:08.000Z</time>
      </trkpt>
      <trkpt lat="50.509605" lon="26.400093">
        <ele>282.004170</ele>
        <time>2019-06-06T09:53:11.000Z</time>
      </trkpt>
      <trkpt lat="50.509563" lon="26.400215">
        <ele>282.082355</ele>
        <time>2019-06-06T09:53:14.000Z</time>
      </trkpt>
      <trkpt lat="50.509510" lon="26.400393">
        <ele>282.193125</ele>
        <time>2019-06-06T09:53:18.000Z</time>
      </trkpt>
      <trkpt lat="50.509457" lon="26.400537">
        <ele>282.286894</ele>
        <time>2019-06-06T09:53:21.000Z</time>
      </trkpt>
      <trkpt lat="50.509403" lon="26.400680">
        <ele>282.380625</ele>
        <time>2019-06-06T09:53:24.000Z</time>
      </trkpt>
      <trkpt lat="50.509346" lon="26.400822">
        <ele>282.432388</ele>
        <time>2019-06-06T09:53:27.000Z</time>
      </trkpt>
      <trkpt lat="50.509296" lon="26.400965">
        <ele>282.325387</ele>
        <time>2019-06-06T09:53:30.000Z</time>
      </trkpt>
      <trkpt lat="50.509235" lon="26.401117">
        <ele>282.207537</ele>
        <time>2019-06-06T09:53:33.000Z</time>
      </trkpt>
      <trkpt lat="50.509180" lon="26.401270">
        <ele>282.092298</ele>
        <time>2019-06-06T09:53:36.000Z</time>
      </trkpt>
      <trkpt lat="50.509117" lon="26.401432">
        <ele>281.967789</ele>
        <time>2019-06-06T09:53:39.000Z</time>
      </trkpt>
      <trkpt lat="50.509064" lon="26.401570">
        <ele>281.862083</ele>
        <time>2019-06-06T09:53:42.000Z</time>
      </trkpt>
      <trkpt lat="50.509007" lon="26.401714">
        <ele>281.750867</ele>
        <time>2019-06-06T09:53:45.000Z</time>
      </trkpt>
      <trkpt lat="50.508945" lon="26.401882">
        <ele>281.623506</ele>
        <time>2019-06-06T09:53:48.000Z</time>
      </trkpt>
      <trkpt lat="50.508890" lon="26.402044">
        <ele>281.503094</ele>
        <time>2019-06-06T09:53:51.000Z</time>
      </trkpt>
      <trkpt lat="50.508830" lon="26.402222">
        <ele>281.370998</ele>
        <time>2019-06-06T09:53:54.000Z</time>
      </trkpt>
      <trkpt lat="50.508760" lon="26.402390">
        <ele>281.239304</ele>
        <time>2019-06-06T09:53:57.000Z</time>
      </trkpt>
      <trkpt lat="50.508690" lon="26.402550">
        <ele>281.111964</ele>
        <time>2019-06-06T09:54:00.000Z</time>
      </trkpt>
      <trkpt lat="50.508625" lon="26.402720">
        <ele>280.981899</ele>
        <time>2019-06-06T09:54:03.000Z</time>
      </trkpt>
      <trkpt lat="50.508570" lon="26.402880">
        <ele>280.862642</ele>
        <time>2019-06-06T09:54:06.000Z</time>
      </trkpt>
      <trkpt lat="50.508514" lon="26.403042">
        <ele>280.741741</ele>
        <time>2019-06-06T09:54:09.000Z</time>
      </trkpt>
      <trkpt lat="50.508450" lon="26.403215">
        <ele>280.610508</ele>
        <time>2019-06-06T09:54:12.000Z</time>
      </trkpt>
      <trkpt lat="50.508390" lon="26.403389">
        <ele>280.562005</ele>
        <time>2019-06-06T09:54:15.000Z</time>
      </trkpt>
      <trkpt lat="50.508324" lon="26.403545">
        <ele>280.522191</ele>
        <time>2019-06-06T09:54:18.000Z</time>
      </trkpt>
      <trkpt lat="50.508266" lon="26.403702">
        <ele>280.483609</ele>
        <time>2019-06-06T09:54:21.000Z</time>
      </trkpt>
      <trkpt lat="50.508210" lon="26.403868">
        <ele>280.443680</ele>
        <time>2019-06-06T09:54:24.000Z</time>
      </trkpt>
      <trkpt lat="50.508144" lon="26.404037">
        <ele>280.401538</ele>
        <time>2019-06-06T09:54:27.000Z</time>
      </trkpt>
      <trkpt lat="50.508080" lon="26.404196">
        <ele>280.361553</ele>
        <time>2019-06-06T09:54:30.000Z</time>
      </trkpt>
      <trkpt lat="50.508020" lon="26.404370">
        <ele>280.319493</ele>
        <time>2019-06-06T09:54:33.000Z</time>
      </trkpt>
      <trkpt lat="50.507954" lon="26.404547">
        <ele>280.275894</ele>
        <time>2019-06-06T09:54:36.000Z</time>
      </trkpt>
      <trkpt lat="50.507890" lon="26.404710">
        <ele>280.235188</ele>
        <time>2019-06-06T09:54:39.000Z</time>
      </trkpt>
      <trkpt lat="50.507830" lon="26.404863">
        <ele>280.196992</ele>
        <time>2019-06-06T09:54:42.000Z</time>
      </trkpt>
      <trkpt lat="50.507780" lon="26.405020">
        <ele>280.159681</ele>
        <time>2019-06-06T09:54:45.000Z</time>
      </trkpt>
      <trkpt lat="50.507717" lon="26.405174">
        <ele>280.120771</ele>
        <time>2019-06-06T09:54:48.000Z</time>
      </trkpt>
      <trkpt lat="50.507668" lon="26.405333">
        <ele>280.083226</ele>
        <time>2019-06-06T09:54:51.000Z</time>
      </trkpt>
      <trkpt lat="50.507618" lon="26.405478">
        <ele>280.048177</ele>
        <time>2019-06-06T09:54:54.000Z</time>
      </trkpt>
      <trkpt lat="50.507570" lon="26.405638">
        <ele>280.010584</ele>
        <time>2019-06-06T09:54:57.000Z</time>
      </trkpt>
      <trkpt lat="50.507510" lon="26.405796">
        <ele>279.928761</ele>
        <time>2019-06-06T09:55:00.000Z</time>
      </trkpt>
      <trkpt lat="50.507442" lon="26.405952">
        <ele>279.828376</ele>
        <time>2019-06-06T09:55:03.000Z</time>
      </trkpt>
      <trkpt lat="50.507385" lon="26.406116">
        <ele>279.729176</ele>
        <time>2019-06-06T09:55:06.000Z</time>
      </trkpt>
      <trkpt lat="50.507324" lon="26.406270">
        <ele>279.632876</ele>
        <time>2019-06-06T09:55:09.000Z</time>
      </trkpt>
      <trkpt lat="50.507267" lon="26.406437">
        <ele>279.532276</ele>
        <time>2019-06-06T09:55:12.000Z</time>
      </trkpt>
      <trkpt lat="50.507206" lon="26.406593">
        <ele>279.435074</ele>
        <time>2019-06-06T09:55:15.000Z</time>
      </trkpt>
      <trkpt lat="50.507150" lon="26.406750">
        <ele>279.339528</ele>
        <time>2019-06-06T09:55:18.000Z</time>
      </trkpt>
      <trkpt lat="50.507088" lon="26.406920">
        <ele>279.235510</ele>
        <time>2019-06-06T09:55:21.000Z</time>
      </trkpt>
      <trkpt lat="50.507027" lon="26.407085">
        <ele>279.134207</ele>
        <time>2019-06-06T09:55:24.000Z</time>
      </trkpt>
      <trkpt lat="50.506966" lon="26.407253">
        <ele>279.031524</ele>
        <time>2019-06-06T09:55:27.000Z</time>
      </trkpt>
      <trkpt lat="50.506910" lon="26.407420">
        <ele>278.931315</ele>
        <time>2019-06-06T09:55:30.000Z</time>
      </trkpt>
      <trkpt lat="50.506850" lon="26.407587">
        <ele>278.829506</ele>
        <time>2019-06-06T09:55:32.000Z</time>
      </trkpt>
      <trkpt lat="50.506790" lon="26.407764">
        <ele>278.723043</ele>
        <time>2019-06-06T09:55:36.000Z</time>
      </trkpt>
      <trkpt lat="50.506733" lon="26.407928">
        <ele>278.623842</ele>
        <time>2019-06-06T09:55:39.000Z</time>
      </trkpt>
      <trkpt lat="50.506676" lon="26.408081">
        <ele>278.529722</ele>
        <time>2019-06-06T09:55:42.000Z</time>
      </trkpt>
      <trkpt lat="50.506610" lon="26.408237">
        <ele>278.279054</ele>
        <time>2019-06-06T09:55:45.000Z</time>
      </trkpt>
      <trkpt lat="50.506550" lon="26.408403">
        <ele>277.954244</ele>
        <time>2019-06-06T09:55:48.000Z</time>
      </trkpt>
      <trkpt lat="50.506485" lon="26.408573">
        <ele>277.616809</ele>
        <time>2019-06-06T09:55:51.000Z</time>
      </trkpt>
      <trkpt lat="50.506420" lon="26.408733">
        <ele>277.293834</ele>
        <time>2019-06-06T09:55:54.000Z</time>
      </trkpt>
      <trkpt lat="50.506367" lon="26.408901">
        <ele>276.974811</ele>
        <time>2019-06-06T09:55:57.000Z</time>
      </trkpt>
      <trkpt lat="50.506306" lon="26.409061">
        <ele>276.657467</ele>
        <time>2019-06-06T09:56:00.000Z</time>
      </trkpt>
      <trkpt lat="50.506245" lon="26.409240">
        <ele>276.312000</ele>
        <time>2019-06-06T09:56:03.000Z</time>
      </trkpt>
      <trkpt lat="50.506187" lon="26.409410">
        <ele>275.983818</ele>
        <time>2019-06-06T09:56:06.000Z</time>
      </trkpt>
      <trkpt lat="50.506134" lon="26.409570">
        <ele>275.676926</ele>
        <time>2019-06-06T09:56:09.000Z</time>
      </trkpt>
      <trkpt lat="50.506077" lon="26.409725">
        <ele>275.372339</ele>
        <time>2019-06-06T09:56:12.000Z</time>
      </trkpt>
      <trkpt lat="50.506016" lon="26.409893">
        <ele>275.043247</ele>
        <time>2019-06-06T09:56:15.000Z</time>
      </trkpt>
      <trkpt lat="50.505960" lon="26.410057">
        <ele>274.726587</ele>
        <time>2019-06-06T09:56:18.000Z</time>
      </trkpt>
      <trkpt lat="50.505898" lon="26.410215">
        <ele>274.410758</ele>
        <time>2019-06-06T09:56:21.000Z</time>
      </trkpt>
      <trkpt lat="50.505836" lon="26.410380">
        <ele>274.084734</ele>
        <time>2019-06-06T09:56:24.000Z</time>
      </trkpt>
      <trkpt lat="50.505775" lon="26.410522">
        <ele>273.793226</ele>
        <time>2019-06-06T09:56:27.000Z</time>
      </trkpt>
      <trkpt lat="50.505733" lon="26.410667">
        <ele>273.662515</ele>
        <time>2019-06-06T09:56:30.000Z</time>
      </trkpt>
      <trkpt lat="50.505688" lon="26.410816">
        <ele>273.619639</ele>
        <time>2019-06-06T09:56:33.000Z</time>
      </trkpt>
      <trkpt lat="50.505640" lon="26.410954">
        <ele>273.578753</ele>
        <time>2019-06-06T09:56:36.000Z</time>
      </trkpt>
      <trkpt lat="50.505580" lon="26.411110">
        <ele>273.531365</ele>
        <time>2019-06-06T09:56:39.000Z</time>
      </trkpt>
      <trkpt lat="50.505520" lon="26.411274">
        <ele>273.482185</ele>
        <time>2019-06-06T09:56:42.000Z</time>
      </trkpt>
      <trkpt lat="50.505455" lon="26.411457">
        <ele>273.427700</ele>
        <time>2019-06-06T09:56:45.000Z</time>
      </trkpt>
      <trkpt lat="50.505390" lon="26.411634">
        <ele>273.374572</ele>
        <time>2019-06-06T09:56:48.000Z</time>
      </trkpt>
      <trkpt lat="50.505320" lon="26.411800">
        <ele>273.322799</ele>
        <time>2019-06-06T09:56:51.000Z</time>
      </trkpt>
      <trkpt lat="50.505264" lon="26.411970">
        <ele>273.273034</ele>
        <time>2019-06-06T09:56:54.000Z</time>
      </trkpt>
      <trkpt lat="50.505215" lon="26.412110">
        <ele>273.231496</ele>
        <time>2019-06-06T09:56:57.000Z</time>
      </trkpt>
      <trkpt lat="50.505170" lon="26.412243">
        <ele>273.192336</ele>
        <time>2019-06-06T09:57:02.000Z</time>
      </trkpt>
      <trkpt lat="50.505257" lon="26.412172">
        <ele>273.152274</ele>
        <time>2019-06-06T10:06:48.000Z</time>
      </trkpt>
      <trkpt lat="50.505210" lon="26.412304">
        <ele>273.112951</ele>
        <time>2019-06-06T10:07:00.000Z</time>
      </trkpt>
      <trkpt lat="50.505170" lon="26.412443">
        <ele>273.073292</ele>
        <time>2019-06-06T10:07:06.000Z</time>
      </trkpt>
      <trkpt lat="50.505120" lon="26.412565">
        <ele>273.035566</ele>
        <time>2019-06-06T10:07:10.000Z</time>
      </trkpt>
      <trkpt lat="50.505043" lon="26.412643">
        <ele>272.998129</ele>
        <time>2019-06-06T10:07:14.000Z</time>
      </trkpt>
      <trkpt lat="50.505000" lon="26.412770">
        <ele>272.960730</ele>
        <time>2019-06-06T10:07:19.000Z</time>
      </trkpt>
      <trkpt lat="50.504948" lon="26.412900">
        <ele>272.445147</ele>
        <time>2019-06-06T10:07:39.000Z</time>
      </trkpt>
      <trkpt lat="50.504898" lon="26.413029">
        <ele>271.820290</ele>
        <time>2019-06-06T10:07:43.000Z</time>
      </trkpt>
      <trkpt lat="50.504840" lon="26.413185">
        <ele>271.072866</ele>
        <time>2019-06-06T10:07:47.000Z</time>
      </trkpt>
      <trkpt lat="50.504790" lon="26.413330">
        <ele>270.390624</ele>
        <time>2019-06-06T10:07:50.000Z</time>
      </trkpt>
      <trkpt lat="50.504738" lon="26.413492">
        <ele>269.640041</ele>
        <time>2019-06-06T10:07:53.000Z</time>
      </trkpt>
      <trkpt lat="50.504673" lon="26.413668">
        <ele>268.798218</ele>
        <time>2019-06-06T10:07:56.000Z</time>
      </trkpt>
      <trkpt lat="50.504627" lon="26.413803">
        <ele>268.164728</ele>
        <time>2019-06-06T10:07:58.000Z</time>
      </trkpt>
      <trkpt lat="50.504578" lon="26.413939">
        <ele>267.518198</ele>
        <time>2019-06-06T10:08:00.000Z</time>
      </trkpt>
      <trkpt lat="50.504536" lon="26.414074">
        <ele>266.896569</ele>
        <time>2019-06-06T10:08:02.000Z</time>
      </trkpt>
      <trkpt lat="50.504486" lon="26.414213">
        <ele>266.236036</ele>
        <time>2019-06-06T10:08:04.000Z</time>
      </trkpt>
      <trkpt lat="50.504425" lon="26.414350">
        <ele>265.544297</ele>
        <time>2019-06-06T10:08:06.000Z</time>
      </trkpt>
      <trkpt lat="50.504370" lon="26.414501">
        <ele>264.824539</ele>
        <time>2019-06-06T10:08:08.000Z</time>
      </trkpt>
      <trkpt lat="50.504314" lon="26.414663">
        <ele>264.061877</ele>
        <time>2019-06-06T10:08:10.000Z</time>
      </trkpt>
      <trkpt lat="50.504257" lon="26.414827">
        <ele>263.288838</ele>
        <time>2019-06-06T10:08:12.000Z</time>
      </trkpt>
      <trkpt lat="50.504200" lon="26.414999">
        <ele>262.486603</ele>
        <time>2019-06-06T10:08:14.000Z</time>
      </trkpt>
      <trkpt lat="50.504140" lon="26.415174">
        <ele>261.664265</ele>
        <time>2019-06-06T10:08:16.000Z</time>
      </trkpt>
      <trkpt lat="50.504078" lon="26.415356">
        <ele>260.990371</ele>
        <time>2019-06-06T10:08:18.000Z</time>
      </trkpt>
      <trkpt lat="50.504010" lon="26.415543">
        <ele>260.459980</ele>
        <time>2019-06-06T10:08:20.000Z</time>
      </trkpt>
      <trkpt lat="50.503944" lon="26.415730">
        <ele>259.933388</ele>
        <time>2019-06-06T10:08:22.000Z</time>
      </trkpt>
      <trkpt lat="50.503864" lon="26.415940">
        <ele>259.330648</ele>
        <time>2019-06-06T10:08:24.000Z</time>
      </trkpt>
      <trkpt lat="50.503790" lon="26.416147">
        <ele>258.745958</ele>
        <time>2019-06-06T10:08:26.000Z</time>
      </trkpt>
      <trkpt lat="50.503710" lon="26.416370">
        <ele>258.115542</ele>
        <time>2019-06-06T10:08:28.000Z</time>
      </trkpt>
      <trkpt lat="50.503628" lon="26.416600">
        <ele>257.466306</ele>
        <time>2019-06-06T10:08:30.000Z</time>
      </trkpt>
      <trkpt lat="50.503548" lon="26.416824">
        <ele>256.833742</ele>
        <time>2019-06-06T10:08:32.000Z</time>
      </trkpt>
      <trkpt lat="50.503468" lon="26.417040">
        <ele>256.218278</ele>
        <time>2019-06-06T10:08:34.000Z</time>
      </trkpt>
      <trkpt lat="50.503387" lon="26.417250">
        <ele>255.613536</ele>
        <time>2019-06-06T10:08:36.000Z</time>
      </trkpt>
      <trkpt lat="50.503330" lon="26.417454">
        <ele>255.064888</ele>
        <time>2019-06-06T10:08:38.000Z</time>
      </trkpt>
      <trkpt lat="50.503265" lon="26.417633">
        <ele>254.557355</ele>
        <time>2019-06-06T10:08:40.000Z</time>
      </trkpt>
      <trkpt lat="50.503200" lon="26.417809">
        <ele>254.599311</ele>
        <time>2019-06-06T10:08:42.000Z</time>
      </trkpt>
      <trkpt lat="50.503140" lon="26.417946">
        <ele>255.132972</ele>
        <time>2019-06-06T10:08:44.000Z</time>
      </trkpt>
      <trkpt lat="50.503090" lon="26.418085">
        <ele>255.645307</ele>
        <time>2019-06-06T10:08:46.000Z</time>
      </trkpt>
      <trkpt lat="50.503020" lon="26.418247">
        <ele>256.273650</ele>
        <time>2019-06-06T10:08:49.000Z</time>
      </trkpt>
      <trkpt lat="50.502945" lon="26.418407">
        <ele>256.911329</ele>
        <time>2019-06-06T10:08:52.000Z</time>
      </trkpt>
      <trkpt lat="50.502888" lon="26.418581">
        <ele>257.539271</ele>
        <time>2019-06-06T10:08:55.000Z</time>
      </trkpt>
      <trkpt lat="50.502820" lon="26.418743">
        <ele>258.162002</ele>
        <time>2019-06-06T10:08:58.000Z</time>
      </trkpt>
      <trkpt lat="50.502747" lon="26.418892">
        <ele>258.765424</ele>
        <time>2019-06-06T10:09:01.000Z</time>
      </trkpt>
      <trkpt lat="50.502674" lon="26.419020">
        <ele>259.317004</ele>
        <time>2019-06-06T10:09:04.000Z</time>
      </trkpt>
      <trkpt lat="50.502594" lon="26.419147">
        <ele>259.890474</ele>
        <time>2019-06-06T10:09:07.000Z</time>
      </trkpt>
      <trkpt lat="50.502510" lon="26.419271">
        <ele>260.471687</ele>
        <time>2019-06-06T10:09:10.000Z</time>
      </trkpt>
      <trkpt lat="50.502434" lon="26.419378">
        <ele>260.986291</ele>
        <time>2019-06-06T10:09:13.000Z</time>
      </trkpt>
      <trkpt lat="50.502346" lon="26.419502">
        <ele>261.582375</ele>
        <time>2019-06-06T10:09:16.000Z</time>
      </trkpt>
      <trkpt lat="50.502254" lon="26.419615">
        <ele>262.171272</ele>
        <time>2019-06-06T10:09:19.000Z</time>
      </trkpt>
      <trkpt lat="50.502182" lon="26.419730">
        <ele>262.688995</ele>
        <time>2019-06-06T10:09:22.000Z</time>
      </trkpt>
      <trkpt lat="50.502106" lon="26.419825">
        <ele>263.178758</ele>
        <time>2019-06-06T10:09:25.000Z</time>
      </trkpt>
      <trkpt lat="50.502030" lon="26.419910">
        <ele>263.738449</ele>
        <time>2019-06-06T10:09:28.000Z</time>
      </trkpt>
      <trkpt lat="50.501945" lon="26.420000">
        <ele>264.417554</ele>
        <time>2019-06-06T10:09:31.000Z</time>
      </trkpt>
      <trkpt lat="50.501870" lon="26.420086">
        <ele>265.032707</ele>
        <time>2019-06-06T10:09:34.000Z</time>
      </trkpt>
      <trkpt lat="50.501797" lon="26.420183">
        <ele>265.666094</ele>
        <time>2019-06-06T10:09:37.000Z</time>
      </trkpt>
      <trkpt lat="50.501717" lon="26.420277">
        <ele>266.327934</ele>
        <time>2019-06-06T10:09:40.000Z</time>
      </trkpt>
      <trkpt lat="50.501640" lon="26.420364">
        <ele>266.956296</ele>
        <time>2019-06-06T10:09:43.000Z</time>
      </trkpt>
      <trkpt lat="50.501564" lon="26.420454">
        <ele>267.586815</ele>
        <time>2019-06-06T10:09:46.000Z</time>
      </trkpt>
      <trkpt lat="50.501488" lon="26.420547">
        <ele>268.225022</ele>
        <time>2019-06-06T10:09:49.000Z</time>
      </trkpt>
      <trkpt lat="50.501408" lon="26.420635">
        <ele>268.872040</ele>
        <time>2019-06-06T10:09:52.000Z</time>
      </trkpt>
      <trkpt lat="50.501330" lon="26.420717">
        <ele>269.493840</ele>
        <time>2019-06-06T10:09:55.000Z</time>
      </trkpt>
      <trkpt lat="50.501250" lon="26.420794">
        <ele>270.115441</ele>
        <time>2019-06-06T10:09:58.000Z</time>
      </trkpt>
      <trkpt lat="50.501167" lon="26.420906">
        <ele>270.840277</ele>
        <time>2019-06-06T10:10:02.000Z</time>
      </trkpt>
      <trkpt lat="50.501080" lon="26.421015">
        <ele>271.577482</ele>
        <time>2019-06-06T10:10:06.000Z</time>
      </trkpt>
      <trkpt lat="50.501003" lon="26.421112">
        <ele>272.231342</ele>
        <time>2019-06-06T10:10:10.000Z</time>
      </trkpt>
      <trkpt lat="50.500930" lon="26.421206">
        <ele>272.856646</ele>
        <time>2019-06-06T10:10:14.000Z</time>
      </trkpt>
      <trkpt lat="50.500860" lon="26.421310">
        <ele>273.494881</ele>
        <time>2019-06-06T10:10:18.000Z</time>
      </trkpt>
      <trkpt lat="50.500782" lon="26.421417">
        <ele>274.180873</ele>
        <time>2019-06-06T10:10:22.000Z</time>
      </trkpt>
      <trkpt lat="50.500720" lon="26.421526">
        <ele>274.797229</ele>
        <time>2019-06-06T10:10:26.000Z</time>
      </trkpt>
      <trkpt lat="50.500650" lon="26.421642">
        <ele>275.457925</ele>
        <time>2019-06-06T10:10:30.000Z</time>
      </trkpt>
      <trkpt lat="50.500576" lon="26.421751">
        <ele>276.082217</ele>
        <time>2019-06-06T10:10:34.000Z</time>
      </trkpt>
      <trkpt lat="50.500507" lon="26.421862">
        <ele>276.689991</ele>
        <time>2019-06-06T10:10:38.000Z</time>
      </trkpt>
      <trkpt lat="50.500450" lon="26.421984">
        <ele>277.282768</ele>
        <time>2019-06-06T10:10:42.000Z</time>
      </trkpt>
      <trkpt lat="50.500378" lon="26.422121">
        <ele>277.978685</ele>
        <time>2019-06-06T10:10:47.000Z</time>
      </trkpt>
      <trkpt lat="50.500300" lon="26.422245">
        <ele>278.661607</ele>
        <time>2019-06-06T10:10:52.000Z</time>
      </trkpt>
      <trkpt lat="50.500220" lon="26.422346">
        <ele>279.293274</ele>
        <time>2019-06-06T10:10:57.000Z</time>
      </trkpt>
      <trkpt lat="50.500156" lon="26.422450">
        <ele>279.859938</ele>
        <time>2019-06-06T10:11:01.000Z</time>
      </trkpt>
      <trkpt lat="50.500100" lon="26.422590">
        <ele>280.507568</ele>
        <time>2019-06-06T10:11:06.000Z</time>
      </trkpt>
      <trkpt lat="50.500027" lon="26.422718">
        <ele>281.180789</ele>
        <time>2019-06-06T10:11:11.000Z</time>
      </trkpt>
      <trkpt lat="50.499966" lon="26.422832">
        <ele>281.764164</ele>
        <time>2019-06-06T10:11:15.000Z</time>
      </trkpt>
      <trkpt lat="50.499900" lon="26.422972">
        <ele>282.446562</ele>
        <time>2019-06-06T10:11:20.000Z</time>
      </trkpt>
      <trkpt lat="50.499830" lon="26.423080">
        <ele>283.050373</ele>
        <time>2019-06-06T10:11:24.000Z</time>
      </trkpt>
      <trkpt lat="50.499750" lon="26.423199">
        <ele>283.728409</ele>
        <time>2019-06-06T10:11:29.000Z</time>
      </trkpt>
      <trkpt lat="50.499700" lon="26.423351">
        <ele>284.398527</ele>
        <time>2019-06-06T10:11:34.000Z</time>
      </trkpt>
      <trkpt lat="50.499622" lon="26.423470">
        <ele>285.067673</ele>
        <time>2019-06-06T10:11:39.000Z</time>
      </trkpt>
      <trkpt lat="50.499554" lon="26.423567">
        <ele>285.632959</ele>
        <time>2019-06-06T10:11:43.000Z</time>
      </trkpt>
      <trkpt lat="50.499508" lon="26.423695">
        <ele>286.208679</ele>
        <time>2019-06-06T10:11:47.000Z</time>
      </trkpt>
      <trkpt lat="50.499462" lon="26.423822">
        <ele>286.593787</ele>
        <time>2019-06-06T10:11:51.000Z</time>
      </trkpt>
      <trkpt lat="50.499410" lon="26.423962">
        <ele>286.948150</ele>
        <time>2019-06-06T10:11:56.000Z</time>
      </trkpt>
      <trkpt lat="50.499360" lon="26.424107">
        <ele>287.308668</ele>
        <time>2019-06-06T10:12:01.000Z</time>
      </trkpt>
      <trkpt lat="50.499348" lon="26.424250">
        <ele>287.623946</ele>
        <time>2019-06-06T10:12:05.000Z</time>
      </trkpt>
      <trkpt lat="50.499336" lon="26.424414">
        <ele>287.984783</ele>
        <time>2019-06-06T10:12:10.000Z</time>
      </trkpt>
      <trkpt lat="50.499320" lon="26.424562">
        <ele>288.312921</ele>
        <time>2019-06-06T10:12:15.000Z</time>
      </trkpt>
      <trkpt lat="50.499300" lon="26.424710">
        <ele>288.643640</ele>
        <time>2019-06-06T10:12:20.000Z</time>
      </trkpt>
      <trkpt lat="50.499290" lon="26.424860">
        <ele>288.973307</ele>
        <time>2019-06-06T10:12:24.000Z</time>
      </trkpt>
      <trkpt lat="50.499300" lon="26.425007">
        <ele>289.296453</ele>
        <time>2019-06-06T10:12:28.000Z</time>
      </trkpt>
      <trkpt lat="50.499306" lon="26.425161">
        <ele>289.633699</ele>
        <time>2019-06-06T10:12:32.000Z</time>
      </trkpt>
      <trkpt lat="50.499313" lon="26.425318">
        <ele>289.977712</ele>
        <time>2019-06-06T10:12:36.000Z</time>
      </trkpt>
      <trkpt lat="50.499317" lon="26.425474">
        <ele>290.318975</ele>
        <time>2019-06-06T10:12:40.000Z</time>
      </trkpt>
      <trkpt lat="50.499320" lon="26.425638">
        <ele>290.677596</ele>
        <time>2019-06-06T10:12:44.000Z</time>
      </trkpt>
      <trkpt lat="50.499332" lon="26.425808">
        <ele>291.051464</ele>
        <time>2019-06-06T10:12:48.000Z</time>
      </trkpt>
      <trkpt lat="50.499348" lon="26.425976">
        <ele>291.422772</ele>
        <time>2019-06-06T10:12:52.000Z</time>
      </trkpt>
      <trkpt lat="50.499320" lon="26.426134">
        <ele>291.781283</ele>
        <time>2019-06-06T10:16:35.000Z</time>
      </trkpt>
      <trkpt lat="50.499336" lon="26.426287">
        <ele>292.120200</ele>
        <time>2019-06-06T10:16:41.000Z</time>
      </trkpt>
      <trkpt lat="50.499350" lon="26.426440">
        <ele>292.458071</ele>
        <time>2019-06-06T10:16:46.000Z</time>
      </trkpt>
      <trkpt lat="50.499355" lon="26.426605">
        <ele>292.608651</ele>
        <time>2019-06-06T10:16:51.000Z</time>
      </trkpt>
      <trkpt lat="50.499363" lon="26.426746">
        <ele>292.686390</ele>
        <time>2019-06-06T10:16:55.000Z</time>
      </trkpt>
      <trkpt lat="50.499380" lon="26.426891">
        <ele>292.767360</ele>
        <time>2019-06-06T10:16:59.000Z</time>
      </trkpt>
      <trkpt lat="50.499382" lon="26.427040">
        <ele>292.849203</ele>
        <time>2019-06-06T10:17:03.000Z</time>
      </trkpt>
      <trkpt lat="50.499382" lon="26.427212">
        <ele>292.943659</ele>
        <time>2019-06-06T10:17:08.000Z</time>
      </trkpt>
      <trkpt lat="50.499382" lon="26.427378">
        <ele>293.034819</ele>
        <time>2019-06-06T10:17:12.000Z</time>
      </trkpt>
      <trkpt lat="50.499410" lon="26.427534">
        <ele>293.123834</ele>
        <time>2019-06-06T10:17:16.000Z</time>
      </trkpt>
      <trkpt lat="50.499413" lon="26.427681">
        <ele>293.204602</ele>
        <time>2019-06-06T10:17:21.000Z</time>
      </trkpt>
      <trkpt lat="50.499466" lon="26.427809">
        <ele>293.288475</ele>
        <time>2019-06-06T10:17:28.000Z</time>
      </trkpt>
      <trkpt lat="50.499428" lon="26.427937">
        <ele>293.366047</ele>
        <time>2019-06-06T10:22:03.000Z</time>
      </trkpt>
      <trkpt lat="50.499435" lon="26.428150">
        <ele>293.483174</ele>
        <time>2019-06-06T10:22:37.000Z</time>
      </trkpt>
      <trkpt lat="50.499428" lon="26.428310">
        <ele>293.571247</ele>
        <time>2019-06-06T10:22:42.000Z</time>
      </trkpt>
      <trkpt lat="50.499428" lon="26.428457">
        <ele>293.651974</ele>
        <time>2019-06-06T10:22:46.000Z</time>
      </trkpt>
      <trkpt lat="50.499430" lon="26.428625">
        <ele>293.744249</ele>
        <time>2019-06-06T10:22:50.000Z</time>
      </trkpt>
      <trkpt lat="50.499443" lon="26.428808">
        <ele>293.845370</ele>
        <time>2019-06-06T10:22:54.000Z</time>
      </trkpt>
      <trkpt lat="50.499447" lon="26.428972">
        <ele>293.935498</ele>
        <time>2019-06-06T10:22:58.000Z</time>
      </trkpt>
      <trkpt lat="50.499462" lon="26.429132">
        <ele>294.024313</ele>
        <time>2019-06-06T10:23:02.000Z</time>
      </trkpt>
      <trkpt lat="50.499477" lon="26.429308">
        <ele>293.986433</ele>
        <time>2019-06-06T10:23:06.000Z</time>
      </trkpt>
      <trkpt lat="50.499493" lon="26.429459">
        <ele>293.702848</ele>
        <time>2019-06-06T10:23:10.000Z</time>
      </trkpt>
      <trkpt lat="50.499508" lon="26.429623">
        <ele>293.395910</ele>
        <time>2019-06-06T10:23:14.000Z</time>
      </trkpt>
      <trkpt lat="50.499516" lon="26.429773">
        <ele>293.117057</ele>
        <time>2019-06-06T10:23:17.000Z</time>
      </trkpt>
      <trkpt lat="50.499508" lon="26.429914">
        <ele>292.854815</ele>
        <time>2019-06-06T10:23:20.000Z</time>
      </trkpt>
      <trkpt lat="50.499510" lon="26.430065">
        <ele>292.575024</ele>
        <time>2019-06-06T10:23:23.000Z</time>
      </trkpt>
      <trkpt lat="50.499523" lon="26.430222">
        <ele>292.281724</ele>
        <time>2019-06-06T10:23:26.000Z</time>
      </trkpt>
      <trkpt lat="50.499530" lon="26.430365">
        <ele>292.016031</ele>
        <time>2019-06-06T10:23:29.000Z</time>
      </trkpt>
      <trkpt lat="50.499523" lon="26.430544">
        <ele>291.683804</ele>
        <time>2019-06-06T10:23:33.000Z</time>
      </trkpt>
      <trkpt lat="50.499540" lon="26.430687">
        <ele>291.414307</ele>
        <time>2019-06-06T10:23:36.000Z</time>
      </trkpt>
      <trkpt lat="50.499554" lon="26.430851">
        <ele>291.107770</ele>
        <time>2019-06-06T10:23:39.000Z</time>
      </trkpt>
      <trkpt lat="50.499550" lon="26.431002">
        <ele>290.827797</ele>
        <time>2019-06-06T10:23:42.000Z</time>
      </trkpt>
      <trkpt lat="50.499560" lon="26.431177">
        <ele>290.502301</ele>
        <time>2019-06-06T10:23:45.000Z</time>
      </trkpt>
      <trkpt lat="50.499577" lon="26.431353">
        <ele>290.172521</ele>
        <time>2019-06-06T10:23:48.000Z</time>
      </trkpt>
      <trkpt lat="50.499584" lon="26.431550">
        <ele>289.807006</ele>
        <time>2019-06-06T10:23:51.000Z</time>
      </trkpt>
      <trkpt lat="50.499590" lon="26.431738">
        <ele>289.458295</ele>
        <time>2019-06-06T10:23:54.000Z</time>
      </trkpt>
      <trkpt lat="50.499607" lon="26.431932">
        <ele>289.095512</ele>
        <time>2019-06-06T10:23:57.000Z</time>
      </trkpt>
      <trkpt lat="50.499610" lon="26.432127">
        <ele>288.797386</ele>
        <time>2019-06-06T10:24:00.000Z</time>
      </trkpt>
      <trkpt lat="50.499630" lon="26.432310">
        <ele>288.637115</ele>
        <time>2019-06-06T10:24:03.000Z</time>
      </trkpt>
      <trkpt lat="50.499640" lon="26.432480">
        <ele>288.489753</ele>
        <time>2019-06-06T10:24:06.000Z</time>
      </trkpt>
      <trkpt lat="50.499653" lon="26.432657">
        <ele>288.335960</ele>
        <time>2019-06-06T10:24:09.000Z</time>
      </trkpt>
      <trkpt lat="50.499670" lon="26.432837">
        <ele>288.178890</ele>
        <time>2019-06-06T10:24:12.000Z</time>
      </trkpt>
      <trkpt lat="50.499687" lon="26.433014">
        <ele>288.024380</ele>
        <time>2019-06-06T10:24:15.000Z</time>
      </trkpt>
      <trkpt lat="50.499690" lon="26.433203">
        <ele>287.861194</ele>
        <time>2019-06-06T10:24:18.000Z</time>
      </trkpt>
      <trkpt lat="50.499702" lon="26.433386">
        <ele>287.702401</ele>
        <time>2019-06-06T10:24:21.000Z</time>
      </trkpt>
      <trkpt lat="50.499718" lon="26.433563">
        <ele>287.548088</ele>
        <time>2019-06-06T10:24:24.000Z</time>
      </trkpt>
      <trkpt lat="50.499725" lon="26.433737">
        <ele>287.397600</ele>
        <time>2019-06-06T10:24:27.000Z</time>
      </trkpt>
      <trkpt lat="50.499737" lon="26.433926">
        <ele>287.233654</ele>
        <time>2019-06-06T10:24:30.000Z</time>
      </trkpt>
      <trkpt lat="50.499750" lon="26.434101">
        <ele>287.081576</ele>
        <time>2019-06-06T10:24:33.000Z</time>
      </trkpt>
      <trkpt lat="50.499760" lon="26.434275">
        <ele>286.930777</ele>
        <time>2019-06-06T10:24:36.000Z</time>
      </trkpt>
      <trkpt lat="50.499767" lon="26.434440">
        <ele>286.788041</ele>
        <time>2019-06-06T10:24:39.000Z</time>
      </trkpt>
      <trkpt lat="50.499775" lon="26.434620">
        <ele>286.632295</ele>
        <time>2019-06-06T10:24:42.000Z</time>
      </trkpt>
      <trkpt lat="50.499790" lon="26.434797">
        <ele>286.478168</ele>
        <time>2019-06-06T10:24:45.000Z</time>
      </trkpt>
      <trkpt lat="50.499805" lon="26.434977">
        <ele>286.598904</ele>
        <time>2019-06-06T10:24:48.000Z</time>
      </trkpt>
      <trkpt lat="50.499825" lon="26.435144">
        <ele>286.902631</ele>
        <time>2019-06-06T10:24:51.000Z</time>
      </trkpt>
      <trkpt lat="50.499836" lon="26.435316">
        <ele>287.211601</ele>
        <time>2019-06-06T10:24:54.000Z</time>
      </trkpt>
      <trkpt lat="50.499847" lon="26.435472">
        <ele>287.492131</ele>
        <time>2019-06-06T10:24:57.000Z</time>
      </trkpt>
      <trkpt lat="50.499866" lon="26.435658">
        <ele>287.828832</ele>
        <time>2019-06-06T10:25:01.000Z</time>
      </trkpt>
      <trkpt lat="50.499874" lon="26.435810">
        <ele>288.101434</ele>
        <time>2019-06-06T10:25:04.000Z</time>
      </trkpt>
      <trkpt lat="50.499886" lon="26.435965">
        <ele>288.380513</ele>
        <time>2019-06-06T10:25:07.000Z</time>
      </trkpt>
      <trkpt lat="50.499893" lon="26.436125">
        <ele>288.667160</ele>
        <time>2019-06-06T10:25:10.000Z</time>
      </trkpt>
      <trkpt lat="50.499900" lon="26.436277">
        <ele>288.939544</ele>
        <time>2019-06-06T10:25:13.000Z</time>
      </trkpt>
      <trkpt lat="50.499900" lon="26.436441">
        <ele>289.232664</ele>
        <time>2019-06-06T10:25:16.000Z</time>
      </trkpt>
      <trkpt lat="50.499912" lon="26.436600">
        <ele>289.518842</ele>
        <time>2019-06-06T10:25:18.000Z</time>
      </trkpt>
      <trkpt lat="50.499910" lon="26.436773">
        <ele>289.828099</ele>
        <time>2019-06-06T10:25:23.000Z</time>
      </trkpt>
      <trkpt lat="50.499930" lon="26.436943">
        <ele>290.137097</ele>
        <time>2019-06-06T10:25:27.000Z</time>
      </trkpt>
      <trkpt lat="50.499950" lon="26.437117">
        <ele>290.453127</ele>
        <time>2019-06-06T10:25:31.000Z</time>
      </trkpt>
      <trkpt lat="50.499954" lon="26.437300">
        <ele>290.780399</ele>
        <time>2019-06-06T10:25:35.000Z</time>
      </trkpt>
      <trkpt lat="50.499943" lon="26.437480">
        <ele>291.103598</ele>
        <time>2019-06-06T10:25:39.000Z</time>
      </trkpt>
      <trkpt lat="50.499924" lon="26.437650">
        <ele>291.412097</ele>
        <time>2019-06-06T10:25:43.000Z</time>
      </trkpt>
      <trkpt lat="50.499886" lon="26.437803">
        <ele>291.784352</ele>
        <time>2019-06-06T10:25:47.000Z</time>
      </trkpt>
      <trkpt lat="50.499817" lon="26.437906">
        <ele>292.139430</ele>
        <time>2019-06-06T10:25:51.000Z</time>
      </trkpt>
      <trkpt lat="50.499737" lon="26.438005">
        <ele>292.519369</ele>
        <time>2019-06-06T10:25:56.000Z</time>
      </trkpt>
      <trkpt lat="50.499650" lon="26.438011">
        <ele>292.844349</ele>
        <time>2019-06-06T10:26:03.000Z</time>
      </trkpt>
      <trkpt lat="50.499550" lon="26.438063">
        <ele>293.237414</ele>
        <time>2019-06-06T10:26:09.000Z</time>
      </trkpt>
      <trkpt lat="50.499447" lon="26.438082">
        <ele>293.624427</ele>
        <time>2019-06-06T10:26:14.000Z</time>
      </trkpt>
      <trkpt lat="50.499360" lon="26.438120">
        <ele>293.961392</ele>
        <time>2019-06-06T10:26:18.000Z</time>
      </trkpt>
      <trkpt lat="50.499264" lon="26.438135">
        <ele>294.321410</ele>
        <time>2019-06-06T10:26:22.000Z</time>
      </trkpt>
      <trkpt lat="50.499160" lon="26.438140">
        <ele>294.709700</ele>
        <time>2019-06-06T10:26:27.000Z</time>
      </trkpt>
      <trkpt lat="50.499070" lon="26.438168">
        <ele>295.052076</ele>
        <time>2019-06-06T10:26:31.000Z</time>
      </trkpt>
      <trkpt lat="50.498970" lon="26.438215">
        <ele>295.441577</ele>
        <time>2019-06-06T10:26:35.000Z</time>
      </trkpt>
      <trkpt lat="50.498867" lon="26.438248">
        <ele>295.833854</ele>
        <time>2019-06-06T10:26:39.000Z</time>
      </trkpt>
      <trkpt lat="50.498764" lon="26.438274">
        <ele>296.223154</ele>
        <time>2019-06-06T10:26:43.000Z</time>
      </trkpt>
      <trkpt lat="50.498657" lon="26.438293">
        <ele>296.624996</ele>
        <time>2019-06-06T10:26:47.000Z</time>
      </trkpt>
      <trkpt lat="50.498573" lon="26.438341">
        <ele>296.958534</ele>
        <time>2019-06-06T10:26:51.000Z</time>
      </trkpt>
      <trkpt lat="50.498463" lon="26.438362">
        <ele>297.372048</ele>
        <time>2019-06-06T10:26:55.000Z</time>
      </trkpt>
      <trkpt lat="50.498363" lon="26.438398">
        <ele>297.754889</ele>
        <time>2019-06-06T10:26:59.000Z</time>
      </trkpt>
      <trkpt lat="50.498250" lon="26.438435">
        <ele>298.180273</ele>
        <time>2019-06-06T10:27:03.000Z</time>
      </trkpt>
      <trkpt lat="50.498158" lon="26.438461">
        <ele>298.283489</ele>
        <time>2019-06-06T10:27:06.000Z</time>
      </trkpt>
      <trkpt lat="50.498066" lon="26.438480">
        <ele>298.385949</ele>
        <time>2019-06-06T10:27:09.000Z</time>
      </trkpt>
      <trkpt lat="50.497948" lon="26.438519">
        <ele>298.519095</ele>
        <time>2019-06-06T10:27:13.000Z</time>
      </trkpt>
      <trkpt lat="50.497860" lon="26.438553">
        <ele>298.619158</ele>
        <time>2019-06-06T10:27:16.000Z</time>
      </trkpt>
      <trkpt lat="50.497770" lon="26.438576">
        <ele>298.719842</ele>
        <time>2019-06-06T10:27:19.000Z</time>
      </trkpt>
      <trkpt lat="50.497677" lon="26.438599">
        <ele>298.823797</ele>
        <time>2019-06-06T10:27:22.000Z</time>
      </trkpt>
      <trkpt lat="50.497562" lon="26.438622">
        <ele>298.951805</ele>
        <time>2019-06-06T10:27:26.000Z</time>
      </trkpt>
      <trkpt lat="50.497444" lon="26.438644">
        <ele>299.083016</ele>
        <time>2019-06-06T10:27:30.000Z</time>
      </trkpt>
      <trkpt lat="50.497353" lon="26.438667">
        <ele>299.184790</ele>
        <time>2019-06-06T10:27:33.000Z</time>
      </trkpt>
      <trkpt lat="50.497250" lon="26.438692">
        <ele>299.299872</ele>
        <time>2019-06-06T10:27:36.000Z</time>
      </trkpt>
      <trkpt lat="50.497154" lon="26.438717">
        <ele>299.407321</ele>
        <time>2019-06-06T10:27:38.000Z</time>
      </trkpt>
      <trkpt lat="50.497060" lon="26.438728">
        <ele>299.511404</ele>
        <time>2019-06-06T10:27:42.000Z</time>
      </trkpt>
      <trkpt lat="50.496960" lon="26.438742">
        <ele>299.622263</ele>
        <time>2019-06-06T10:27:45.000Z</time>
      </trkpt>
      <trkpt lat="50.496860" lon="26.438766">
        <ele>299.733964</ele>
        <time>2019-06-06T10:27:48.000Z</time>
      </trkpt>
      <trkpt lat="50.496770" lon="26.438795">
        <ele>299.835410</ele>
        <time>2019-06-06T10:27:50.000Z</time>
      </trkpt>
      <trkpt lat="50.496685" lon="26.438877">
        <ele>299.945532</ele>
        <time>2019-06-06T10:27:53.000Z</time>
      </trkpt>
      <trkpt lat="50.496613" lon="26.438984">
        <ele>300.054938</ele>
        <time>2019-06-06T10:27:56.000Z</time>
      </trkpt>
      <trkpt lat="50.496550" lon="26.439106">
        <ele>300.164028</ele>
        <time>2019-06-06T10:27:59.000Z</time>
      </trkpt>
      <trkpt lat="50.496502" lon="26.439250">
        <ele>300.156230</ele>
        <time>2019-06-06T10:28:02.000Z</time>
      </trkpt>
      <trkpt lat="50.496470" lon="26.439396">
        <ele>300.148824</ele>
        <time>2019-06-06T10:28:05.000Z</time>
      </trkpt>
      <trkpt lat="50.496437" lon="26.439550">
        <ele>300.141030</ele>
        <time>2019-06-06T10:28:08.000Z</time>
      </trkpt>
      <trkpt lat="50.496395" lon="26.439707">
        <ele>300.132861</ele>
        <time>2019-06-06T10:28:12.000Z</time>
      </trkpt>
      <trkpt lat="50.496357" lon="26.439852">
        <ele>300.125339</ele>
        <time>2019-06-06T10:28:14.000Z</time>
      </trkpt>
      <trkpt lat="50.496323" lon="26.439990">
        <ele>300.118241</ele>
        <time>2019-06-06T10:28:18.000Z</time>
      </trkpt>
      <trkpt lat="50.496290" lon="26.440130">
        <ele>300.111080</ele>
        <time>2019-06-06T10:28:21.000Z</time>
      </trkpt>
      <trkpt lat="50.496250" lon="26.440279">
        <ele>300.103323</ele>
        <time>2019-06-06T10:28:24.000Z</time>
      </trkpt>
      <trkpt lat="50.496223" lon="26.440432">
        <ele>300.095708</ele>
        <time>2019-06-06T10:28:27.000Z</time>
      </trkpt>
      <trkpt lat="50.496190" lon="26.440577">
        <ele>300.088321</ele>
        <time>2019-06-06T10:28:30.000Z</time>
      </trkpt>
      <trkpt lat="50.496136" lon="26.440739">
        <ele>300.079549</ele>
        <time>2019-06-06T10:28:34.000Z</time>
      </trkpt>
      <trkpt lat="50.496094" lon="26.440868">
        <ele>300.072599</ele>
        <time>2019-06-06T10:28:37.000Z</time>
      </trkpt>
      <trkpt lat="50.496044" lon="26.440998">
        <ele>300.065312</ele>
        <time>2019-06-06T10:28:40.000Z</time>
      </trkpt>
      <trkpt lat="50.496006" lon="26.441126">
        <ele>300.058537</ele>
        <time>2019-06-06T10:28:43.000Z</time>
      </trkpt>
      <trkpt lat="50.495975" lon="26.441257">
        <ele>300.051833</ele>
        <time>2019-06-06T10:28:45.000Z</time>
      </trkpt>
      <trkpt lat="50.495914" lon="26.441391">
        <ele>300.043930</ele>
        <time>2019-06-06T10:28:49.000Z</time>
      </trkpt>
      <trkpt lat="50.495857" lon="26.441555">
        <ele>300.034967</ele>
        <time>2019-06-06T10:28:53.000Z</time>
      </trkpt>
      <trkpt lat="50.495815" lon="26.441696">
        <ele>300.042085</ele>
        <time>2019-06-06T10:28:56.000Z</time>
      </trkpt>
      <trkpt lat="50.495770" lon="26.441843">
        <ele>300.148850</ele>
        <time>2019-06-06T10:28:59.000Z</time>
      </trkpt>
      <trkpt lat="50.495735" lon="26.441996">
        <ele>300.255260</ele>
        <time>2019-06-06T10:29:02.000Z</time>
      </trkpt>
      <trkpt lat="50.495690" lon="26.442120">
        <ele>300.348690</ele>
        <time>2019-06-06T10:29:05.000Z</time>
      </trkpt>
      <trkpt lat="50.495650" lon="26.442251">
        <ele>300.443789</ele>
        <time>2019-06-06T10:29:08.000Z</time>
      </trkpt>
      <trkpt lat="50.495613" lon="26.442398">
        <ele>300.547252</ele>
        <time>2019-06-06T10:29:11.000Z</time>
      </trkpt>
      <trkpt lat="50.495556" lon="26.442528">
        <ele>300.650584</ele>
        <time>2019-06-06T10:29:14.000Z</time>
      </trkpt>
      <trkpt lat="50.495483" lon="26.442654">
        <ele>300.762121</ele>
        <time>2019-06-06T10:29:17.000Z</time>
      </trkpt>
      <trkpt lat="50.495415" lon="26.442776">
        <ele>300.868278</ele>
        <time>2019-06-06T10:29:20.000Z</time>
      </trkpt>
      <trkpt lat="50.495340" lon="26.442890">
        <ele>300.975610</ele>
        <time>2019-06-06T10:29:23.000Z</time>
      </trkpt>
      <trkpt lat="50.495266" lon="26.442991">
        <ele>301.076433</ele>
        <time>2019-06-06T10:29:26.000Z</time>
      </trkpt>
      <trkpt lat="50.495190" lon="26.443079">
        <ele>301.173544</ele>
        <time>2019-06-06T10:29:29.000Z</time>
      </trkpt>
      <trkpt lat="50.495106" lon="26.443151">
        <ele>301.271976</ele>
        <time>2019-06-06T10:29:33.000Z</time>
      </trkpt>
      <trkpt lat="50.495045" lon="26.443253">
        <ele>301.363599</ele>
        <time>2019-06-06T10:29:39.000Z</time>
      </trkpt>
      <trkpt lat="50.494920" lon="26.443295">
        <ele>301.495104</ele>
        <time>2019-06-06T10:41:07.000Z</time>
      </trkpt>
      <trkpt lat="50.494823" lon="26.443375">
        <ele>301.607799</ele>
        <time>2019-06-06T10:41:11.000Z</time>
      </trkpt>
      <trkpt lat="50.494728" lon="26.443470">
        <ele>301.723636</ele>
        <time>2019-06-06T10:41:15.000Z</time>
      </trkpt>
      <trkpt lat="50.494648" lon="26.443542">
        <ele>301.818475</ele>
        <time>2019-06-06T10:41:18.000Z</time>
      </trkpt>
      <trkpt lat="50.494545" lon="26.443626">
        <ele>301.870077</ele>
        <time>2019-06-06T10:41:22.000Z</time>
      </trkpt>
      <trkpt lat="50.494465" lon="26.443705">
        <ele>301.855441</ele>
        <time>2019-06-06T10:41:25.000Z</time>
      </trkpt>
      <trkpt lat="50.494360" lon="26.443790">
        <ele>301.837144</ele>
        <time>2019-06-06T10:41:29.000Z</time>
      </trkpt>
      <trkpt lat="50.494255" lon="26.443880">
        <ele>301.818616</ele>
        <time>2019-06-06T10:41:33.000Z</time>
      </trkpt>
      <trkpt lat="50.494156" lon="26.443981">
        <ele>301.800332</ele>
        <time>2019-06-06T10:41:37.000Z</time>
      </trkpt>
      <trkpt lat="50.494070" lon="26.444050">
        <ele>301.785374</ele>
        <time>2019-06-06T10:41:40.000Z</time>
      </trkpt>
      <trkpt lat="50.493980" lon="26.444126">
        <ele>301.769546</ele>
        <time>2019-06-06T10:41:43.000Z</time>
      </trkpt>
      <trkpt lat="50.493896" lon="26.444200">
        <ele>301.754629</ele>
        <time>2019-06-06T10:41:46.000Z</time>
      </trkpt>
      <trkpt lat="50.493810" lon="26.444275">
        <ele>301.739393</ele>
        <time>2019-06-06T10:41:49.000Z</time>
      </trkpt>
      <trkpt lat="50.493720" lon="26.444350">
        <ele>301.723612</ele>
        <time>2019-06-06T10:41:52.000Z</time>
      </trkpt>
      <trkpt lat="50.493630" lon="26.444422">
        <ele>301.707967</ele>
        <time>2019-06-06T10:41:55.000Z</time>
      </trkpt>
      <trkpt lat="50.493538" lon="26.444506">
        <ele>301.691485</ele>
        <time>2019-06-06T10:41:58.000Z</time>
      </trkpt>
      <trkpt lat="50.493443" lon="26.444565">
        <ele>301.675660</ele>
        <time>2019-06-06T10:42:01.000Z</time>
      </trkpt>
      <trkpt lat="50.493350" lon="26.444645">
        <ele>301.659236</ele>
        <time>2019-06-06T10:42:04.000Z</time>
      </trkpt>
      <trkpt lat="50.493256" lon="26.444733">
        <ele>301.642287</ele>
        <time>2019-06-06T10:42:07.000Z</time>
      </trkpt>
      <trkpt lat="50.493164" lon="26.444824">
        <ele>301.625447</ele>
        <time>2019-06-06T10:42:10.000Z</time>
      </trkpt>
      <trkpt lat="50.493073" lon="26.444899">
        <ele>301.609529</ele>
        <time>2019-06-06T10:42:13.000Z</time>
      </trkpt>
      <trkpt lat="50.492977" lon="26.444970">
        <ele>301.528147</ele>
        <time>2019-06-06T10:42:16.000Z</time>
      </trkpt>
      <trkpt lat="50.492900" lon="26.445059">
        <ele>301.379933</ele>
        <time>2019-06-06T10:42:19.000Z</time>
      </trkpt>
      <trkpt lat="50.492817" lon="26.445137">
        <ele>301.229973</ele>
        <time>2019-06-06T10:42:22.000Z</time>
      </trkpt>
      <trkpt lat="50.492733" lon="26.445217">
        <ele>301.077666</ele>
        <time>2019-06-06T10:42:25.000Z</time>
      </trkpt>
      <trkpt lat="50.492630" lon="26.445272">
        <ele>300.908974</ele>
        <time>2019-06-06T10:42:28.000Z</time>
      </trkpt>
      <trkpt lat="50.492540" lon="26.445350">
        <ele>300.749598</ele>
        <time>2019-06-06T10:42:31.000Z</time>
      </trkpt>
      <trkpt lat="50.492460" lon="26.445433">
        <ele>300.600952</ele>
        <time>2019-06-06T10:42:34.000Z</time>
      </trkpt>
      <trkpt lat="50.492367" lon="26.445509">
        <ele>300.438406</ele>
        <time>2019-06-06T10:42:37.000Z</time>
      </trkpt>
      <trkpt lat="50.492280" lon="26.445590">
        <ele>300.281601</ele>
        <time>2019-06-06T10:42:40.000Z</time>
      </trkpt>
      <trkpt lat="50.492195" lon="26.445663">
        <ele>300.131396</ele>
        <time>2019-06-06T10:42:43.000Z</time>
      </trkpt>
      <trkpt lat="50.492110" lon="26.445734">
        <ele>299.982127</ele>
        <time>2019-06-06T10:42:46.000Z</time>
      </trkpt>
      <trkpt lat="50.492027" lon="26.445814">
        <ele>299.831144</ele>
        <time>2019-06-06T10:42:49.000Z</time>
      </trkpt>
      <trkpt lat="50.491936" lon="26.445906">
        <ele>299.663357</ele>
        <time>2019-06-06T10:42:52.000Z</time>
      </trkpt>
      <trkpt lat="50.491850" lon="26.445990">
        <ele>299.506342</ele>
        <time>2019-06-06T10:42:55.000Z</time>
      </trkpt>
      <trkpt lat="50.491764" lon="26.446075">
        <ele>299.348803</ele>
        <time>2019-06-06T10:42:58.000Z</time>
      </trkpt>
      <trkpt lat="50.491650" lon="26.446160">
        <ele>299.153137</ele>
        <time>2019-06-06T10:43:01.000Z</time>
      </trkpt>
      <trkpt lat="50.491543" lon="26.446224">
        <ele>298.975600</ele>
        <time>2019-06-06T10:43:04.000Z</time>
      </trkpt>
      <trkpt lat="50.491436" lon="26.446316">
        <ele>298.770785</ele>
        <time>2019-06-06T10:43:07.000Z</time>
      </trkpt>
      <trkpt lat="50.491330" lon="26.446405">
        <ele>298.465570</ele>
        <time>2019-06-06T10:43:10.000Z</time>
      </trkpt>
      <trkpt lat="50.491245" lon="26.446512">
        <ele>298.188994</ele>
        <time>2019-06-06T10:43:13.000Z</time>
      </trkpt>
      <trkpt lat="50.491135" lon="26.446573">
        <ele>297.892744</ele>
        <time>2019-06-06T10:43:16.000Z</time>
      </trkpt>
      <trkpt lat="50.491024" lon="26.446669">
        <ele>297.570974</ele>
        <time>2019-06-06T10:43:19.000Z</time>
      </trkpt>
      <trkpt lat="50.490906" lon="26.446770">
        <ele>297.229730</ele>
        <time>2019-06-06T10:43:22.000Z</time>
      </trkpt>
      <trkpt lat="50.490826" lon="26.446842">
        <ele>296.995600</ele>
        <time>2019-06-06T10:43:24.000Z</time>
      </trkpt>
      <trkpt lat="50.490723" lon="26.446943">
        <ele>296.687274</ele>
        <time>2019-06-06T10:43:27.000Z</time>
      </trkpt>
      <trkpt lat="50.490620" lon="26.447031">
        <ele>296.389533</ele>
        <time>2019-06-06T10:43:30.000Z</time>
      </trkpt>
      <trkpt lat="50.490510" lon="26.447115">
        <ele>296.078934</ele>
        <time>2019-06-06T10:43:33.000Z</time>
      </trkpt>
      <trkpt lat="50.490402" lon="26.447210">
        <ele>295.764610</ele>
        <time>2019-06-06T10:43:36.000Z</time>
      </trkpt>
      <trkpt lat="50.490295" lon="26.447296">
        <ele>295.459388</ele>
        <time>2019-06-06T10:43:39.000Z</time>
      </trkpt>
      <trkpt lat="50.490196" lon="26.447388">
        <ele>295.167295</ele>
        <time>2019-06-06T10:43:42.000Z</time>
      </trkpt>
      <trkpt lat="50.490100" lon="26.447477">
        <ele>294.884227</ele>
        <time>2019-06-06T10:43:45.000Z</time>
      </trkpt>
      <trkpt lat="50.490020" lon="26.447573">
        <ele>294.628602</ele>
        <time>2019-06-06T10:43:48.000Z</time>
      </trkpt>
      <trkpt lat="50.489914" lon="26.447659">
        <ele>294.325639</ele>
        <time>2019-06-06T10:43:51.000Z</time>
      </trkpt>
      <trkpt lat="50.489820" lon="26.447750">
        <ele>294.030447</ele>
        <time>2019-06-06T10:43:54.000Z</time>
      </trkpt>
      <trkpt lat="50.489720" lon="26.447828">
        <ele>293.725683</ele>
        <time>2019-06-06T10:43:57.000Z</time>
      </trkpt>
      <trkpt lat="50.489624" lon="26.447906">
        <ele>293.430661</ele>
        <time>2019-06-06T10:44:00.000Z</time>
      </trkpt>
      <trkpt lat="50.489517" lon="26.447977">
        <ele>293.113590</ele>
        <time>2019-06-06T10:44:03.000Z</time>
      </trkpt>
      <trkpt lat="50.489410" lon="26.448046">
        <ele>292.797854</ele>
        <time>2019-06-06T10:44:06.000Z</time>
      </trkpt>
      <trkpt lat="50.489330" lon="26.448149">
        <ele>292.515539</ele>
        <time>2019-06-06T10:44:09.000Z</time>
      </trkpt>
      <trkpt lat="50.489240" lon="26.448244">
        <ele>292.219577</ele>
        <time>2019-06-06T10:44:12.000Z</time>
      </trkpt>
      <trkpt lat="50.489143" lon="26.448343">
        <ele>291.903839</ele>
        <time>2019-06-06T10:44:15.000Z</time>
      </trkpt>
      <trkpt lat="50.489048" lon="26.448421">
        <ele>291.611239</ele>
        <time>2019-06-06T10:44:18.000Z</time>
      </trkpt>
      <trkpt lat="50.488956" lon="26.448510">
        <ele>291.316322</ele>
        <time>2019-06-06T10:44:21.000Z</time>
      </trkpt>
      <trkpt lat="50.488857" lon="26.448597">
        <ele>291.006679</ele>
        <time>2019-06-06T10:44:24.000Z</time>
      </trkpt>
      <trkpt lat="50.488747" lon="26.448656">
        <ele>290.689378</ele>
        <time>2019-06-06T10:44:27.000Z</time>
      </trkpt>
      <trkpt lat="50.488630" lon="26.448738">
        <ele>290.339656</ele>
        <time>2019-06-06T10:44:30.000Z</time>
      </trkpt>
      <trkpt lat="50.488514" lon="26.448814">
        <ele>289.996568</ele>
        <time>2019-06-06T10:44:33.000Z</time>
      </trkpt>
      <trkpt lat="50.488396" lon="26.448896">
        <ele>289.644350</ele>
        <time>2019-06-06T10:44:36.000Z</time>
      </trkpt>
      <trkpt lat="50.488290" lon="26.449009">
        <ele>289.247091</ele>
        <time>2019-06-06T10:44:39.000Z</time>
      </trkpt>
      <trkpt lat="50.488210" lon="26.449083">
        <ele>288.676232</ele>
        <time>2019-06-06T10:44:41.000Z</time>
      </trkpt>
      <trkpt lat="50.488102" lon="26.449186">
        <ele>287.899350</ele>
        <time>2019-06-06T10:44:44.000Z</time>
      </trkpt>
      <trkpt lat="50.488010" lon="26.449251">
        <ele>287.279037</ele>
        <time>2019-06-06T10:44:47.000Z</time>
      </trkpt>
      <trkpt lat="50.487904" lon="26.449340">
        <ele>286.539979</ele>
        <time>2019-06-06T10:44:50.000Z</time>
      </trkpt>
      <trkpt lat="50.487790" lon="26.449429">
        <ele>285.757181</ele>
        <time>2019-06-06T10:44:53.000Z</time>
      </trkpt>
      <trkpt lat="50.487680" lon="26.449505">
        <ele>285.018232</ele>
        <time>2019-06-06T10:44:56.000Z</time>
      </trkpt>
      <trkpt lat="50.487568" lon="26.449583">
        <ele>284.264870</ele>
        <time>2019-06-06T10:44:59.000Z</time>
      </trkpt>
      <trkpt lat="50.487457" lon="26.449677">
        <ele>283.489465</ele>
        <time>2019-06-06T10:45:02.000Z</time>
      </trkpt>
      <trkpt lat="50.487354" lon="26.449753">
        <ele>282.789709</ele>
        <time>2019-06-06T10:45:05.000Z</time>
      </trkpt>
      <trkpt lat="50.487260" lon="26.449844">
        <ele>282.110772</ele>
        <time>2019-06-06T10:45:08.000Z</time>
      </trkpt>
      <trkpt lat="50.487167" lon="26.449938">
        <ele>281.430785</ele>
        <time>2019-06-06T10:45:11.000Z</time>
      </trkpt>
      <trkpt lat="50.487070" lon="26.450018">
        <ele>280.757117</ele>
        <time>2019-06-06T10:45:14.000Z</time>
      </trkpt>
      <trkpt lat="50.486988" lon="26.450100">
        <ele>280.159418</ele>
        <time>2019-06-06T10:45:17.000Z</time>
      </trkpt>
      <trkpt lat="50.486877" lon="26.450169">
        <ele>279.425342</ele>
        <time>2019-06-06T10:45:20.000Z</time>
      </trkpt>
      <trkpt lat="50.486780" lon="26.450240">
        <ele>278.767296</ele>
        <time>2019-06-06T10:45:23.000Z</time>
      </trkpt>
      <trkpt lat="50.486690" lon="26.450312">
        <ele>278.122725</ele>
        <time>2019-06-06T10:45:26.000Z</time>
      </trkpt>
      <trkpt lat="50.486607" lon="26.450380">
        <ele>277.438992</ele>
        <time>2019-06-06T10:45:29.000Z</time>
      </trkpt>
      <trkpt lat="50.486526" lon="26.450464">
        <ele>276.730101</ele>
        <time>2019-06-06T10:45:32.000Z</time>
      </trkpt>
      <trkpt lat="50.486446" lon="26.450544">
        <ele>276.037451</ele>
        <time>2019-06-06T10:45:35.000Z</time>
      </trkpt>
      <trkpt lat="50.486355" lon="26.450634">
        <ele>275.252047</ele>
        <time>2019-06-06T10:45:38.000Z</time>
      </trkpt>
      <trkpt lat="50.486250" lon="26.450697">
        <ele>274.431044</ele>
        <time>2019-06-06T10:45:41.000Z</time>
      </trkpt>
      <trkpt lat="50.486160" lon="26.450775">
        <ele>273.680276</ele>
        <time>2019-06-06T10:45:44.000Z</time>
      </trkpt>
      <trkpt lat="50.486076" lon="26.450863">
        <ele>272.942845</ele>
        <time>2019-06-06T10:45:47.000Z</time>
      </trkpt>
      <trkpt lat="50.485973" lon="26.450947">
        <ele>272.095180</ele>
        <time>2019-06-06T10:45:50.000Z</time>
      </trkpt>
      <trkpt lat="50.485863" lon="26.451027">
        <ele>271.209785</ele>
        <time>2019-06-06T10:45:53.000Z</time>
      </trkpt>
      <trkpt lat="50.485752" lon="26.451122">
        <ele>270.286515</ele>
        <time>2019-06-06T10:45:56.000Z</time>
      </trkpt>
      <trkpt lat="50.485640" lon="26.451216">
        <ele>269.359022</ele>
        <time>2019-06-06T10:45:59.000Z</time>
      </trkpt>
      <trkpt lat="50.485527" lon="26.451310">
        <ele>268.425079</ele>
        <time>2019-06-06T10:46:02.000Z</time>
      </trkpt>
      <trkpt lat="50.485430" lon="26.451410">
        <ele>267.577669</ele>
        <time>2019-06-06T10:46:05.000Z</time>
      </trkpt>
      <trkpt lat="50.485332" lon="26.451504">
        <ele>266.739000</ele>
        <time>2019-06-06T10:46:08.000Z</time>
      </trkpt>
      <trkpt lat="50.485245" lon="26.451605">
        <ele>265.948897</ele>
        <time>2019-06-06T10:46:11.000Z</time>
      </trkpt>
      <trkpt lat="50.485157" lon="26.451698">
        <ele>265.174252</ele>
        <time>2019-06-06T10:46:14.000Z</time>
      </trkpt>
      <trkpt lat="50.485054" lon="26.451782">
        <ele>264.246747</ele>
        <time>2019-06-06T10:46:17.000Z</time>
      </trkpt>
      <trkpt lat="50.484970" lon="26.451883">
        <ele>263.397632</ele>
        <time>2019-06-06T10:46:20.000Z</time>
      </trkpt>
      <trkpt lat="50.484882" lon="26.451979">
        <ele>262.537609</ele>
        <time>2019-06-06T10:46:23.000Z</time>
      </trkpt>
      <trkpt lat="50.484800" lon="26.452068">
        <ele>261.737546</ele>
        <time>2019-06-06T10:46:26.000Z</time>
      </trkpt>
      <trkpt lat="50.484715" lon="26.452171">
        <ele>260.875839</ele>
        <time>2019-06-06T10:46:29.000Z</time>
      </trkpt>
      <trkpt lat="50.484634" lon="26.452263">
        <ele>260.073489</ele>
        <time>2019-06-06T10:46:32.000Z</time>
      </trkpt>
      <trkpt lat="50.484550" lon="26.452368">
        <ele>259.211802</ele>
        <time>2019-06-06T10:46:35.000Z</time>
      </trkpt>
      <trkpt lat="50.484467" lon="26.452456">
        <ele>258.407986</ele>
        <time>2019-06-06T10:46:38.000Z</time>
      </trkpt>
      <trkpt lat="50.484380" lon="26.452543">
        <ele>257.580107</ele>
        <time>2019-06-06T10:46:41.000Z</time>
      </trkpt>
      <trkpt lat="50.484300" lon="26.452637">
        <ele>256.778172</ele>
        <time>2019-06-06T10:46:44.000Z</time>
      </trkpt>
      <trkpt lat="50.484222" lon="26.452728">
        <ele>255.998268</ele>
        <time>2019-06-06T10:46:47.000Z</time>
      </trkpt>
      <trkpt lat="50.484116" lon="26.452814">
        <ele>255.040546</ele>
        <time>2019-06-06T10:46:51.000Z</time>
      </trkpt>
      <trkpt lat="50.484028" lon="26.452864">
        <ele>254.289290</ele>
        <time>2019-06-06T10:46:54.000Z</time>
      </trkpt>
      <trkpt lat="50.483932" lon="26.452917">
        <ele>253.472388</ele>
        <time>2019-06-06T10:46:57.000Z</time>
      </trkpt>
      <trkpt lat="50.483814" lon="26.452986">
        <ele>252.461583</ele>
        <time>2019-06-06T10:47:00.000Z</time>
      </trkpt>
      <trkpt lat="50.483710" lon="26.453064">
        <ele>251.536421</ele>
        <time>2019-06-06T10:47:02.000Z</time>
      </trkpt>
      <trkpt lat="50.483610" lon="26.453160">
        <ele>250.655108</ele>
        <time>2019-06-06T10:47:04.000Z</time>
      </trkpt>
      <trkpt lat="50.483505" lon="26.453259">
        <ele>250.276827</ele>
        <time>2019-06-06T10:47:06.000Z</time>
      </trkpt>
      <trkpt lat="50.483390" lon="26.453339">
        <ele>249.888302</ele>
        <time>2019-06-06T10:47:08.000Z</time>
      </trkpt>
      <trkpt lat="50.483273" lon="26.453415">
        <ele>249.497190</ele>
        <time>2019-06-06T10:47:10.000Z</time>
      </trkpt>
      <trkpt lat="50.483150" lon="26.453495">
        <ele>249.085944</ele>
        <time>2019-06-06T10:47:12.000Z</time>
      </trkpt>
      <trkpt lat="50.483036" lon="26.453562">
        <ele>248.709936</ele>
        <time>2019-06-06T10:47:14.000Z</time>
      </trkpt>
      <trkpt lat="50.482918" lon="26.453629">
        <ele>248.322330</ele>
        <time>2019-06-06T10:47:16.000Z</time>
      </trkpt>
      <trkpt lat="50.482810" lon="26.453691">
        <ele>247.967117</ele>
        <time>2019-06-06T10:47:18.000Z</time>
      </trkpt>
      <trkpt lat="50.482700" lon="26.453733">
        <ele>247.617403</ele>
        <time>2019-06-06T10:47:20.000Z</time>
      </trkpt>
      <trkpt lat="50.482590" lon="26.453777">
        <ele>247.266739</ele>
        <time>2019-06-06T10:47:22.000Z</time>
      </trkpt>
      <trkpt lat="50.482483" lon="26.453814">
        <ele>246.928272</ele>
        <time>2019-06-06T10:47:24.000Z</time>
      </trkpt>
      <trkpt lat="50.482384" lon="26.453840">
        <ele>246.618185</ele>
        <time>2019-06-06T10:47:26.000Z</time>
      </trkpt>
      <trkpt lat="50.482280" lon="26.453875">
        <ele>246.289608</ele>
        <time>2019-06-06T10:47:28.000Z</time>
      </trkpt>
      <trkpt lat="50.482190" lon="26.453909">
        <ele>246.003646</ele>
        <time>2019-06-06T10:47:30.000Z</time>
      </trkpt>
      <trkpt lat="50.482094" lon="26.453947">
        <ele>245.697805</ele>
        <time>2019-06-06T10:47:32.000Z</time>
      </trkpt>
      <trkpt lat="50.482000" lon="26.453987">
        <ele>245.396949</ele>
        <time>2019-06-06T10:47:34.000Z</time>
      </trkpt>
      <trkpt lat="50.481915" lon="26.454044">
        <ele>245.150119</ele>
        <time>2019-06-06T10:47:36.000Z</time>
      </trkpt>
      <trkpt lat="50.481792" lon="26.454088">
        <ele>245.382722</ele>
        <time>2019-06-06T10:47:39.000Z</time>
      </trkpt>
      <trkpt lat="50.481667" lon="26.454142">
        <ele>245.621761</ele>
        <time>2019-06-06T10:47:42.000Z</time>
      </trkpt>
      <trkpt lat="50.481544" lon="26.454205">
        <ele>245.860305</ele>
        <time>2019-06-06T10:47:45.000Z</time>
      </trkpt>
      <trkpt lat="50.481420" lon="26.454252">
        <ele>246.095507</ele>
        <time>2019-06-06T10:47:48.000Z</time>
      </trkpt>
      <trkpt lat="50.481300" lon="26.454311">
        <ele>246.327353</ele>
        <time>2019-06-06T10:47:51.000Z</time>
      </trkpt>
      <trkpt lat="50.481180" lon="26.454369">
        <ele>246.558852</ele>
        <time>2019-06-06T10:47:54.000Z</time>
      </trkpt>
      <trkpt lat="50.481052" lon="26.454409">
        <ele>246.799495</ele>
        <time>2019-06-06T10:47:57.000Z</time>
      </trkpt>
      <trkpt lat="50.480927" lon="26.454458">
        <ele>247.037046</ele>
        <time>2019-06-06T10:48:00.000Z</time>
      </trkpt>
      <trkpt lat="50.480810" lon="26.454494">
        <ele>247.256881</ele>
        <time>2019-06-06T10:48:03.000Z</time>
      </trkpt>
      <trkpt lat="50.480686" lon="26.454552">
        <ele>247.495439</ele>
        <time>2019-06-06T10:48:06.000Z</time>
      </trkpt>
      <trkpt lat="50.480560" lon="26.454610">
        <ele>247.737535</ele>
        <time>2019-06-06T10:48:09.000Z</time>
      </trkpt>
      <trkpt lat="50.480434" lon="26.454670">
        <ele>247.980301</ele>
        <time>2019-06-06T10:48:12.000Z</time>
      </trkpt>
      <trkpt lat="50.480350" lon="26.454712">
        <ele>248.142840</ele>
        <time>2019-06-06T10:48:14.000Z</time>
      </trkpt>
      <trkpt lat="50.480232" lon="26.454767">
        <ele>248.369791</ele>
        <time>2019-06-06T10:48:17.000Z</time>
      </trkpt>
      <trkpt lat="50.480118" lon="26.454813">
        <ele>248.454486</ele>
        <time>2019-06-06T10:48:20.000Z</time>
      </trkpt>
      <trkpt lat="50.480003" lon="26.454853">
        <ele>248.458158</ele>
        <time>2019-06-06T10:48:23.000Z</time>
      </trkpt>
      <trkpt lat="50.479893" lon="26.454890">
        <ele>248.461666</ele>
        <time>2019-06-06T10:48:26.000Z</time>
      </trkpt>
      <trkpt lat="50.479790" lon="26.454943">
        <ele>248.465045</ele>
        <time>2019-06-06T10:48:29.000Z</time>
      </trkpt>
      <trkpt lat="50.479690" lon="26.455002">
        <ele>248.468375</ele>
        <time>2019-06-06T10:48:32.000Z</time>
      </trkpt>
      <trkpt lat="50.479588" lon="26.455055">
        <ele>248.471724</ele>
        <time>2019-06-06T10:48:35.000Z</time>
      </trkpt>
      <trkpt lat="50.479490" lon="26.455112">
        <ele>248.474982</ele>
        <time>2019-06-06T10:48:38.000Z</time>
      </trkpt>
      <trkpt lat="50.479393" lon="26.455158">
        <ele>248.478141</ele>
        <time>2019-06-06T10:48:41.000Z</time>
      </trkpt>
      <trkpt lat="50.479294" lon="26.455200">
        <ele>248.481339</ele>
        <time>2019-06-06T10:48:44.000Z</time>
      </trkpt>
      <trkpt lat="50.479195" lon="26.455244">
        <ele>248.484546</ele>
        <time>2019-06-06T10:48:47.000Z</time>
      </trkpt>
      <trkpt lat="50.479107" lon="26.455280">
        <ele>248.487381</ele>
        <time>2019-06-06T10:48:50.000Z</time>
      </trkpt>
      <trkpt lat="50.479008" lon="26.455303">
        <ele>248.490502</ele>
        <time>2019-06-06T10:48:53.000Z</time>
      </trkpt>
      <trkpt lat="50.478912" lon="26.455332">
        <ele>248.493549</ele>
        <time>2019-06-06T10:48:56.000Z</time>
      </trkpt>
      <trkpt lat="50.478794" lon="26.455357">
        <ele>248.497262</ele>
        <time>2019-06-06T10:48:59.000Z</time>
      </trkpt>
      <trkpt lat="50.478672" lon="26.455387">
        <ele>248.501112</ele>
        <time>2019-06-06T10:49:02.000Z</time>
      </trkpt>
      <trkpt lat="50.478580" lon="26.455414">
        <ele>248.504030</ele>
        <time>2019-06-06T10:49:04.000Z</time>
      </trkpt>
      <trkpt lat="50.478477" lon="26.455444">
        <ele>248.507296</ele>
        <time>2019-06-06T10:49:06.000Z</time>
      </trkpt>
      <trkpt lat="50.478360" lon="26.455482">
        <ele>248.367791</ele>
        <time>2019-06-06T10:49:08.000Z</time>
      </trkpt>
      <trkpt lat="50.478233" lon="26.455520">
        <ele>248.160543</ele>
        <time>2019-06-06T10:49:10.000Z</time>
      </trkpt>
      <trkpt lat="50.478110" lon="26.455587">
        <ele>247.951856</ele>
        <time>2019-06-06T10:49:12.000Z</time>
      </trkpt>
      <trkpt lat="50.477990" lon="26.455645">
        <ele>247.750593</ele>
        <time>2019-06-06T10:49:14.000Z</time>
      </trkpt>
      <trkpt lat="50.477860" lon="26.455704">
        <ele>247.533677</ele>
        <time>2019-06-06T10:49:16.000Z</time>
      </trkpt>
      <trkpt lat="50.477737" lon="26.455746">
        <ele>247.331898</ele>
        <time>2019-06-06T10:49:18.000Z</time>
      </trkpt>
      <trkpt lat="50.477630" lon="26.455790">
        <ele>247.154594</ele>
        <time>2019-06-06T10:49:20.000Z</time>
      </trkpt>
      <trkpt lat="50.477528" lon="26.455841">
        <ele>246.983003</ele>
        <time>2019-06-06T10:49:22.000Z</time>
      </trkpt>
      <trkpt lat="50.477440" lon="26.455902">
        <ele>246.828817</ele>
        <time>2019-06-06T10:49:24.000Z</time>
      </trkpt>
      <trkpt lat="50.477314" lon="26.455969">
        <ele>246.615579</ele>
        <time>2019-06-06T10:49:27.000Z</time>
      </trkpt>
      <trkpt lat="50.477192" lon="26.456028">
        <ele>246.410953</ele>
        <time>2019-06-06T10:49:30.000Z</time>
      </trkpt>
      <trkpt lat="50.477080" lon="26.456099">
        <ele>246.217349</ele>
        <time>2019-06-06T10:49:33.000Z</time>
      </trkpt>
      <trkpt lat="50.476980" lon="26.456161">
        <ele>246.045015</ele>
        <time>2019-06-06T10:49:36.000Z</time>
      </trkpt>
      <trkpt lat="50.476883" lon="26.456220">
        <ele>245.878275</ele>
        <time>2019-06-06T10:49:39.000Z</time>
      </trkpt>
      <trkpt lat="50.476788" lon="26.456266">
        <ele>245.718917</ele>
        <time>2019-06-06T10:49:42.000Z</time>
      </trkpt>
      <trkpt lat="50.476660" lon="26.456327">
        <ele>245.488184</ele>
        <time>2019-06-06T10:49:46.000Z</time>
      </trkpt>
      <trkpt lat="50.476550" lon="26.456358">
        <ele>245.284772</ele>
        <time>2019-06-06T10:49:49.000Z</time>
      </trkpt>
      <trkpt lat="50.476437" lon="26.456387">
        <ele>245.076369</ele>
        <time>2019-06-06T10:49:52.000Z</time>
      </trkpt>
      <trkpt lat="50.476303" lon="26.456425">
        <ele>244.828528</ele>
        <time>2019-06-06T10:49:55.000Z</time>
      </trkpt>
      <trkpt lat="50.476208" lon="26.456459">
        <ele>244.651184</ele>
        <time>2019-06-06T10:49:57.000Z</time>
      </trkpt>
      <trkpt lat="50.476116" lon="26.456500">
        <ele>244.477125</ele>
        <time>2019-06-06T10:49:59.000Z</time>
      </trkpt>
      <trkpt lat="50.476025" lon="26.456543">
        <ele>244.304164</ele>
        <time>2019-06-06T10:50:01.000Z</time>
      </trkpt>
      <trkpt lat="50.475930" lon="26.456587">
        <ele>244.123894</ele>
        <time>2019-06-06T10:50:03.000Z</time>
      </trkpt>
      <trkpt lat="50.475840" lon="26.456633">
        <ele>243.951631</ele>
        <time>2019-06-06T10:50:05.000Z</time>
      </trkpt>
      <trkpt lat="50.475750" lon="26.456676">
        <ele>243.780412</ele>
        <time>2019-06-06T10:50:07.000Z</time>
      </trkpt>
      <trkpt lat="50.475662" lon="26.456709">
        <ele>243.615740</ele>
        <time>2019-06-06T10:50:09.000Z</time>
      </trkpt>
      <trkpt lat="50.475563" lon="26.456747">
        <ele>243.430246</ele>
        <time>2019-06-06T10:50:11.000Z</time>
      </trkpt>
      <trkpt lat="50.475464" lon="26.456806">
        <ele>243.237525</ele>
        <time>2019-06-06T10:50:13.000Z</time>
      </trkpt>
      <trkpt lat="50.475360" lon="26.456848">
        <ele>243.042076</ele>
        <time>2019-06-06T10:50:15.000Z</time>
      </trkpt>
      <trkpt lat="50.475258" lon="26.456884">
        <ele>242.851794</ele>
        <time>2019-06-06T10:50:17.000Z</time>
      </trkpt>
      <trkpt lat="50.475155" lon="26.456930">
        <ele>242.656893</ele>
        <time>2019-06-06T10:50:19.000Z</time>
      </trkpt>
      <trkpt lat="50.475050" lon="26.456972">
        <ele>242.459681</ele>
        <time>2019-06-06T10:50:21.000Z</time>
      </trkpt>
      <trkpt lat="50.474953" lon="26.457010">
        <ele>242.303762</ele>
        <time>2019-06-06T10:50:23.000Z</time>
      </trkpt>
      <trkpt lat="50.474854" lon="26.457058">
        <ele>242.182085</ele>
        <time>2019-06-06T10:50:25.000Z</time>
      </trkpt>
      <trkpt lat="50.474760" lon="26.457115">
        <ele>242.063754</ele>
        <time>2019-06-06T10:50:27.000Z</time>
      </trkpt>
      <trkpt lat="50.474655" lon="26.457153">
        <ele>241.937210</ele>
        <time>2019-06-06T10:50:29.000Z</time>
      </trkpt>
      <trkpt lat="50.474545" lon="26.457170">
        <ele>241.807400</ele>
        <time>2019-06-06T10:50:31.000Z</time>
      </trkpt>
      <trkpt lat="50.474434" lon="26.457184">
        <ele>241.676620</ele>
        <time>2019-06-06T10:50:33.000Z</time>
      </trkpt>
      <trkpt lat="50.474323" lon="26.457186">
        <ele>241.546250</ele>
        <time>2019-06-06T10:50:35.000Z</time>
      </trkpt>
      <trkpt lat="50.474213" lon="26.457190">
        <ele>241.417029</ele>
        <time>2019-06-06T10:50:37.000Z</time>
      </trkpt>
      <trkpt lat="50.474113" lon="26.457186">
        <ele>241.299548</ele>
        <time>2019-06-06T10:50:39.000Z</time>
      </trkpt>
      <trkpt lat="50.474020" lon="26.457191">
        <ele>241.190263</ele>
        <time>2019-06-06T10:50:41.000Z</time>
      </trkpt>
      <trkpt lat="50.473927" lon="26.457176">
        <ele>241.080467</ele>
        <time>2019-06-06T10:50:43.000Z</time>
      </trkpt>
      <trkpt lat="50.473835" lon="26.457160">
        <ele>240.971760</ele>
        <time>2019-06-06T10:50:45.000Z</time>
      </trkpt>
      <trkpt lat="50.473747" lon="26.457134">
        <ele>240.866600</ele>
        <time>2019-06-06T10:50:47.000Z</time>
      </trkpt>
      <trkpt lat="50.473656" lon="26.457134">
        <ele>240.759727</ele>
        <time>2019-06-06T10:50:49.000Z</time>
      </trkpt>
      <trkpt lat="50.473564" lon="26.457146">
        <ele>240.651308</ele>
        <time>2019-06-06T10:50:51.000Z</time>
      </trkpt>
      <trkpt lat="50.473440" lon="26.457119">
        <ele>240.504288</ele>
        <time>2019-06-06T10:50:54.000Z</time>
      </trkpt>
      <trkpt lat="50.473347" lon="26.457102">
        <ele>240.394330</ele>
        <time>2019-06-06T10:50:56.000Z</time>
      </trkpt>
      <trkpt lat="50.473213" lon="26.457100">
        <ele>240.242060</ele>
        <time>2019-06-06T10:50:59.000Z</time>
      </trkpt>
      <trkpt lat="50.473087" lon="26.457080">
        <ele>240.514613</ele>
        <time>2019-06-06T10:51:02.000Z</time>
      </trkpt>
      <trkpt lat="50.472960" lon="26.457080">
        <ele>240.787938</ele>
        <time>2019-06-06T10:51:05.000Z</time>
      </trkpt>
      <trkpt lat="50.472855" lon="26.457087">
        <ele>241.014119</ele>
        <time>2019-06-06T10:51:08.000Z</time>
      </trkpt>
      <trkpt lat="50.472744" lon="26.457102">
        <ele>241.253892</ele>
        <time>2019-06-06T10:51:11.000Z</time>
      </trkpt>
      <trkpt lat="50.472630" lon="26.457111">
        <ele>241.499548</ele>
        <time>2019-06-06T10:51:14.000Z</time>
      </trkpt>
      <trkpt lat="50.472527" lon="26.457125">
        <ele>241.722050</ele>
        <time>2019-06-06T10:51:17.000Z</time>
      </trkpt>
      <trkpt lat="50.472430" lon="26.457134">
        <ele>241.931174</ele>
        <time>2019-06-06T10:51:20.000Z</time>
      </trkpt>
      <trkpt lat="50.472336" lon="26.457140">
        <ele>242.133644</ele>
        <time>2019-06-06T10:51:23.000Z</time>
      </trkpt>
      <trkpt lat="50.472244" lon="26.457142">
        <ele>242.331663</ele>
        <time>2019-06-06T10:51:26.000Z</time>
      </trkpt>
      <trkpt lat="50.472150" lon="26.457142">
        <ele>242.533966</ele>
        <time>2019-06-06T10:51:29.000Z</time>
      </trkpt>
      <trkpt lat="50.472054" lon="26.457160">
        <ele>242.742040</ele>
        <time>2019-06-06T10:51:32.000Z</time>
      </trkpt>
      <trkpt lat="50.471935" lon="26.457174">
        <ele>242.998865</ele>
        <time>2019-06-06T10:51:36.000Z</time>
      </trkpt>
      <trkpt lat="50.471820" lon="26.457170">
        <ele>243.246425</ele>
        <time>2019-06-06T10:51:40.000Z</time>
      </trkpt>
      <trkpt lat="50.471706" lon="26.457165">
        <ele>243.491868</ele>
        <time>2019-06-06T10:51:44.000Z</time>
      </trkpt>
      <trkpt lat="50.471592" lon="26.457167">
        <ele>243.737230</ele>
        <time>2019-06-06T10:51:48.000Z</time>
      </trkpt>
      <trkpt lat="50.471478" lon="26.457146">
        <ele>243.984258</ele>
        <time>2019-06-06T10:51:52.000Z</time>
      </trkpt>
      <trkpt lat="50.471367" lon="26.457140">
        <ele>244.323738</ele>
        <time>2019-06-06T10:51:56.000Z</time>
      </trkpt>
      <trkpt lat="50.471275" lon="26.457136">
        <ele>244.697026</ele>
        <time>2019-06-06T10:51:59.000Z</time>
      </trkpt>
      <trkpt lat="50.471160" lon="26.457140">
        <ele>245.163572</ele>
        <time>2019-06-06T10:52:03.000Z</time>
      </trkpt>
      <trkpt lat="50.471043" lon="26.457159">
        <ele>245.640644</ele>
        <time>2019-06-06T10:52:07.000Z</time>
      </trkpt>
      <trkpt lat="50.470924" lon="26.457165">
        <ele>246.123547</ele>
        <time>2019-06-06T10:52:11.000Z</time>
      </trkpt>
      <trkpt lat="50.470833" lon="26.457172">
        <ele>246.493079</ele>
        <time>2019-06-06T10:52:14.000Z</time>
      </trkpt>
      <trkpt lat="50.470726" lon="26.457182">
        <ele>246.927830</ele>
        <time>2019-06-06T10:52:18.000Z</time>
      </trkpt>
      <trkpt lat="50.470620" lon="26.457174">
        <ele>247.358255</ele>
        <time>2019-06-06T10:52:22.000Z</time>
      </trkpt>
      <trkpt lat="50.470516" lon="26.457176">
        <ele>247.780103</ele>
        <time>2019-06-06T10:52:26.000Z</time>
      </trkpt>
      <trkpt lat="50.470406" lon="26.457178">
        <ele>248.226285</ele>
        <time>2019-06-06T10:52:30.000Z</time>
      </trkpt>
      <trkpt lat="50.470303" lon="26.457157">
        <ele>248.647548</ele>
        <time>2019-06-06T10:52:34.000Z</time>
      </trkpt>
      <trkpt lat="50.470203" lon="26.457157">
        <ele>249.053141</ele>
        <time>2019-06-06T10:52:38.000Z</time>
      </trkpt>
      <trkpt lat="50.470108" lon="26.457153">
        <ele>249.438593</ele>
        <time>2019-06-06T10:52:42.000Z</time>
      </trkpt>
      <trkpt lat="50.470005" lon="26.457155">
        <ele>249.856385</ele>
        <time>2019-06-06T10:52:46.000Z</time>
      </trkpt>
      <trkpt lat="50.469894" lon="26.457159">
        <ele>250.306712</ele>
        <time>2019-06-06T10:52:50.000Z</time>
      </trkpt>
      <trkpt lat="50.469795" lon="26.457169">
        <ele>250.709077</ele>
        <time>2019-06-06T10:52:54.000Z</time>
      </trkpt>
      <trkpt lat="50.469696" lon="26.457184">
        <ele>251.112477</ele>
        <time>2019-06-06T10:52:58.000Z</time>
      </trkpt>
      <trkpt lat="50.469590" lon="26.457180">
        <ele>251.436669</ele>
        <time>2019-06-06T10:53:02.000Z</time>
      </trkpt>
      <trkpt lat="50.469490" lon="26.457165">
        <ele>251.530707</ele>
        <time>2019-06-06T10:53:06.000Z</time>
      </trkpt>
      <trkpt lat="50.469390" lon="26.457184">
        <ele>251.625002</ele>
        <time>2019-06-06T10:53:10.000Z</time>
      </trkpt>
      <trkpt lat="50.469276" lon="26.457190">
        <ele>251.731781</ele>
        <time>2019-06-06T10:53:14.000Z</time>
      </trkpt>
      <trkpt lat="50.469166" lon="26.457188">
        <ele>251.834762</ele>
        <time>2019-06-06T10:53:18.000Z</time>
      </trkpt>
      <trkpt lat="50.469055" lon="26.457197">
        <ele>251.938811</ele>
        <time>2019-06-06T10:53:22.000Z</time>
      </trkpt>
      <trkpt lat="50.468964" lon="26.457230">
        <ele>252.026239</ele>
        <time>2019-06-06T10:53:25.000Z</time>
      </trkpt>
      <trkpt lat="50.468864" lon="26.457266">
        <ele>252.122278</ele>
        <time>2019-06-06T10:53:28.000Z</time>
      </trkpt>
      <trkpt lat="50.468770" lon="26.457304">
        <ele>252.213140</ele>
        <time>2019-06-06T10:53:31.000Z</time>
      </trkpt>
      <trkpt lat="50.468670" lon="26.457320">
        <ele>252.307237</ele>
        <time>2019-06-06T10:53:34.000Z</time>
      </trkpt>
      <trkpt lat="50.468550" lon="26.457323">
        <ele>252.419587</ele>
        <time>2019-06-06T10:53:38.000Z</time>
      </trkpt>
      <trkpt lat="50.468440" lon="26.457348">
        <ele>252.523633</ele>
        <time>2019-06-06T10:53:42.000Z</time>
      </trkpt>
      <trkpt lat="50.468323" lon="26.457363">
        <ele>252.633525</ele>
        <time>2019-06-06T10:53:46.000Z</time>
      </trkpt>
      <trkpt lat="50.468216" lon="26.457378">
        <ele>252.734089</ele>
        <time>2019-06-06T10:53:49.000Z</time>
      </trkpt>
      <trkpt lat="50.468130" lon="26.457403">
        <ele>252.815962</ele>
        <time>2019-06-06T10:53:51.000Z</time>
      </trkpt>
      <trkpt lat="50.468037" lon="26.457422">
        <ele>252.903755</ele>
        <time>2019-06-06T10:53:53.000Z</time>
      </trkpt>
      <trkpt lat="50.467910" lon="26.457466">
        <ele>253.025500</ele>
        <time>2019-06-06T10:53:56.000Z</time>
      </trkpt>
      <trkpt lat="50.467820" lon="26.457502">
        <ele>252.977813</ele>
        <time>2019-06-06T10:53:58.000Z</time>
      </trkpt>
      <trkpt lat="50.467728" lon="26.457530">
        <ele>252.568733</ele>
        <time>2019-06-06T10:54:00.000Z</time>
      </trkpt>
      <trkpt lat="50.467630" lon="26.457546">
        <ele>252.138623</ele>
        <time>2019-06-06T10:54:02.000Z</time>
      </trkpt>
      <trkpt lat="50.467533" lon="26.457558">
        <ele>251.713871</ele>
        <time>2019-06-06T10:54:04.000Z</time>
      </trkpt>
      <trkpt lat="50.467438" lon="26.457567">
        <ele>251.298408</ele>
        <time>2019-06-06T10:54:06.000Z</time>
      </trkpt>
      <trkpt lat="50.467327" lon="26.457577">
        <ele>250.813056</ele>
        <time>2019-06-06T10:54:08.000Z</time>
      </trkpt>
      <trkpt lat="50.467200" lon="26.457580">
        <ele>250.258592</ele>
        <time>2019-06-06T10:54:10.000Z</time>
      </trkpt>
      <trkpt lat="50.467080" lon="26.457571">
        <ele>249.734151</ele>
        <time>2019-06-06T10:54:12.000Z</time>
      </trkpt>
      <trkpt lat="50.466960" lon="26.457563">
        <ele>249.209836</ele>
        <time>2019-06-06T10:54:14.000Z</time>
      </trkpt>
      <trkpt lat="50.466840" lon="26.457561">
        <ele>248.685962</ele>
        <time>2019-06-06T10:54:16.000Z</time>
      </trkpt>
      <trkpt lat="50.466720" lon="26.457552">
        <ele>248.161521</ele>
        <time>2019-06-06T10:54:18.000Z</time>
      </trkpt>
      <trkpt lat="50.466600" lon="26.457552">
        <ele>247.637677</ele>
        <time>2019-06-06T10:54:20.000Z</time>
      </trkpt>
      <trkpt lat="50.466476" lon="26.457556">
        <ele>247.096257</ele>
        <time>2019-06-06T10:54:22.000Z</time>
      </trkpt>
      <trkpt lat="50.466366" lon="26.457554">
        <ele>246.616035</ele>
        <time>2019-06-06T10:54:24.000Z</time>
      </trkpt>
      <trkpt lat="50.466248" lon="26.457554">
        <ele>246.100921</ele>
        <time>2019-06-06T10:54:26.000Z</time>
      </trkpt>
      <trkpt lat="50.466133" lon="26.457560">
        <ele>245.598627</ele>
        <time>2019-06-06T10:54:28.000Z</time>
      </trkpt>
      <trkpt lat="50.465954" lon="26.457561">
        <ele>244.939296</ele>
        <time>2019-06-06T10:54:30.000Z</time>
      </trkpt>
      <trkpt lat="50.465836" lon="26.457560">
        <ele>244.574001</ele>
        <time>2019-06-06T10:54:33.000Z</time>
      </trkpt>
      <trkpt lat="50.465714" lon="26.457556">
        <ele>244.196247</ele>
        <time>2019-06-06T10:54:35.000Z</time>
      </trkpt>
      <trkpt lat="50.465600" lon="26.457563">
        <ele>243.843071</ele>
        <time>2019-06-06T10:54:37.000Z</time>
      </trkpt>
      <trkpt lat="50.465485" lon="26.457582">
        <ele>243.485105</ele>
        <time>2019-06-06T10:54:39.000Z</time>
      </trkpt>
      <trkpt lat="50.465380" lon="26.457647">
        <ele>243.135734</ele>
        <time>2019-06-06T10:54:41.000Z</time>
      </trkpt>
      <trkpt lat="50.465290" lon="26.457750">
        <ele>242.791033</ele>
        <time>2019-06-06T10:54:43.000Z</time>
      </trkpt>
      <trkpt lat="50.465202" lon="26.457865">
        <ele>242.436682</ele>
        <time>2019-06-06T10:54:45.000Z</time>
      </trkpt>
      <trkpt lat="50.465168" lon="26.458023">
        <ele>242.108027</ele>
        <time>2019-06-06T10:54:47.000Z</time>
      </trkpt>
      <trkpt lat="50.465176" lon="26.458178">
        <ele>241.801590</ele>
        <time>2019-06-06T10:54:49.000Z</time>
      </trkpt>
      <trkpt lat="50.465225" lon="26.458359">
        <ele>241.414007</ele>
        <time>2019-06-06T10:54:52.000Z</time>
      </trkpt>
      <trkpt lat="50.465280" lon="26.458529">
        <ele>241.038229</ele>
        <time>2019-06-06T10:54:55.000Z</time>
      </trkpt>
      <trkpt lat="50.465324" lon="26.458710">
        <ele>240.656438</ele>
        <time>2019-06-06T10:54:58.000Z</time>
      </trkpt>
      <trkpt lat="50.465360" lon="26.458885">
        <ele>240.294034</ele>
        <time>2019-06-06T10:55:01.000Z</time>
      </trkpt>
      <trkpt lat="50.465405" lon="26.459053">
        <ele>239.934869</ele>
        <time>2019-06-06T10:55:04.000Z</time>
      </trkpt>
      <trkpt lat="50.465470" lon="26.459210">
        <ele>239.631219</ele>
        <time>2019-06-06T10:55:07.000Z</time>
      </trkpt>
      <trkpt lat="50.465534" lon="26.459375">
        <ele>239.491999</ele>
        <time>2019-06-06T10:55:10.000Z</time>
      </trkpt>
      <trkpt lat="50.465584" lon="26.459500">
        <ele>239.385627</ele>
        <time>2019-06-06T10:55:12.000Z</time>
      </trkpt>
      <trkpt lat="50.465622" lon="26.459625">
        <ele>239.285818</ele>
        <time>2019-06-06T10:55:14.000Z</time>
      </trkpt>
      <trkpt lat="50.465690" lon="26.459803">
        <ele>239.136240</ele>
        <time>2019-06-06T10:55:17.000Z</time>
      </trkpt>
      <trkpt lat="50.465760" lon="26.459988">
        <ele>238.981172</ele>
        <time>2019-06-06T10:55:20.000Z</time>
      </trkpt>
      <trkpt lat="50.465805" lon="26.460117">
        <ele>238.875183</ele>
        <time>2019-06-06T10:55:22.000Z</time>
      </trkpt>
      <trkpt lat="50.465860" lon="26.460245">
        <ele>238.763910</ele>
        <time>2019-06-06T10:55:24.000Z</time>
      </trkpt>
      <trkpt lat="50.465927" lon="26.460402">
        <ele>238.627719</ele>
        <time>2019-06-06T10:55:27.000Z</time>
      </trkpt>
      <trkpt lat="50.465984" lon="26.460537">
        <ele>238.510996</ele>
        <time>2019-06-06T10:55:30.000Z</time>
      </trkpt>
      <trkpt lat="50.466034" lon="26.460659">
        <ele>238.406448</ele>
        <time>2019-06-06T10:55:32.000Z</time>
      </trkpt>
      <trkpt lat="50.466090" lon="26.460798">
        <ele>238.287922</ele>
        <time>2019-06-06T10:55:36.000Z</time>
      </trkpt>
      <trkpt lat="50.466140" lon="26.460932">
        <ele>238.176007</ele>
        <time>2019-06-06T10:55:39.000Z</time>
      </trkpt>
      <trkpt lat="50.466267" lon="26.461000">
        <ele>238.024132</ele>
        <time>2019-06-06T10:58:08.000Z</time>
      </trkpt>
      <trkpt lat="50.466217" lon="26.460852">
        <ele>237.903407</ele>
        <time>2019-06-06T10:58:14.000Z</time>
      </trkpt>
      <trkpt lat="50.466150" lon="26.460754">
        <ele>237.799786</ele>
        <time>2019-06-06T10:58:18.000Z</time>
      </trkpt>
      <trkpt lat="50.466095" lon="26.460642">
        <ele>237.697864</ele>
        <time>2019-06-06T10:58:22.000Z</time>
      </trkpt>
      <trkpt lat="50.466034" lon="26.460490">
        <ele>237.697216</ele>
        <time>2019-06-06T10:58:26.000Z</time>
      </trkpt>
      <trkpt lat="50.465996" lon="26.460358">
        <ele>237.801060</ele>
        <time>2019-06-06T10:58:29.000Z</time>
      </trkpt>
      <trkpt lat="50.465950" lon="26.460215">
        <ele>237.915908</ele>
        <time>2019-06-06T10:58:32.000Z</time>
      </trkpt>
      <trkpt lat="50.465897" lon="26.460075">
        <ele>238.032667</ele>
        <time>2019-06-06T10:58:35.000Z</time>
      </trkpt>
      <trkpt lat="50.465816" lon="26.459923">
        <ele>238.174761</ele>
        <time>2019-06-06T10:58:38.000Z</time>
      </trkpt>
      <trkpt lat="50.465744" lon="26.459772">
        <ele>238.309998</ele>
        <time>2019-06-06T10:58:41.000Z</time>
      </trkpt>
      <trkpt lat="50.465687" lon="26.459618">
        <ele>238.437691</ele>
        <time>2019-06-06T10:58:44.000Z</time>
      </trkpt>
      <trkpt lat="50.465620" lon="26.459476">
        <ele>238.564391</ele>
        <time>2019-06-06T10:58:47.000Z</time>
      </trkpt>
      <trkpt lat="50.465565" lon="26.459352">
        <ele>238.672725</ele>
        <time>2019-06-06T10:58:50.000Z</time>
      </trkpt>
      <trkpt lat="50.465504" lon="26.459213">
        <ele>238.793745</ele>
        <time>2019-06-06T10:58:53.000Z</time>
      </trkpt>
      <trkpt lat="50.465446" lon="26.459072">
        <ele>238.914082</ele>
        <time>2019-06-06T10:58:56.000Z</time>
      </trkpt>
      <trkpt lat="50.465400" lon="26.458935">
        <ele>239.025109</ele>
        <time>2019-06-06T10:58:59.000Z</time>
      </trkpt>
      <trkpt lat="50.465360" lon="26.458809">
        <ele>239.126036</ele>
        <time>2019-06-06T10:59:02.000Z</time>
      </trkpt>
      <trkpt lat="50.465310" lon="26.458654">
        <ele>239.250594</ele>
        <time>2019-06-06T10:59:06.000Z</time>
      </trkpt>
      <trkpt lat="50.465263" lon="26.458529">
        <ele>239.354659</ele>
        <time>2019-06-06T10:59:09.000Z</time>
      </trkpt>
      <trkpt lat="50.465218" lon="26.458395">
        <ele>239.463259</ele>
        <time>2019-06-06T10:59:12.000Z</time>
      </trkpt>
      <trkpt lat="50.465176" lon="26.458261">
        <ele>239.570324</ele>
        <time>2019-06-06T10:59:15.000Z</time>
      </trkpt>
      <trkpt lat="50.465130" lon="26.458138">
        <ele>239.643435</ele>
        <time>2019-06-06T10:59:18.000Z</time>
      </trkpt>
      <trkpt lat="50.465080" lon="26.458010">
        <ele>239.529649</ele>
        <time>2019-06-06T10:59:21.000Z</time>
      </trkpt>
      <trkpt lat="50.465023" lon="26.457882">
        <ele>239.411292</ele>
        <time>2019-06-06T10:59:24.000Z</time>
      </trkpt>
      <trkpt lat="50.464970" lon="26.457743">
        <ele>239.288528</ele>
        <time>2019-06-06T10:59:27.000Z</time>
      </trkpt>
      <trkpt lat="50.464886" lon="26.457672">
        <ele>239.174992</ele>
        <time>2019-06-06T10:59:30.000Z</time>
      </trkpt>
      <trkpt lat="50.464770" lon="26.457663">
        <ele>239.036752</ele>
        <time>2019-06-06T10:59:34.000Z</time>
      </trkpt>
      <trkpt lat="50.464660" lon="26.457674">
        <ele>238.905558</ele>
        <time>2019-06-06T10:59:38.000Z</time>
      </trkpt>
      <trkpt lat="50.464558" lon="26.457724">
        <ele>238.778377</ele>
        <time>2019-06-06T10:59:42.000Z</time>
      </trkpt>
      <trkpt lat="50.464478" lon="26.457827">
        <ele>238.655261</ele>
        <time>2019-06-06T10:59:46.000Z</time>
      </trkpt>
      <trkpt lat="50.464420" lon="26.457947">
        <ele>238.541101</ele>
        <time>2019-06-06T10:59:49.000Z</time>
      </trkpt>
      <trkpt lat="50.464344" lon="26.458082">
        <ele>238.404552</ele>
        <time>2019-06-06T10:59:52.000Z</time>
      </trkpt>
      <trkpt lat="50.464283" lon="26.458252">
        <ele>238.256692</ele>
        <time>2019-06-06T10:59:55.000Z</time>
      </trkpt>
      <trkpt lat="50.464245" lon="26.458437">
        <ele>238.109405</ele>
        <time>2019-06-06T10:59:58.000Z</time>
      </trkpt>
      <trkpt lat="50.464160" lon="26.458576">
        <ele>237.963364</ele>
        <time>2019-06-06T11:00:01.000Z</time>
      </trkpt>
      <trkpt lat="50.464085" lon="26.458689">
        <ele>237.839673</ele>
        <time>2019-06-06T11:00:04.000Z</time>
      </trkpt>
      <trkpt lat="50.464077" lon="26.458847">
        <ele>237.719581</ele>
        <time>2019-06-06T11:00:07.000Z</time>
      </trkpt>
      <trkpt lat="50.464096" lon="26.459032">
        <ele>237.577597</ele>
        <time>2019-06-06T11:00:10.000Z</time>
      </trkpt>
      <trkpt lat="50.464130" lon="26.459198">
        <ele>237.417772</ele>
        <time>2019-06-06T11:00:13.000Z</time>
      </trkpt>
      <trkpt lat="50.464180" lon="26.459364">
        <ele>237.225146</ele>
        <time>2019-06-06T11:00:16.000Z</time>
      </trkpt>
      <trkpt lat="50.464240" lon="26.459524">
        <ele>237.030366</ele>
        <time>2019-06-06T11:00:19.000Z</time>
      </trkpt>
      <trkpt lat="50.464287" lon="26.459698">
        <ele>236.832106</ele>
        <time>2019-06-06T11:00:22.000Z</time>
      </trkpt>
      <trkpt lat="50.464320" lon="26.459870">
        <ele>236.643679</ele>
        <time>2019-06-06T11:00:25.000Z</time>
      </trkpt>
      <trkpt lat="50.464360" lon="26.460050">
        <ele>236.443704</ele>
        <time>2019-06-06T11:00:28.000Z</time>
      </trkpt>
      <trkpt lat="50.464400" lon="26.460188">
        <ele>236.284657</ele>
        <time>2019-06-06T11:00:30.000Z</time>
      </trkpt>
      <trkpt lat="50.464443" lon="26.460318">
        <ele>236.130990</ele>
        <time>2019-06-06T11:00:32.000Z</time>
      </trkpt>
      <trkpt lat="50.464485" lon="26.460459">
        <ele>235.967705</ele>
        <time>2019-06-06T11:00:34.000Z</time>
      </trkpt>
      <trkpt lat="50.464530" lon="26.460592">
        <ele>235.809720</ele>
        <time>2019-06-06T11:00:36.000Z</time>
      </trkpt>
      <trkpt lat="50.464584" lon="26.460766">
        <ele>235.606678</ele>
        <time>2019-06-06T11:00:39.000Z</time>
      </trkpt>
      <trkpt lat="50.464634" lon="26.460949">
        <ele>235.397797</ele>
        <time>2019-06-06T11:00:42.000Z</time>
      </trkpt>
      <trkpt lat="50.464695" lon="26.461128">
        <ele>235.184833</ele>
        <time>2019-06-06T11:00:45.000Z</time>
      </trkpt>
      <trkpt lat="50.464737" lon="26.461292">
        <ele>234.999416</ele>
        <time>2019-06-06T11:00:48.000Z</time>
      </trkpt>
      <trkpt lat="50.464767" lon="26.461470">
        <ele>234.806281</ele>
        <time>2019-06-06T11:00:51.000Z</time>
      </trkpt>
      <trkpt lat="50.464790" lon="26.461662">
        <ele>234.601359</ele>
        <time>2019-06-06T11:00:54.000Z</time>
      </trkpt>
      <trkpt lat="50.464830" lon="26.461855">
        <ele>234.455939</ele>
        <time>2019-06-06T11:00:57.000Z</time>
      </trkpt>
      <trkpt lat="50.464874" lon="26.462046">
        <ele>234.329832</ele>
        <time>2019-06-06T11:01:00.000Z</time>
      </trkpt>
      <trkpt lat="50.464920" lon="26.462227">
        <ele>234.208836</ele>
        <time>2019-06-06T11:01:03.000Z</time>
      </trkpt>
      <trkpt lat="50.464985" lon="26.462402">
        <ele>234.083046</ele>
        <time>2019-06-06T11:01:06.000Z</time>
      </trkpt>
      <trkpt lat="50.465057" lon="26.462572">
        <ele>233.956277</ele>
        <time>2019-06-06T11:01:09.000Z</time>
      </trkpt>
      <trkpt lat="50.465150" lon="26.462719">
        <ele>233.827606</ele>
        <time>2019-06-06T11:01:12.000Z</time>
      </trkpt>
      <trkpt lat="50.465214" lon="26.462828">
        <ele>233.735543</ele>
        <time>2019-06-06T11:01:14.000Z</time>
      </trkpt>
      <trkpt lat="50.465267" lon="26.462950">
        <ele>233.643844</ele>
        <time>2019-06-06T11:01:16.000Z</time>
      </trkpt>
      <trkpt lat="50.465324" lon="26.463130">
        <ele>233.519029</ele>
        <time>2019-06-06T11:01:19.000Z</time>
      </trkpt>
      <trkpt lat="50.465336" lon="26.463326">
        <ele>233.396785</ele>
        <time>2019-06-06T11:01:22.000Z</time>
      </trkpt>
      <trkpt lat="50.465343" lon="26.463516">
        <ele>233.278629</ele>
        <time>2019-06-06T11:01:25.000Z</time>
      </trkpt>
      <trkpt lat="50.465340" lon="26.463660">
        <ele>233.189182</ele>
        <time>2019-06-06T11:01:27.000Z</time>
      </trkpt>
      <trkpt lat="50.465340" lon="26.463800">
        <ele>233.102265</ele>
        <time>2019-06-06T11:01:29.000Z</time>
      </trkpt>
      <trkpt lat="50.465343" lon="26.463950">
        <ele>233.009094</ele>
        <time>2019-06-06T11:01:31.000Z</time>
      </trkpt>
      <trkpt lat="50.465355" lon="26.464088">
        <ele>232.922624</ele>
        <time>2019-06-06T11:01:33.000Z</time>
      </trkpt>
      <trkpt lat="50.465370" lon="26.464277">
        <ele>232.804378</ele>
        <time>2019-06-06T11:01:36.000Z</time>
      </trkpt>
      <trkpt lat="50.465380" lon="26.464489">
        <ele>232.813969</ele>
        <time>2019-06-06T11:01:39.000Z</time>
      </trkpt>
      <trkpt lat="50.465380" lon="26.464700">
        <ele>232.828814</ele>
        <time>2019-06-06T11:01:42.000Z</time>
      </trkpt>
      <trkpt lat="50.465378" lon="26.464846">
        <ele>232.839088</ele>
        <time>2019-06-06T11:01:44.000Z</time>
      </trkpt>
      <trkpt lat="50.465374" lon="26.465052">
        <ele>232.853588</ele>
        <time>2019-06-06T11:01:47.000Z</time>
      </trkpt>
      <trkpt lat="50.465360" lon="26.465263">
        <ele>232.868513</ele>
        <time>2019-06-06T11:01:50.000Z</time>
      </trkpt>
      <trkpt lat="50.465350" lon="26.465471">
        <ele>232.883188</ele>
        <time>2019-06-06T11:01:53.000Z</time>
      </trkpt>
      <trkpt lat="50.465347" lon="26.465614">
        <ele>232.893254</ele>
        <time>2019-06-06T11:01:55.000Z</time>
      </trkpt>
      <trkpt lat="50.465340" lon="26.465755">
        <ele>232.903204</ele>
        <time>2019-06-06T11:01:57.000Z</time>
      </trkpt>
      <trkpt lat="50.465336" lon="26.465904">
        <ele>232.913696</ele>
        <time>2019-06-06T11:01:59.000Z</time>
      </trkpt>
      <trkpt lat="50.465317" lon="26.466114">
        <ele>232.928619</ele>
        <time>2019-06-06T11:02:02.000Z</time>
      </trkpt>
      <trkpt lat="50.465305" lon="26.466260">
        <ele>232.938976</ele>
        <time>2019-06-06T11:02:04.000Z</time>
      </trkpt>
      <trkpt lat="50.465290" lon="26.466461">
        <ele>232.953214</ele>
        <time>2019-06-06T11:02:07.000Z</time>
      </trkpt>
      <trkpt lat="50.465280" lon="26.466606">
        <ele>232.963475</ele>
        <time>2019-06-06T11:02:09.000Z</time>
      </trkpt>
      <trkpt lat="50.465260" lon="26.466764">
        <ele>232.974809</ele>
        <time>2019-06-06T11:02:11.000Z</time>
      </trkpt>
      <trkpt lat="50.465237" lon="26.466917">
        <ele>232.985869</ele>
        <time>2019-06-06T11:02:13.000Z</time>
      </trkpt>
      <trkpt lat="50.465195" lon="26.467117">
        <ele>232.968372</ele>
        <time>2019-06-06T11:02:16.000Z</time>
      </trkpt>
      <trkpt lat="50.465183" lon="26.467260">
        <ele>232.837882</ele>
        <time>2019-06-06T11:02:18.000Z</time>
      </trkpt>
      <trkpt lat="50.465183" lon="26.467407">
        <ele>232.704893</ele>
        <time>2019-06-06T11:02:20.000Z</time>
      </trkpt>
      <trkpt lat="50.465187" lon="26.467579">
        <ele>232.549184</ele>
        <time>2019-06-06T11:02:23.000Z</time>
      </trkpt>
      <trkpt lat="50.465200" lon="26.467741">
        <ele>232.401465</ele>
        <time>2019-06-06T11:02:27.000Z</time>
      </trkpt>
      <trkpt lat="50.465187" lon="26.467918">
        <ele>232.240273</ele>
        <time>2019-06-06T11:02:30.000Z</time>
      </trkpt>
      <trkpt lat="50.465168" lon="26.468096">
        <ele>232.076991</ele>
        <time>2019-06-06T11:02:33.000Z</time>
      </trkpt>
      <trkpt lat="50.465137" lon="26.468273">
        <ele>231.910911</ele>
        <time>2019-06-06T11:02:36.000Z</time>
      </trkpt>
      <trkpt lat="50.465090" lon="26.468426">
        <ele>231.757218</ele>
        <time>2019-06-06T11:02:39.000Z</time>
      </trkpt>
      <trkpt lat="50.465065" lon="26.468596">
        <ele>231.599371</ele>
        <time>2019-06-06T11:02:42.000Z</time>
      </trkpt>
      <trkpt lat="50.465015" lon="26.468777">
        <ele>231.420867</ele>
        <time>2019-06-06T11:02:45.000Z</time>
      </trkpt>
      <trkpt lat="50.464966" lon="26.468966">
        <ele>231.236243</ele>
        <time>2019-06-06T11:02:48.000Z</time>
      </trkpt>
      <trkpt lat="50.464924" lon="26.469149">
        <ele>231.060252</ele>
        <time>2019-06-06T11:02:51.000Z</time>
      </trkpt>
      <trkpt lat="50.464878" lon="26.469334">
        <ele>230.880569</ele>
        <time>2019-06-06T11:02:54.000Z</time>
      </trkpt>
      <trkpt lat="50.464832" lon="26.469507">
        <ele>230.710952</ele>
        <time>2019-06-06T11:02:57.000Z</time>
      </trkpt>
      <trkpt lat="50.464783" lon="26.469679">
        <ele>230.540472</ele>
        <time>2019-06-06T11:03:00.000Z</time>
      </trkpt>
      <trkpt lat="50.464725" lon="26.469845">
        <ele>230.394630</ele>
        <time>2019-06-06T11:03:03.000Z</time>
      </trkpt>
      <trkpt lat="50.464684" lon="26.469970">
        <ele>230.311869</ele>
        <time>2019-06-06T11:03:05.000Z</time>
      </trkpt>
      <trkpt lat="50.464626" lon="26.470150">
        <ele>230.193131</ele>
        <time>2019-06-06T11:03:08.000Z</time>
      </trkpt>
      <trkpt lat="50.464560" lon="26.470335">
        <ele>230.068315</ele>
        <time>2019-06-06T11:03:11.000Z</time>
      </trkpt>
      <trkpt lat="50.464508" lon="26.470510">
        <ele>229.954650</ele>
        <time>2019-06-06T11:03:14.000Z</time>
      </trkpt>
      <trkpt lat="50.464450" lon="26.470701">
        <ele>229.830101</ele>
        <time>2019-06-06T11:03:17.000Z</time>
      </trkpt>
      <trkpt lat="50.464386" lon="26.470877">
        <ele>229.710806</ele>
        <time>2019-06-06T11:03:20.000Z</time>
      </trkpt>
      <trkpt lat="50.464325" lon="26.471058">
        <ele>229.590269</ele>
        <time>2019-06-06T11:03:23.000Z</time>
      </trkpt>
      <trkpt lat="50.464264" lon="26.471228">
        <ele>229.475413</ele>
        <time>2019-06-06T11:03:26.000Z</time>
      </trkpt>
      <trkpt lat="50.464210" lon="26.471401">
        <ele>229.362011</ele>
        <time>2019-06-06T11:03:29.000Z</time>
      </trkpt>
      <trkpt lat="50.464160" lon="26.471546">
        <ele>229.264954</ele>
        <time>2019-06-06T11:03:32.000Z</time>
      </trkpt>
      <trkpt lat="50.464096" lon="26.471712">
        <ele>229.150731</ele>
        <time>2019-06-06T11:03:36.000Z</time>
      </trkpt>
      <trkpt lat="50.464050" lon="26.471850">
        <ele>229.059048</ele>
        <time>2019-06-06T11:03:39.000Z</time>
      </trkpt>
      <trkpt lat="50.464010" lon="26.472004">
        <ele>228.961156</ele>
        <time>2019-06-06T11:03:42.000Z</time>
      </trkpt>
      <trkpt lat="50.463955" lon="26.472162">
        <ele>228.855168</ele>
        <time>2019-06-06T11:03:45.000Z</time>
      </trkpt>
      <trkpt lat="50.463886" lon="26.472307">
        <ele>228.754709</ele>
        <time>2019-06-06T11:03:48.000Z</time>
      </trkpt>
      <trkpt lat="50.463837" lon="26.472443">
        <ele>228.681145</ele>
        <time>2019-06-06T11:03:51.000Z</time>
      </trkpt>
      <trkpt lat="50.463790" lon="26.472578">
        <ele>228.608711</ele>
        <time>2019-06-06T11:03:54.000Z</time>
      </trkpt>
      <trkpt lat="50.463750" lon="26.472702">
        <ele>228.543272</ele>
        <time>2019-06-06T11:03:57.000Z</time>
      </trkpt>
      <trkpt lat="50.463700" lon="26.472858">
        <ele>228.461053</ele>
        <time>2019-06-06T11:04:02.000Z</time>
      </trkpt>
      <trkpt lat="50.463654" lon="26.473003">
        <ele>228.384788</ele>
        <time>2019-06-06T11:04:06.000Z</time>
      </trkpt>
      <trkpt lat="50.463600" lon="26.473152">
        <ele>228.304077</ele>
        <time>2019-06-06T11:04:10.000Z</time>
      </trkpt>
      <trkpt lat="50.463554" lon="26.473284">
        <ele>228.233236</ele>
        <time>2019-06-06T11:04:14.000Z</time>
      </trkpt>
      <trkpt lat="50.463500" lon="26.473429">
        <ele>228.154155</ele>
        <time>2019-06-06T11:04:19.000Z</time>
      </trkpt>
      <trkpt lat="50.463450" lon="26.473581">
        <ele>228.073613</ele>
        <time>2019-06-06T11:04:23.000Z</time>
      </trkpt>
      <trkpt lat="50.463390" lon="26.473730">
        <ele>227.990616</ele>
        <time>2019-06-06T11:04:27.000Z</time>
      </trkpt>
      <trkpt lat="50.463350" lon="26.473877">
        <ele>227.915359</ele>
        <time>2019-06-06T11:04:30.000Z</time>
      </trkpt>
      <trkpt lat="50.463290" lon="26.474030">
        <ele>227.830765</ele>
        <time>2019-06-06T11:04:33.000Z</time>
      </trkpt>
      <trkpt lat="50.463240" lon="26.474192">
        <ele>227.746013</ele>
        <time>2019-06-06T11:04:36.000Z</time>
      </trkpt>
      <trkpt lat="50.463190" lon="26.474358">
        <ele>227.659562</ele>
        <time>2019-06-06T11:04:39.000Z</time>
      </trkpt>
      <trkpt lat="50.463140" lon="26.474525">
        <ele>227.572686</ele>
        <time>2019-06-06T11:04:42.000Z</time>
      </trkpt>
      <trkpt lat="50.463085" lon="26.474672">
        <ele>227.492418</ele>
        <time>2019-06-06T11:04:45.000Z</time>
      </trkpt>
      <trkpt lat="50.463020" lon="26.474827">
        <ele>227.451069</ele>
        <time>2019-06-06T11:04:48.000Z</time>
      </trkpt>
      <trkpt lat="50.462960" lon="26.474974">
        <ele>227.455038</ele>
        <time>2019-06-06T11:04:51.000Z</time>
      </trkpt>
      <trkpt lat="50.462914" lon="26.475147">
        <ele>227.459300</ele>
        <time>2019-06-06T11:04:54.000Z</time>
      </trkpt>
      <trkpt lat="50.462852" lon="26.475313">
        <ele>227.463674</ele>
        <time>2019-06-06T11:04:57.000Z</time>
      </trkpt>
      <trkpt lat="50.462788" lon="26.475492">
        <ele>227.468341</ele>
        <time>2019-06-06T11:05:00.000Z</time>
      </trkpt>
      <trkpt lat="50.462740" lon="26.475616">
        <ele>227.471639</ele>
        <time>2019-06-06T11:05:02.000Z</time>
      </trkpt>
      <trkpt lat="50.462680" lon="26.475798">
        <ele>227.476298</ele>
        <time>2019-06-06T11:05:05.000Z</time>
      </trkpt>
      <trkpt lat="50.462612" lon="26.475979">
        <ele>227.481075</ele>
        <time>2019-06-06T11:05:08.000Z</time>
      </trkpt>
      <trkpt lat="50.462555" lon="26.476160">
        <ele>227.485665</ele>
        <time>2019-06-06T11:05:11.000Z</time>
      </trkpt>
      <trkpt lat="50.462505" lon="26.476334">
        <ele>227.490004</ele>
        <time>2019-06-06T11:05:14.000Z</time>
      </trkpt>
      <trkpt lat="50.462444" lon="26.476475">
        <ele>227.493879</ele>
        <time>2019-06-06T11:05:17.000Z</time>
      </trkpt>
      <trkpt lat="50.462376" lon="26.476578">
        <ele>227.497252</ele>
        <time>2019-06-06T11:05:20.000Z</time>
      </trkpt>
      <trkpt lat="50.462290" lon="26.476696">
        <ele>227.501329</ele>
        <time>2019-06-06T11:05:23.000Z</time>
      </trkpt>
      <trkpt lat="50.462208" lon="26.476800">
        <ele>227.505092</ele>
        <time>2019-06-06T11:05:26.000Z</time>
      </trkpt>
      <trkpt lat="50.462116" lon="26.476904">
        <ele>227.509139</ele>
        <time>2019-06-06T11:05:29.000Z</time>
      </trkpt>
      <trkpt lat="50.462025" lon="26.477003">
        <ele>227.513092</ele>
        <time>2019-06-06T11:05:32.000Z</time>
      </trkpt>
      <trkpt lat="50.461933" lon="26.477114">
        <ele>227.526181</ele>
        <time>2019-06-06T11:05:35.000Z</time>
      </trkpt>
      <trkpt lat="50.461850" lon="26.477222">
        <ele>227.538504</ele>
        <time>2019-06-06T11:05:38.000Z</time>
      </trkpt>
      <trkpt lat="50.461758" lon="26.477339">
        <ele>227.552038</ele>
        <time>2019-06-06T11:05:41.000Z</time>
      </trkpt>
      <trkpt lat="50.461647" lon="26.477505">
        <ele>227.569562</ele>
        <time>2019-06-06T11:05:45.000Z</time>
      </trkpt>
      <trkpt lat="50.461570" lon="26.477636">
        <ele>227.582540</ele>
        <time>2019-06-06T11:05:47.000Z</time>
      </trkpt>
      <trkpt lat="50.461502" lon="26.477780">
        <ele>227.595590</ele>
        <time>2019-06-06T11:05:50.000Z</time>
      </trkpt>
      <trkpt lat="50.461450" lon="26.477940">
        <ele>227.608666</ele>
        <time>2019-06-06T11:05:53.000Z</time>
      </trkpt>
      <trkpt lat="50.461390" lon="26.478086">
        <ele>227.621315</ele>
        <time>2019-06-06T11:05:57.000Z</time>
      </trkpt>
      <trkpt lat="50.461323" lon="26.478228">
        <ele>227.634181</ele>
        <time>2019-06-06T11:06:00.000Z</time>
      </trkpt>
      <trkpt lat="50.461273" lon="26.478401">
        <ele>227.648010</ele>
        <time>2019-06-06T11:06:03.000Z</time>
      </trkpt>
      <trkpt lat="50.461227" lon="26.478563">
        <ele>227.660922</ele>
        <time>2019-06-06T11:06:06.000Z</time>
      </trkpt>
      <trkpt lat="50.461193" lon="26.478724">
        <ele>227.673269</ele>
        <time>2019-06-06T11:06:09.000Z</time>
      </trkpt>
      <trkpt lat="50.461197" lon="26.478900">
        <ele>227.686088</ele>
        <time>2019-06-06T11:06:12.000Z</time>
      </trkpt>
      <trkpt lat="50.461147" lon="26.479038">
        <ele>227.697646</ele>
        <time>2019-06-06T11:06:15.000Z</time>
      </trkpt>
      <trkpt lat="50.461060" lon="26.479090">
        <ele>227.708289</ele>
        <time>2019-06-06T11:06:18.000Z</time>
      </trkpt>
      <trkpt lat="50.460964" lon="26.479110">
        <ele>227.723676</ele>
        <time>2019-06-06T11:06:22.000Z</time>
      </trkpt>
      <trkpt lat="50.460873" lon="26.479116">
        <ele>227.818195</ele>
        <time>2019-06-06T11:06:25.000Z</time>
      </trkpt>
      <trkpt lat="50.460777" lon="26.479110">
        <ele>227.917899</ele>
        <time>2019-06-06T11:06:28.000Z</time>
      </trkpt>
      <trkpt lat="50.460682" lon="26.479101">
        <ele>228.016666</ele>
        <time>2019-06-06T11:06:31.000Z</time>
      </trkpt>
      <trkpt lat="50.460580" lon="26.479097">
        <ele>228.122550</ele>
        <time>2019-06-06T11:06:34.000Z</time>
      </trkpt>
      <trkpt lat="50.460487" lon="26.479095">
        <ele>228.219071</ele>
        <time>2019-06-06T11:06:37.000Z</time>
      </trkpt>
      <trkpt lat="50.460384" lon="26.479100">
        <ele>228.326011</ele>
        <time>2019-06-06T11:06:40.000Z</time>
      </trkpt>
      <trkpt lat="50.460285" lon="26.479065">
        <ele>228.431320</ele>
        <time>2019-06-06T11:06:45.000Z</time>
      </trkpt>
      <trkpt lat="50.460190" lon="26.479073">
        <ele>228.530048</ele>
        <time>2019-06-06T11:06:48.000Z</time>
      </trkpt>
      <trkpt lat="50.460087" lon="26.479061">
        <ele>228.637231</ele>
        <time>2019-06-06T11:06:51.000Z</time>
      </trkpt>
      <trkpt lat="50.459984" lon="26.479046">
        <ele>228.744579</ele>
        <time>2019-06-06T11:06:54.000Z</time>
      </trkpt>
      <trkpt lat="50.459870" lon="26.479042">
        <ele>228.862913</ele>
        <time>2019-06-06T11:06:57.000Z</time>
      </trkpt>
      <trkpt lat="50.459747" lon="26.479029">
        <ele>228.990846</ele>
        <time>2019-06-06T11:07:00.000Z</time>
      </trkpt>
      <trkpt lat="50.459633" lon="26.479008">
        <ele>229.109962</ele>
        <time>2019-06-06T11:07:03.000Z</time>
      </trkpt>
      <trkpt lat="50.459522" lon="26.479013">
        <ele>229.225201</ele>
        <time>2019-06-06T11:07:06.000Z</time>
      </trkpt>
      <trkpt lat="50.459404" lon="26.479012">
        <ele>229.347658</ele>
        <time>2019-06-06T11:07:09.000Z</time>
      </trkpt>
      <trkpt lat="50.459282" lon="26.478994">
        <ele>229.474822</ele>
        <time>2019-06-06T11:07:12.000Z</time>
      </trkpt>
      <trkpt lat="50.459170" lon="26.478971">
        <ele>229.592807</ele>
        <time>2019-06-06T11:07:15.000Z</time>
      </trkpt>
      <trkpt lat="50.459057" lon="26.478950">
        <ele>229.724502</ele>
        <time>2019-06-06T11:07:18.000Z</time>
      </trkpt>
      <trkpt lat="50.458940" lon="26.478958">
        <ele>229.860041</ele>
        <time>2019-06-06T11:07:21.000Z</time>
      </trkpt>
      <trkpt lat="50.458820" lon="26.478931">
        <ele>230.000343</ele>
        <time>2019-06-06T11:07:24.000Z</time>
      </trkpt>
      <trkpt lat="50.458668" lon="26.478922">
        <ele>230.176387</ele>
        <time>2019-06-06T11:07:28.000Z</time>
      </trkpt>
      <trkpt lat="50.458570" lon="26.478907">
        <ele>230.290346</ele>
        <time>2019-06-06T11:07:31.000Z</time>
      </trkpt>
      <trkpt lat="50.458473" lon="26.478895">
        <ele>230.402958</ele>
        <time>2019-06-06T11:07:34.000Z</time>
      </trkpt>
      <trkpt lat="50.458378" lon="26.478874">
        <ele>230.513991</ele>
        <time>2019-06-06T11:07:37.000Z</time>
      </trkpt>
      <trkpt lat="50.458280" lon="26.478868">
        <ele>230.627498</ele>
        <time>2019-06-06T11:07:40.000Z</time>
      </trkpt>
      <trkpt lat="50.458176" lon="26.478876">
        <ele>230.748009</ele>
        <time>2019-06-06T11:07:43.000Z</time>
      </trkpt>
      <trkpt lat="50.458076" lon="26.478882">
        <ele>230.863829</ele>
        <time>2019-06-06T11:07:46.000Z</time>
      </trkpt>
      <trkpt lat="50.457980" lon="26.478903">
        <ele>230.976008</ele>
        <time>2019-06-06T11:07:49.000Z</time>
      </trkpt>
      <trkpt lat="50.457886" lon="26.478935">
        <ele>231.087326</ele>
        <time>2019-06-06T11:07:52.000Z</time>
      </trkpt>
      <trkpt lat="50.457783" lon="26.478971">
        <ele>231.209451</ele>
        <time>2019-06-06T11:07:55.000Z</time>
      </trkpt>
      <trkpt lat="50.457660" lon="26.479000">
        <ele>231.353401</ele>
        <time>2019-06-06T11:07:58.000Z</time>
      </trkpt>
      <trkpt lat="50.457558" lon="26.479030">
        <ele>231.473504</ele>
        <time>2019-06-06T11:08:01.000Z</time>
      </trkpt>
      <trkpt lat="50.457455" lon="26.479076">
        <ele>231.597437</ele>
        <time>2019-06-06T11:08:04.000Z</time>
      </trkpt>
      <trkpt lat="50.457336" lon="26.479118">
        <ele>231.696187</ele>
        <time>2019-06-06T11:08:07.000Z</time>
      </trkpt>
      <trkpt lat="50.457233" lon="26.479162">
        <ele>231.746472</ele>
        <time>2019-06-06T11:08:10.000Z</time>
      </trkpt>
      <trkpt lat="50.457127" lon="26.479204">
        <ele>231.797973</ele>
        <time>2019-06-06T11:08:13.000Z</time>
      </trkpt>
      <trkpt lat="50.457024" lon="26.479239">
        <ele>231.847619</ele>
        <time>2019-06-06T11:08:16.000Z</time>
      </trkpt>
      <trkpt lat="50.456924" lon="26.479273">
        <ele>231.895820</ele>
        <time>2019-06-06T11:08:19.000Z</time>
      </trkpt>
      <trkpt lat="50.456830" lon="26.479307">
        <ele>231.941262</ele>
        <time>2019-06-06T11:08:22.000Z</time>
      </trkpt>
      <trkpt lat="50.456738" lon="26.479345">
        <ele>231.986076</ele>
        <time>2019-06-06T11:08:25.000Z</time>
      </trkpt>
      <trkpt lat="50.456646" lon="26.479404">
        <ele>232.032891</ele>
        <time>2019-06-06T11:08:28.000Z</time>
      </trkpt>
      <trkpt lat="50.456550" lon="26.479445">
        <ele>232.079758</ele>
        <time>2019-06-06T11:08:31.000Z</time>
      </trkpt>
      <trkpt lat="50.456455" lon="26.479448">
        <ele>232.124521</ele>
        <time>2019-06-06T11:08:34.000Z</time>
      </trkpt>
      <trkpt lat="50.456360" lon="26.479486">
        <ele>232.170704</ele>
        <time>2019-06-06T11:08:37.000Z</time>
      </trkpt>
      <trkpt lat="50.456260" lon="26.479538">
        <ele>232.220329</ele>
        <time>2019-06-06T11:08:40.000Z</time>
      </trkpt>
      <trkpt lat="50.456160" lon="26.479582">
        <ele>232.269252</ele>
        <time>2019-06-06T11:08:42.000Z</time>
      </trkpt>
      <trkpt lat="50.456066" lon="26.479640">
        <ele>232.316830</ele>
        <time>2019-06-06T11:08:46.000Z</time>
      </trkpt>
      <trkpt lat="50.455970" lon="26.479685">
        <ele>232.364026</ele>
        <time>2019-06-06T11:08:49.000Z</time>
      </trkpt>
      <trkpt lat="50.455883" lon="26.479750">
        <ele>232.409412</ele>
        <time>2019-06-06T11:08:52.000Z</time>
      </trkpt>
      <trkpt lat="50.455780" lon="26.479792">
        <ele>232.459544</ele>
        <time>2019-06-06T11:08:55.000Z</time>
      </trkpt>
      <trkpt lat="50.455677" lon="26.479834">
        <ele>232.509675</ele>
        <time>2019-06-06T11:08:58.000Z</time>
      </trkpt>
      <trkpt lat="50.455574" lon="26.479866">
        <ele>232.553705</ele>
        <time>2019-06-06T11:09:01.000Z</time>
      </trkpt>
      <trkpt lat="50.455456" lon="26.479898">
        <ele>232.603265</ele>
        <time>2019-06-06T11:09:04.000Z</time>
      </trkpt>
      <trkpt lat="50.455340" lon="26.479935">
        <ele>232.652254</ele>
        <time>2019-06-06T11:09:07.000Z</time>
      </trkpt>
      <trkpt lat="50.455240" lon="26.479970">
        <ele>232.694657</ele>
        <time>2019-06-06T11:09:10.000Z</time>
      </trkpt>
      <trkpt lat="50.455143" lon="26.480019">
        <ele>232.736827</ele>
        <time>2019-06-06T11:09:13.000Z</time>
      </trkpt>
      <trkpt lat="50.455044" lon="26.480045">
        <ele>232.778370</ele>
        <time>2019-06-06T11:09:16.000Z</time>
      </trkpt>
      <trkpt lat="50.454950" lon="26.480068">
        <ele>232.817743</ele>
        <time>2019-06-06T11:09:19.000Z</time>
      </trkpt>
      <trkpt lat="50.454853" lon="26.480116">
        <ele>232.859834</ele>
        <time>2019-06-06T11:09:22.000Z</time>
      </trkpt>
      <trkpt lat="50.454765" lon="26.480160">
        <ele>232.898056</ele>
        <time>2019-06-06T11:09:25.000Z</time>
      </trkpt>
      <trkpt lat="50.454650" lon="26.480192">
        <ele>232.946392</ele>
        <time>2019-06-06T11:09:28.000Z</time>
      </trkpt>
      <trkpt lat="50.454550" lon="26.480238">
        <ele>232.989518</ele>
        <time>2019-06-06T11:09:31.000Z</time>
      </trkpt>
      <trkpt lat="50.454450" lon="26.480288">
        <ele>233.032952</ele>
        <time>2019-06-06T11:09:34.000Z</time>
      </trkpt>
      <trkpt lat="50.454340" lon="26.480309">
        <ele>233.078813</ele>
        <time>2019-06-06T11:09:37.000Z</time>
      </trkpt>
      <trkpt lat="50.454240" lon="26.480343">
        <ele>233.121159</ele>
        <time>2019-06-06T11:09:40.000Z</time>
      </trkpt>
      <trkpt lat="50.454144" lon="26.480390">
        <ele>233.162776</ele>
        <time>2019-06-06T11:09:43.000Z</time>
      </trkpt>
      <trkpt lat="50.454052" lon="26.480425">
        <ele>233.201953</ele>
        <time>2019-06-06T11:09:46.000Z</time>
      </trkpt>
      <trkpt lat="50.453960" lon="26.480474">
        <ele>233.242159</ele>
        <time>2019-06-06T11:09:49.000Z</time>
      </trkpt>
      <trkpt lat="50.453857" lon="26.480524">
        <ele>233.347687</ele>
        <time>2019-06-06T11:09:52.000Z</time>
      </trkpt>
      <trkpt lat="50.453770" lon="26.480568">
        <ele>233.467924</ele>
        <time>2019-06-06T11:09:55.000Z</time>
      </trkpt>
      <trkpt lat="50.453670" lon="26.480600">
        <ele>233.602178</ele>
        <time>2019-06-06T11:09:58.000Z</time>
      </trkpt>
      <trkpt lat="50.453564" lon="26.480637">
        <ele>233.745024</ele>
        <time>2019-06-06T11:10:01.000Z</time>
      </trkpt>
      <trkpt lat="50.453460" lon="26.480684">
        <ele>233.887388</ele>
        <time>2019-06-06T11:10:04.000Z</time>
      </trkpt>
      <trkpt lat="50.453377" lon="26.480734">
        <ele>234.004332</ele>
        <time>2019-06-06T11:10:07.000Z</time>
      </trkpt>
      <trkpt lat="50.453280" lon="26.480764">
        <ele>234.134387</ele>
        <time>2019-06-06T11:10:10.000Z</time>
      </trkpt>
      <trkpt lat="50.453182" lon="26.480795">
        <ele>234.265895</ele>
        <time>2019-06-06T11:10:13.000Z</time>
      </trkpt>
      <trkpt lat="50.453087" lon="26.480844">
        <ele>234.397436</ele>
        <time>2019-06-06T11:10:16.000Z</time>
      </trkpt>
      <trkpt lat="50.452988" lon="26.480875">
        <ele>234.530234</ele>
        <time>2019-06-06T11:10:19.000Z</time>
      </trkpt>
      <trkpt lat="50.452896" lon="26.480911">
        <ele>234.654961</ele>
        <time>2019-06-06T11:10:22.000Z</time>
      </trkpt>
      <trkpt lat="50.452797" lon="26.480950">
        <ele>234.789231</ele>
        <time>2019-06-06T11:10:25.000Z</time>
      </trkpt>
      <trkpt lat="50.452694" lon="26.480991">
        <ele>234.929013</ele>
        <time>2019-06-06T11:10:28.000Z</time>
      </trkpt>
      <trkpt lat="50.452595" lon="26.481031">
        <ele>235.063489</ele>
        <time>2019-06-06T11:10:31.000Z</time>
      </trkpt>
      <trkpt lat="50.452496" lon="26.481066">
        <ele>235.196983</ele>
        <time>2019-06-06T11:10:34.000Z</time>
      </trkpt>
      <trkpt lat="50.452396" lon="26.481092">
        <ele>235.330324</ele>
        <time>2019-06-06T11:10:37.000Z</time>
      </trkpt>
      <trkpt lat="50.452297" lon="26.481125">
        <ele>235.463461</ele>
        <time>2019-06-06T11:10:40.000Z</time>
      </trkpt>
      <trkpt lat="50.452206" lon="26.481153">
        <ele>235.585448</ele>
        <time>2019-06-06T11:10:43.000Z</time>
      </trkpt>
      <trkpt lat="50.452118" lon="26.481188">
        <ele>235.683490</ele>
        <time>2019-06-06T11:10:46.000Z</time>
      </trkpt>
      <trkpt lat="50.452010" lon="26.481234">
        <ele>235.791318</ele>
        <time>2019-06-06T11:10:49.000Z</time>
      </trkpt>
      <trkpt lat="50.451900" lon="26.481281">
        <ele>235.901167</ele>
        <time>2019-06-06T11:10:52.000Z</time>
      </trkpt>
      <trkpt lat="50.451797" lon="26.481327">
        <ele>236.004353</ele>
        <time>2019-06-06T11:10:55.000Z</time>
      </trkpt>
      <trkpt lat="50.451690" lon="26.481358">
        <ele>236.109198</ele>
        <time>2019-06-06T11:10:58.000Z</time>
      </trkpt>
      <trkpt lat="50.451588" lon="26.481400">
        <ele>236.210808</ele>
        <time>2019-06-06T11:11:01.000Z</time>
      </trkpt>
      <trkpt lat="50.451490" lon="26.481447">
        <ele>236.309546</ele>
        <time>2019-06-06T11:11:04.000Z</time>
      </trkpt>
      <trkpt lat="50.451390" lon="26.481490">
        <ele>236.409452</ele>
        <time>2019-06-06T11:11:07.000Z</time>
      </trkpt>
      <trkpt lat="50.451298" lon="26.481539">
        <ele>236.503063</ele>
        <time>2019-06-06T11:11:10.000Z</time>
      </trkpt>
      <trkpt lat="50.451187" lon="26.481606">
        <ele>236.617651</ele>
        <time>2019-06-06T11:11:14.000Z</time>
      </trkpt>
      <trkpt lat="50.451077" lon="26.481667">
        <ele>236.730061</ele>
        <time>2019-06-06T11:11:18.000Z</time>
      </trkpt>
      <trkpt lat="50.450970" lon="26.481724">
        <ele>236.838936</ele>
        <time>2019-06-06T11:11:22.000Z</time>
      </trkpt>
      <trkpt lat="50.450890" lon="26.481802">
        <ele>236.929672</ele>
        <time>2019-06-06T11:11:25.000Z</time>
      </trkpt>
      <trkpt lat="50.450790" lon="26.481846">
        <ele>237.029743</ele>
        <time>2019-06-06T11:11:28.000Z</time>
      </trkpt>
      <trkpt lat="50.450695" lon="26.481886">
        <ele>237.124518</ele>
        <time>2019-06-06T11:11:31.000Z</time>
      </trkpt>
      <trkpt lat="50.450590" lon="26.481915">
        <ele>237.227249</ele>
        <time>2019-06-06T11:11:34.000Z</time>
      </trkpt>
      <trkpt lat="50.450474" lon="26.481960">
        <ele>237.342387</ele>
        <time>2019-06-06T11:11:37.000Z</time>
      </trkpt>
      <trkpt lat="50.450380" lon="26.482002">
        <ele>237.433150</ele>
        <time>2019-06-06T11:11:40.000Z</time>
      </trkpt>
      <trkpt lat="50.450283" lon="26.482050">
        <ele>237.526888</ele>
        <time>2019-06-06T11:11:43.000Z</time>
      </trkpt>
      <trkpt lat="50.450176" lon="26.482105">
        <ele>237.630658</ele>
        <time>2019-06-06T11:11:46.000Z</time>
      </trkpt>
      <trkpt lat="50.450073" lon="26.482140">
        <ele>237.727790</ele>
        <time>2019-06-06T11:11:49.000Z</time>
      </trkpt>
      <trkpt lat="50.449970" lon="26.482141">
        <ele>237.822728</ele>
        <time>2019-06-06T11:11:52.000Z</time>
      </trkpt>
      <trkpt lat="50.449867" lon="26.482160">
        <ele>237.918316</ele>
        <time>2019-06-06T11:11:55.000Z</time>
      </trkpt>
      <trkpt lat="50.449764" lon="26.482170">
        <ele>238.013432</ele>
        <time>2019-06-06T11:11:58.000Z</time>
      </trkpt>
      <trkpt lat="50.449670" lon="26.482172">
        <ele>238.100080</ele>
        <time>2019-06-06T11:12:01.000Z</time>
      </trkpt>
      <trkpt lat="50.449570" lon="26.482220">
        <ele>238.196459</ele>
        <time>2019-06-06T11:12:04.000Z</time>
      </trkpt>
      <trkpt lat="50.449463" lon="26.482248">
        <ele>238.296441</ele>
        <time>2019-06-06T11:12:07.000Z</time>
      </trkpt>
      <trkpt lat="50.449360" lon="26.482296">
        <ele>238.395468</ele>
        <time>2019-06-06T11:12:10.000Z</time>
      </trkpt>
      <trkpt lat="50.449257" lon="26.482386">
        <ele>238.504109</ele>
        <time>2019-06-06T11:12:13.000Z</time>
      </trkpt>
      <trkpt lat="50.449170" lon="26.482418">
        <ele>238.586467</ele>
        <time>2019-06-06T11:12:16.000Z</time>
      </trkpt>
      <trkpt lat="50.449074" lon="26.482424">
        <ele>238.675021</ele>
        <time>2019-06-06T11:12:19.000Z</time>
      </trkpt>
      <trkpt lat="50.448975" lon="26.482449">
        <ele>238.767441</ele>
        <time>2019-06-06T11:12:22.000Z</time>
      </trkpt>
      <trkpt lat="50.448870" lon="26.482489">
        <ele>238.867027</ele>
        <time>2019-06-06T11:12:25.000Z</time>
      </trkpt>
      <trkpt lat="50.448770" lon="26.482508">
        <ele>238.959869</ele>
        <time>2019-06-06T11:12:28.000Z</time>
      </trkpt>
      <trkpt lat="50.448666" lon="26.482527">
        <ele>239.044021</ele>
        <time>2019-06-06T11:12:31.000Z</time>
      </trkpt>
      <trkpt lat="50.448570" lon="26.482550">
        <ele>239.106182</ele>
        <time>2019-06-06T11:12:34.000Z</time>
      </trkpt>
      <trkpt lat="50.448470" lon="26.482578">
        <ele>239.171202</ele>
        <time>2019-06-06T11:12:37.000Z</time>
      </trkpt>
      <trkpt lat="50.448350" lon="26.482603">
        <ele>239.248687</ele>
        <time>2019-06-06T11:12:41.000Z</time>
      </trkpt>
      <trkpt lat="50.448257" lon="26.482628">
        <ele>239.309082</ele>
        <time>2019-06-06T11:12:44.000Z</time>
      </trkpt>
      <trkpt lat="50.448150" lon="26.482672">
        <ele>239.379882</ele>
        <time>2019-06-06T11:12:48.000Z</time>
      </trkpt>
      <trkpt lat="50.448050" lon="26.482695">
        <ele>239.444575</ele>
        <time>2019-06-06T11:12:52.000Z</time>
      </trkpt>
      <trkpt lat="50.447964" lon="26.482704">
        <ele>239.499746</ele>
        <time>2019-06-06T11:12:55.000Z</time>
      </trkpt>
      <trkpt lat="50.447845" lon="26.482735">
        <ele>239.576959</ele>
        <time>2019-06-06T11:12:59.000Z</time>
      </trkpt>
      <trkpt lat="50.447758" lon="26.482763">
        <ele>239.633805</ele>
        <time>2019-06-06T11:13:02.000Z</time>
      </trkpt>
      <trkpt lat="50.447666" lon="26.482796">
        <ele>239.694211</ele>
        <time>2019-06-06T11:13:05.000Z</time>
      </trkpt>
      <trkpt lat="50.447570" lon="26.482813">
        <ele>239.756050</ele>
        <time>2019-06-06T11:13:08.000Z</time>
      </trkpt>
      <trkpt lat="50.447475" lon="26.482828">
        <ele>239.817166</ele>
        <time>2019-06-06T11:13:11.000Z</time>
      </trkpt>
      <trkpt lat="50.447380" lon="26.482851">
        <ele>239.878694</ele>
        <time>2019-06-06T11:13:15.000Z</time>
      </trkpt>
      <trkpt lat="50.447277" lon="26.482883">
        <ele>239.945903</ele>
        <time>2019-06-06T11:13:19.000Z</time>
      </trkpt>
      <trkpt lat="50.447190" lon="26.482924">
        <ele>240.004045</ele>
        <time>2019-06-06T11:13:22.000Z</time>
      </trkpt>
      <trkpt lat="50.447083" lon="26.482988">
        <ele>240.077336</ele>
        <time>2019-06-06T11:13:26.000Z</time>
      </trkpt>
      <trkpt lat="50.446968" lon="26.483019">
        <ele>240.152024</ele>
        <time>2019-06-06T11:13:30.000Z</time>
      </trkpt>
      <trkpt lat="50.446880" lon="26.483072">
        <ele>240.116006</ele>
        <time>2019-06-06T11:13:33.000Z</time>
      </trkpt>
      <trkpt lat="50.446770" lon="26.483133">
        <ele>240.031136</ele>
        <time>2019-06-06T11:13:37.000Z</time>
      </trkpt>
      <trkpt lat="50.446680" lon="26.483204">
        <ele>239.957863</ele>
        <time>2019-06-06T11:13:41.000Z</time>
      </trkpt>
      <trkpt lat="50.446594" lon="26.483292">
        <ele>239.883186</ele>
        <time>2019-06-06T11:13:45.000Z</time>
      </trkpt>
      <trkpt lat="50.446518" lon="26.483416">
        <ele>239.803454</ele>
        <time>2019-06-06T11:13:49.000Z</time>
      </trkpt>
      <trkpt lat="50.446434" lon="26.483540">
        <ele>239.719581</ele>
        <time>2019-06-06T11:13:53.000Z</time>
      </trkpt>
      <trkpt lat="50.446360" lon="26.483646">
        <ele>239.646712</ele>
        <time>2019-06-06T11:13:56.000Z</time>
      </trkpt>
      <trkpt lat="50.446293" lon="26.483742">
        <ele>239.580728</ele>
        <time>2019-06-06T11:13:59.000Z</time>
      </trkpt>
      <trkpt lat="50.446220" lon="26.483847">
        <ele>239.508708</ele>
        <time>2019-06-06T11:14:02.000Z</time>
      </trkpt>
      <trkpt lat="50.446156" lon="26.483950">
        <ele>239.442038</ele>
        <time>2019-06-06T11:14:05.000Z</time>
      </trkpt>
      <trkpt lat="50.446083" lon="26.484089">
        <ele>239.358567</ele>
        <time>2019-06-06T11:14:09.000Z</time>
      </trkpt>
      <trkpt lat="50.446020" lon="26.484238">
        <ele>239.275707</ele>
        <time>2019-06-06T11:14:13.000Z</time>
      </trkpt>
      <trkpt lat="50.445920" lon="26.484268">
        <ele>239.201640</ele>
        <time>2019-06-06T11:14:18.000Z</time>
      </trkpt>
      <trkpt lat="50.445847" lon="26.484367">
        <ele>239.131468</ele>
        <time>2019-06-06T11:14:23.000Z</time>
      </trkpt>
      <trkpt lat="50.445778" lon="26.484478">
        <ele>239.059604</ele>
        <time>2019-06-06T11:14:28.000Z</time>
      </trkpt>
      <trkpt lat="50.445700" lon="26.484581">
        <ele>238.985461</ele>
        <time>2019-06-06T11:15:24.000Z</time>
      </trkpt>
      <trkpt lat="50.445610" lon="26.484646">
        <ele>238.913392</ele>
        <time>2019-06-06T11:15:30.000Z</time>
      </trkpt>
      <trkpt lat="50.445545" lon="26.484537">
        <ele>238.863495</ele>
        <time>2019-06-06T11:15:36.000Z</time>
      </trkpt>
      <trkpt lat="50.445454" lon="26.484592">
        <ele>238.886823</ele>
        <time>2019-06-06T11:15:53.000Z</time>
      </trkpt>
      <trkpt lat="50.445550" lon="26.484703">
        <ele>238.915345</ele>
        <time>2019-06-06T11:19:48.000Z</time>
      </trkpt>
      <trkpt lat="50.445526" lon="26.484556">
        <ele>238.938466</ele>
        <time>2019-06-06T11:22:10.000Z</time>
      </trkpt>
      <trkpt lat="50.445385" lon="26.484663">
        <ele>238.975932</ele>
        <time>2019-06-06T11:22:47.000Z</time>
      </trkpt>
      <trkpt lat="50.445435" lon="26.484543">
        <ele>238.997781</ele>
        <time>2019-06-06T12:22:15.000Z</time>
      </trkpt>
      <trkpt lat="50.445545" lon="26.484623">
        <ele>239.026783</ele>
        <time>2019-06-06T12:35:17.000Z</time>
      </trkpt>
      <trkpt lat="50.445570" lon="26.484758">
        <ele>239.048203</ele>
        <time>2019-06-06T12:35:23.000Z</time>
      </trkpt>
      <trkpt lat="50.445510" lon="26.484892">
        <ele>239.073160</ele>
        <time>2019-06-06T12:35:28.000Z</time>
      </trkpt>
      <trkpt lat="50.445454" lon="26.485037">
        <ele>239.098997</ele>
        <time>2019-06-06T12:35:33.000Z</time>
      </trkpt>
      <trkpt lat="50.445390" lon="26.485153">
        <ele>239.122381</ele>
        <time>2019-06-06T12:35:37.000Z</time>
      </trkpt>
      <trkpt lat="50.445328" lon="26.485289">
        <ele>239.147863</ele>
        <time>2019-06-06T12:35:42.000Z</time>
      </trkpt>
      <trkpt lat="50.445270" lon="26.485418">
        <ele>239.171922</ele>
        <time>2019-06-06T12:35:48.000Z</time>
      </trkpt>
      <trkpt lat="50.445210" lon="26.485537">
        <ele>239.195047</ele>
        <time>2019-06-06T12:35:52.000Z</time>
      </trkpt>
      <trkpt lat="50.445156" lon="26.485660">
        <ele>239.217809</ele>
        <time>2019-06-06T12:35:55.000Z</time>
      </trkpt>
      <trkpt lat="50.445107" lon="26.485823">
        <ele>239.245271</ele>
        <time>2019-06-06T12:35:58.000Z</time>
      </trkpt>
      <trkpt lat="50.445040" lon="26.485975">
        <ele>239.273435</ele>
        <time>2019-06-06T12:36:01.000Z</time>
      </trkpt>
      <trkpt lat="50.445000" lon="26.486143">
        <ele>239.284392</ele>
        <time>2019-06-06T12:36:04.000Z</time>
      </trkpt>
      <trkpt lat="50.444960" lon="26.486294">
        <ele>239.274505</ele>
        <time>2019-06-06T12:36:07.000Z</time>
      </trkpt>
      <trkpt lat="50.444897" lon="26.486400">
        <ele>239.265740</ele>
        <time>2019-06-06T12:36:10.000Z</time>
      </trkpt>
      <trkpt lat="50.444870" lon="26.486567">
        <ele>239.255325</ele>
        <time>2019-06-06T12:36:14.000Z</time>
      </trkpt>
      <trkpt lat="50.444817" lon="26.486717">
        <ele>239.244955</ele>
        <time>2019-06-06T12:36:35.000Z</time>
      </trkpt>
      <trkpt lat="50.444780" lon="26.486853">
        <ele>239.236015</ele>
        <time>2019-06-06T12:36:39.000Z</time>
      </trkpt>
      <trkpt lat="50.444770" lon="26.487015">
        <ele>239.226176</ele>
        <time>2019-06-06T12:36:44.000Z</time>
      </trkpt>
      <trkpt lat="50.444756" lon="26.487164">
        <ele>239.217071</ele>
        <time>2019-06-06T12:36:49.000Z</time>
      </trkpt>
      <trkpt lat="50.444717" lon="26.487295">
        <ele>239.208329</ele>
        <time>2019-06-06T12:36:53.000Z</time>
      </trkpt>
      <trkpt lat="50.444714" lon="26.487436">
        <ele>239.199801</ele>
        <time>2019-06-06T12:36:57.000Z</time>
      </trkpt>
      <trkpt lat="50.444720" lon="26.487581">
        <ele>239.191017</ele>
        <time>2019-06-06T12:37:01.000Z</time>
      </trkpt>
      <trkpt lat="50.444736" lon="26.487753">
        <ele>239.180509</ele>
        <time>2019-06-06T12:37:05.000Z</time>
      </trkpt>
      <trkpt lat="50.444780" lon="26.487928">
        <ele>239.169135</ele>
        <time>2019-06-06T12:37:09.000Z</time>
      </trkpt>
      <trkpt lat="50.444810" lon="26.488111">
        <ele>239.157712</ele>
        <time>2019-06-06T12:37:13.000Z</time>
      </trkpt>
      <trkpt lat="50.444820" lon="26.488255">
        <ele>239.148955</ele>
        <time>2019-06-06T12:37:16.000Z</time>
      </trkpt>
      <trkpt lat="50.444847" lon="26.488420">
        <ele>239.138657</ele>
        <time>2019-06-06T12:37:20.000Z</time>
      </trkpt>
      <trkpt lat="50.444862" lon="26.488580">
        <ele>239.128880</ele>
        <time>2019-06-06T12:37:24.000Z</time>
      </trkpt>
      <trkpt lat="50.444923" lon="26.488703">
        <ele>239.119456</ele>
        <time>2019-06-06T12:37:28.000Z</time>
      </trkpt>
      <trkpt lat="50.444958" lon="26.488848">
        <ele>239.262780</ele>
        <time>2019-06-06T12:37:32.000Z</time>
      </trkpt>
      <trkpt lat="50.444946" lon="26.489000">
        <ele>239.425504</ele>
        <time>2019-06-06T12:37:36.000Z</time>
      </trkpt>
      <trkpt lat="50.444958" lon="26.489157">
        <ele>239.593500</ele>
        <time>2019-06-06T12:37:40.000Z</time>
      </trkpt>
      <trkpt lat="50.444977" lon="26.489315">
        <ele>239.764329</ele>
        <time>2019-06-06T12:37:44.000Z</time>
      </trkpt>
      <trkpt lat="50.444990" lon="26.489477">
        <ele>239.937802</ele>
        <time>2019-06-06T12:37:48.000Z</time>
      </trkpt>
      <trkpt lat="50.445040" lon="26.489618">
        <ele>240.109262</ele>
        <time>2019-06-06T12:37:53.000Z</time>
      </trkpt>
      <trkpt lat="50.445084" lon="26.489752">
        <ele>240.269436</ele>
        <time>2019-06-06T12:37:57.000Z</time>
      </trkpt>
      <trkpt lat="50.445107" lon="26.489904">
        <ele>240.435420</ele>
        <time>2019-06-06T12:38:01.000Z</time>
      </trkpt>
      <trkpt lat="50.445118" lon="26.490057">
        <ele>240.599002</ele>
        <time>2019-06-06T12:38:05.000Z</time>
      </trkpt>
      <trkpt lat="50.445150" lon="26.490232">
        <ele>240.792437</ele>
        <time>2019-06-06T12:38:09.000Z</time>
      </trkpt>
      <trkpt lat="50.445175" lon="26.490402">
        <ele>240.977801</ele>
        <time>2019-06-06T12:38:13.000Z</time>
      </trkpt>
      <trkpt lat="50.445194" lon="26.490559">
        <ele>241.147585</ele>
        <time>2019-06-06T12:38:17.000Z</time>
      </trkpt>
      <trkpt lat="50.445210" lon="26.490723">
        <ele>241.323853</ele>
        <time>2019-06-06T12:38:21.000Z</time>
      </trkpt>
      <trkpt lat="50.445210" lon="26.490887">
        <ele>241.498089</ele>
        <time>2019-06-06T12:38:25.000Z</time>
      </trkpt>
      <trkpt lat="50.445164" lon="26.491049">
        <ele>241.686534</ele>
        <time>2019-06-06T12:38:29.000Z</time>
      </trkpt>
      <trkpt lat="50.445060" lon="26.491129">
        <ele>241.879738</ele>
        <time>2019-06-06T12:38:33.000Z</time>
      </trkpt>
      <trkpt lat="50.444950" lon="26.491165">
        <ele>242.067197</ele>
        <time>2019-06-06T12:38:37.000Z</time>
      </trkpt>
      <trkpt lat="50.444847" lon="26.491207">
        <ele>242.095830</ele>
        <time>2019-06-06T12:38:41.000Z</time>
      </trkpt>
      <trkpt lat="50.444760" lon="26.491243">
        <ele>242.068148</ele>
        <time>2019-06-06T12:38:44.000Z</time>
      </trkpt>
      <trkpt lat="50.444670" lon="26.491302">
        <ele>242.038140</ele>
        <time>2019-06-06T12:38:47.000Z</time>
      </trkpt>
      <trkpt lat="50.444560" lon="26.491340">
        <ele>242.003486</ele>
        <time>2019-06-06T12:38:50.000Z</time>
      </trkpt>
      <trkpt lat="50.444447" lon="26.491377">
        <ele>241.967970</ele>
        <time>2019-06-06T12:38:53.000Z</time>
      </trkpt>
      <trkpt lat="50.444347" lon="26.491426">
        <ele>241.935739</ele>
        <time>2019-06-06T12:38:56.000Z</time>
      </trkpt>
      <trkpt lat="50.444252" lon="26.491463">
        <ele>241.905623</ele>
        <time>2019-06-06T12:38:59.000Z</time>
      </trkpt>
      <trkpt lat="50.444164" lon="26.491510">
        <ele>241.877024</ele>
        <time>2019-06-06T12:39:02.000Z</time>
      </trkpt>
      <trkpt lat="50.444073" lon="26.491573">
        <ele>241.846425</ele>
        <time>2019-06-06T12:39:05.000Z</time>
      </trkpt>
      <trkpt lat="50.443962" lon="26.491627">
        <ele>241.810671</ele>
        <time>2019-06-06T12:39:08.000Z</time>
      </trkpt>
      <trkpt lat="50.443848" lon="26.491673">
        <ele>241.774455</ele>
        <time>2019-06-06T12:39:11.000Z</time>
      </trkpt>
      <trkpt lat="50.443737" lon="26.491720">
        <ele>241.739083</ele>
        <time>2019-06-06T12:39:14.000Z</time>
      </trkpt>
      <trkpt lat="50.443623" lon="26.491760">
        <ele>241.703142</ele>
        <time>2019-06-06T12:39:17.000Z</time>
      </trkpt>
      <trkpt lat="50.443510" lon="26.491800">
        <ele>241.667502</ele>
        <time>2019-06-06T12:39:20.000Z</time>
      </trkpt>
      <trkpt lat="50.443400" lon="26.491860">
        <ele>241.631673</ele>
        <time>2019-06-06T12:39:23.000Z</time>
      </trkpt>
      <trkpt lat="50.443275" lon="26.491907">
        <ele>241.592126</ele>
        <time>2019-06-06T12:39:26.000Z</time>
      </trkpt>
      <trkpt lat="50.443153" lon="26.491968">
        <ele>241.555091</ele>
        <time>2019-06-06T12:39:29.000Z</time>
      </trkpt>
      <trkpt lat="50.443040" lon="26.492014">
        <ele>241.525755</ele>
        <time>2019-06-06T12:39:32.000Z</time>
      </trkpt>
      <trkpt lat="50.442917" lon="26.492056">
        <ele>241.494123</ele>
        <time>2019-06-06T12:39:35.000Z</time>
      </trkpt>
      <trkpt lat="50.442790" lon="26.492120">
        <ele>241.460604</ele>
        <time>2019-06-06T12:39:38.000Z</time>
      </trkpt>
      <trkpt lat="50.442665" lon="26.492178">
        <ele>241.427849</ele>
        <time>2019-06-06T12:39:41.000Z</time>
      </trkpt>
      <trkpt lat="50.442535" lon="26.492228">
        <ele>241.394214</ele>
        <time>2019-06-06T12:39:44.000Z</time>
      </trkpt>
      <trkpt lat="50.442420" lon="26.492281">
        <ele>241.364096</ele>
        <time>2019-06-06T12:39:47.000Z</time>
      </trkpt>
      <trkpt lat="50.442300" lon="26.492334">
        <ele>241.332769</ele>
        <time>2019-06-06T12:39:50.000Z</time>
      </trkpt>
      <trkpt lat="50.442204" lon="26.492395">
        <ele>241.306744</ele>
        <time>2019-06-06T12:39:53.000Z</time>
      </trkpt>
      <trkpt lat="50.442097" lon="26.492443">
        <ele>241.278779</ele>
        <time>2019-06-06T12:39:56.000Z</time>
      </trkpt>
      <trkpt lat="50.441986" lon="26.492490">
        <ele>241.249888</ele>
        <time>2019-06-06T12:39:59.000Z</time>
      </trkpt>
      <trkpt lat="50.441864" lon="26.492546">
        <ele>241.217946</ele>
        <time>2019-06-06T12:40:02.000Z</time>
      </trkpt>
      <trkpt lat="50.441760" lon="26.492600">
        <ele>241.190419</ele>
        <time>2019-06-06T12:40:05.000Z</time>
      </trkpt>
      <trkpt lat="50.441666" lon="26.492657">
        <ele>241.165097</ele>
        <time>2019-06-06T12:40:08.000Z</time>
      </trkpt>
      <trkpt lat="50.441574" lon="26.492699">
        <ele>241.141020</ele>
        <time>2019-06-06T12:40:11.000Z</time>
      </trkpt>
      <trkpt lat="50.441480" lon="26.492730">
        <ele>241.116882</ele>
        <time>2019-06-06T12:40:14.000Z</time>
      </trkpt>
      <trkpt lat="50.441376" lon="26.492762">
        <ele>241.190878</ele>
        <time>2019-06-06T12:40:17.000Z</time>
      </trkpt>
      <trkpt lat="50.441273" lon="26.492810">
        <ele>241.280202</ele>
        <time>2019-06-06T12:40:20.000Z</time>
      </trkpt>
      <trkpt lat="50.441166" lon="26.492857">
        <ele>241.372575</ele>
        <time>2019-06-06T12:40:23.000Z</time>
      </trkpt>
      <trkpt lat="50.441055" lon="26.492914">
        <ele>241.469668</ele>
        <time>2019-06-06T12:40:26.000Z</time>
      </trkpt>
      <trkpt lat="50.440952" lon="26.492970">
        <ele>241.560288</ele>
        <time>2019-06-06T12:40:29.000Z</time>
      </trkpt>
      <trkpt lat="50.440860" lon="26.493020">
        <ele>241.641227</ele>
        <time>2019-06-06T12:40:32.000Z</time>
      </trkpt>
      <trkpt lat="50.440760" lon="26.493073">
        <ele>241.728973</ele>
        <time>2019-06-06T12:40:35.000Z</time>
      </trkpt>
      <trkpt lat="50.440655" lon="26.493120">
        <ele>241.819746</ele>
        <time>2019-06-06T12:40:38.000Z</time>
      </trkpt>
      <trkpt lat="50.440548" lon="26.493183">
        <ele>241.914752</ele>
        <time>2019-06-06T12:40:41.000Z</time>
      </trkpt>
      <trkpt lat="50.440460" lon="26.493230">
        <ele>241.992030</ele>
        <time>2019-06-06T12:40:44.000Z</time>
      </trkpt>
      <trkpt lat="50.440365" lon="26.493267">
        <ele>242.073405</ele>
        <time>2019-06-06T12:40:47.000Z</time>
      </trkpt>
      <trkpt lat="50.440270" lon="26.493301">
        <ele>242.154412</ele>
        <time>2019-06-06T12:40:50.000Z</time>
      </trkpt>
      <trkpt lat="50.440170" lon="26.493351">
        <ele>242.241663</ele>
        <time>2019-06-06T12:40:53.000Z</time>
      </trkpt>
      <trkpt lat="50.440060" lon="26.493400">
        <ele>242.336724</ele>
        <time>2019-06-06T12:40:56.000Z</time>
      </trkpt>
      <trkpt lat="50.439953" lon="26.493452">
        <ele>242.429845</ele>
        <time>2019-06-06T12:40:59.000Z</time>
      </trkpt>
      <trkpt lat="50.439857" lon="26.493496">
        <ele>242.512989</ele>
        <time>2019-06-06T12:41:01.000Z</time>
      </trkpt>
      <trkpt lat="50.439760" lon="26.493546">
        <ele>242.597867</ele>
        <time>2019-06-06T12:41:05.000Z</time>
      </trkpt>
      <trkpt lat="50.439660" lon="26.493593">
        <ele>242.654580</ele>
        <time>2019-06-06T12:41:08.000Z</time>
      </trkpt>
      <trkpt lat="50.439552" lon="26.493639">
        <ele>242.710652</ele>
        <time>2019-06-06T12:41:11.000Z</time>
      </trkpt>
      <trkpt lat="50.439457" lon="26.493692">
        <ele>242.761171</ele>
        <time>2019-06-06T12:41:14.000Z</time>
      </trkpt>
      <trkpt lat="50.439358" lon="26.493736">
        <ele>242.812727</ele>
        <time>2019-06-06T12:41:17.000Z</time>
      </trkpt>
      <trkpt lat="50.439262" lon="26.493786">
        <ele>242.863409</ele>
        <time>2019-06-06T12:41:20.000Z</time>
      </trkpt>
      <trkpt lat="50.439163" lon="26.493834">
        <ele>242.915327</ele>
        <time>2019-06-06T12:41:23.000Z</time>
      </trkpt>
      <trkpt lat="50.439064" lon="26.493876">
        <ele>242.966714</ele>
        <time>2019-06-06T12:41:26.000Z</time>
      </trkpt>
      <trkpt lat="50.438965" lon="26.493920">
        <ele>243.018270</ele>
        <time>2019-06-06T12:41:29.000Z</time>
      </trkpt>
      <trkpt lat="50.438870" lon="26.493963">
        <ele>243.067812</ele>
        <time>2019-06-06T12:41:32.000Z</time>
      </trkpt>
      <trkpt lat="50.438774" lon="26.494001">
        <ele>243.117421</ele>
        <time>2019-06-06T12:41:35.000Z</time>
      </trkpt>
      <trkpt lat="50.438667" lon="26.494040">
        <ele>243.172462</ele>
        <time>2019-06-06T12:41:38.000Z</time>
      </trkpt>
      <trkpt lat="50.438576" lon="26.494099">
        <ele>243.221796</ele>
        <time>2019-06-06T12:41:41.000Z</time>
      </trkpt>
      <trkpt lat="50.438457" lon="26.494156">
        <ele>243.284138</ele>
        <time>2019-06-06T12:41:45.000Z</time>
      </trkpt>
      <trkpt lat="50.438354" lon="26.494210">
        <ele>243.338550</ele>
        <time>2019-06-06T12:41:48.000Z</time>
      </trkpt>
      <trkpt lat="50.438260" lon="26.494244">
        <ele>243.386886</ele>
        <time>2019-06-06T12:41:51.000Z</time>
      </trkpt>
      <trkpt lat="50.438175" lon="26.494312">
        <ele>243.434688</ele>
        <time>2019-06-06T12:41:54.000Z</time>
      </trkpt>
      <trkpt lat="50.438084" lon="26.494394">
        <ele>243.487263</ele>
        <time>2019-06-06T12:41:57.000Z</time>
      </trkpt>
      <trkpt lat="50.438020" lon="26.494510">
        <ele>243.607447</ele>
        <time>2019-06-06T12:42:00.000Z</time>
      </trkpt>
      <trkpt lat="50.437970" lon="26.494644">
        <ele>243.792691</ele>
        <time>2019-06-06T12:42:03.000Z</time>
      </trkpt>
      <trkpt lat="50.437927" lon="26.494814">
        <ele>244.010871</ele>
        <time>2019-06-06T12:42:07.000Z</time>
      </trkpt>
      <trkpt lat="50.437904" lon="26.494982">
        <ele>244.215839</ele>
        <time>2019-06-06T12:42:11.000Z</time>
      </trkpt>
      <trkpt lat="50.437866" lon="26.495140">
        <ele>244.417290</ele>
        <time>2019-06-06T12:42:15.000Z</time>
      </trkpt>
      <trkpt lat="50.437824" lon="26.495280">
        <ele>244.601879</ele>
        <time>2019-06-06T12:42:18.000Z</time>
      </trkpt>
      <trkpt lat="50.437790" lon="26.495420">
        <ele>244.780599</ele>
        <time>2019-06-06T12:42:21.000Z</time>
      </trkpt>
      <trkpt lat="50.437748" lon="26.495579">
        <ele>244.985918</ele>
        <time>2019-06-06T12:42:24.000Z</time>
      </trkpt>
      <trkpt lat="50.437710" lon="26.495724">
        <ele>245.172943</ele>
        <time>2019-06-06T12:42:27.000Z</time>
      </trkpt>
      <trkpt lat="50.437680" lon="26.495865">
        <ele>245.350264</ele>
        <time>2019-06-06T12:42:30.000Z</time>
      </trkpt>
      <trkpt lat="50.437637" lon="26.496017">
        <ele>245.548650</ele>
        <time>2019-06-06T12:42:33.000Z</time>
      </trkpt>
      <trkpt lat="50.437600" lon="26.496166">
        <ele>245.739409</ele>
        <time>2019-06-06T12:42:36.000Z</time>
      </trkpt>
      <trkpt lat="50.437560" lon="26.496330">
        <ele>245.948881</ele>
        <time>2019-06-06T12:42:39.000Z</time>
      </trkpt>
      <trkpt lat="50.437540" lon="26.496489">
        <ele>246.142201</ele>
        <time>2019-06-06T12:42:42.000Z</time>
      </trkpt>
      <trkpt lat="50.437480" lon="26.496660">
        <ele>246.375074</ele>
        <time>2019-06-06T12:42:45.000Z</time>
      </trkpt>
      <trkpt lat="50.437435" lon="26.496836">
        <ele>246.601293</ele>
        <time>2019-06-06T12:42:48.000Z</time>
      </trkpt>
      <trkpt lat="50.437397" lon="26.497004">
        <ele>246.813946</ele>
        <time>2019-06-06T12:42:51.000Z</time>
      </trkpt>
      <trkpt lat="50.437355" lon="26.497170">
        <ele>247.064630</ele>
        <time>2019-06-06T12:42:54.000Z</time>
      </trkpt>
      <trkpt lat="50.437313" lon="26.497341">
        <ele>247.338702</ele>
        <time>2019-06-06T12:42:57.000Z</time>
      </trkpt>
      <trkpt lat="50.437280" lon="26.497517">
        <ele>247.613064</ele>
        <time>2019-06-06T12:43:00.000Z</time>
      </trkpt>
      <trkpt lat="50.437233" lon="26.497686">
        <ele>247.888832</ele>
        <time>2019-06-06T12:43:03.000Z</time>
      </trkpt>
      <trkpt lat="50.437195" lon="26.497839">
        <ele>248.134412</ele>
        <time>2019-06-06T12:43:05.000Z</time>
      </trkpt>
      <trkpt lat="50.437160" lon="26.497980">
        <ele>248.360714</ele>
        <time>2019-06-06T12:43:09.000Z</time>
      </trkpt>
      <trkpt lat="50.437126" lon="26.498127">
        <ele>248.594587</ele>
        <time>2019-06-06T12:43:12.000Z</time>
      </trkpt>
      <trkpt lat="50.437090" lon="26.498257">
        <ele>248.806573</ele>
        <time>2019-06-06T12:43:15.000Z</time>
      </trkpt>
      <trkpt lat="50.437046" lon="26.498426">
        <ele>249.079599</ele>
        <time>2019-06-06T12:43:19.000Z</time>
      </trkpt>
      <trkpt lat="50.437004" lon="26.498554">
        <ele>249.294922</ele>
        <time>2019-06-06T12:43:22.000Z</time>
      </trkpt>
      <trkpt lat="50.436947" lon="26.498667">
        <ele>249.510482</ele>
        <time>2019-06-06T12:43:25.000Z</time>
      </trkpt>
      <trkpt lat="50.436870" lon="26.498800">
        <ele>249.779261</ele>
        <time>2019-06-06T12:43:29.000Z</time>
      </trkpt>
      <trkpt lat="50.436780" lon="26.498890">
        <ele>250.029793</ele>
        <time>2019-06-06T12:43:32.000Z</time>
      </trkpt>
      <trkpt lat="50.436684" lon="26.498962">
        <ele>250.279587</ele>
        <time>2019-06-06T12:43:37.000Z</time>
      </trkpt>
      <trkpt lat="50.436600" lon="26.499018">
        <ele>250.493853</ele>
        <time>2019-06-06T12:43:41.000Z</time>
      </trkpt>
      <trkpt lat="50.436504" lon="26.499050">
        <ele>250.724274</ele>
        <time>2019-06-06T12:43:46.000Z</time>
      </trkpt>
      <trkpt lat="50.436394" lon="26.499033">
        <ele>250.983790</ele>
        <time>2019-06-06T12:43:51.000Z</time>
      </trkpt>
      <trkpt lat="50.436280" lon="26.498987">
        <ele>251.067410</ele>
        <time>2019-06-06T12:43:55.000Z</time>
      </trkpt>
      <trkpt lat="50.436184" lon="26.498917">
        <ele>251.013627</ele>
        <time>2019-06-06T12:43:59.000Z</time>
      </trkpt>
      <trkpt lat="50.436092" lon="26.498863">
        <ele>250.963722</ele>
        <time>2019-06-06T12:44:04.000Z</time>
      </trkpt>
      <trkpt lat="50.436000" lon="26.498827">
        <ele>250.915546</ele>
        <time>2019-06-06T12:44:08.000Z</time>
      </trkpt>
      <trkpt lat="50.435917" lon="26.498764">
        <ele>250.868703</ele>
        <time>2019-06-06T12:44:12.000Z</time>
      </trkpt>
      <trkpt lat="50.435810" lon="26.498703">
        <ele>250.810863</ele>
        <time>2019-06-06T12:44:17.000Z</time>
      </trkpt>
      <trkpt lat="50.435720" lon="26.498640">
        <ele>250.760794</ele>
        <time>2019-06-06T12:44:21.000Z</time>
      </trkpt>
      <trkpt lat="50.435627" lon="26.498549">
        <ele>250.705114</ele>
        <time>2019-06-06T12:44:26.000Z</time>
      </trkpt>
      <trkpt lat="50.435530" lon="26.498493">
        <ele>250.652601</ele>
        <time>2019-06-06T12:44:30.000Z</time>
      </trkpt>
      <trkpt lat="50.435436" lon="26.498438">
        <ele>250.601630</ele>
        <time>2019-06-06T12:44:34.000Z</time>
      </trkpt>
      <trkpt lat="50.435350" lon="26.498377">
        <ele>250.553681</ele>
        <time>2019-06-06T12:44:38.000Z</time>
      </trkpt>
      <trkpt lat="50.435246" lon="26.498320">
        <ele>250.497710</ele>
        <time>2019-06-06T12:44:43.000Z</time>
      </trkpt>
      <trkpt lat="50.435146" lon="26.498251">
        <ele>250.442209</ele>
        <time>2019-06-06T12:44:48.000Z</time>
      </trkpt>
      <trkpt lat="50.435055" lon="26.498194">
        <ele>250.392428</ele>
        <time>2019-06-06T12:44:52.000Z</time>
      </trkpt>
      <trkpt lat="50.434950" lon="26.498114">
        <ele>250.333126</ele>
        <time>2019-06-06T12:44:56.000Z</time>
      </trkpt>
      <trkpt lat="50.434864" lon="26.498045">
        <ele>250.284053</ele>
        <time>2019-06-06T12:44:59.000Z</time>
      </trkpt>
      <trkpt lat="50.434776" lon="26.497972">
        <ele>250.233482</ele>
        <time>2019-06-06T12:45:02.000Z</time>
      </trkpt>
      <trkpt lat="50.434670" lon="26.497889">
        <ele>250.179857</ele>
        <time>2019-06-06T12:45:05.000Z</time>
      </trkpt>
      <trkpt lat="50.434555" lon="26.497786">
        <ele>250.143016</ele>
        <time>2019-06-06T12:45:08.000Z</time>
      </trkpt>
      <trkpt lat="50.434475" lon="26.497711">
        <ele>250.117088</ele>
        <time>2019-06-06T12:45:10.000Z</time>
      </trkpt>
      <trkpt lat="50.434406" lon="26.497612">
        <ele>250.091078</ele>
        <time>2019-06-06T12:45:12.000Z</time>
      </trkpt>
      <trkpt lat="50.434338" lon="26.497482">
        <ele>250.061263</ele>
        <time>2019-06-06T12:45:14.000Z</time>
      </trkpt>
      <trkpt lat="50.434265" lon="26.497383">
        <ele>250.034421</ele>
        <time>2019-06-06T12:45:16.000Z</time>
      </trkpt>
      <trkpt lat="50.434200" lon="26.497284">
        <ele>250.009222</ele>
        <time>2019-06-06T12:45:18.000Z</time>
      </trkpt>
      <trkpt lat="50.434135" lon="26.497185">
        <ele>249.984022</ele>
        <time>2019-06-06T12:45:20.000Z</time>
      </trkpt>
      <trkpt lat="50.434048" lon="26.497053">
        <ele>249.950356</ele>
        <time>2019-06-06T12:45:23.000Z</time>
      </trkpt>
      <trkpt lat="50.433964" lon="26.496918">
        <ele>249.916906</ele>
        <time>2019-06-06T12:45:26.000Z</time>
      </trkpt>
      <trkpt lat="50.433880" lon="26.496786">
        <ele>249.883835</ele>
        <time>2019-06-06T12:45:29.000Z</time>
      </trkpt>
      <trkpt lat="50.433804" lon="26.496680">
        <ele>249.855547</ele>
        <time>2019-06-06T12:45:32.000Z</time>
      </trkpt>
      <trkpt lat="50.433730" lon="26.496560">
        <ele>249.825944</ele>
        <time>2019-06-06T12:45:35.000Z</time>
      </trkpt>
      <trkpt lat="50.433660" lon="26.496460">
        <ele>249.799609</ele>
        <time>2019-06-06T12:45:38.000Z</time>
      </trkpt>
      <trkpt lat="50.433600" lon="26.496340">
        <ele>249.772569</ele>
        <time>2019-06-06T12:45:41.000Z</time>
      </trkpt>
      <trkpt lat="50.433548" lon="26.496223">
        <ele>249.747283</ele>
        <time>2019-06-06T12:45:44.000Z</time>
      </trkpt>
      <trkpt lat="50.433483" lon="26.496113">
        <ele>249.720689</ele>
        <time>2019-06-06T12:45:47.000Z</time>
      </trkpt>
      <trkpt lat="50.433414" lon="26.496000">
        <ele>249.692944</ele>
        <time>2019-06-06T12:45:50.000Z</time>
      </trkpt>
      <trkpt lat="50.433350" lon="26.495890">
        <ele>249.899386</ele>
        <time>2019-06-06T12:45:53.000Z</time>
      </trkpt>
      <trkpt lat="50.433285" lon="26.495783">
        <ele>250.166926</ele>
        <time>2019-06-06T12:45:56.000Z</time>
      </trkpt>
      <trkpt lat="50.433228" lon="26.495670">
        <ele>250.427740</ele>
        <time>2019-06-06T12:45:59.000Z</time>
      </trkpt>
      <trkpt lat="50.433147" lon="26.495531">
        <ele>250.768624</ele>
        <time>2019-06-06T12:46:03.000Z</time>
      </trkpt>
      <trkpt lat="50.433075" lon="26.495401">
        <ele>251.080335</ele>
        <time>2019-06-06T12:46:07.000Z</time>
      </trkpt>
      <trkpt lat="50.432990" lon="26.495234">
        <ele>251.467133</ele>
        <time>2019-06-06T12:46:12.000Z</time>
      </trkpt>
      <trkpt lat="50.432910" lon="26.495092">
        <ele>251.810154</ele>
        <time>2019-06-06T12:46:16.000Z</time>
      </trkpt>
      <trkpt lat="50.432846" lon="26.494986">
        <ele>252.074427</ele>
        <time>2019-06-06T12:46:19.000Z</time>
      </trkpt>
      <trkpt lat="50.432780" lon="26.494883">
        <ele>252.338786</ele>
        <time>2019-06-06T12:46:22.000Z</time>
      </trkpt>
      <trkpt lat="50.432720" lon="26.494778">
        <ele>252.594025</ele>
        <time>2019-06-06T12:46:25.000Z</time>
      </trkpt>
      <trkpt lat="50.432650" lon="26.494673">
        <ele>252.869048</ele>
        <time>2019-06-06T12:46:28.000Z</time>
      </trkpt>
      <trkpt lat="50.432590" lon="26.494564">
        <ele>253.129720</ele>
        <time>2019-06-06T12:46:31.000Z</time>
      </trkpt>
      <trkpt lat="50.432526" lon="26.494463">
        <ele>253.387503</ele>
        <time>2019-06-06T12:46:34.000Z</time>
      </trkpt>
      <trkpt lat="50.432465" lon="26.494345">
        <ele>253.662487</ele>
        <time>2019-06-06T12:46:37.000Z</time>
      </trkpt>
      <trkpt lat="50.432400" lon="26.494242">
        <ele>253.924839</ele>
        <time>2019-06-06T12:46:40.000Z</time>
      </trkpt>
      <trkpt lat="50.432335" lon="26.494130">
        <ele>254.199001</ele>
        <time>2019-06-06T12:46:43.000Z</time>
      </trkpt>
      <trkpt lat="50.432270" lon="26.494020">
        <ele>254.470499</ele>
        <time>2019-06-06T12:46:46.000Z</time>
      </trkpt>
      <trkpt lat="50.432205" lon="26.493914">
        <ele>254.736736</ele>
        <time>2019-06-06T12:46:49.000Z</time>
      </trkpt>
      <trkpt lat="50.432150" lon="26.493801">
        <ele>254.810109</ele>
        <time>2019-06-06T12:46:52.000Z</time>
      </trkpt>
      <trkpt lat="50.432087" lon="26.493702">
        <ele>254.827362</ele>
        <time>2019-06-06T12:46:55.000Z</time>
      </trkpt>
      <trkpt lat="50.432026" lon="26.493586">
        <ele>254.845906</ele>
        <time>2019-06-06T12:46:58.000Z</time>
      </trkpt>
      <trkpt lat="50.431960" lon="26.493477">
        <ele>254.864447</ele>
        <time>2019-06-06T12:47:01.000Z</time>
      </trkpt>
      <trkpt lat="50.431904" lon="26.493368">
        <ele>254.881711</ele>
        <time>2019-06-06T12:47:04.000Z</time>
      </trkpt>
      <trkpt lat="50.431824" lon="26.493227">
        <ele>254.904991</ele>
        <time>2019-06-06T12:47:08.000Z</time>
      </trkpt>
      <trkpt lat="50.431744" lon="26.493120">
        <ele>254.925332</ele>
        <time>2019-06-06T12:47:12.000Z</time>
      </trkpt>
      <trkpt lat="50.431656" lon="26.493052">
        <ele>254.944315</ele>
        <time>2019-06-06T12:47:16.000Z</time>
      </trkpt>
      <trkpt lat="50.431570" lon="26.492998">
        <ele>254.962242</ele>
        <time>2019-06-06T12:47:20.000Z</time>
      </trkpt>
      <trkpt lat="50.431470" lon="26.492971">
        <ele>254.981880</ele>
        <time>2019-06-06T12:47:24.000Z</time>
      </trkpt>
      <trkpt lat="50.431366" lon="26.492933">
        <ele>255.002547</ele>
        <time>2019-06-06T12:47:29.000Z</time>
      </trkpt>
      <trkpt lat="50.431263" lon="26.492987">
        <ele>255.023564</ele>
        <time>2019-06-06T12:47:34.000Z</time>
      </trkpt>
      <trkpt lat="50.431187" lon="26.493080">
        <ele>255.042214</ele>
        <time>2019-06-06T12:47:38.000Z</time>
      </trkpt>
      <trkpt lat="50.431084" lon="26.493137">
        <ele>255.063352</ele>
        <time>2019-06-06T12:47:44.000Z</time>
      </trkpt>
      <trkpt lat="50.430996" lon="26.493240">
        <ele>255.084597</ele>
        <time>2019-06-06T12:47:49.000Z</time>
      </trkpt>
      <trkpt lat="50.430927" lon="26.493338">
        <ele>255.102606</ele>
        <time>2019-06-06T12:47:53.000Z</time>
      </trkpt>
      <trkpt lat="50.430847" lon="26.493431">
        <ele>255.121872</ele>
        <time>2019-06-06T12:47:58.000Z</time>
      </trkpt>
      <trkpt lat="50.430760" lon="26.493505">
        <ele>255.141023</ele>
        <time>2019-06-06T12:48:03.000Z</time>
      </trkpt>
      <trkpt lat="50.430645" lon="26.493652">
        <ele>254.410624</ele>
        <time>2019-06-06T12:50:14.000Z</time>
      </trkpt>
      <trkpt lat="50.430560" lon="26.493729">
        <ele>253.851754</ele>
        <time>2019-06-06T12:50:17.000Z</time>
      </trkpt>
      <trkpt lat="50.430454" lon="26.493822">
        <ele>253.160227</ele>
        <time>2019-06-06T12:50:20.000Z</time>
      </trkpt>
      <trkpt lat="50.430367" lon="26.493889">
        <ele>252.608374</ele>
        <time>2019-06-06T12:50:22.000Z</time>
      </trkpt>
      <trkpt lat="50.430275" lon="26.493954">
        <ele>252.033837</ele>
        <time>2019-06-06T12:50:24.000Z</time>
      </trkpt>
      <trkpt lat="50.430172" lon="26.494017">
        <ele>251.404322</ele>
        <time>2019-06-06T12:50:26.000Z</time>
      </trkpt>
      <trkpt lat="50.430065" lon="26.494100">
        <ele>250.724648</ele>
        <time>2019-06-06T12:50:28.000Z</time>
      </trkpt>
      <trkpt lat="50.429955" lon="26.494179">
        <ele>250.035777</ele>
        <time>2019-06-06T12:50:30.000Z</time>
      </trkpt>
      <trkpt lat="50.429817" lon="26.494253">
        <ele>249.205312</ele>
        <time>2019-06-06T12:50:32.000Z</time>
      </trkpt>
      <trkpt lat="50.429680" lon="26.494337">
        <ele>248.367727</ele>
        <time>2019-06-06T12:50:34.000Z</time>
      </trkpt>
      <trkpt lat="50.429523" lon="26.494404">
        <ele>247.441197</ele>
        <time>2019-06-06T12:50:36.000Z</time>
      </trkpt>
      <trkpt lat="50.429363" lon="26.494488">
        <ele>246.480425</ele>
        <time>2019-06-06T12:50:38.000Z</time>
      </trkpt>
      <trkpt lat="50.429207" lon="26.494576">
        <ele>245.536420</ele>
        <time>2019-06-06T12:50:40.000Z</time>
      </trkpt>
      <trkpt lat="50.429040" lon="26.494637">
        <ele>244.633232</ele>
        <time>2019-06-06T12:50:42.000Z</time>
      </trkpt>
      <trkpt lat="50.428864" lon="26.494696">
        <ele>243.827914</ele>
        <time>2019-06-06T12:50:44.000Z</time>
      </trkpt>
      <trkpt lat="50.428772" lon="26.494730">
        <ele>243.404979</ele>
        <time>2019-06-06T12:50:45.000Z</time>
      </trkpt>
      <trkpt lat="50.428684" lon="26.494762">
        <ele>243.000772</ele>
        <time>2019-06-06T12:50:46.000Z</time>
      </trkpt>
      <trkpt lat="50.428593" lon="26.494800">
        <ele>242.579406</ele>
        <time>2019-06-06T12:50:47.000Z</time>
      </trkpt>
      <trkpt lat="50.428425" lon="26.494870">
        <ele>241.801612</ele>
        <time>2019-06-06T12:50:49.000Z</time>
      </trkpt>
      <trkpt lat="50.428257" lon="26.494959">
        <ele>241.008194</ele>
        <time>2019-06-06T12:50:51.000Z</time>
      </trkpt>
      <trkpt lat="50.428112" lon="26.495052">
        <ele>240.307281</ele>
        <time>2019-06-06T12:50:53.000Z</time>
      </trkpt>
      <trkpt lat="50.427970" lon="26.495125">
        <ele>239.638655</ele>
        <time>2019-06-06T12:50:55.000Z</time>
      </trkpt>
      <trkpt lat="50.427853" lon="26.495207">
        <ele>239.065293</ele>
        <time>2019-06-06T12:50:57.000Z</time>
      </trkpt>
      <trkpt lat="50.427740" lon="26.495274">
        <ele>238.524775</ele>
        <time>2019-06-06T12:50:59.000Z</time>
      </trkpt>
      <trkpt lat="50.427640" lon="26.495333">
        <ele>238.046734</ele>
        <time>2019-06-06T12:51:01.000Z</time>
      </trkpt>
      <trkpt lat="50.427550" lon="26.495380">
        <ele>237.622302</ele>
        <time>2019-06-06T12:51:03.000Z</time>
      </trkpt>
      <trkpt lat="50.427460" lon="26.495436">
        <ele>237.189087</ele>
        <time>2019-06-06T12:51:05.000Z</time>
      </trkpt>
      <trkpt lat="50.427350" lon="26.495491">
        <ele>236.984120</ele>
        <time>2019-06-06T12:51:08.000Z</time>
      </trkpt>
      <trkpt lat="50.427242" lon="26.495577">
        <ele>237.375855</ele>
        <time>2019-06-06T12:51:11.000Z</time>
      </trkpt>
      <trkpt lat="50.427143" lon="26.495657">
        <ele>237.736039</ele>
        <time>2019-06-06T12:51:14.000Z</time>
      </trkpt>
      <trkpt lat="50.427060" lon="26.495705">
        <ele>238.022165</ele>
        <time>2019-06-06T12:51:16.000Z</time>
      </trkpt>
      <trkpt lat="50.426964" lon="26.495749">
        <ele>238.345669</ele>
        <time>2019-06-06T12:51:19.000Z</time>
      </trkpt>
      <trkpt lat="50.426865" lon="26.495825">
        <ele>238.702156</ele>
        <time>2019-06-06T12:51:23.000Z</time>
      </trkpt>
      <trkpt lat="50.426760" lon="26.495910">
        <ele>239.084313</ele>
        <time>2019-06-06T12:51:27.000Z</time>
      </trkpt>
      <trkpt lat="50.426655" lon="26.495998">
        <ele>239.469344</ele>
        <time>2019-06-06T12:51:31.000Z</time>
      </trkpt>
      <trkpt lat="50.426567" lon="26.496065">
        <ele>239.785720</ele>
        <time>2019-06-06T12:51:34.000Z</time>
      </trkpt>
      <trkpt lat="50.426476" lon="26.496130">
        <ele>240.109127</ele>
        <time>2019-06-06T12:51:37.000Z</time>
      </trkpt>
      <trkpt lat="50.426373" lon="26.496204">
        <ele>240.475548</ele>
        <time>2019-06-06T12:51:41.000Z</time>
      </trkpt>
      <trkpt lat="50.426266" lon="26.496252">
        <ele>240.835524</ele>
        <time>2019-06-06T12:51:45.000Z</time>
      </trkpt>
      <trkpt lat="50.426178" lon="26.496294">
        <ele>241.133051</ele>
        <time>2019-06-06T12:51:48.000Z</time>
      </trkpt>
      <trkpt lat="50.426075" lon="26.496370">
        <ele>241.501206</ele>
        <time>2019-06-06T12:51:52.000Z</time>
      </trkpt>
      <trkpt lat="50.425990" lon="26.496437">
        <ele>241.808881</ele>
        <time>2019-06-06T12:51:55.000Z</time>
      </trkpt>
      <trkpt lat="50.425888" lon="26.496504">
        <ele>242.166552</ele>
        <time>2019-06-06T12:51:59.000Z</time>
      </trkpt>
      <trkpt lat="50.425790" lon="26.496605">
        <ele>242.545781</ele>
        <time>2019-06-06T12:52:03.000Z</time>
      </trkpt>
      <trkpt lat="50.425710" lon="26.496675">
        <ele>242.926016</ele>
        <time>2019-06-06T12:52:06.000Z</time>
      </trkpt>
      <trkpt lat="50.425610" lon="26.496738">
        <ele>243.446212</ele>
        <time>2019-06-06T12:52:10.000Z</time>
      </trkpt>
      <trkpt lat="50.425526" lon="26.496817">
        <ele>243.918952</ele>
        <time>2019-06-06T12:52:14.000Z</time>
      </trkpt>
      <trkpt lat="50.425450" lon="26.496912">
        <ele>244.387979</ele>
        <time>2019-06-06T12:52:18.000Z</time>
      </trkpt>
      <trkpt lat="50.425370" lon="26.497005">
        <ele>244.868575</ele>
        <time>2019-06-06T12:52:22.000Z</time>
      </trkpt>
      <trkpt lat="50.425290" lon="26.497090">
        <ele>245.334946</ele>
        <time>2019-06-06T12:52:27.000Z</time>
      </trkpt>
      <trkpt lat="50.425250" lon="26.497221">
        <ele>245.781737</ele>
        <time>2019-06-06T12:52:34.000Z</time>
      </trkpt>
      <trkpt lat="50.425250" lon="26.497381">
        <ele>246.273835</ele>
        <time>2019-06-06T12:52:38.000Z</time>
      </trkpt>
      <trkpt lat="50.425220" lon="26.497534">
        <ele>246.766187</ele>
        <time>2019-06-06T12:52:44.000Z</time>
      </trkpt>
      <trkpt lat="50.425205" lon="26.497679">
        <ele>247.217992</ele>
        <time>2019-06-06T12:52:50.000Z</time>
      </trkpt>
      <trkpt lat="50.425243" lon="26.497826">
        <ele>247.705908</ele>
        <time>2019-06-06T12:52:56.000Z</time>
      </trkpt>
      <trkpt lat="50.425304" lon="26.497936">
        <ele>248.154440</ele>
        <time>2019-06-06T12:53:01.000Z</time>
      </trkpt>
      <trkpt lat="50.425236" lon="26.497812">
        <ele>248.657644</ele>
        <time>2019-06-06T12:55:32.000Z</time>
      </trkpt>
      <trkpt lat="50.425198" lon="26.497644">
        <ele>249.205947</ele>
        <time>2019-06-06T13:06:45.000Z</time>
      </trkpt>
      <trkpt lat="50.425205" lon="26.497496">
        <ele>249.662391</ele>
        <time>2019-06-06T13:07:44.000Z</time>
      </trkpt>
      <trkpt lat="50.425247" lon="26.497318">
        <ele>250.246192</ele>
        <time>2019-06-06T13:07:51.000Z</time>
      </trkpt>
      <trkpt lat="50.425170" lon="26.497206">
        <ele>250.752986</ele>
        <time>2019-06-06T13:07:55.000Z</time>
      </trkpt>
      <trkpt lat="50.425060" lon="26.497230">
        <ele>251.289132</ele>
        <time>2019-06-06T13:08:00.000Z</time>
      </trkpt>
      <trkpt lat="50.424984" lon="26.497307">
        <ele>250.973046</ele>
        <time>2019-06-06T13:08:03.000Z</time>
      </trkpt>
      <trkpt lat="50.424908" lon="26.497400">
        <ele>250.494521</ele>
        <time>2019-06-06T13:08:07.000Z</time>
      </trkpt>
      <trkpt lat="50.424854" lon="26.497517">
        <ele>250.037458</ele>
        <time>2019-06-06T13:08:11.000Z</time>
      </trkpt>
      <trkpt lat="50.424760" lon="26.497600">
        <ele>249.501897</ele>
        <time>2019-06-06T13:08:15.000Z</time>
      </trkpt>
      <trkpt lat="50.424660" lon="26.497705">
        <ele>248.904467</ele>
        <time>2019-06-06T13:08:19.000Z</time>
      </trkpt>
      <trkpt lat="50.424576" lon="26.497776">
        <ele>248.430717</ele>
        <time>2019-06-06T13:08:22.000Z</time>
      </trkpt>
      <trkpt lat="50.424484" lon="26.497862">
        <ele>247.898995</ele>
        <time>2019-06-06T13:08:25.000Z</time>
      </trkpt>
      <trkpt lat="50.424380" lon="26.497970">
        <ele>247.279769</ele>
        <time>2019-06-06T13:08:28.000Z</time>
      </trkpt>
      <trkpt lat="50.424263" lon="26.498074">
        <ele>246.612090</ele>
        <time>2019-06-06T13:08:31.000Z</time>
      </trkpt>
      <trkpt lat="50.424183" lon="26.498152">
        <ele>246.144432</ele>
        <time>2019-06-06T13:08:33.000Z</time>
      </trkpt>
      <trkpt lat="50.424095" lon="26.498228">
        <ele>245.645672</ele>
        <time>2019-06-06T13:08:35.000Z</time>
      </trkpt>
      <trkpt lat="50.424000" lon="26.498304">
        <ele>245.116193</ele>
        <time>2019-06-06T13:08:37.000Z</time>
      </trkpt>
      <trkpt lat="50.423912" lon="26.498390">
        <ele>244.601434</ele>
        <time>2019-06-06T13:08:39.000Z</time>
      </trkpt>
      <trkpt lat="50.423800" lon="26.498491">
        <ele>243.960022</ele>
        <time>2019-06-06T13:08:41.000Z</time>
      </trkpt>
      <trkpt lat="50.423683" lon="26.498590">
        <ele>243.299992</ele>
        <time>2019-06-06T13:08:43.000Z</time>
      </trkpt>
      <trkpt lat="50.423565" lon="26.498705">
        <ele>242.610278</ele>
        <time>2019-06-06T13:08:45.000Z</time>
      </trkpt>
      <trkpt lat="50.423440" lon="26.498817">
        <ele>242.194523</ele>
        <time>2019-06-06T13:08:47.000Z</time>
      </trkpt>
      <trkpt lat="50.423317" lon="26.498938">
        <ele>241.882092</ele>
        <time>2019-06-06T13:08:49.000Z</time>
      </trkpt>
      <trkpt lat="50.423203" lon="26.499070">
        <ele>241.577189</ele>
        <time>2019-06-06T13:08:51.000Z</time>
      </trkpt>
      <trkpt lat="50.423088" lon="26.499186">
        <ele>241.282969</ele>
        <time>2019-06-06T13:08:53.000Z</time>
      </trkpt>
      <trkpt lat="50.422970" lon="26.499298">
        <ele>240.986171</ele>
        <time>2019-06-06T13:08:55.000Z</time>
      </trkpt>
      <trkpt lat="50.422855" lon="26.499405">
        <ele>240.698436</ele>
        <time>2019-06-06T13:08:57.000Z</time>
      </trkpt>
      <trkpt lat="50.422745" lon="26.499495">
        <ele>240.431447</ele>
        <time>2019-06-06T13:08:59.000Z</time>
      </trkpt>
      <trkpt lat="50.422634" lon="26.499603">
        <ele>240.150362</ele>
        <time>2019-06-06T13:09:01.000Z</time>
      </trkpt>
      <trkpt lat="50.422543" lon="26.499691">
        <ele>239.920313</ele>
        <time>2019-06-06T13:09:03.000Z</time>
      </trkpt>
      <trkpt lat="50.422460" lon="26.499786">
        <ele>239.699217</ele>
        <time>2019-06-06T13:09:05.000Z</time>
      </trkpt>
      <trkpt lat="50.422337" lon="26.499860">
        <ele>239.415702</ele>
        <time>2019-06-06T13:09:08.000Z</time>
      </trkpt>
      <trkpt lat="50.422230" lon="26.499891">
        <ele>239.181516</ele>
        <time>2019-06-06T13:09:11.000Z</time>
      </trkpt>
      <trkpt lat="50.422127" lon="26.499987">
        <ele>238.923688</ele>
        <time>2019-06-06T13:09:14.000Z</time>
      </trkpt>
      <trkpt lat="50.422054" lon="26.500149">
        <ele>238.651592</ele>
        <time>2019-06-06T13:09:17.000Z</time>
      </trkpt>
      <trkpt lat="50.421955" lon="26.500256">
        <ele>238.700414</ele>
        <time>2019-06-06T13:09:20.000Z</time>
      </trkpt>
      <trkpt lat="50.421875" lon="26.500336">
        <ele>238.890790</ele>
        <time>2019-06-06T13:09:23.000Z</time>
      </trkpt>
      <trkpt lat="50.421803" lon="26.500456">
        <ele>239.101564</ele>
        <time>2019-06-06T13:10:02.000Z</time>
      </trkpt>
      <trkpt lat="50.421700" lon="26.500519">
        <ele>239.323424</ele>
        <time>2019-06-06T13:10:06.000Z</time>
      </trkpt>
      <trkpt lat="50.421616" lon="26.500582">
        <ele>239.510267</ele>
        <time>2019-06-06T13:10:09.000Z</time>
      </trkpt>
      <trkpt lat="50.421524" lon="26.500666">
        <ele>239.723878</ele>
        <time>2019-06-06T13:10:12.000Z</time>
      </trkpt>
      <trkpt lat="50.421430" lon="26.500744">
        <ele>239.937275</ele>
        <time>2019-06-06T13:10:15.000Z</time>
      </trkpt>
      <trkpt lat="50.421340" lon="26.500800">
        <ele>240.131578</ele>
        <time>2019-06-06T13:10:18.000Z</time>
      </trkpt>
      <trkpt lat="50.421260" lon="26.500860">
        <ele>240.309525</ele>
        <time>2019-06-06T13:10:21.000Z</time>
      </trkpt>
      <trkpt lat="50.421170" lon="26.500914">
        <ele>240.502900</ele>
        <time>2019-06-06T13:10:24.000Z</time>
      </trkpt>
      <trkpt lat="50.421074" lon="26.500984">
        <ele>240.715346</ele>
        <time>2019-06-06T13:10:27.000Z</time>
      </trkpt>
      <trkpt lat="50.420982" lon="26.501017">
        <ele>240.904748</ele>
        <time>2019-06-06T13:10:30.000Z</time>
      </trkpt>
      <trkpt lat="50.420887" lon="26.501057">
        <ele>241.102151</ele>
        <time>2019-06-06T13:10:33.000Z</time>
      </trkpt>
      <trkpt lat="50.420776" lon="26.501070">
        <ele>241.325544</ele>
        <time>2019-06-06T13:10:37.000Z</time>
      </trkpt>
      <trkpt lat="50.420662" lon="26.501091">
        <ele>241.555908</ele>
        <time>2019-06-06T13:10:41.000Z</time>
      </trkpt>
      <trkpt lat="50.420563" lon="26.501091">
        <ele>241.754598</ele>
        <time>2019-06-06T13:10:45.000Z</time>
      </trkpt>
      <trkpt lat="50.420475" lon="26.501118">
        <ele>241.934554</ele>
        <time>2019-06-06T13:10:51.000Z</time>
      </trkpt>
      <trkpt lat="50.420364" lon="26.501118">
        <ele>242.157327</ele>
        <time>2019-06-06T13:10:56.000Z</time>
      </trkpt>
      <trkpt lat="50.420260" lon="26.501116">
        <ele>241.780837</ele>
        <time>2019-06-06T13:11:00.000Z</time>
      </trkpt>
      <trkpt lat="50.420155" lon="26.501112">
        <ele>241.387600</ele>
        <time>2019-06-06T13:11:04.000Z</time>
      </trkpt>
      <trkpt lat="50.420048" lon="26.501135">
        <ele>240.983251</ele>
        <time>2019-06-06T13:11:09.000Z</time>
      </trkpt>
      <trkpt lat="50.419960" lon="26.501097">
        <ele>240.641534</ele>
        <time>2019-06-06T13:11:13.000Z</time>
      </trkpt>
      <trkpt lat="50.419827" lon="26.501085">
        <ele>240.142758</ele>
        <time>2019-06-06T13:11:58.000Z</time>
      </trkpt>
      <trkpt lat="50.419724" lon="26.501068">
        <ele>239.754998</ele>
        <time>2019-06-06T13:12:01.000Z</time>
      </trkpt>
      <trkpt lat="50.419600" lon="26.501080">
        <ele>239.289859</ele>
        <time>2019-06-06T13:12:04.000Z</time>
      </trkpt>
      <trkpt lat="50.419487" lon="26.501072">
        <ele>238.866355</ele>
        <time>2019-06-06T13:12:07.000Z</time>
      </trkpt>
      <trkpt lat="50.419373" lon="26.501068">
        <ele>238.439431</ele>
        <time>2019-06-06T13:12:10.000Z</time>
      </trkpt>
      <trkpt lat="50.419270" lon="26.501066">
        <ele>238.053768</ele>
        <time>2019-06-06T13:12:13.000Z</time>
      </trkpt>
      <trkpt lat="50.419155" lon="26.501070">
        <ele>237.623100</ele>
        <time>2019-06-06T13:12:16.000Z</time>
      </trkpt>
      <trkpt lat="50.419044" lon="26.501068">
        <ele>237.207487</ele>
        <time>2019-06-06T13:12:19.000Z</time>
      </trkpt>
      <trkpt lat="50.418938" lon="26.501062">
        <ele>236.810364</ele>
        <time>2019-06-06T13:12:22.000Z</time>
      </trkpt>
      <trkpt lat="50.418827" lon="26.501057">
        <ele>236.394607</ele>
        <time>2019-06-06T13:12:25.000Z</time>
      </trkpt>
      <trkpt lat="50.418700" lon="26.501036">
        <ele>235.916486</ele>
        <time>2019-06-06T13:12:28.000Z</time>
      </trkpt>
      <trkpt lat="50.418575" lon="26.501028">
        <ele>235.448095</ele>
        <time>2019-06-06T13:12:31.000Z</time>
      </trkpt>
      <trkpt lat="50.418440" lon="26.501036">
        <ele>235.047342</ele>
        <time>2019-06-06T13:12:34.000Z</time>
      </trkpt>
      <trkpt lat="50.418346" lon="26.501030">
        <ele>234.771343</ele>
        <time>2019-06-06T13:12:36.000Z</time>
      </trkpt>
      <trkpt lat="50.418255" lon="26.501026">
        <ele>234.504268</ele>
        <time>2019-06-06T13:12:38.000Z</time>
      </trkpt>
      <trkpt lat="50.418156" lon="26.501032">
        <ele>234.213612</ele>
        <time>2019-06-06T13:12:40.000Z</time>
      </trkpt>
      <trkpt lat="50.418050" lon="26.501028">
        <ele>233.902546</ele>
        <time>2019-06-06T13:12:42.000Z</time>
      </trkpt>
      <trkpt lat="50.417940" lon="26.501028">
        <ele>233.579835</ele>
        <time>2019-06-06T13:12:44.000Z</time>
      </trkpt>
      <trkpt lat="50.417824" lon="26.501017">
        <ele>233.238901</ele>
        <time>2019-06-06T13:12:46.000Z</time>
      </trkpt>
      <trkpt lat="50.417710" lon="26.501010">
        <ele>232.904199</ele>
        <time>2019-06-06T13:12:48.000Z</time>
      </trkpt>
      <trkpt lat="50.417600" lon="26.501015">
        <ele>232.581352</ele>
        <time>2019-06-06T13:12:50.000Z</time>
      </trkpt>
      <trkpt lat="50.417492" lon="26.501009">
        <ele>232.264310</ele>
        <time>2019-06-06T13:12:52.000Z</time>
      </trkpt>
      <trkpt lat="50.417390" lon="26.501005">
        <ele>231.964976</ele>
        <time>2019-06-06T13:12:54.000Z</time>
      </trkpt>
      <trkpt lat="50.417294" lon="26.501007">
        <ele>231.683312</ele>
        <time>2019-06-06T13:12:56.000Z</time>
      </trkpt>
      <trkpt lat="50.417187" lon="26.501007">
        <ele>231.369403</ele>
        <time>2019-06-06T13:12:58.000Z</time>
      </trkpt>
      <trkpt lat="50.417084" lon="26.501003">
        <ele>231.067135</ele>
        <time>2019-06-06T13:13:00.000Z</time>
      </trkpt>
      <trkpt lat="50.416980" lon="26.500978">
        <ele>230.758468</ele>
        <time>2019-06-06T13:13:02.000Z</time>
      </trkpt>
      <trkpt lat="50.416880" lon="26.500973">
        <ele>230.464946</ele>
        <time>2019-06-06T13:13:04.000Z</time>
      </trkpt>
      <trkpt lat="50.416770" lon="26.500970">
        <ele>230.151095</ele>
        <time>2019-06-06T13:13:06.000Z</time>
      </trkpt>
      <trkpt lat="50.416660" lon="26.500973">
        <ele>230.156660</ele>
        <time>2019-06-06T13:13:08.000Z</time>
      </trkpt>
      <trkpt lat="50.416546" lon="26.500988">
        <ele>230.162448</ele>
        <time>2019-06-06T13:13:10.000Z</time>
      </trkpt>
      <trkpt lat="50.416430" lon="26.500994">
        <ele>230.168319</ele>
        <time>2019-06-06T13:13:12.000Z</time>
      </trkpt>
      <trkpt lat="50.416320" lon="26.500988">
        <ele>230.173887</ele>
        <time>2019-06-06T13:13:14.000Z</time>
      </trkpt>
      <trkpt lat="50.416214" lon="26.500988">
        <ele>230.179250</ele>
        <time>2019-06-06T13:13:16.000Z</time>
      </trkpt>
      <trkpt lat="50.416115" lon="26.500982">
        <ele>230.184262</ele>
        <time>2019-06-06T13:13:18.000Z</time>
      </trkpt>
      <trkpt lat="50.416008" lon="26.500975">
        <ele>230.189679</ele>
        <time>2019-06-06T13:13:20.000Z</time>
      </trkpt>
      <trkpt lat="50.415894" lon="26.500969">
        <ele>230.195450</ele>
        <time>2019-06-06T13:13:22.000Z</time>
      </trkpt>
      <trkpt lat="50.415787" lon="26.500954">
        <ele>230.200884</ele>
        <time>2019-06-06T13:13:24.000Z</time>
      </trkpt>
      <trkpt lat="50.415676" lon="26.500948">
        <ele>230.206503</ele>
        <time>2019-06-06T13:13:26.000Z</time>
      </trkpt>
      <trkpt lat="50.415565" lon="26.500948">
        <ele>230.212118</ele>
        <time>2019-06-06T13:13:28.000Z</time>
      </trkpt>
      <trkpt lat="50.415450" lon="26.500950">
        <ele>230.217936</ele>
        <time>2019-06-06T13:13:30.000Z</time>
      </trkpt>
      <trkpt lat="50.415337" lon="26.500948">
        <ele>230.223653</ele>
        <time>2019-06-06T13:13:32.000Z</time>
      </trkpt>
      <trkpt lat="50.415234" lon="26.500944">
        <ele>230.228865</ele>
        <time>2019-06-06T13:13:34.000Z</time>
      </trkpt>
      <trkpt lat="50.415140" lon="26.500952">
        <ele>230.233628</ele>
        <time>2019-06-06T13:13:36.000Z</time>
      </trkpt>
      <trkpt lat="50.415030" lon="26.500957">
        <ele>230.239195</ele>
        <time>2019-06-06T13:13:38.000Z</time>
      </trkpt>
      <trkpt lat="50.414930" lon="26.500957">
        <ele>230.170778</ele>
        <time>2019-06-06T13:13:40.000Z</time>
      </trkpt>
      <trkpt lat="50.414825" lon="26.500960">
        <ele>230.007763</ele>
        <time>2019-06-06T13:13:42.000Z</time>
      </trkpt>
      <trkpt lat="50.414722" lon="26.500954">
        <ele>229.847769</ele>
        <time>2019-06-06T13:13:44.000Z</time>
      </trkpt>
      <trkpt lat="50.414616" lon="26.500950">
        <ele>229.683181</ele>
        <time>2019-06-06T13:13:46.000Z</time>
      </trkpt>
      <trkpt lat="50.414516" lon="26.500946">
        <ele>229.527904</ele>
        <time>2019-06-06T13:13:48.000Z</time>
      </trkpt>
      <trkpt lat="50.414410" lon="26.500940">
        <ele>229.363257</ele>
        <time>2019-06-06T13:13:50.000Z</time>
      </trkpt>
      <trkpt lat="50.414307" lon="26.500930">
        <ele>229.203068</ele>
        <time>2019-06-06T13:13:52.000Z</time>
      </trkpt>
      <trkpt lat="50.414207" lon="26.500927">
        <ele>229.047812</ele>
        <time>2019-06-06T13:13:54.000Z</time>
      </trkpt>
      <trkpt lat="50.414116" lon="26.500935">
        <ele>228.906335</ele>
        <time>2019-06-06T13:13:56.000Z</time>
      </trkpt>
      <trkpt lat="50.414013" lon="26.500929">
        <ele>228.746341</ele>
        <time>2019-06-06T13:13:58.000Z</time>
      </trkpt>
      <trkpt lat="50.413910" lon="26.500929">
        <ele>228.586457</ele>
        <time>2019-06-06T13:14:00.000Z</time>
      </trkpt>
      <trkpt lat="50.413807" lon="26.500920">
        <ele>228.426326</ele>
        <time>2019-06-06T13:14:02.000Z</time>
      </trkpt>
      <trkpt lat="50.413708" lon="26.500906">
        <ele>228.272029</ele>
        <time>2019-06-06T13:14:04.000Z</time>
      </trkpt>
      <trkpt lat="50.413593" lon="26.500902">
        <ele>228.093475</ele>
        <time>2019-06-06T13:14:06.000Z</time>
      </trkpt>
      <trkpt lat="50.413483" lon="26.500902">
        <ele>227.922725</ele>
        <time>2019-06-06T13:14:08.000Z</time>
      </trkpt>
      <trkpt lat="50.413372" lon="26.500895">
        <ele>227.750284</ele>
        <time>2019-06-06T13:14:10.000Z</time>
      </trkpt>
      <trkpt lat="50.413270" lon="26.500893">
        <ele>227.591941</ele>
        <time>2019-06-06T13:14:12.000Z</time>
      </trkpt>
      <trkpt lat="50.413166" lon="26.500895">
        <ele>227.419758</ele>
        <time>2019-06-06T13:14:14.000Z</time>
      </trkpt>
      <trkpt lat="50.413063" lon="26.500883">
        <ele>227.171027</ele>
        <time>2019-06-06T13:14:16.000Z</time>
      </trkpt>
      <trkpt lat="50.412956" lon="26.500877">
        <ele>226.913180</ele>
        <time>2019-06-06T13:14:18.000Z</time>
      </trkpt>
      <trkpt lat="50.412850" lon="26.500866">
        <ele>226.657349</ele>
        <time>2019-06-06T13:14:20.000Z</time>
      </trkpt>
      <trkpt lat="50.412740" lon="26.500860">
        <ele>226.392282</ele>
        <time>2019-06-06T13:14:22.000Z</time>
      </trkpt>
      <trkpt lat="50.412620" lon="26.500849">
        <ele>226.102801</ele>
        <time>2019-06-06T13:14:24.000Z</time>
      </trkpt>
      <trkpt lat="50.412500" lon="26.500841">
        <ele>225.813551</ele>
        <time>2019-06-06T13:14:26.000Z</time>
      </trkpt>
      <trkpt lat="50.412373" lon="26.500841">
        <ele>225.507704</ele>
        <time>2019-06-06T13:14:28.000Z</time>
      </trkpt>
      <trkpt lat="50.412250" lon="26.500843">
        <ele>225.211474</ele>
        <time>2019-06-06T13:14:30.000Z</time>
      </trkpt>
      <trkpt lat="50.412136" lon="26.500845">
        <ele>224.936918</ele>
        <time>2019-06-06T13:14:32.000Z</time>
      </trkpt>
      <trkpt lat="50.412025" lon="26.500843">
        <ele>224.669585</ele>
        <time>2019-06-06T13:14:34.000Z</time>
      </trkpt>
      <trkpt lat="50.411926" lon="26.500841">
        <ele>224.431149</ele>
        <time>2019-06-06T13:14:36.000Z</time>
      </trkpt>
      <trkpt lat="50.411827" lon="26.500845">
        <ele>224.192654</ele>
        <time>2019-06-06T13:14:38.000Z</time>
      </trkpt>
      <trkpt lat="50.411720" lon="26.500840">
        <ele>223.934858</ele>
        <time>2019-06-06T13:14:40.000Z</time>
      </trkpt>
      <trkpt lat="50.411617" lon="26.500835">
        <ele>223.686691</ele>
        <time>2019-06-06T13:14:42.000Z</time>
      </trkpt>
      <trkpt lat="50.411514" lon="26.500832">
        <ele>223.438599</ele>
        <time>2019-06-06T13:14:44.000Z</time>
      </trkpt>
      <trkpt lat="50.411415" lon="26.500837">
        <ele>223.200060</ele>
        <time>2019-06-06T13:14:46.000Z</time>
      </trkpt>
      <trkpt lat="50.411316" lon="26.500840">
        <ele>223.124618</ele>
        <time>2019-06-06T13:14:48.000Z</time>
      </trkpt>
      <trkpt lat="50.411217" lon="26.500837">
        <ele>223.134087</ele>
        <time>2019-06-06T13:14:50.000Z</time>
      </trkpt>
      <trkpt lat="50.411114" lon="26.500840">
        <ele>223.143938</ele>
        <time>2019-06-06T13:14:52.000Z</time>
      </trkpt>
      <trkpt lat="50.411015" lon="26.500834">
        <ele>223.153413</ele>
        <time>2019-06-06T13:14:54.000Z</time>
      </trkpt>
      <trkpt lat="50.410910" lon="26.500832">
        <ele>223.163455</ele>
        <time>2019-06-06T13:14:56.000Z</time>
      </trkpt>
      <trkpt lat="50.410812" lon="26.500841">
        <ele>223.172843</ele>
        <time>2019-06-06T13:14:58.000Z</time>
      </trkpt>
      <trkpt lat="50.410717" lon="26.500830">
        <ele>223.181952</ele>
        <time>2019-06-06T13:15:00.000Z</time>
      </trkpt>
      <trkpt lat="50.410614" lon="26.500820">
        <ele>223.191821</ele>
        <time>2019-06-06T13:15:02.000Z</time>
      </trkpt>
      <trkpt lat="50.410520" lon="26.500824">
        <ele>223.200814</ele>
        <time>2019-06-06T13:15:04.000Z</time>
      </trkpt>
      <trkpt lat="50.410420" lon="26.500818">
        <ele>223.210384</ele>
        <time>2019-06-06T13:15:06.000Z</time>
      </trkpt>
      <trkpt lat="50.410320" lon="26.500803">
        <ele>223.219990</ele>
        <time>2019-06-06T13:15:08.000Z</time>
      </trkpt>
      <trkpt lat="50.410220" lon="26.500797">
        <ele>223.229560</ele>
        <time>2019-06-06T13:15:10.000Z</time>
      </trkpt>
      <trkpt lat="50.410114" lon="26.500788">
        <ele>223.239712</ele>
        <time>2019-06-06T13:15:12.000Z</time>
      </trkpt>
      <trkpt lat="50.410015" lon="26.500790">
        <ele>223.249180</ele>
        <time>2019-06-06T13:15:14.000Z</time>
      </trkpt>
      <trkpt lat="50.409920" lon="26.500784">
        <ele>223.258273</ele>
        <time>2019-06-06T13:15:16.000Z</time>
      </trkpt>
      <trkpt lat="50.409817" lon="26.500772">
        <ele>223.268150</ele>
        <time>2019-06-06T13:15:18.000Z</time>
      </trkpt>
      <trkpt lat="50.409718" lon="26.500769">
        <ele>223.277619</ele>
        <time>2019-06-06T13:15:20.000Z</time>
      </trkpt>
      <trkpt lat="50.409615" lon="26.500767">
        <ele>223.287469</ele>
        <time>2019-06-06T13:15:22.000Z</time>
      </trkpt>
      <trkpt lat="50.409515" lon="26.500767">
        <ele>223.376276</ele>
        <time>2019-06-06T13:15:24.000Z</time>
      </trkpt>
      <trkpt lat="50.409416" lon="26.500770">
        <ele>223.498824</ele>
        <time>2019-06-06T13:15:26.000Z</time>
      </trkpt>
      <trkpt lat="50.409313" lon="26.500765">
        <ele>223.626361</ele>
        <time>2019-06-06T13:15:28.000Z</time>
      </trkpt>
      <trkpt lat="50.409218" lon="26.500755">
        <ele>223.744199</ele>
        <time>2019-06-06T13:15:30.000Z</time>
      </trkpt>
      <trkpt lat="50.409122" lon="26.500746">
        <ele>223.863223</ele>
        <time>2019-06-06T13:15:32.000Z</time>
      </trkpt>
      <trkpt lat="50.409023" lon="26.500748">
        <ele>223.985759</ele>
        <time>2019-06-06T13:15:34.000Z</time>
      </trkpt>
      <trkpt lat="50.408928" lon="26.500742">
        <ele>224.103428</ele>
        <time>2019-06-06T13:15:36.000Z</time>
      </trkpt>
      <trkpt lat="50.408833" lon="26.500742">
        <ele>224.221003</ele>
        <time>2019-06-06T13:15:38.000Z</time>
      </trkpt>
      <trkpt lat="50.408730" lon="26.500744">
        <ele>224.348488</ele>
        <time>2019-06-06T13:15:40.000Z</time>
      </trkpt>
      <trkpt lat="50.408630" lon="26.500746">
        <ele>224.472261</ele>
        <time>2019-06-06T13:15:42.000Z</time>
      </trkpt>
      <trkpt lat="50.408535" lon="26.500732">
        <ele>224.590353</ele>
        <time>2019-06-06T13:15:44.000Z</time>
      </trkpt>
      <trkpt lat="50.408432" lon="26.500723">
        <ele>224.718026</ele>
        <time>2019-06-06T13:15:46.000Z</time>
      </trkpt>
      <trkpt lat="50.408340" lon="26.500721">
        <ele>224.831898</ele>
        <time>2019-06-06T13:15:48.000Z</time>
      </trkpt>
      <trkpt lat="50.408245" lon="26.500717">
        <ele>224.949515</ele>
        <time>2019-06-06T13:15:50.000Z</time>
      </trkpt>
      <trkpt lat="50.408150" lon="26.500708">
        <ele>225.067304</ele>
        <time>2019-06-06T13:15:52.000Z</time>
      </trkpt>
      <trkpt lat="50.408060" lon="26.500706">
        <ele>225.178701</ele>
        <time>2019-06-06T13:15:54.000Z</time>
      </trkpt>
      <trkpt lat="50.407970" lon="26.500713">
        <ele>225.290224</ele>
        <time>2019-06-06T13:15:56.000Z</time>
      </trkpt>
      <trkpt lat="50.407840" lon="26.500710">
        <ele>225.451133</ele>
        <time>2019-06-06T13:15:59.000Z</time>
      </trkpt>
      <trkpt lat="50.407750" lon="26.500700">
        <ele>225.548519</ele>
        <time>2019-06-06T13:16:01.000Z</time>
      </trkpt>
      <trkpt lat="50.407616" lon="26.500711">
        <ele>225.663429</ele>
        <time>2019-06-06T13:16:04.000Z</time>
      </trkpt>
      <trkpt lat="50.407480" lon="26.500694">
        <ele>225.780264</ele>
        <time>2019-06-06T13:16:07.000Z</time>
      </trkpt>
      <trkpt lat="50.407345" lon="26.500690">
        <ele>225.895893</ele>
        <time>2019-06-06T13:16:10.000Z</time>
      </trkpt>
      <trkpt lat="50.407215" lon="26.500687">
        <ele>226.007233</ele>
        <time>2019-06-06T13:16:13.000Z</time>
      </trkpt>
      <trkpt lat="50.407085" lon="26.500680">
        <ele>226.118626</ele>
        <time>2019-06-06T13:16:16.000Z</time>
      </trkpt>
      <trkpt lat="50.406994" lon="26.500671">
        <ele>226.196710</ele>
        <time>2019-06-06T13:16:18.000Z</time>
      </trkpt>
      <trkpt lat="50.406870" lon="26.500671">
        <ele>226.302899</ele>
        <time>2019-06-06T13:16:21.000Z</time>
      </trkpt>
      <trkpt lat="50.406746" lon="26.500671">
        <ele>226.409088</ele>
        <time>2019-06-06T13:16:24.000Z</time>
      </trkpt>
      <trkpt lat="50.406616" lon="26.500673">
        <ele>226.520421</ele>
        <time>2019-06-06T13:16:27.000Z</time>
      </trkpt>
      <trkpt lat="50.406494" lon="26.500689">
        <ele>226.625262</ele>
        <time>2019-06-06T13:16:30.000Z</time>
      </trkpt>
      <trkpt lat="50.406372" lon="26.500671">
        <ele>226.730199</ele>
        <time>2019-06-06T13:16:33.000Z</time>
      </trkpt>
      <trkpt lat="50.406250" lon="26.500666">
        <ele>226.834712</ele>
        <time>2019-06-06T13:16:36.000Z</time>
      </trkpt>
      <trkpt lat="50.406124" lon="26.500656">
        <ele>226.942752</ele>
        <time>2019-06-06T13:16:39.000Z</time>
      </trkpt>
      <trkpt lat="50.406000" lon="26.500647">
        <ele>227.049054</ele>
        <time>2019-06-06T13:16:42.000Z</time>
      </trkpt>
      <trkpt lat="50.405876" lon="26.500643">
        <ele>227.173379</ele>
        <time>2019-06-06T13:16:45.000Z</time>
      </trkpt>
      <trkpt lat="50.405754" lon="26.500635">
        <ele>227.297171</ele>
        <time>2019-06-06T13:16:48.000Z</time>
      </trkpt>
      <trkpt lat="50.405624" lon="26.500640">
        <ele>227.429004</ele>
        <time>2019-06-06T13:16:51.000Z</time>
      </trkpt>
      <trkpt lat="50.405490" lon="26.500630">
        <ele>227.565007</ele>
        <time>2019-06-06T13:16:54.000Z</time>
      </trkpt>
      <trkpt lat="50.405400" lon="26.500630">
        <ele>227.656249</ele>
        <time>2019-06-06T13:16:56.000Z</time>
      </trkpt>
      <trkpt lat="50.405270" lon="26.500630">
        <ele>227.788043</ele>
        <time>2019-06-06T13:16:59.000Z</time>
      </trkpt>
      <trkpt lat="50.405136" lon="26.500626">
        <ele>227.923917</ele>
        <time>2019-06-06T13:17:02.000Z</time>
      </trkpt>
      <trkpt lat="50.405014" lon="26.500637">
        <ele>228.047805</ele>
        <time>2019-06-06T13:17:05.000Z</time>
      </trkpt>
      <trkpt lat="50.404896" lon="26.500633">
        <ele>228.167461</ele>
        <time>2019-06-06T13:17:08.000Z</time>
      </trkpt>
      <trkpt lat="50.404778" lon="26.500640">
        <ele>228.287175</ele>
        <time>2019-06-06T13:17:11.000Z</time>
      </trkpt>
      <trkpt lat="50.404670" lon="26.500650">
        <ele>228.396856</ele>
        <time>2019-06-06T13:17:14.000Z</time>
      </trkpt>
      <trkpt lat="50.404552" lon="26.500650">
        <ele>228.516485</ele>
        <time>2019-06-06T13:17:17.000Z</time>
      </trkpt>
      <trkpt lat="50.404450" lon="26.500639">
        <ele>228.620136</ele>
        <time>2019-06-06T13:17:20.000Z</time>
      </trkpt>
      <trkpt lat="50.404343" lon="26.500620">
        <ele>228.729306</ele>
        <time>2019-06-06T13:17:24.000Z</time>
      </trkpt>
      <trkpt lat="50.404240" lon="26.500595">
        <ele>228.834969</ele>
        <time>2019-06-06T13:17:29.000Z</time>
      </trkpt>
      <trkpt lat="50.404060" lon="26.500563">
        <ele>228.875598</ele>
        <time>2019-06-06T13:18:48.000Z</time>
      </trkpt>
      <trkpt lat="50.403946" lon="26.500593">
        <ele>228.871697</ele>
        <time>2019-06-06T13:18:52.000Z</time>
      </trkpt>
      <trkpt lat="50.403847" lon="26.500599">
        <ele>228.868354</ele>
        <time>2019-06-06T13:18:55.000Z</time>
      </trkpt>
      <trkpt lat="50.403748" lon="26.500593">
        <ele>228.865011</ele>
        <time>2019-06-06T13:18:59.000Z</time>
      </trkpt>
      <trkpt lat="50.403650" lon="26.500603">
        <ele>228.861697</ele>
        <time>2019-06-06T13:19:03.000Z</time>
      </trkpt>
      <trkpt lat="50.403538" lon="26.500624">
        <ele>228.857890</ele>
        <time>2019-06-06T13:19:06.000Z</time>
      </trkpt>
      <trkpt lat="50.403423" lon="26.500630">
        <ele>228.854007</ele>
        <time>2019-06-06T13:19:09.000Z</time>
      </trkpt>
      <trkpt lat="50.403290" lon="26.500618">
        <ele>228.849511</ele>
        <time>2019-06-06T13:19:12.000Z</time>
      </trkpt>
      <trkpt lat="50.403160" lon="26.500614">
        <ele>228.845124</ele>
        <time>2019-06-06T13:19:15.000Z</time>
      </trkpt>
      <trkpt lat="50.403040" lon="26.500614">
        <ele>228.841074</ele>
        <time>2019-06-06T13:19:18.000Z</time>
      </trkpt>
      <trkpt lat="50.402927" lon="26.500605">
        <ele>228.837256</ele>
        <time>2019-06-06T13:19:21.000Z</time>
      </trkpt>
      <trkpt lat="50.402798" lon="26.500597">
        <ele>228.832899</ele>
        <time>2019-06-06T13:19:24.000Z</time>
      </trkpt>
      <trkpt lat="50.402676" lon="26.500580">
        <ele>228.828766</ele>
        <time>2019-06-06T13:19:27.000Z</time>
      </trkpt>
      <trkpt lat="50.402554" lon="26.500551">
        <ele>228.824602</ele>
        <time>2019-06-06T13:19:30.000Z</time>
      </trkpt>
      <trkpt lat="50.402443" lon="26.500542">
        <ele>228.820851</ele>
        <time>2019-06-06T13:19:33.000Z</time>
      </trkpt>
      <trkpt lat="50.402332" lon="26.500519">
        <ele>228.704043</ele>
        <time>2019-06-06T13:19:36.000Z</time>
      </trkpt>
      <trkpt lat="50.402210" lon="26.500490">
        <ele>228.506630</ele>
        <time>2019-06-06T13:19:39.000Z</time>
      </trkpt>
      <trkpt lat="50.402090" lon="26.500471">
        <ele>228.313669</ele>
        <time>2019-06-06T13:19:42.000Z</time>
      </trkpt>
      <trkpt lat="50.401966" lon="26.500439">
        <ele>228.112617</ele>
        <time>2019-06-06T13:19:45.000Z</time>
      </trkpt>
      <trkpt lat="50.401833" lon="26.500423">
        <ele>227.899208</ele>
        <time>2019-06-06T13:19:48.000Z</time>
      </trkpt>
      <trkpt lat="50.401707" lon="26.500402">
        <ele>227.696489</ele>
        <time>2019-06-06T13:19:51.000Z</time>
      </trkpt>
      <trkpt lat="50.401615" lon="26.500402">
        <ele>227.549300</ele>
        <time>2019-06-06T13:19:52.000Z</time>
      </trkpt>
      <trkpt lat="50.401520" lon="26.500397">
        <ele>227.397226</ele>
        <time>2019-06-06T13:19:55.000Z</time>
      </trkpt>
      <trkpt lat="50.401430" lon="26.500408">
        <ele>227.252800</ele>
        <time>2019-06-06T13:19:57.000Z</time>
      </trkpt>
      <trkpt lat="50.401300" lon="26.500390">
        <ele>227.044007</ele>
        <time>2019-06-06T13:19:59.000Z</time>
      </trkpt>
      <trkpt lat="50.401176" lon="26.500372">
        <ele>226.844774</ele>
        <time>2019-06-06T13:20:03.000Z</time>
      </trkpt>
      <trkpt lat="50.401043" lon="26.500353">
        <ele>226.631109</ele>
        <time>2019-06-06T13:20:06.000Z</time>
      </trkpt>
      <trkpt lat="50.400950" lon="26.500360">
        <ele>226.482149</ele>
        <time>2019-06-06T13:20:08.000Z</time>
      </trkpt>
      <trkpt lat="50.400856" lon="26.500359">
        <ele>226.331757</ele>
        <time>2019-06-06T13:20:09.000Z</time>
      </trkpt>
      <trkpt lat="50.400764" lon="26.500343">
        <ele>226.183666</ele>
        <time>2019-06-06T13:20:11.000Z</time>
      </trkpt>
      <trkpt lat="50.400673" lon="26.500332">
        <ele>226.037645</ele>
        <time>2019-06-06T13:20:14.000Z</time>
      </trkpt>
      <trkpt lat="50.400570" lon="26.500328">
        <ele>225.883360</ele>
        <time>2019-06-06T13:20:16.000Z</time>
      </trkpt>
      <trkpt lat="50.400480" lon="26.500315">
        <ele>225.760850</ele>
        <time>2019-06-06T13:20:18.000Z</time>
      </trkpt>
      <trkpt lat="50.400383" lon="26.500301">
        <ele>225.628813</ele>
        <time>2019-06-06T13:20:20.000Z</time>
      </trkpt>
      <trkpt lat="50.400284" lon="26.500282">
        <ele>225.493619</ele>
        <time>2019-06-06T13:20:22.000Z</time>
      </trkpt>
      <trkpt lat="50.400192" lon="26.500269">
        <ele>225.368410</ele>
        <time>2019-06-06T13:20:24.000Z</time>
      </trkpt>
      <trkpt lat="50.400100" lon="26.500269">
        <ele>225.243705</ele>
        <time>2019-06-06T13:20:26.000Z</time>
      </trkpt>
      <trkpt lat="50.400005" lon="26.500273">
        <ele>225.114887</ele>
        <time>2019-06-06T13:20:27.000Z</time>
      </trkpt>
      <trkpt lat="50.399870" lon="26.500263">
        <ele>224.931692</ele>
        <time>2019-06-06T13:20:31.000Z</time>
      </trkpt>
      <trkpt lat="50.399776" lon="26.500256">
        <ele>224.804133</ele>
        <time>2019-06-06T13:20:32.000Z</time>
      </trkpt>
      <trkpt lat="50.399685" lon="26.500250">
        <ele>224.680675</ele>
        <time>2019-06-06T13:20:35.000Z</time>
      </trkpt>
      <trkpt lat="50.399555" lon="26.500244">
        <ele>224.504385</ele>
        <time>2019-06-06T13:20:38.000Z</time>
      </trkpt>
      <trkpt lat="50.399418" lon="26.500246">
        <ele>224.318675</ele>
        <time>2019-06-06T13:20:41.000Z</time>
      </trkpt>
      <trkpt lat="50.399284" lon="26.500240">
        <ele>224.136966</ele>
        <time>2019-06-06T13:20:44.000Z</time>
      </trkpt>
      <trkpt lat="50.399197" lon="26.500225">
        <ele>224.018329</ele>
        <time>2019-06-06T13:20:46.000Z</time>
      </trkpt>
      <trkpt lat="50.399100" lon="26.500204">
        <ele>223.885600</ele>
        <time>2019-06-06T13:20:48.000Z</time>
      </trkpt>
      <trkpt lat="50.399010" lon="26.500195">
        <ele>223.763359</ele>
        <time>2019-06-06T13:20:50.000Z</time>
      </trkpt>
      <trkpt lat="50.398920" lon="26.500195">
        <ele>223.641365</ele>
        <time>2019-06-06T13:20:52.000Z</time>
      </trkpt>
      <trkpt lat="50.398827" lon="26.500187">
        <ele>223.515115</ele>
        <time>2019-06-06T13:20:54.000Z</time>
      </trkpt>
      <trkpt lat="50.398740" lon="26.500180">
        <ele>223.615015</ele>
        <time>2019-06-06T13:20:56.000Z</time>
      </trkpt>
      <trkpt lat="50.398610" lon="26.500190">
        <ele>223.798611</ele>
        <time>2019-06-06T13:20:59.000Z</time>
      </trkpt>
      <trkpt lat="50.398483" lon="26.500187">
        <ele>223.977775</ele>
        <time>2019-06-06T13:21:02.000Z</time>
      </trkpt>
      <trkpt lat="50.398315" lon="26.500177">
        <ele>224.214924</ele>
        <time>2019-06-06T13:21:06.000Z</time>
      </trkpt>
      <trkpt lat="50.398193" lon="26.500164">
        <ele>224.387411</ele>
        <time>2019-06-06T13:21:09.000Z</time>
      </trkpt>
      <trkpt lat="50.398070" lon="26.500147">
        <ele>224.561585</ele>
        <time>2019-06-06T13:21:12.000Z</time>
      </trkpt>
      <trkpt lat="50.397980" lon="26.500141">
        <ele>224.688652</ele>
        <time>2019-06-06T13:21:14.000Z</time>
      </trkpt>
      <trkpt lat="50.397850" lon="26.500145">
        <ele>224.872062</ele>
        <time>2019-06-06T13:21:17.000Z</time>
      </trkpt>
      <trkpt lat="50.397736" lon="26.500150">
        <ele>225.032931</ele>
        <time>2019-06-06T13:21:20.000Z</time>
      </trkpt>
      <trkpt lat="50.397617" lon="26.500153">
        <ele>225.200812</ele>
        <time>2019-06-06T13:21:23.000Z</time>
      </trkpt>
      <trkpt lat="50.397495" lon="26.500149">
        <ele>225.372941</ele>
        <time>2019-06-06T13:21:26.000Z</time>
      </trkpt>
      <trkpt lat="50.397377" lon="26.500143">
        <ele>225.539477</ele>
        <time>2019-06-06T13:21:29.000Z</time>
      </trkpt>
      <trkpt lat="50.397255" lon="26.500137">
        <ele>225.711652</ele>
        <time>2019-06-06T13:21:32.000Z</time>
      </trkpt>
      <trkpt lat="50.397144" lon="26.500150">
        <ele>225.868663</ele>
        <time>2019-06-06T13:21:35.000Z</time>
      </trkpt>
      <trkpt lat="50.397030" lon="26.500137">
        <ele>226.029893</ele>
        <time>2019-06-06T13:21:38.000Z</time>
      </trkpt>
      <trkpt lat="50.396920" lon="26.500134">
        <ele>226.031394</ele>
        <time>2019-06-06T13:21:41.000Z</time>
      </trkpt>
      <trkpt lat="50.396800" lon="26.500140">
        <ele>226.020120</ele>
        <time>2019-06-06T13:21:44.000Z</time>
      </trkpt>
      <trkpt lat="50.396675" lon="26.500134">
        <ele>226.008377</ele>
        <time>2019-06-06T13:21:47.000Z</time>
      </trkpt>
      <trkpt lat="50.396557" lon="26.500128">
        <ele>225.997291</ele>
        <time>2019-06-06T13:21:50.000Z</time>
      </trkpt>
      <trkpt lat="50.396435" lon="26.500126">
        <ele>225.985835</ele>
        <time>2019-06-06T13:21:53.000Z</time>
      </trkpt>
      <trkpt lat="50.396310" lon="26.500114">
        <ele>225.974075</ele>
        <time>2019-06-06T13:21:56.000Z</time>
      </trkpt>
      <trkpt lat="50.396194" lon="26.500105">
        <ele>225.963170</ele>
        <time>2019-06-06T13:21:59.000Z</time>
      </trkpt>
      <trkpt lat="50.396076" lon="26.500101">
        <ele>225.952087</ele>
        <time>2019-06-06T13:22:02.000Z</time>
      </trkpt>
      <trkpt lat="50.395958" lon="26.500092">
        <ele>225.940994</ele>
        <time>2019-06-06T13:22:05.000Z</time>
      </trkpt>
      <trkpt lat="50.395832" lon="26.500084">
        <ele>225.929153</ele>
        <time>2019-06-06T13:22:08.000Z</time>
      </trkpt>
      <trkpt lat="50.395702" lon="26.500069">
        <ele>225.916913</ele>
        <time>2019-06-06T13:22:11.000Z</time>
      </trkpt>
      <trkpt lat="50.395576" lon="26.500060">
        <ele>225.905069</ele>
        <time>2019-06-06T13:22:14.000Z</time>
      </trkpt>
      <trkpt lat="50.395443" lon="26.500051">
        <ele>225.892569</ele>
        <time>2019-06-06T13:22:17.000Z</time>
      </trkpt>
      <trkpt lat="50.395317" lon="26.500057">
        <ele>225.880732</ele>
        <time>2019-06-06T13:22:20.000Z</time>
      </trkpt>
      <trkpt lat="50.395195" lon="26.500053">
        <ele>225.856321</ele>
        <time>2019-06-06T13:22:23.000Z</time>
      </trkpt>
      <trkpt lat="50.395077" lon="26.500065">
        <ele>225.794218</ele>
        <time>2019-06-06T13:22:26.000Z</time>
      </trkpt>
      <trkpt lat="50.394950" lon="26.500055">
        <ele>225.727435</ele>
        <time>2019-06-06T13:22:29.000Z</time>
      </trkpt>
      <trkpt lat="50.394817" lon="26.500036">
        <ele>225.657295</ele>
        <time>2019-06-06T13:22:32.000Z</time>
      </trkpt>
      <trkpt lat="50.394695" lon="26.500021">
        <ele>225.593025</ele>
        <time>2019-06-06T13:22:35.000Z</time>
      </trkpt>
      <trkpt lat="50.394570" lon="26.499994">
        <ele>225.526757</ele>
        <time>2019-06-06T13:22:38.000Z</time>
      </trkpt>
      <trkpt lat="50.394444" lon="26.499979">
        <ele>225.460393</ele>
        <time>2019-06-06T13:22:41.000Z</time>
      </trkpt>
      <trkpt lat="50.394310" lon="26.499970">
        <ele>225.389952</ele>
        <time>2019-06-06T13:22:44.000Z</time>
      </trkpt>
      <trkpt lat="50.394173" lon="26.499958">
        <ele>225.317889</ele>
        <time>2019-06-06T13:22:47.000Z</time>
      </trkpt>
      <trkpt lat="50.394085" lon="26.499956">
        <ele>225.271667</ele>
        <time>2019-06-06T13:22:49.000Z</time>
      </trkpt>
      <trkpt lat="50.393993" lon="26.499945">
        <ele>225.223210</ele>
        <time>2019-06-06T13:22:51.000Z</time>
      </trkpt>
      <trkpt lat="50.393860" lon="26.499931">
        <ele>225.153202</ele>
        <time>2019-06-06T13:22:54.000Z</time>
      </trkpt>
      <trkpt lat="50.393734" lon="26.499916">
        <ele>225.086838</ele>
        <time>2019-06-06T13:22:57.000Z</time>
      </trkpt>
      <trkpt lat="50.393616" lon="26.499893">
        <ele>225.024389</ele>
        <time>2019-06-06T13:23:00.000Z</time>
      </trkpt>
      <trkpt lat="50.393490" lon="26.499884">
        <ele>224.958146</ele>
        <time>2019-06-06T13:23:03.000Z</time>
      </trkpt>
      <trkpt lat="50.393356" lon="26.499890">
        <ele>224.942304</ele>
        <time>2019-06-06T13:23:06.000Z</time>
      </trkpt>
      <trkpt lat="50.393270" lon="26.499876">
        <ele>224.959271</ele>
        <time>2019-06-06T13:23:08.000Z</time>
      </trkpt>
      <trkpt lat="50.393177" lon="26.499859">
        <ele>224.977645</ele>
        <time>2019-06-06T13:23:10.000Z</time>
      </trkpt>
      <trkpt lat="50.393090" lon="26.499865">
        <ele>224.994734</ele>
        <time>2019-06-06T13:23:12.000Z</time>
      </trkpt>
      <trkpt lat="50.392960" lon="26.499857">
        <ele>225.020264</ele>
        <time>2019-06-06T13:23:15.000Z</time>
      </trkpt>
      <trkpt lat="50.392868" lon="26.499853">
        <ele>225.038325</ele>
        <time>2019-06-06T13:23:17.000Z</time>
      </trkpt>
      <trkpt lat="50.392776" lon="26.499847">
        <ele>225.056395</ele>
        <time>2019-06-06T13:23:19.000Z</time>
      </trkpt>
      <trkpt lat="50.392680" lon="26.499838">
        <ele>225.075267</ele>
        <time>2019-06-06T13:23:21.000Z</time>
      </trkpt>
      <trkpt lat="50.392550" lon="26.499817">
        <ele>225.100913</ele>
        <time>2019-06-06T13:23:24.000Z</time>
      </trkpt>
      <trkpt lat="50.392426" lon="26.499788">
        <ele>225.125515</ele>
        <time>2019-06-06T13:23:27.000Z</time>
      </trkpt>
      <trkpt lat="50.392296" lon="26.499780">
        <ele>225.151046</ele>
        <time>2019-06-06T13:23:30.000Z</time>
      </trkpt>
      <trkpt lat="50.392166" lon="26.499798">
        <ele>225.176656</ele>
        <time>2019-06-06T13:23:33.000Z</time>
      </trkpt>
      <trkpt lat="50.392048" lon="26.499840">
        <ele>225.200401</ele>
        <time>2019-06-06T13:23:36.000Z</time>
      </trkpt>
      <trkpt lat="50.391950" lon="26.499842">
        <ele>225.219634</ele>
        <time>2019-06-06T13:23:39.000Z</time>
      </trkpt>
      <trkpt lat="50.391846" lon="26.499891">
        <ele>225.240943</ele>
        <time>2019-06-06T13:23:43.000Z</time>
      </trkpt>
      <trkpt lat="50.391735" lon="26.499950">
        <ele>225.263942</ele>
        <time>2019-06-06T13:23:47.000Z</time>
      </trkpt>
      <trkpt lat="50.391660" lon="26.500067">
        <ele>225.303284</ele>
        <time>2019-06-06T13:23:51.000Z</time>
      </trkpt>
      <trkpt lat="50.391563" lon="26.500118">
        <ele>225.410617</ele>
        <time>2019-06-06T13:23:55.000Z</time>
      </trkpt>
      <trkpt lat="50.391476" lon="26.500183">
        <ele>225.511718</ele>
        <time>2019-06-06T13:23:59.000Z</time>
      </trkpt>
      <trkpt lat="50.391376" lon="26.500227">
        <ele>225.620683</ele>
        <time>2019-06-06T13:24:03.000Z</time>
      </trkpt>
      <trkpt lat="50.391262" lon="26.500290">
        <ele>225.747492</ele>
        <time>2019-06-06T13:24:07.000Z</time>
      </trkpt>
      <trkpt lat="50.391170" lon="26.500330">
        <ele>225.847653</ele>
        <time>2019-06-06T13:24:10.000Z</time>
      </trkpt>
      <trkpt lat="50.391083" lon="26.500387">
        <ele>225.946572</ele>
        <time>2019-06-06T13:24:13.000Z</time>
      </trkpt>
      <trkpt lat="50.390980" lon="26.500477">
        <ele>226.070271</ele>
        <time>2019-06-06T13:24:17.000Z</time>
      </trkpt>
      <trkpt lat="50.390890" lon="26.500540">
        <ele>226.173671</ele>
        <time>2019-06-06T13:24:20.000Z</time>
      </trkpt>
      <trkpt lat="50.390793" lon="26.500578">
        <ele>226.278564</ele>
        <time>2019-06-06T13:24:24.000Z</time>
      </trkpt>
      <trkpt lat="50.390686" lon="26.500612">
        <ele>226.393103</ele>
        <time>2019-06-06T13:24:30.000Z</time>
      </trkpt>
      <trkpt lat="50.390510" lon="26.500635">
        <ele>226.578393</ele>
        <time>2019-06-06T13:25:47.000Z</time>
      </trkpt>
      <trkpt lat="50.390423" lon="26.500713">
        <ele>226.683528</ele>
        <time>2019-06-06T13:25:53.000Z</time>
      </trkpt>
      <trkpt lat="50.390335" lon="26.500780">
        <ele>226.786156</ele>
        <time>2019-06-06T13:25:58.000Z</time>
      </trkpt>
      <trkpt lat="50.390240" lon="26.500843">
        <ele>226.894367</ele>
        <time>2019-06-06T13:26:02.000Z</time>
      </trkpt>
      <trkpt lat="50.390156" lon="26.500890">
        <ele>226.987935</ele>
        <time>2019-06-06T13:26:06.000Z</time>
      </trkpt>
      <trkpt lat="50.390064" lon="26.500940">
        <ele>227.090087</ele>
        <time>2019-06-06T13:26:11.000Z</time>
      </trkpt>
      <trkpt lat="50.390167" lon="26.500938">
        <ele>227.215619</ele>
        <time>2019-06-06T13:29:21.000Z</time>
      </trkpt>
      <trkpt lat="50.390263" lon="26.500881">
        <ele>227.384589</ele>
        <time>2019-06-06T13:29:25.000Z</time>
      </trkpt>
      <trkpt lat="50.390366" lon="26.500832">
        <ele>227.561765</ele>
        <time>2019-06-06T13:29:29.000Z</time>
      </trkpt>
      <trkpt lat="50.390465" lon="26.500774">
        <ele>227.735727</ele>
        <time>2019-06-06T13:29:33.000Z</time>
      </trkpt>
      <trkpt lat="50.390560" lon="26.500715">
        <ele>227.903919</ele>
        <time>2019-06-06T13:29:37.000Z</time>
      </trkpt>
      <trkpt lat="50.390650" lon="26.500673">
        <ele>228.058487</ele>
        <time>2019-06-06T13:29:41.000Z</time>
      </trkpt>
      <trkpt lat="50.390740" lon="26.500618">
        <ele>228.217484</ele>
        <time>2019-06-06T13:29:45.000Z</time>
      </trkpt>
      <trkpt lat="50.390842" lon="26.500570">
        <ele>228.392781</ele>
        <time>2019-06-06T13:29:50.000Z</time>
      </trkpt>
      <trkpt lat="50.390940" lon="26.500494">
        <ele>228.572740</ele>
        <time>2019-06-06T13:29:55.000Z</time>
      </trkpt>
      <trkpt lat="50.391045" lon="26.500444">
        <ele>228.753371</ele>
        <time>2019-06-06T13:30:00.000Z</time>
      </trkpt>
      <trkpt lat="50.391120" lon="26.500350">
        <ele>228.911401</ele>
        <time>2019-06-06T13:30:07.000Z</time>
      </trkpt>
      <trkpt lat="50.391212" lon="26.500301">
        <ele>229.071336</ele>
        <time>2019-06-06T13:30:27.000Z</time>
      </trkpt>
      <trkpt lat="50.391315" lon="26.500263">
        <ele>229.245512</ele>
        <time>2019-06-06T13:33:27.000Z</time>
      </trkpt>
      <trkpt lat="50.391390" lon="26.500174">
        <ele>229.400321</ele>
        <time>2019-06-06T13:33:31.000Z</time>
      </trkpt>
      <trkpt lat="50.391483" lon="26.500137">
        <ele>229.558256</ele>
        <time>2019-06-06T13:33:37.000Z</time>
      </trkpt>
      <trkpt lat="50.391580" lon="26.500093">
        <ele>229.724472</ele>
        <time>2019-06-06T13:33:42.000Z</time>
      </trkpt>
      <trkpt lat="50.391674" lon="26.500051">
        <ele>229.885361</ele>
        <time>2019-06-06T13:33:46.000Z</time>
      </trkpt>
      <trkpt lat="50.391754" lon="26.499933">
        <ele>230.066129</ele>
        <time>2019-06-06T13:33:50.000Z</time>
      </trkpt>
      <trkpt lat="50.391810" lon="26.499773">
        <ele>230.481492</ele>
        <time>2019-06-06T13:33:54.000Z</time>
      </trkpt>
      <trkpt lat="50.391860" lon="26.499610">
        <ele>230.999524</ele>
        <time>2019-06-06T13:33:58.000Z</time>
      </trkpt>
      <trkpt lat="50.391914" lon="26.499458">
        <ele>231.497853</ele>
        <time>2019-06-06T13:34:02.000Z</time>
      </trkpt>
      <trkpt lat="50.391964" lon="26.499321">
        <ele>231.949940</ele>
        <time>2019-06-06T13:34:06.000Z</time>
      </trkpt>
      <trkpt lat="50.392014" lon="26.499197">
        <ele>232.370124</ele>
        <time>2019-06-06T13:34:10.000Z</time>
      </trkpt>
      <trkpt lat="50.392070" lon="26.499067">
        <ele>232.819443</ele>
        <time>2019-06-06T13:34:15.000Z</time>
      </trkpt>
      <trkpt lat="50.392117" lon="26.498936">
        <ele>233.249933</ele>
        <time>2019-06-06T13:34:19.000Z</time>
      </trkpt>
      <trkpt lat="50.392162" lon="26.498793">
        <ele>233.706633</ele>
        <time>2019-06-06T13:34:23.000Z</time>
      </trkpt>
      <trkpt lat="50.392212" lon="26.498644">
        <ele>234.188846</ele>
        <time>2019-06-06T13:34:27.000Z</time>
      </trkpt>
      <trkpt lat="50.392260" lon="26.498503">
        <ele>234.646608</ele>
        <time>2019-06-06T13:34:31.000Z</time>
      </trkpt>
      <trkpt lat="50.392307" lon="26.498363">
        <ele>235.099735</ele>
        <time>2019-06-06T13:34:35.000Z</time>
      </trkpt>
      <trkpt lat="50.392353" lon="26.498238">
        <ele>235.513071</ele>
        <time>2019-06-06T13:34:39.000Z</time>
      </trkpt>
      <trkpt lat="50.392395" lon="26.498112">
        <ele>235.920258</ele>
        <time>2019-06-06T13:34:43.000Z</time>
      </trkpt>
      <trkpt lat="50.392440" lon="26.497978">
        <ele>236.353994</ele>
        <time>2019-06-06T13:34:47.000Z</time>
      </trkpt>
      <trkpt lat="50.392480" lon="26.497845">
        <ele>236.775137</ele>
        <time>2019-06-06T13:34:51.000Z</time>
      </trkpt>
      <trkpt lat="50.392544" lon="26.497710">
        <ele>237.256928</ele>
        <time>2019-06-06T13:34:56.000Z</time>
      </trkpt>
      <trkpt lat="50.392590" lon="26.497559">
        <ele>237.736197</ele>
        <time>2019-06-06T13:35:01.000Z</time>
      </trkpt>
      <trkpt lat="50.392654" lon="26.497430">
        <ele>238.204312</ele>
        <time>2019-06-06T13:35:06.000Z</time>
      </trkpt>
      <trkpt lat="50.392715" lon="26.497303">
        <ele>238.813231</ele>
        <time>2019-06-06T13:35:11.000Z</time>
      </trkpt>
      <trkpt lat="50.392790" lon="26.497196">
        <ele>239.423417</ele>
        <time>2019-06-06T13:35:16.000Z</time>
      </trkpt>
      <trkpt lat="50.392880" lon="26.497137">
        <ele>240.010504</ele>
        <time>2019-06-06T13:35:21.000Z</time>
      </trkpt>
      <trkpt lat="50.392975" lon="26.497122">
        <ele>240.585169</ele>
        <time>2019-06-06T13:35:26.000Z</time>
      </trkpt>
      <trkpt lat="50.393074" lon="26.497150">
        <ele>241.190628</ele>
        <time>2019-06-06T13:35:32.000Z</time>
      </trkpt>
      <trkpt lat="50.393160" lon="26.497204">
        <ele>241.748167</ele>
        <time>2019-06-06T13:35:37.000Z</time>
      </trkpt>
      <trkpt lat="50.393260" lon="26.497267">
        <ele>242.396767</ele>
        <time>2019-06-06T13:35:42.000Z</time>
      </trkpt>
      <trkpt lat="50.393360" lon="26.497318">
        <ele>243.029649</ele>
        <time>2019-06-06T13:35:49.000Z</time>
      </trkpt>
      <trkpt lat="50.393470" lon="26.497341">
        <ele>243.697562</ele>
        <time>2019-06-06T13:35:56.000Z</time>
      </trkpt>
      <trkpt lat="50.393566" lon="26.497389">
        <ele>244.304000</ele>
        <time>2019-06-06T13:36:01.000Z</time>
      </trkpt>
      <trkpt lat="50.393660" lon="26.497420">
        <ele>244.882126</ele>
        <time>2019-06-06T13:36:05.000Z</time>
      </trkpt>
      <trkpt lat="50.393760" lon="26.497482">
        <ele>245.529305</ele>
        <time>2019-06-06T13:36:11.000Z</time>
      </trkpt>
      <trkpt lat="50.393864" lon="26.497515">
        <ele>246.167927</ele>
        <time>2019-06-06T13:36:16.000Z</time>
      </trkpt>
      <trkpt lat="50.393955" lon="26.497551">
        <ele>246.732778</ele>
        <time>2019-06-06T13:36:20.000Z</time>
      </trkpt>
      <trkpt lat="50.394062" lon="26.497606">
        <ele>247.410474</ele>
        <time>2019-06-06T13:36:25.000Z</time>
      </trkpt>
      <trkpt lat="50.394170" lon="26.497650">
        <ele>248.082059</ele>
        <time>2019-06-06T13:36:30.000Z</time>
      </trkpt>
      <trkpt lat="50.394264" lon="26.497704">
        <ele>248.684563</ele>
        <time>2019-06-06T13:36:33.000Z</time>
      </trkpt>
      <trkpt lat="50.394363" lon="26.497750">
        <ele>248.959045</ele>
        <time>2019-06-06T13:36:38.000Z</time>
      </trkpt>
      <trkpt lat="50.394466" lon="26.497795">
        <ele>248.783634</ele>
        <time>2019-06-06T13:36:42.000Z</time>
      </trkpt>
      <trkpt lat="50.394580" lon="26.497845">
        <ele>248.589436</ele>
        <time>2019-06-06T13:36:46.000Z</time>
      </trkpt>
      <trkpt lat="50.394672" lon="26.497885">
        <ele>248.432813</ele>
        <time>2019-06-06T13:36:48.000Z</time>
      </trkpt>
      <trkpt lat="50.394780" lon="26.497934">
        <ele>248.248369</ele>
        <time>2019-06-06T13:36:53.000Z</time>
      </trkpt>
      <trkpt lat="50.394880" lon="26.497990">
        <ele>248.074171</ele>
        <time>2019-06-06T13:36:57.000Z</time>
      </trkpt>
      <trkpt lat="50.394978" lon="26.498049">
        <ele>247.901960</ele>
        <time>2019-06-06T13:37:01.000Z</time>
      </trkpt>
      <trkpt lat="50.395070" lon="26.498093">
        <ele>247.744168</ele>
        <time>2019-06-06T13:37:06.000Z</time>
      </trkpt>
      <trkpt lat="50.395157" lon="26.498165">
        <ele>247.582793</ele>
        <time>2019-06-06T13:37:10.000Z</time>
      </trkpt>
      <trkpt lat="50.395218" lon="26.498281">
        <ele>247.425526</ele>
        <time>2019-06-06T13:37:15.000Z</time>
      </trkpt>
      <trkpt lat="50.395218" lon="26.498440">
        <ele>247.259236</ele>
        <time>2019-06-06T13:37:21.000Z</time>
      </trkpt>
      <trkpt lat="50.395130" lon="26.498495">
        <ele>247.103829</ele>
        <time>2019-06-06T13:41:18.000Z</time>
      </trkpt>
      <trkpt lat="50.395054" lon="26.498571">
        <ele>246.955965</ele>
        <time>2019-06-06T13:41:24.000Z</time>
      </trkpt>
      <trkpt lat="50.395130" lon="26.498674">
        <ele>246.791192</ele>
        <time>2019-06-06T13:41:36.000Z</time>
      </trkpt>
      <trkpt lat="50.395046" lon="26.498594">
        <ele>246.629974</ele>
        <time>2019-06-06T13:42:55.000Z</time>
      </trkpt>
      <trkpt lat="50.395130" lon="26.498518">
        <ele>246.470886</ele>
        <time>2019-06-06T13:43:34.000Z</time>
      </trkpt>
      <trkpt lat="50.395200" lon="26.498419">
        <ele>246.316263</ele>
        <time>2019-06-06T13:48:13.000Z</time>
      </trkpt>
      <trkpt lat="50.395240" lon="26.498562">
        <ele>246.152943</ele>
        <time>2019-06-06T13:48:28.000Z</time>
      </trkpt>
      <trkpt lat="50.395306" lon="26.498457">
        <ele>246.040688</ele>
        <time>2019-06-06T13:48:33.000Z</time>
      </trkpt>
      <trkpt lat="50.395298" lon="26.498304">
        <ele>245.960501</ele>
        <time>2019-06-06T13:48:37.000Z</time>
      </trkpt>
      <trkpt lat="50.395218" lon="26.498215">
        <ele>245.880139</ele>
        <time>2019-06-06T13:48:42.000Z</time>
      </trkpt>
      <trkpt lat="50.395107" lon="26.498161">
        <ele>245.784914</ele>
        <time>2019-06-06T13:48:47.000Z</time>
      </trkpt>
      <trkpt lat="50.395008" lon="26.498087">
        <ele>245.695057</ele>
        <time>2019-06-06T13:48:51.000Z</time>
      </trkpt>
      <trkpt lat="50.394920" lon="26.498016">
        <ele>245.613973</ele>
        <time>2019-06-06T13:48:54.000Z</time>
      </trkpt>
      <trkpt lat="50.394814" lon="26.497950">
        <ele>245.520527</ele>
        <time>2019-06-06T13:48:58.000Z</time>
      </trkpt>
      <trkpt lat="50.394714" lon="26.497913">
        <ele>245.436340</ele>
        <time>2019-06-06T13:49:02.000Z</time>
      </trkpt>
      <trkpt lat="50.394615" lon="26.497885">
        <ele>245.353913</ele>
        <time>2019-06-06T13:49:06.000Z</time>
      </trkpt>
      <trkpt lat="50.394505" lon="26.497835">
        <ele>245.260074</ele>
        <time>2019-06-06T13:49:10.000Z</time>
      </trkpt>
      <trkpt lat="50.394420" lon="26.497780">
        <ele>245.184734</ele>
        <time>2019-06-06T13:49:13.000Z</time>
      </trkpt>
      <trkpt lat="50.394333" lon="26.497746">
        <ele>245.111268</ele>
        <time>2019-06-06T13:49:16.000Z</time>
      </trkpt>
      <trkpt lat="50.394222" lon="26.497698">
        <ele>245.016924</ele>
        <time>2019-06-06T13:49:20.000Z</time>
      </trkpt>
      <trkpt lat="50.394140" lon="26.497650">
        <ele>244.945209</ele>
        <time>2019-06-06T13:49:23.000Z</time>
      </trkpt>
      <trkpt lat="50.394024" lon="26.497610">
        <ele>244.847892</ele>
        <time>2019-06-06T13:49:27.000Z</time>
      </trkpt>
      <trkpt lat="50.393925" lon="26.497585">
        <ele>244.765729</ele>
        <time>2019-06-06T13:49:31.000Z</time>
      </trkpt>
      <trkpt lat="50.393840" lon="26.497541">
        <ele>244.692387</ele>
        <time>2019-06-06T13:49:34.000Z</time>
      </trkpt>
      <trkpt lat="50.393750" lon="26.497484">
        <ele>244.612858</ele>
        <time>2019-06-06T13:49:37.000Z</time>
      </trkpt>
      <trkpt lat="50.393658" lon="26.497429">
        <ele>244.066090</ele>
        <time>2019-06-06T13:49:40.000Z</time>
      </trkpt>
      <trkpt lat="50.393550" lon="26.497390">
        <ele>243.422728</ele>
        <time>2019-06-06T13:49:43.000Z</time>
      </trkpt>
      <trkpt lat="50.393420" lon="26.497340">
        <ele>242.645695</ele>
        <time>2019-06-06T13:49:46.000Z</time>
      </trkpt>
      <trkpt lat="50.393330" lon="26.497300">
        <ele>242.102658</ele>
        <time>2019-06-06T13:49:48.000Z</time>
      </trkpt>
      <trkpt lat="50.393238" lon="26.497252">
        <ele>241.539810</ele>
        <time>2019-06-06T13:49:50.000Z</time>
      </trkpt>
      <trkpt lat="50.393135" lon="26.497200">
        <ele>240.911666</ele>
        <time>2019-06-06T13:49:52.000Z</time>
      </trkpt>
      <trkpt lat="50.393024" lon="26.497145">
        <ele>240.235902</ele>
        <time>2019-06-06T13:49:54.000Z</time>
      </trkpt>
      <trkpt lat="50.392918" lon="26.497154">
        <ele>239.619649</ele>
        <time>2019-06-06T13:49:56.000Z</time>
      </trkpt>
      <trkpt lat="50.392810" lon="26.497225">
        <ele>238.939848</ele>
        <time>2019-06-06T13:49:58.000Z</time>
      </trkpt>
      <trkpt lat="50.392715" lon="26.497330">
        <ele>238.265195</ele>
        <time>2019-06-06T13:50:00.000Z</time>
      </trkpt>
      <trkpt lat="50.392630" lon="26.497473">
        <ele>237.541608</ele>
        <time>2019-06-06T13:50:02.000Z</time>
      </trkpt>
      <trkpt lat="50.392560" lon="26.497637">
        <ele>236.811177</ele>
        <time>2019-06-06T13:50:04.000Z</time>
      </trkpt>
      <trkpt lat="50.392506" lon="26.497824">
        <ele>236.051410</ele>
        <time>2019-06-06T13:50:06.000Z</time>
      </trkpt>
      <trkpt lat="50.392437" lon="26.498003">
        <ele>235.277253</ele>
        <time>2019-06-06T13:50:08.000Z</time>
      </trkpt>
      <trkpt lat="50.392372" lon="26.498184">
        <ele>234.508410</ele>
        <time>2019-06-06T13:50:10.000Z</time>
      </trkpt>
      <trkpt lat="50.392303" lon="26.498377">
        <ele>233.807826</ele>
        <time>2019-06-06T13:50:12.000Z</time>
      </trkpt>
      <trkpt lat="50.392240" lon="26.498577">
        <ele>233.186713</ele>
        <time>2019-06-06T13:50:14.000Z</time>
      </trkpt>
      <trkpt lat="50.392166" lon="26.498770">
        <ele>232.559656</ele>
        <time>2019-06-06T13:50:16.000Z</time>
      </trkpt>
      <trkpt lat="50.392105" lon="26.498978">
        <ele>231.922195</ele>
        <time>2019-06-06T13:50:18.000Z</time>
      </trkpt>
      <trkpt lat="50.392036" lon="26.499174">
        <ele>231.298809</ele>
        <time>2019-06-06T13:50:20.000Z</time>
      </trkpt>
      <trkpt lat="50.391964" lon="26.499361">
        <ele>230.690567</ele>
        <time>2019-06-06T13:50:22.000Z</time>
      </trkpt>
      <trkpt lat="50.391890" lon="26.499548">
        <ele>230.077764</ele>
        <time>2019-06-06T13:50:24.000Z</time>
      </trkpt>
      <trkpt lat="50.391823" lon="26.499737">
        <ele>229.475656</ele>
        <time>2019-06-06T13:50:26.000Z</time>
      </trkpt>
      <trkpt lat="50.391747" lon="26.499907">
        <ele>228.897553</ele>
        <time>2019-06-06T13:50:28.000Z</time>
      </trkpt>
      <trkpt lat="50.391678" lon="26.500065">
        <ele>228.364324</ele>
        <time>2019-06-06T13:50:30.000Z</time>
      </trkpt>
      <trkpt lat="50.391580" lon="26.500149">
        <ele>227.876599</ele>
        <time>2019-06-06T13:50:32.000Z</time>
      </trkpt>
      <trkpt lat="50.391487" lon="26.500193">
        <ele>227.452370</ele>
        <time>2019-06-06T13:50:34.000Z</time>
      </trkpt>
      <trkpt lat="50.391370" lon="26.500238">
        <ele>226.926264</ele>
        <time>2019-06-06T13:50:37.000Z</time>
      </trkpt>
      <trkpt lat="50.391254" lon="26.500310">
        <ele>226.381440</ele>
        <time>2019-06-06T13:50:40.000Z</time>
      </trkpt>
      <trkpt lat="50.391132" lon="26.500370">
        <ele>226.371026</ele>
        <time>2019-06-06T13:50:43.000Z</time>
      </trkpt>
      <trkpt lat="50.391045" lon="26.500422">
        <ele>226.419979</ele>
        <time>2019-06-06T13:50:45.000Z</time>
      </trkpt>
      <trkpt lat="50.390965" lon="26.500484">
        <ele>226.466897</ele>
        <time>2019-06-06T13:50:47.000Z</time>
      </trkpt>
      <trkpt lat="50.390842" lon="26.500570">
        <ele>226.537704</ele>
        <time>2019-06-06T13:50:50.000Z</time>
      </trkpt>
      <trkpt lat="50.390713" lon="26.500622">
        <ele>226.607735</ele>
        <time>2019-06-06T13:50:53.000Z</time>
      </trkpt>
      <trkpt lat="50.390602" lon="26.500664">
        <ele>226.667773</ele>
        <time>2019-06-06T13:50:56.000Z</time>
      </trkpt>
      <trkpt lat="50.390480" lon="26.500727">
        <ele>226.735307</ele>
        <time>2019-06-06T13:50:59.000Z</time>
      </trkpt>
      <trkpt lat="50.390350" lon="26.500793">
        <ele>226.807152</ele>
        <time>2019-06-06T13:51:02.000Z</time>
      </trkpt>
      <trkpt lat="50.390263" lon="26.500843">
        <ele>226.855870</ele>
        <time>2019-06-06T13:51:04.000Z</time>
      </trkpt>
      <trkpt lat="50.390180" lon="26.500896">
        <ele>226.902989</ele>
        <time>2019-06-06T13:51:06.000Z</time>
      </trkpt>
      <trkpt lat="50.390095" lon="26.500950">
        <ele>226.951208</ele>
        <time>2019-06-06T13:51:08.000Z</time>
      </trkpt>
      <trkpt lat="50.390007" lon="26.500996">
        <ele>226.999980</ele>
        <time>2019-06-06T13:51:10.000Z</time>
      </trkpt>
      <trkpt lat="50.389920" lon="26.501043">
        <ele>227.048361</ele>
        <time>2019-06-06T13:51:12.000Z</time>
      </trkpt>
      <trkpt lat="50.389824" lon="26.501093">
        <ele>227.101548</ele>
        <time>2019-06-06T13:51:14.000Z</time>
      </trkpt>
      <trkpt lat="50.389732" lon="26.501139">
        <ele>227.152319</ele>
        <time>2019-06-06T13:51:16.000Z</time>
      </trkpt>
      <trkpt lat="50.389650" lon="26.501200">
        <ele>227.200038</ele>
        <time>2019-06-06T13:51:18.000Z</time>
      </trkpt>
      <trkpt lat="50.389560" lon="26.501247">
        <ele>227.249914</ele>
        <time>2019-06-06T13:51:20.000Z</time>
      </trkpt>
      <trkpt lat="50.389446" lon="26.501326">
        <ele>227.255110</ele>
        <time>2019-06-06T13:51:23.000Z</time>
      </trkpt>
      <trkpt lat="50.389324" lon="26.501394">
        <ele>227.251860</ele>
        <time>2019-06-06T13:51:26.000Z</time>
      </trkpt>
      <trkpt lat="50.389200" lon="26.501453">
        <ele>227.248607</ele>
        <time>2019-06-06T13:51:29.000Z</time>
      </trkpt>
      <trkpt lat="50.389080" lon="26.501535">
        <ele>227.245321</ele>
        <time>2019-06-06T13:51:32.000Z</time>
      </trkpt>
      <trkpt lat="50.388958" lon="26.501610">
        <ele>227.242032</ele>
        <time>2019-06-06T13:51:35.000Z</time>
      </trkpt>
      <trkpt lat="50.388847" lon="26.501688">
        <ele>227.238978</ele>
        <time>2019-06-06T13:51:38.000Z</time>
      </trkpt>
      <trkpt lat="50.388730" lon="26.501750">
        <ele>227.235878</ele>
        <time>2019-06-06T13:51:41.000Z</time>
      </trkpt>
      <trkpt lat="50.388620" lon="26.501814">
        <ele>227.232933</ele>
        <time>2019-06-06T13:51:44.000Z</time>
      </trkpt>
      <trkpt lat="50.388496" lon="26.501862">
        <ele>227.229726</ele>
        <time>2019-06-06T13:51:47.000Z</time>
      </trkpt>
      <trkpt lat="50.388370" lon="26.501930">
        <ele>227.226381</ele>
        <time>2019-06-06T13:51:50.000Z</time>
      </trkpt>
      <trkpt lat="50.388250" lon="26.501993">
        <ele>227.223205</ele>
        <time>2019-06-06T13:51:53.000Z</time>
      </trkpt>
      <trkpt lat="50.388130" lon="26.502056">
        <ele>227.220028</ele>
        <time>2019-06-06T13:51:56.000Z</time>
      </trkpt>
      <trkpt lat="50.388040" lon="26.502102">
        <ele>227.217652</ele>
        <time>2019-06-06T13:51:58.000Z</time>
      </trkpt>
      <trkpt lat="50.387917" lon="26.502155">
        <ele>227.214449</ele>
        <time>2019-06-06T13:52:01.000Z</time>
      </trkpt>
      <trkpt lat="50.387790" lon="26.502226">
        <ele>227.213788</ele>
        <time>2019-06-06T13:52:04.000Z</time>
      </trkpt>
      <trkpt lat="50.387672" lon="26.502312">
        <ele>227.215939</ele>
        <time>2019-06-06T13:52:07.000Z</time>
      </trkpt>
      <trkpt lat="50.387560" lon="26.502384">
        <ele>227.217940</ele>
        <time>2019-06-06T13:52:10.000Z</time>
      </trkpt>
      <trkpt lat="50.387394" lon="26.502476">
        <ele>227.220850</ele>
        <time>2019-06-06T13:52:14.000Z</time>
      </trkpt>
      <trkpt lat="50.387270" lon="26.502548">
        <ele>227.223036</ele>
        <time>2019-06-06T13:52:17.000Z</time>
      </trkpt>
      <trkpt lat="50.387154" lon="26.502620">
        <ele>227.225098</ele>
        <time>2019-06-06T13:52:20.000Z</time>
      </trkpt>
      <trkpt lat="50.387047" lon="26.502687">
        <ele>227.227002</ele>
        <time>2019-06-06T13:52:23.000Z</time>
      </trkpt>
      <trkpt lat="50.386932" lon="26.502750">
        <ele>227.229016</ele>
        <time>2019-06-06T13:52:26.000Z</time>
      </trkpt>
      <trkpt lat="50.386810" lon="26.502821">
        <ele>227.231167</ele>
        <time>2019-06-06T13:52:29.000Z</time>
      </trkpt>
      <trkpt lat="50.386690" lon="26.502890">
        <ele>227.233280</ele>
        <time>2019-06-06T13:52:32.000Z</time>
      </trkpt>
      <trkpt lat="50.386574" lon="26.502960">
        <ele>227.235334</ele>
        <time>2019-06-06T13:52:35.000Z</time>
      </trkpt>
      <trkpt lat="50.386460" lon="26.503029">
        <ele>227.237354</ele>
        <time>2019-06-06T13:52:38.000Z</time>
      </trkpt>
      <trkpt lat="50.386345" lon="26.503092">
        <ele>227.239368</ele>
        <time>2019-06-06T13:52:41.000Z</time>
      </trkpt>
      <trkpt lat="50.386230" lon="26.503157">
        <ele>227.241388</ele>
        <time>2019-06-06T13:52:44.000Z</time>
      </trkpt>
      <trkpt lat="50.386110" lon="26.503218">
        <ele>227.194662</ele>
        <time>2019-06-06T13:52:47.000Z</time>
      </trkpt>
      <trkpt lat="50.385983" lon="26.503288">
        <ele>227.091956</ele>
        <time>2019-06-06T13:52:50.000Z</time>
      </trkpt>
      <trkpt lat="50.385864" lon="26.503350">
        <ele>226.996284</ele>
        <time>2019-06-06T13:52:53.000Z</time>
      </trkpt>
      <trkpt lat="50.385750" lon="26.503426">
        <ele>226.901774</ele>
        <time>2019-06-06T13:52:56.000Z</time>
      </trkpt>
      <trkpt lat="50.385630" lon="26.503487">
        <ele>226.805529</ele>
        <time>2019-06-06T13:52:59.000Z</time>
      </trkpt>
      <trkpt lat="50.385517" lon="26.503553">
        <ele>226.713530</ele>
        <time>2019-06-06T13:53:02.000Z</time>
      </trkpt>
      <trkpt lat="50.385400" lon="26.503620">
        <ele>226.618498</ele>
        <time>2019-06-06T13:53:05.000Z</time>
      </trkpt>
      <trkpt lat="50.385290" lon="26.503685">
        <ele>226.528813</ele>
        <time>2019-06-06T13:53:08.000Z</time>
      </trkpt>
      <trkpt lat="50.385162" lon="26.503740">
        <ele>226.427554</ele>
        <time>2019-06-06T13:53:11.000Z</time>
      </trkpt>
      <trkpt lat="50.385044" lon="26.503815">
        <ele>226.330412</ele>
        <time>2019-06-06T13:53:14.000Z</time>
      </trkpt>
      <trkpt lat="50.384930" lon="26.503897">
        <ele>226.234722</ele>
        <time>2019-06-06T13:53:17.000Z</time>
      </trkpt>
      <trkpt lat="50.384815" lon="26.503960">
        <ele>226.141782</ele>
        <time>2019-06-06T13:53:20.000Z</time>
      </trkpt>
      <trkpt lat="50.384690" lon="26.504017">
        <ele>226.042462</ele>
        <time>2019-06-06T13:53:23.000Z</time>
      </trkpt>
      <trkpt lat="50.384570" lon="26.504080">
        <ele>225.945913</ele>
        <time>2019-06-06T13:53:26.000Z</time>
      </trkpt>
      <trkpt lat="50.384450" lon="26.504131">
        <ele>225.869649</ele>
        <time>2019-06-06T13:53:29.000Z</time>
      </trkpt>
      <trkpt lat="50.384330" lon="26.504202">
        <ele>225.867143</ele>
        <time>2019-06-06T13:53:32.000Z</time>
      </trkpt>
      <trkpt lat="50.384216" lon="26.504269">
        <ele>225.864765</ele>
        <time>2019-06-06T13:53:35.000Z</time>
      </trkpt>
      <trkpt lat="50.384130" lon="26.504310">
        <ele>225.863009</ele>
        <time>2019-06-06T13:53:37.000Z</time>
      </trkpt>
      <trkpt lat="50.384003" lon="26.504380">
        <ele>225.860379</ele>
        <time>2019-06-06T13:53:40.000Z</time>
      </trkpt>
      <trkpt lat="50.383900" lon="26.504461">
        <ele>225.858128</ele>
        <time>2019-06-06T13:53:43.000Z</time>
      </trkpt>
      <trkpt lat="50.383780" lon="26.504522">
        <ele>225.855664</ele>
        <time>2019-06-06T13:53:46.000Z</time>
      </trkpt>
      <trkpt lat="50.383663" lon="26.504587">
        <ele>225.853239</ele>
        <time>2019-06-06T13:53:49.000Z</time>
      </trkpt>
      <trkpt lat="50.383533" lon="26.504644">
        <ele>225.850602</ele>
        <time>2019-06-06T13:53:52.000Z</time>
      </trkpt>
      <trkpt lat="50.383415" lon="26.504715">
        <ele>225.848133</ele>
        <time>2019-06-06T13:53:55.000Z</time>
      </trkpt>
      <trkpt lat="50.383293" lon="26.504782">
        <ele>225.845608</ele>
        <time>2019-06-06T13:53:58.000Z</time>
      </trkpt>
      <trkpt lat="50.383183" lon="26.504843">
        <ele>225.843329</ele>
        <time>2019-06-06T13:54:01.000Z</time>
      </trkpt>
      <trkpt lat="50.383070" lon="26.504921">
        <ele>225.840917</ele>
        <time>2019-06-06T13:54:04.000Z</time>
      </trkpt>
      <trkpt lat="50.382950" lon="26.504992">
        <ele>225.838411</ele>
        <time>2019-06-06T13:54:07.000Z</time>
      </trkpt>
      <trkpt lat="50.382830" lon="26.505056">
        <ele>225.835935</ele>
        <time>2019-06-06T13:54:10.000Z</time>
      </trkpt>
      <trkpt lat="50.382710" lon="26.505123">
        <ele>225.817663</ele>
        <time>2019-06-06T13:54:13.000Z</time>
      </trkpt>
      <trkpt lat="50.382587" lon="26.505196">
        <ele>225.788988</ele>
        <time>2019-06-06T13:54:16.000Z</time>
      </trkpt>
      <trkpt lat="50.382504" lon="26.505249">
        <ele>225.769448</ele>
        <time>2019-06-06T13:54:18.000Z</time>
      </trkpt>
      <trkpt lat="50.382380" lon="26.505308">
        <ele>225.741195</ele>
        <time>2019-06-06T13:54:21.000Z</time>
      </trkpt>
      <trkpt lat="50.382270" lon="26.505370">
        <ele>225.715709</ele>
        <time>2019-06-06T13:54:24.000Z</time>
      </trkpt>
      <trkpt lat="50.382153" lon="26.505442">
        <ele>225.688305</ele>
        <time>2019-06-06T13:54:27.000Z</time>
      </trkpt>
      <trkpt lat="50.382034" lon="26.505510">
        <ele>225.660690</ele>
        <time>2019-06-06T13:54:30.000Z</time>
      </trkpt>
      <trkpt lat="50.381916" lon="26.505573">
        <ele>225.633512</ele>
        <time>2019-06-06T13:54:33.000Z</time>
      </trkpt>
      <trkpt lat="50.381794" lon="26.505642">
        <ele>225.605234</ele>
        <time>2019-06-06T13:54:36.000Z</time>
      </trkpt>
      <trkpt lat="50.381676" lon="26.505718">
        <ele>225.577421</ele>
        <time>2019-06-06T13:54:39.000Z</time>
      </trkpt>
      <trkpt lat="50.381557" lon="26.505787">
        <ele>225.549758</ele>
        <time>2019-06-06T13:54:42.000Z</time>
      </trkpt>
      <trkpt lat="50.381435" lon="26.505846">
        <ele>225.521921</ele>
        <time>2019-06-06T13:54:45.000Z</time>
      </trkpt>
      <trkpt lat="50.381313" lon="26.505915">
        <ele>225.493644</ele>
        <time>2019-06-06T13:54:48.000Z</time>
      </trkpt>
      <trkpt lat="50.381190" lon="26.505983">
        <ele>225.465208</ele>
        <time>2019-06-06T13:54:51.000Z</time>
      </trkpt>
      <trkpt lat="50.381070" lon="26.506042">
        <ele>225.448171</ele>
        <time>2019-06-06T13:54:54.000Z</time>
      </trkpt>
      <trkpt lat="50.380962" lon="26.506100">
        <ele>225.474514</ele>
        <time>2019-06-06T13:54:57.000Z</time>
      </trkpt>
      <trkpt lat="50.380848" lon="26.506168">
        <ele>225.502659</ele>
        <time>2019-06-06T13:55:00.000Z</time>
      </trkpt>
      <trkpt lat="50.380733" lon="26.506235">
        <ele>225.530968</ele>
        <time>2019-06-06T13:55:03.000Z</time>
      </trkpt>
      <trkpt lat="50.380620" lon="26.506300">
        <ele>225.558742</ele>
        <time>2019-06-06T13:55:06.000Z</time>
      </trkpt>
      <trkpt lat="50.380512" lon="26.506360">
        <ele>225.585181</ele>
        <time>2019-06-06T13:55:09.000Z</time>
      </trkpt>
      <trkpt lat="50.380394" lon="26.506430">
        <ele>225.614294</ele>
        <time>2019-06-06T13:55:12.000Z</time>
      </trkpt>
      <trkpt lat="50.380280" lon="26.506498">
        <ele>225.642439</ele>
        <time>2019-06-06T13:55:15.000Z</time>
      </trkpt>
      <trkpt lat="50.380177" lon="26.506557">
        <ele>225.667742</ele>
        <time>2019-06-06T13:55:18.000Z</time>
      </trkpt>
      <trkpt lat="50.380074" lon="26.506632">
        <ele>225.693948</ele>
        <time>2019-06-06T13:55:21.000Z</time>
      </trkpt>
      <trkpt lat="50.379963" lon="26.506697">
        <ele>225.721289</ele>
        <time>2019-06-06T13:55:24.000Z</time>
      </trkpt>
      <trkpt lat="50.379852" lon="26.506744">
        <ele>225.747820</ele>
        <time>2019-06-06T13:55:27.000Z</time>
      </trkpt>
      <trkpt lat="50.379750" lon="26.506807">
        <ele>225.773117</ele>
        <time>2019-06-06T13:55:30.000Z</time>
      </trkpt>
      <trkpt lat="50.379642" lon="26.506870">
        <ele>225.799707</ele>
        <time>2019-06-06T13:55:33.000Z</time>
      </trkpt>
      <trkpt lat="50.379540" lon="26.506939">
        <ele>225.825341</ele>
        <time>2019-06-06T13:55:36.000Z</time>
      </trkpt>
      <trkpt lat="50.379425" lon="26.506987">
        <ele>225.852802</ele>
        <time>2019-06-06T13:55:39.000Z</time>
      </trkpt>
      <trkpt lat="50.379310" lon="26.507063">
        <ele>225.823665</ele>
        <time>2019-06-06T13:55:42.000Z</time>
      </trkpt>
      <trkpt lat="50.379200" lon="26.507118">
        <ele>225.785234</ele>
        <time>2019-06-06T13:55:45.000Z</time>
      </trkpt>
      <trkpt lat="50.379086" lon="26.507175">
        <ele>225.745406</ele>
        <time>2019-06-06T13:55:48.000Z</time>
      </trkpt>
      <trkpt lat="50.378980" lon="26.507235">
        <ele>225.707894</ele>
        <time>2019-06-06T13:55:51.000Z</time>
      </trkpt>
      <trkpt lat="50.378864" lon="26.507294">
        <ele>225.667302</ele>
        <time>2019-06-06T13:55:54.000Z</time>
      </trkpt>
      <trkpt lat="50.378750" lon="26.507360">
        <ele>225.626852</ele>
        <time>2019-06-06T13:55:57.000Z</time>
      </trkpt>
      <trkpt lat="50.378635" lon="26.507435">
        <ele>225.585395</ele>
        <time>2019-06-06T13:56:00.000Z</time>
      </trkpt>
      <trkpt lat="50.378525" lon="26.507513">
        <ele>225.545211</ele>
        <time>2019-06-06T13:56:03.000Z</time>
      </trkpt>
      <trkpt lat="50.378414" lon="26.507580">
        <ele>225.505621</ele>
        <time>2019-06-06T13:56:06.000Z</time>
      </trkpt>
      <trkpt lat="50.378300" lon="26.507639">
        <ele>225.465661</ele>
        <time>2019-06-06T13:56:09.000Z</time>
      </trkpt>
      <trkpt lat="50.378190" lon="26.507708">
        <ele>225.426226</ele>
        <time>2019-06-06T13:56:12.000Z</time>
      </trkpt>
      <trkpt lat="50.378086" lon="26.507765">
        <ele>225.389555</ele>
        <time>2019-06-06T13:56:15.000Z</time>
      </trkpt>
      <trkpt lat="50.377975" lon="26.507818">
        <ele>225.350933</ele>
        <time>2019-06-06T13:56:18.000Z</time>
      </trkpt>
      <trkpt lat="50.377865" lon="26.507875">
        <ele>225.312371</ele>
        <time>2019-06-06T13:56:21.000Z</time>
      </trkpt>
      <trkpt lat="50.377754" lon="26.507938">
        <ele>225.273077</ele>
        <time>2019-06-06T13:56:24.000Z</time>
      </trkpt>
      <trkpt lat="50.377640" lon="26.508003">
        <ele>225.189015</ele>
        <time>2019-06-06T13:56:27.000Z</time>
      </trkpt>
      <trkpt lat="50.377520" lon="26.508074">
        <ele>225.075898</ele>
        <time>2019-06-06T13:56:30.000Z</time>
      </trkpt>
      <trkpt lat="50.377403" lon="26.508142">
        <ele>224.965851</ele>
        <time>2019-06-06T13:56:33.000Z</time>
      </trkpt>
      <trkpt lat="50.377280" lon="26.508204">
        <ele>224.851904</ele>
        <time>2019-06-06T13:56:36.000Z</time>
      </trkpt>
      <trkpt lat="50.377193" lon="26.508255">
        <ele>224.769988</ele>
        <time>2019-06-06T13:56:38.000Z</time>
      </trkpt>
      <trkpt lat="50.377083" lon="26.508310">
        <ele>224.668161</ele>
        <time>2019-06-06T13:56:41.000Z</time>
      </trkpt>
      <trkpt lat="50.376970" lon="26.508379">
        <ele>224.561212</ele>
        <time>2019-06-06T13:56:44.000Z</time>
      </trkpt>
      <trkpt lat="50.376854" lon="26.508436">
        <ele>224.454000</ele>
        <time>2019-06-06T13:56:47.000Z</time>
      </trkpt>
      <trkpt lat="50.376740" lon="26.508505">
        <ele>224.346228</ele>
        <time>2019-06-06T13:56:50.000Z</time>
      </trkpt>
      <trkpt lat="50.376637" lon="26.508560">
        <ele>224.250265</ele>
        <time>2019-06-06T13:56:53.000Z</time>
      </trkpt>
      <trkpt lat="50.376520" lon="26.508633">
        <ele>224.139208</ele>
        <time>2019-06-06T13:56:56.000Z</time>
      </trkpt>
      <trkpt lat="50.376404" lon="26.508701">
        <ele>224.029987</ele>
        <time>2019-06-06T13:56:59.000Z</time>
      </trkpt>
      <trkpt lat="50.376290" lon="26.508785">
        <ele>223.918897</ele>
        <time>2019-06-06T13:57:02.000Z</time>
      </trkpt>
      <trkpt lat="50.376170" lon="26.508846">
        <ele>223.807641</ele>
        <time>2019-06-06T13:57:05.000Z</time>
      </trkpt>
      <trkpt lat="50.376064" lon="26.508910">
        <ele>223.707464</ele>
        <time>2019-06-06T13:57:08.000Z</time>
      </trkpt>
      <trkpt lat="50.375957" lon="26.508963">
        <ele>223.717496</ele>
        <time>2019-06-06T13:57:11.000Z</time>
      </trkpt>
      <trkpt lat="50.375843" lon="26.509016">
        <ele>223.790181</ele>
        <time>2019-06-06T13:57:14.000Z</time>
      </trkpt>
      <trkpt lat="50.375725" lon="26.509075">
        <ele>223.865892</ele>
        <time>2019-06-06T13:57:17.000Z</time>
      </trkpt>
      <trkpt lat="50.375620" lon="26.509148">
        <ele>223.936104</ele>
        <time>2019-06-06T13:57:20.000Z</time>
      </trkpt>
      <trkpt lat="50.375507" lon="26.509222">
        <ele>224.010962</ele>
        <time>2019-06-06T13:57:23.000Z</time>
      </trkpt>
      <trkpt lat="50.375393" lon="26.509280">
        <ele>224.084225</ele>
        <time>2019-06-06T13:57:26.000Z</time>
      </trkpt>
      <trkpt lat="50.375294" lon="26.509350">
        <ele>224.150611</ele>
        <time>2019-06-06T13:57:29.000Z</time>
      </trkpt>
      <trkpt lat="50.375183" lon="26.509401">
        <ele>224.221318</ele>
        <time>2019-06-06T13:57:32.000Z</time>
      </trkpt>
      <trkpt lat="50.375080" lon="26.509460">
        <ele>224.288350</ele>
        <time>2019-06-06T13:57:35.000Z</time>
      </trkpt>
      <trkpt lat="50.374977" lon="26.509516">
        <ele>224.354991</ele>
        <time>2019-06-06T13:57:38.000Z</time>
      </trkpt>
      <trkpt lat="50.374880" lon="26.509560">
        <ele>224.416717</ele>
        <time>2019-06-06T13:57:41.000Z</time>
      </trkpt>
      <trkpt lat="50.374780" lon="26.509610">
        <ele>224.480879</ele>
        <time>2019-06-06T13:57:44.000Z</time>
      </trkpt>
      <trkpt lat="50.374676" lon="26.509690">
        <ele>224.551691</ele>
        <time>2019-06-06T13:57:47.000Z</time>
      </trkpt>
      <trkpt lat="50.374577" lon="26.509748">
        <ele>224.616296</ele>
        <time>2019-06-06T13:57:50.000Z</time>
      </trkpt>
      <trkpt lat="50.374477" lon="26.509800">
        <ele>224.680698</ele>
        <time>2019-06-06T13:57:53.000Z</time>
      </trkpt>
      <trkpt lat="50.374380" lon="26.509865">
        <ele>224.745182</ele>
        <time>2019-06-06T13:57:56.000Z</time>
      </trkpt>
      <trkpt lat="50.374275" lon="26.509941">
        <ele>224.837311</ele>
        <time>2019-06-06T13:57:59.000Z</time>
      </trkpt>
      <trkpt lat="50.374165" lon="26.509993">
        <ele>224.942144</ele>
        <time>2019-06-06T13:58:02.000Z</time>
      </trkpt>
      <trkpt lat="50.374060" lon="26.510042">
        <ele>225.042106</ele>
        <time>2019-06-06T13:58:05.000Z</time>
      </trkpt>
      <trkpt lat="50.373947" lon="26.510098">
        <ele>225.150242</ele>
        <time>2019-06-06T13:58:08.000Z</time>
      </trkpt>
      <trkpt lat="50.373837" lon="26.510164">
        <ele>225.257710</ele>
        <time>2019-06-06T13:58:11.000Z</time>
      </trkpt>
      <trkpt lat="50.373734" lon="26.510223">
        <ele>225.357769</ele>
        <time>2019-06-06T13:58:14.000Z</time>
      </trkpt>
      <trkpt lat="50.373640" lon="26.510280">
        <ele>225.449731</ele>
        <time>2019-06-06T13:58:17.000Z</time>
      </trkpt>
      <trkpt lat="50.373543" lon="26.510324">
        <ele>225.541869</ele>
        <time>2019-06-06T13:58:20.000Z</time>
      </trkpt>
      <trkpt lat="50.373447" lon="26.510372">
        <ele>225.633811</ele>
        <time>2019-06-06T13:58:23.000Z</time>
      </trkpt>
      <trkpt lat="50.373352" lon="26.510431">
        <ele>225.727047</ele>
        <time>2019-06-06T13:58:26.000Z</time>
      </trkpt>
      <trkpt lat="50.373250" lon="26.510489">
        <ele>225.826049</ele>
        <time>2019-06-06T13:58:29.000Z</time>
      </trkpt>
      <trkpt lat="50.373135" lon="26.510536">
        <ele>225.934488</ele>
        <time>2019-06-06T13:58:32.000Z</time>
      </trkpt>
      <trkpt lat="50.373030" lon="26.510592">
        <ele>226.035687</ele>
        <time>2019-06-06T13:58:35.000Z</time>
      </trkpt>
      <trkpt lat="50.372940" lon="26.510649">
        <ele>226.124255</ele>
        <time>2019-06-06T13:58:38.000Z</time>
      </trkpt>
      <trkpt lat="50.372845" lon="26.510712">
        <ele>226.218374</ele>
        <time>2019-06-06T13:58:41.000Z</time>
      </trkpt>
      <trkpt lat="50.372738" lon="26.510773">
        <ele>226.322260</ele>
        <time>2019-06-06T13:58:44.000Z</time>
      </trkpt>
      <trkpt lat="50.372635" lon="26.510836">
        <ele>226.421017</ele>
        <time>2019-06-06T13:58:47.000Z</time>
      </trkpt>
      <trkpt lat="50.372540" lon="26.510902">
        <ele>226.494809</ele>
        <time>2019-06-06T13:58:50.000Z</time>
      </trkpt>
      <trkpt lat="50.372440" lon="26.510962">
        <ele>226.570848</ele>
        <time>2019-06-06T13:58:53.000Z</time>
      </trkpt>
      <trkpt lat="50.372345" lon="26.511015">
        <ele>226.642458</ele>
        <time>2019-06-06T13:58:56.000Z</time>
      </trkpt>
      <trkpt lat="50.372250" lon="26.511066">
        <ele>226.713769</ele>
        <time>2019-06-06T13:58:59.000Z</time>
      </trkpt>
      <trkpt lat="50.372147" lon="26.511114">
        <ele>226.790078</ele>
        <time>2019-06-06T13:59:02.000Z</time>
      </trkpt>
      <trkpt lat="50.372050" lon="26.511175">
        <ele>226.864299</ele>
        <time>2019-06-06T13:59:05.000Z</time>
      </trkpt>
      <trkpt lat="50.371956" lon="26.511227">
        <ele>226.935088</ele>
        <time>2019-06-06T13:59:08.000Z</time>
      </trkpt>
      <trkpt lat="50.371860" lon="26.511276">
        <ele>227.006786</ele>
        <time>2019-06-06T13:59:11.000Z</time>
      </trkpt>
      <trkpt lat="50.371765" lon="26.511337">
        <ele>227.079690</ele>
        <time>2019-06-06T13:59:14.000Z</time>
      </trkpt>
      <trkpt lat="50.371666" lon="26.511389">
        <ele>227.153837</ele>
        <time>2019-06-06T13:59:17.000Z</time>
      </trkpt>
      <trkpt lat="50.371574" lon="26.511444">
        <ele>227.223761</ele>
        <time>2019-06-06T13:59:20.000Z</time>
      </trkpt>
      <trkpt lat="50.371483" lon="26.511501">
        <ele>227.293353</ele>
        <time>2019-06-06T13:59:23.000Z</time>
      </trkpt>
      <trkpt lat="50.371390" lon="26.511559">
        <ele>227.364431</ele>
        <time>2019-06-06T13:59:26.000Z</time>
      </trkpt>
      <trkpt lat="50.371304" lon="26.511606">
        <ele>227.429110</ele>
        <time>2019-06-06T13:59:29.000Z</time>
      </trkpt>
      <trkpt lat="50.371223" lon="26.511670">
        <ele>227.493525</ele>
        <time>2019-06-06T13:59:32.000Z</time>
      </trkpt>
      <trkpt lat="50.371128" lon="26.511707">
        <ele>227.563041</ele>
        <time>2019-06-06T13:59:35.000Z</time>
      </trkpt>
      <trkpt lat="50.371037" lon="26.511768">
        <ele>227.633325</ele>
        <time>2019-06-06T13:59:38.000Z</time>
      </trkpt>
      <trkpt lat="50.370895" lon="26.511848">
        <ele>227.618231</ele>
        <time>2019-06-06T14:00:24.000Z</time>
      </trkpt>
      <trkpt lat="50.370790" lon="26.511902">
        <ele>227.503235</ele>
        <time>2019-06-06T14:00:28.000Z</time>
      </trkpt>
      <trkpt lat="50.370705" lon="26.511957">
        <ele>227.407543</ele>
        <time>2019-06-06T14:00:31.000Z</time>
      </trkpt>
      <trkpt lat="50.370613" lon="26.512010">
        <ele>227.305545</ele>
        <time>2019-06-06T14:00:34.000Z</time>
      </trkpt>
      <trkpt lat="50.370510" lon="26.512062">
        <ele>227.192938</ele>
        <time>2019-06-06T14:00:37.000Z</time>
      </trkpt>
      <trkpt lat="50.370403" lon="26.512133">
        <ele>227.072027</ele>
        <time>2019-06-06T14:00:40.000Z</time>
      </trkpt>
      <trkpt lat="50.370300" lon="26.512186">
        <ele>226.959215</ele>
        <time>2019-06-06T14:00:43.000Z</time>
      </trkpt>
      <trkpt lat="50.370197" lon="26.512247">
        <ele>226.844636</ele>
        <time>2019-06-06T14:00:46.000Z</time>
      </trkpt>
      <trkpt lat="50.370094" lon="26.512302">
        <ele>226.731403</ele>
        <time>2019-06-06T14:00:49.000Z</time>
      </trkpt>
      <trkpt lat="50.369984" lon="26.512373">
        <ele>226.607611</ele>
        <time>2019-06-06T14:00:52.000Z</time>
      </trkpt>
      <trkpt lat="50.369884" lon="26.512426">
        <ele>226.497761</ele>
        <time>2019-06-06T14:00:55.000Z</time>
      </trkpt>
      <trkpt lat="50.369790" lon="26.512465">
        <ele>226.396573</ele>
        <time>2019-06-06T14:00:58.000Z</time>
      </trkpt>
      <trkpt lat="50.369694" lon="26.512527">
        <ele>226.288527</ele>
        <time>2019-06-06T14:01:01.000Z</time>
      </trkpt>
      <trkpt lat="50.369595" lon="26.512579">
        <ele>226.179875</ele>
        <time>2019-06-06T14:01:04.000Z</time>
      </trkpt>
      <trkpt lat="50.369484" lon="26.512630">
        <ele>226.059505</ele>
        <time>2019-06-06T14:01:07.000Z</time>
      </trkpt>
      <trkpt lat="50.369390" lon="26.512693">
        <ele>225.953121</ele>
        <time>2019-06-06T14:01:10.000Z</time>
      </trkpt>
      <trkpt lat="50.369290" lon="26.512770">
        <ele>225.837182</ele>
        <time>2019-06-06T14:01:13.000Z</time>
      </trkpt>
      <trkpt lat="50.369186" lon="26.512829">
        <ele>225.829829</ele>
        <time>2019-06-06T14:01:16.000Z</time>
      </trkpt>
      <trkpt lat="50.369080" lon="26.512878">
        <ele>225.842493</ele>
        <time>2019-06-06T14:01:19.000Z</time>
      </trkpt>
      <trkpt lat="50.368970" lon="26.512930">
        <ele>225.855659</ele>
        <time>2019-06-06T14:01:22.000Z</time>
      </trkpt>
      <trkpt lat="50.368866" lon="26.512987">
        <ele>225.868284</ele>
        <time>2019-06-06T14:01:24.000Z</time>
      </trkpt>
      <trkpt lat="50.368760" lon="26.513052">
        <ele>225.881328</ele>
        <time>2019-06-06T14:01:28.000Z</time>
      </trkpt>
      <trkpt lat="50.368660" lon="26.513120">
        <ele>225.893819</ele>
        <time>2019-06-06T14:01:31.000Z</time>
      </trkpt>
      <trkpt lat="50.368557" lon="26.513186">
        <ele>225.906570</ele>
        <time>2019-06-06T14:01:34.000Z</time>
      </trkpt>
      <trkpt lat="50.368450" lon="26.513240">
        <ele>225.919451</ele>
        <time>2019-06-06T14:01:37.000Z</time>
      </trkpt>
      <trkpt lat="50.368355" lon="26.513292">
        <ele>225.930982</ele>
        <time>2019-06-06T14:01:40.000Z</time>
      </trkpt>
      <trkpt lat="50.368250" lon="26.513336">
        <ele>225.943437</ele>
        <time>2019-06-06T14:01:43.000Z</time>
      </trkpt>
      <trkpt lat="50.368150" lon="26.513374">
        <ele>225.955228</ele>
        <time>2019-06-06T14:01:46.000Z</time>
      </trkpt>
      <trkpt lat="50.368046" lon="26.513418">
        <ele>225.967573</ele>
        <time>2019-06-06T14:01:49.000Z</time>
      </trkpt>
      <trkpt lat="50.367940" lon="26.513458">
        <ele>225.980067</ele>
        <time>2019-06-06T14:01:52.000Z</time>
      </trkpt>
      <trkpt lat="50.367832" lon="26.513441">
        <ele>225.992505</ele>
        <time>2019-06-06T14:01:55.000Z</time>
      </trkpt>
      <trkpt lat="50.367725" lon="26.513428">
        <ele>226.004804</ele>
        <time>2019-06-06T14:01:58.000Z</time>
      </trkpt>
      <trkpt lat="50.367615" lon="26.513426">
        <ele>226.017410</ele>
        <time>2019-06-06T14:02:02.000Z</time>
      </trkpt>
      <trkpt lat="50.367527" lon="26.513405">
        <ele>226.019312</ele>
        <time>2019-06-06T14:02:06.000Z</time>
      </trkpt>
      <trkpt lat="50.367416" lon="26.513401">
        <ele>225.987160</ele>
        <time>2019-06-06T14:02:10.000Z</time>
      </trkpt>
      <trkpt lat="50.367317" lon="26.513412">
        <ele>225.958418</ele>
        <time>2019-06-06T14:02:14.000Z</time>
      </trkpt>
      <trkpt lat="50.367200" lon="26.513401">
        <ele>225.924476</ele>
        <time>2019-06-06T14:02:18.000Z</time>
      </trkpt>
      <trkpt lat="50.367107" lon="26.513395">
        <ele>225.897521</ele>
        <time>2019-06-06T14:02:21.000Z</time>
      </trkpt>
      <trkpt lat="50.367010" lon="26.513378">
        <ele>225.869256</ele>
        <time>2019-06-06T14:02:24.000Z</time>
      </trkpt>
      <trkpt lat="50.366905" lon="26.513370">
        <ele>225.838814</ele>
        <time>2019-06-06T14:02:27.000Z</time>
      </trkpt>
      <trkpt lat="50.366800" lon="26.513369">
        <ele>225.808407</ele>
        <time>2019-06-06T14:02:30.000Z</time>
      </trkpt>
      <trkpt lat="50.366690" lon="26.513357">
        <ele>225.776475</ele>
        <time>2019-06-06T14:02:33.000Z</time>
      </trkpt>
      <trkpt lat="50.366585" lon="26.513360">
        <ele>225.746063</ele>
        <time>2019-06-06T14:02:35.000Z</time>
      </trkpt>
      <trkpt lat="50.366478" lon="26.513365">
        <ele>225.715064</ele>
        <time>2019-06-06T14:02:39.000Z</time>
      </trkpt>
      <trkpt lat="50.366380" lon="26.513348">
        <ele>225.686511</ele>
        <time>2019-06-06T14:02:42.000Z</time>
      </trkpt>
      <trkpt lat="50.366272" lon="26.513323">
        <ele>225.654896</ele>
        <time>2019-06-06T14:02:45.000Z</time>
      </trkpt>
      <trkpt lat="50.366170" lon="26.513329">
        <ele>225.625337</ele>
        <time>2019-06-06T14:02:48.000Z</time>
      </trkpt>
      <trkpt lat="50.366066" lon="26.513319">
        <ele>225.595164</ele>
        <time>2019-06-06T14:02:51.000Z</time>
      </trkpt>
      <trkpt lat="50.365960" lon="26.513315">
        <ele>225.564459</ele>
        <time>2019-06-06T14:02:54.000Z</time>
      </trkpt>
      <trkpt lat="50.365856" lon="26.513313">
        <ele>225.534339</ele>
        <time>2019-06-06T14:02:57.000Z</time>
      </trkpt>
      <trkpt lat="50.365760" lon="26.513311">
        <ele>225.506536</ele>
        <time>2019-06-06T14:03:00.000Z</time>
      </trkpt>
      <trkpt lat="50.365654" lon="26.513306">
        <ele>225.361578</ele>
        <time>2019-06-06T14:03:03.000Z</time>
      </trkpt>
      <trkpt lat="50.365543" lon="26.513310">
        <ele>225.200837</ele>
        <time>2019-06-06T14:03:06.000Z</time>
      </trkpt>
      <trkpt lat="50.365430" lon="26.513311">
        <ele>225.037241</ele>
        <time>2019-06-06T14:03:09.000Z</time>
      </trkpt>
      <trkpt lat="50.365320" lon="26.513313">
        <ele>224.877979</ele>
        <time>2019-06-06T14:03:12.000Z</time>
      </trkpt>
      <trkpt lat="50.365200" lon="26.513308">
        <ele>224.704190</ele>
        <time>2019-06-06T14:03:15.000Z</time>
      </trkpt>
      <trkpt lat="50.365090" lon="26.513302">
        <ele>224.544843</ele>
        <time>2019-06-06T14:03:18.000Z</time>
      </trkpt>
      <trkpt lat="50.364980" lon="26.513306">
        <ele>224.385550</ele>
        <time>2019-06-06T14:03:21.000Z</time>
      </trkpt>
      <trkpt lat="50.364870" lon="26.513304">
        <ele>224.226288</ele>
        <time>2019-06-06T14:03:24.000Z</time>
      </trkpt>
      <trkpt lat="50.364770" lon="26.513296">
        <ele>224.081327</ele>
        <time>2019-06-06T14:03:27.000Z</time>
      </trkpt>
      <trkpt lat="50.364660" lon="26.513296">
        <ele>223.922076</ele>
        <time>2019-06-06T14:03:30.000Z</time>
      </trkpt>
      <trkpt lat="50.364536" lon="26.513292">
        <ele>223.742519</ele>
        <time>2019-06-06T14:03:33.000Z</time>
      </trkpt>
      <trkpt lat="50.364420" lon="26.513283">
        <ele>223.574376</ele>
        <time>2019-06-06T14:03:36.000Z</time>
      </trkpt>
      <trkpt lat="50.364300" lon="26.513273">
        <ele>223.400403</ele>
        <time>2019-06-06T14:03:39.000Z</time>
      </trkpt>
      <trkpt lat="50.364174" lon="26.513273">
        <ele>223.217989</ele>
        <time>2019-06-06T14:03:42.000Z</time>
      </trkpt>
      <trkpt lat="50.364044" lon="26.513273">
        <ele>223.029783</ele>
        <time>2019-06-06T14:03:45.000Z</time>
      </trkpt>
      <trkpt lat="50.363920" lon="26.513260">
        <ele>222.921564</ele>
        <time>2019-06-06T14:03:48.000Z</time>
      </trkpt>
      <trkpt lat="50.363800" lon="26.513245">
        <ele>222.994366</ele>
        <time>2019-06-06T14:03:51.000Z</time>
      </trkpt>
      <trkpt lat="50.363686" lon="26.513231">
        <ele>223.063519</ele>
        <time>2019-06-06T14:03:54.000Z</time>
      </trkpt>
      <trkpt lat="50.363564" lon="26.513210">
        <ele>223.137743</ele>
        <time>2019-06-06T14:03:57.000Z</time>
      </trkpt>
      <trkpt lat="50.363438" lon="26.513195">
        <ele>223.214162</ele>
        <time>2019-06-06T14:04:00.000Z</time>
      </trkpt>
      <trkpt lat="50.363327" lon="26.513180">
        <ele>223.281539</ele>
        <time>2019-06-06T14:04:02.000Z</time>
      </trkpt>
      <trkpt lat="50.363213" lon="26.513182">
        <ele>223.350486</ele>
        <time>2019-06-06T14:04:05.000Z</time>
      </trkpt>
      <trkpt lat="50.363102" lon="26.513159">
        <ele>223.418198</ele>
        <time>2019-06-06T14:04:08.000Z</time>
      </trkpt>
      <trkpt lat="50.362988" lon="26.513151">
        <ele>223.487209</ele>
        <time>2019-06-06T14:04:12.000Z</time>
      </trkpt>
      <trkpt lat="50.362880" lon="26.513132">
        <ele>223.552933</ele>
        <time>2019-06-06T14:04:15.000Z</time>
      </trkpt>
      <trkpt lat="50.362778" lon="26.513123">
        <ele>223.614716</ele>
        <time>2019-06-06T14:04:18.000Z</time>
      </trkpt>
      <trkpt lat="50.362663" lon="26.513115">
        <ele>223.684332</ele>
        <time>2019-06-06T14:04:21.000Z</time>
      </trkpt>
      <trkpt lat="50.362553" lon="26.513111">
        <ele>223.750873</ele>
        <time>2019-06-06T14:04:24.000Z</time>
      </trkpt>
      <trkpt lat="50.362440" lon="26.513105">
        <ele>223.819250</ele>
        <time>2019-06-06T14:04:27.000Z</time>
      </trkpt>
      <trkpt lat="50.362340" lon="26.513075">
        <ele>223.880823</ele>
        <time>2019-06-06T14:04:30.000Z</time>
      </trkpt>
      <trkpt lat="50.362244" lon="26.513077">
        <ele>223.938885</ele>
        <time>2019-06-06T14:04:33.000Z</time>
      </trkpt>
      <trkpt lat="50.362144" lon="26.513071">
        <ele>224.020532</ele>
        <time>2019-06-06T14:04:36.000Z</time>
      </trkpt>
      <trkpt lat="50.362038" lon="26.513048">
        <ele>224.207068</ele>
        <time>2019-06-06T14:04:39.000Z</time>
      </trkpt>
      <trkpt lat="50.361930" lon="26.513040">
        <ele>224.395538</ele>
        <time>2019-06-06T14:04:42.000Z</time>
      </trkpt>
      <trkpt lat="50.361828" lon="26.513030">
        <ele>224.573687</ele>
        <time>2019-06-06T14:04:45.000Z</time>
      </trkpt>
      <trkpt lat="50.361732" lon="26.513027">
        <ele>224.741063</ele>
        <time>2019-06-06T14:04:48.000Z</time>
      </trkpt>
      <trkpt lat="50.361610" lon="26.513023">
        <ele>224.953774</ele>
        <time>2019-06-06T14:04:52.000Z</time>
      </trkpt>
      <trkpt lat="50.361515" lon="26.513025">
        <ele>225.119388</ele>
        <time>2019-06-06T14:04:55.000Z</time>
      </trkpt>
      <trkpt lat="50.361416" lon="26.513042">
        <ele>225.292992</ele>
        <time>2019-06-06T14:04:58.000Z</time>
      </trkpt>
      <trkpt lat="50.361313" lon="26.513054">
        <ele>225.473032</ele>
        <time>2019-06-06T14:05:01.000Z</time>
      </trkpt>
      <trkpt lat="50.361206" lon="26.513088">
        <ele>225.663343</ele>
        <time>2019-06-06T14:05:04.000Z</time>
      </trkpt>
      <trkpt lat="50.361103" lon="26.513163">
        <ele>225.861313</ele>
        <time>2019-06-06T14:05:07.000Z</time>
      </trkpt>
      <trkpt lat="50.361004" lon="26.513240">
        <ele>226.053961</ele>
        <time>2019-06-06T14:05:10.000Z</time>
      </trkpt>
      <trkpt lat="50.360905" lon="26.513311">
        <ele>226.243737</ele>
        <time>2019-06-06T14:05:13.000Z</time>
      </trkpt>
      <trkpt lat="50.360810" lon="26.513374">
        <ele>226.423546</ele>
        <time>2019-06-06T14:05:16.000Z</time>
      </trkpt>
      <trkpt lat="50.360710" lon="26.513470">
        <ele>226.627954</ele>
        <time>2019-06-06T14:05:20.000Z</time>
      </trkpt>
      <trkpt lat="50.360620" lon="26.513546">
        <ele>226.806155</ele>
        <time>2019-06-06T14:05:23.000Z</time>
      </trkpt>
      <trkpt lat="50.360516" lon="26.513643">
        <ele>227.017107</ele>
        <time>2019-06-06T14:05:26.000Z</time>
      </trkpt>
      <trkpt lat="50.360420" lon="26.513754">
        <ele>226.981594</ele>
        <time>2019-06-06T14:05:29.000Z</time>
      </trkpt>
      <trkpt lat="50.360325" lon="26.513880">
        <ele>226.678524</ele>
        <time>2019-06-06T14:05:32.000Z</time>
      </trkpt>
      <trkpt lat="50.360230" lon="26.513998">
        <ele>226.383330</ele>
        <time>2019-06-06T14:05:35.000Z</time>
      </trkpt>
      <trkpt lat="50.360146" lon="26.514105">
        <ele>226.119726</ele>
        <time>2019-06-06T14:05:38.000Z</time>
      </trkpt>
      <trkpt lat="50.360070" lon="26.514208">
        <ele>225.875048</ele>
        <time>2019-06-06T14:05:41.000Z</time>
      </trkpt>
      <trkpt lat="50.359997" lon="26.514324">
        <ele>225.621890</ele>
        <time>2019-06-06T14:05:44.000Z</time>
      </trkpt>
      <trkpt lat="50.359917" lon="26.514470">
        <ele>225.322867</ele>
        <time>2019-06-06T14:05:47.000Z</time>
      </trkpt>
      <trkpt lat="50.359830" lon="26.514600">
        <ele>225.030141</ele>
        <time>2019-06-06T14:05:50.000Z</time>
      </trkpt>
      <trkpt lat="50.359745" lon="26.514744">
        <ele>224.725332</ele>
        <time>2019-06-06T14:05:53.000Z</time>
      </trkpt>
      <trkpt lat="50.359670" lon="26.514904">
        <ele>224.416852</ele>
        <time>2019-06-06T14:05:56.000Z</time>
      </trkpt>
      <trkpt lat="50.359615" lon="26.515018">
        <ele>224.194785</ele>
        <time>2019-06-06T14:05:58.000Z</time>
      </trkpt>
      <trkpt lat="50.359560" lon="26.515131">
        <ele>223.973956</ele>
        <time>2019-06-06T14:06:00.000Z</time>
      </trkpt>
      <trkpt lat="50.359486" lon="26.515284">
        <ele>223.675647</ele>
        <time>2019-06-06T14:06:03.000Z</time>
      </trkpt>
      <trkpt lat="50.359420" lon="26.515429">
        <ele>223.398898</ele>
        <time>2019-06-06T14:06:06.000Z</time>
      </trkpt>
      <trkpt lat="50.359350" lon="26.515596">
        <ele>223.088436</ele>
        <time>2019-06-06T14:06:09.000Z</time>
      </trkpt>
      <trkpt lat="50.359280" lon="26.515759">
        <ele>222.783149</ele>
        <time>2019-06-06T14:06:12.000Z</time>
      </trkpt>
      <trkpt lat="50.359196" lon="26.515920">
        <ele>223.156261</ele>
        <time>2019-06-06T14:06:15.000Z</time>
      </trkpt>
      <trkpt lat="50.359123" lon="26.516058">
        <ele>223.562779</ele>
        <time>2019-06-06T14:06:18.000Z</time>
      </trkpt>
      <trkpt lat="50.359047" lon="26.516160">
        <ele>223.918412</ele>
        <time>2019-06-06T14:06:21.000Z</time>
      </trkpt>
      <trkpt lat="50.358955" lon="26.516216">
        <ele>224.269215</ele>
        <time>2019-06-06T14:06:24.000Z</time>
      </trkpt>
      <trkpt lat="50.358860" lon="26.516308">
        <ele>224.666138</ele>
        <time>2019-06-06T14:06:27.000Z</time>
      </trkpt>
      <trkpt lat="50.358746" lon="26.516380">
        <ele>225.103004</ele>
        <time>2019-06-06T14:06:30.000Z</time>
      </trkpt>
      <trkpt lat="50.358643" lon="26.516445">
        <ele>225.497672</ele>
        <time>2019-06-06T14:06:33.000Z</time>
      </trkpt>
      <trkpt lat="50.358550" lon="26.516490">
        <ele>225.843629</ele>
        <time>2019-06-06T14:06:36.000Z</time>
      </trkpt>
      <trkpt lat="50.358444" lon="26.516542">
        <ele>226.238424</ele>
        <time>2019-06-06T14:06:40.000Z</time>
      </trkpt>
      <trkpt lat="50.358340" lon="26.516582">
        <ele>226.619054</ele>
        <time>2019-06-06T14:06:44.000Z</time>
      </trkpt>
      <trkpt lat="50.358246" lon="26.516630">
        <ele>226.970457</ele>
        <time>2019-06-06T14:06:48.000Z</time>
      </trkpt>
      <trkpt lat="50.358154" lon="26.516693">
        <ele>227.327313</ele>
        <time>2019-06-06T14:06:52.000Z</time>
      </trkpt>
      <trkpt lat="50.358047" lon="26.516737">
        <ele>227.720512</ele>
        <time>2019-06-06T14:06:57.000Z</time>
      </trkpt>
      <trkpt lat="50.357950" lon="26.516806">
        <ele>228.099139</ele>
        <time>2019-06-06T14:07:02.000Z</time>
      </trkpt>
      <trkpt lat="50.357845" lon="26.516851">
        <ele>228.486057</ele>
        <time>2019-06-06T14:07:07.000Z</time>
      </trkpt>
      <trkpt lat="50.357746" lon="26.516893">
        <ele>228.850611</ele>
        <time>2019-06-06T14:07:12.000Z</time>
      </trkpt>
      <trkpt lat="50.357660" lon="26.516937">
        <ele>229.185336</ele>
        <time>2019-06-06T14:07:17.000Z</time>
      </trkpt>
      <trkpt lat="50.357580" lon="26.517014">
        <ele>229.641542</ele>
        <time>2019-06-06T14:07:33.000Z</time>
      </trkpt>
      <trkpt lat="50.357487" lon="26.517048">
        <ele>230.105607</ele>
        <time>2019-06-06T14:07:40.000Z</time>
      </trkpt>
      <trkpt lat="50.357390" lon="26.517082">
        <ele>230.588621</ele>
        <time>2019-06-06T14:07:47.000Z</time>
      </trkpt>
      <trkpt lat="50.357296" lon="26.517120">
        <ele>231.060363</ele>
        <time>2019-06-06T14:07:54.000Z</time>
      </trkpt>
      <trkpt lat="50.357193" lon="26.517128">
        <ele>231.561506</ele>
        <time>2019-06-06T14:08:01.000Z</time>
      </trkpt>
      <trkpt lat="50.357094" lon="26.517134">
        <ele>232.042956</ele>
        <time>2019-06-06T14:08:09.000Z</time>
      </trkpt>
      <trkpt lat="50.357000" lon="26.517150">
        <ele>232.502435</ele>
        <time>2019-06-06T14:08:18.000Z</time>
      </trkpt>
      <trkpt lat="50.356890" lon="26.517149">
        <ele>233.036989</ele>
        <time>2019-06-06T14:08:26.000Z</time>
      </trkpt>
      <trkpt lat="50.356796" lon="26.517166">
        <ele>233.496813</ele>
        <time>2019-06-06T14:08:33.000Z</time>
      </trkpt>
      <trkpt lat="50.356705" lon="26.517193">
        <ele>233.946882</ele>
        <time>2019-06-06T14:08:40.000Z</time>
      </trkpt>
      <trkpt lat="50.356610" lon="26.517246">
        <ele>234.436907</ele>
        <time>2019-06-06T14:08:48.000Z</time>
      </trkpt>
      <trkpt lat="50.356518" lon="26.517323">
        <ele>234.943728</ele>
        <time>2019-06-06T14:08:56.000Z</time>
      </trkpt>
      <trkpt lat="50.356434" lon="26.517399">
        <ele>235.415054</ele>
        <time>2019-06-06T14:09:04.000Z</time>
      </trkpt>
      <trkpt lat="50.356342" lon="26.517447">
        <ele>235.886247</ele>
        <time>2019-06-06T14:09:11.000Z</time>
      </trkpt>
      <trkpt lat="50.356255" lon="26.517519">
        <ele>236.364339</ele>
        <time>2019-06-06T14:09:18.000Z</time>
      </trkpt>
      <trkpt lat="50.356170" lon="26.517578">
        <ele>236.816089</ele>
        <time>2019-06-06T14:09:25.000Z</time>
      </trkpt>
      <trkpt lat="50.356090" lon="26.517643">
        <ele>237.253980</ele>
        <time>2019-06-06T14:09:32.000Z</time>
      </trkpt>
      <trkpt lat="50.356007" lon="26.517715">
        <ele>237.714972</ele>
        <time>2019-06-06T14:09:39.000Z</time>
      </trkpt>
      <trkpt lat="50.355920" lon="26.517780">
        <ele>238.094459</ele>
        <time>2019-06-06T14:09:47.000Z</time>
      </trkpt>
      <trkpt lat="50.355843" lon="26.517860">
        <ele>238.413229</ele>
        <time>2019-06-06T14:09:54.000Z</time>
      </trkpt>
      <trkpt lat="50.355755" lon="26.517937">
        <ele>238.760995</ele>
        <time>2019-06-06T14:10:01.000Z</time>
      </trkpt>
      <trkpt lat="50.355663" lon="26.518015">
        <ele>239.121919</ele>
        <time>2019-06-06T14:10:09.000Z</time>
      </trkpt>
      <trkpt lat="50.355580" lon="26.518091">
        <ele>239.453612</ele>
        <time>2019-06-06T14:10:16.000Z</time>
      </trkpt>
      <trkpt lat="50.355495" lon="26.518162">
        <ele>239.785964</ele>
        <time>2019-06-06T14:10:23.000Z</time>
      </trkpt>
      <trkpt lat="50.355408" lon="26.518229">
        <ele>240.120448</ele>
        <time>2019-06-06T14:10:30.000Z</time>
      </trkpt>
      <trkpt lat="50.355330" lon="26.518312">
        <ele>240.445763</ele>
        <time>2019-06-06T14:10:37.000Z</time>
      </trkpt>
      <trkpt lat="50.355236" lon="26.518366">
        <ele>240.791220</ele>
        <time>2019-06-06T14:10:44.000Z</time>
      </trkpt>
      <trkpt lat="50.355150" lon="26.518433">
        <ele>241.122610</ele>
        <time>2019-06-06T14:10:51.000Z</time>
      </trkpt>
      <trkpt lat="50.355045" lon="26.518496">
        <ele>241.510564</ele>
        <time>2019-06-06T14:10:59.000Z</time>
      </trkpt>
      <trkpt lat="50.354942" lon="26.518543">
        <ele>241.880732</ele>
        <time>2019-06-06T14:11:03.000Z</time>
      </trkpt>
      <trkpt lat="50.354828" lon="26.518553">
        <ele>242.274716</ele>
        <time>2019-06-06T14:11:07.000Z</time>
      </trkpt>
      <trkpt lat="50.354713" lon="26.518572">
        <ele>242.673734</ele>
        <time>2019-06-06T14:11:11.000Z</time>
      </trkpt>
      <trkpt lat="50.354600" lon="26.518581">
        <ele>243.064154</ele>
        <time>2019-06-06T14:11:15.000Z</time>
      </trkpt>
      <trkpt lat="50.354507" lon="26.518593">
        <ele>243.386146</ele>
        <time>2019-06-06T14:11:18.000Z</time>
      </trkpt>
      <trkpt lat="50.354393" lon="26.518604">
        <ele>243.780259</ele>
        <time>2019-06-06T14:11:22.000Z</time>
      </trkpt>
      <trkpt lat="50.354300" lon="26.518614">
        <ele>244.075332</ele>
        <time>2019-06-06T14:11:25.000Z</time>
      </trkpt>
      <trkpt lat="50.354187" lon="26.518633">
        <ele>243.910138</ele>
        <time>2019-06-06T14:11:29.000Z</time>
      </trkpt>
      <trkpt lat="50.354080" lon="26.518627">
        <ele>243.754509</ele>
        <time>2019-06-06T14:11:33.000Z</time>
      </trkpt>
      <trkpt lat="50.353962" lon="26.518635">
        <ele>243.582830</ele>
        <time>2019-06-06T14:11:37.000Z</time>
      </trkpt>
      <trkpt lat="50.353874" lon="26.518642">
        <ele>243.454753</ele>
        <time>2019-06-06T14:11:40.000Z</time>
      </trkpt>
      <trkpt lat="50.353783" lon="26.518644">
        <ele>243.322467</ele>
        <time>2019-06-06T14:11:43.000Z</time>
      </trkpt>
      <trkpt lat="50.353672" lon="26.518660">
        <ele>243.160442</ele>
        <time>2019-06-06T14:11:47.000Z</time>
      </trkpt>
      <trkpt lat="50.353580" lon="26.518665">
        <ele>243.026635</ele>
        <time>2019-06-06T14:11:50.000Z</time>
      </trkpt>
      <trkpt lat="50.353485" lon="26.518665">
        <ele>242.888548</ele>
        <time>2019-06-06T14:11:53.000Z</time>
      </trkpt>
      <trkpt lat="50.353394" lon="26.518673">
        <ele>242.756067</ele>
        <time>2019-06-06T14:11:56.000Z</time>
      </trkpt>
      <trkpt lat="50.353294" lon="26.518680">
        <ele>242.610568</ele>
        <time>2019-06-06T14:11:59.000Z</time>
      </trkpt>
      <trkpt lat="50.353195" lon="26.518679">
        <ele>242.466663</ele>
        <time>2019-06-06T14:12:02.000Z</time>
      </trkpt>
      <trkpt lat="50.353100" lon="26.518682">
        <ele>242.328548</ele>
        <time>2019-06-06T14:12:05.000Z</time>
      </trkpt>
      <trkpt lat="50.353004" lon="26.518690">
        <ele>242.188810</ele>
        <time>2019-06-06T14:12:08.000Z</time>
      </trkpt>
      <trkpt lat="50.352910" lon="26.518700">
        <ele>242.051862</ele>
        <time>2019-06-06T14:12:11.000Z</time>
      </trkpt>
      <trkpt lat="50.352814" lon="26.518705">
        <ele>241.912245</ele>
        <time>2019-06-06T14:12:14.000Z</time>
      </trkpt>
      <trkpt lat="50.352715" lon="26.518713">
        <ele>241.768152</ele>
        <time>2019-06-06T14:12:17.000Z</time>
      </trkpt>
      <trkpt lat="50.352610" lon="26.518728">
        <ele>241.614897</ele>
        <time>2019-06-06T14:12:20.000Z</time>
      </trkpt>
      <trkpt lat="50.352505" lon="26.518732">
        <ele>241.464146</ele>
        <time>2019-06-06T14:12:23.000Z</time>
      </trkpt>
      <trkpt lat="50.352406" lon="26.518736">
        <ele>241.362208</ele>
        <time>2019-06-06T14:12:26.000Z</time>
      </trkpt>
      <trkpt lat="50.352303" lon="26.518742">
        <ele>241.256113</ele>
        <time>2019-06-06T14:12:29.000Z</time>
      </trkpt>
      <trkpt lat="50.352200" lon="26.518763">
        <ele>241.149198</ele>
        <time>2019-06-06T14:12:32.000Z</time>
      </trkpt>
      <trkpt lat="50.352097" lon="26.518760">
        <ele>241.043158</ele>
        <time>2019-06-06T14:12:35.000Z</time>
      </trkpt>
      <trkpt lat="50.351994" lon="26.518755">
        <ele>240.937085</ele>
        <time>2019-06-06T14:12:38.000Z</time>
      </trkpt>
      <trkpt lat="50.351894" lon="26.518751">
        <ele>240.834118</ele>
        <time>2019-06-06T14:12:41.000Z</time>
      </trkpt>
      <trkpt lat="50.351788" lon="26.518763">
        <ele>240.724724</ele>
        <time>2019-06-06T14:12:44.000Z</time>
      </trkpt>
      <trkpt lat="50.351696" lon="26.518764">
        <ele>240.630023</ele>
        <time>2019-06-06T14:12:47.000Z</time>
      </trkpt>
      <trkpt lat="50.351580" lon="26.518774">
        <ele>240.510440</ele>
        <time>2019-06-06T14:12:51.000Z</time>
      </trkpt>
      <trkpt lat="50.351490" lon="26.518787">
        <ele>240.417407</ele>
        <time>2019-06-06T14:12:54.000Z</time>
      </trkpt>
      <trkpt lat="50.351376" lon="26.518803">
        <ele>240.299593</ele>
        <time>2019-06-06T14:12:58.000Z</time>
      </trkpt>
      <trkpt lat="50.351257" lon="26.518803">
        <ele>240.177102</ele>
        <time>2019-06-06T14:13:02.000Z</time>
      </trkpt>
      <trkpt lat="50.351166" lon="26.518812">
        <ele>240.083246</ele>
        <time>2019-06-06T14:13:05.000Z</time>
      </trkpt>
      <trkpt lat="50.351070" lon="26.518816">
        <ele>239.984395</ele>
        <time>2019-06-06T14:13:08.000Z</time>
      </trkpt>
      <trkpt lat="50.350956" lon="26.518835">
        <ele>239.866388</ele>
        <time>2019-06-06T14:13:12.000Z</time>
      </trkpt>
      <trkpt lat="50.350864" lon="26.518845">
        <ele>239.771462</ele>
        <time>2019-06-06T14:13:15.000Z</time>
      </trkpt>
      <trkpt lat="50.350740" lon="26.518871">
        <ele>239.642687</ele>
        <time>2019-06-06T14:13:19.000Z</time>
      </trkpt>
      <trkpt lat="50.350643" lon="26.518870">
        <ele>239.506722</ele>
        <time>2019-06-06T14:13:22.000Z</time>
      </trkpt>
      <trkpt lat="50.350548" lon="26.518873">
        <ele>239.361530</ele>
        <time>2019-06-06T14:13:25.000Z</time>
      </trkpt>
      <trkpt lat="50.350452" lon="26.518887">
        <ele>239.214205</ele>
        <time>2019-06-06T14:13:28.000Z</time>
      </trkpt>
      <trkpt lat="50.350357" lon="26.518898">
        <ele>239.068647</ele>
        <time>2019-06-06T14:13:31.000Z</time>
      </trkpt>
      <trkpt lat="50.350260" lon="26.518910">
        <ele>238.919967</ele>
        <time>2019-06-06T14:13:34.000Z</time>
      </trkpt>
      <trkpt lat="50.350147" lon="26.518915">
        <ele>238.747231</ele>
        <time>2019-06-06T14:13:38.000Z</time>
      </trkpt>
      <trkpt lat="50.350050" lon="26.518938">
        <ele>238.597325</ele>
        <time>2019-06-06T14:13:41.000Z</time>
      </trkpt>
      <trkpt lat="50.349953" lon="26.518948">
        <ele>238.448786</ele>
        <time>2019-06-06T14:13:44.000Z</time>
      </trkpt>
      <trkpt lat="50.349850" lon="26.518951">
        <ele>238.291372</ele>
        <time>2019-06-06T14:13:47.000Z</time>
      </trkpt>
      <trkpt lat="50.349754" lon="26.518953">
        <ele>238.144668</ele>
        <time>2019-06-06T14:13:50.000Z</time>
      </trkpt>
      <trkpt lat="50.349655" lon="26.518965">
        <ele>237.992942</ele>
        <time>2019-06-06T14:13:53.000Z</time>
      </trkpt>
      <trkpt lat="50.349556" lon="26.518963">
        <ele>237.841654</ele>
        <time>2019-06-06T14:13:56.000Z</time>
      </trkpt>
      <trkpt lat="50.349457" lon="26.518970">
        <ele>237.690226</ele>
        <time>2019-06-06T14:13:59.000Z</time>
      </trkpt>
      <trkpt lat="50.349350" lon="26.518970">
        <ele>237.526726</ele>
        <time>2019-06-06T14:14:02.000Z</time>
      </trkpt>
      <trkpt lat="50.349255" lon="26.518976">
        <ele>237.381446</ele>
        <time>2019-06-06T14:14:05.000Z</time>
      </trkpt>
      <trkpt lat="50.349163" lon="26.518986">
        <ele>237.240530</ele>
        <time>2019-06-06T14:14:08.000Z</time>
      </trkpt>
      <trkpt lat="50.349064" lon="26.518993">
        <ele>237.089101</ele>
        <time>2019-06-06T14:14:11.000Z</time>
      </trkpt>
      <trkpt lat="50.348957" lon="26.519001">
        <ele>236.925416</ele>
        <time>2019-06-06T14:14:15.000Z</time>
      </trkpt>
      <trkpt lat="50.348866" lon="26.519016">
        <ele>236.880614</ele>
        <time>2019-06-06T14:14:18.000Z</time>
      </trkpt>
      <trkpt lat="50.348763" lon="26.519020">
        <ele>236.902517</ele>
        <time>2019-06-06T14:14:21.000Z</time>
      </trkpt>
      <trkpt lat="50.348667" lon="26.519018">
        <ele>236.922928</ele>
        <time>2019-06-06T14:14:24.000Z</time>
      </trkpt>
      <trkpt lat="50.348550" lon="26.519026">
        <ele>236.947824</ele>
        <time>2019-06-06T14:14:28.000Z</time>
      </trkpt>
      <trkpt lat="50.348454" lon="26.519024">
        <ele>236.968235</ele>
        <time>2019-06-06T14:14:31.000Z</time>
      </trkpt>
      <trkpt lat="50.348360" lon="26.519030">
        <ele>236.988235</ele>
        <time>2019-06-06T14:14:34.000Z</time>
      </trkpt>
      <trkpt lat="50.348250" lon="26.519033">
        <ele>237.011623</ele>
        <time>2019-06-06T14:14:37.000Z</time>
      </trkpt>
      <trkpt lat="50.348137" lon="26.519049">
        <ele>237.035743</ele>
        <time>2019-06-06T14:14:41.000Z</time>
      </trkpt>
      <trkpt lat="50.348040" lon="26.519064">
        <ele>237.056465</ele>
        <time>2019-06-06T14:14:45.000Z</time>
      </trkpt>
      <trkpt lat="50.347935" lon="26.519053">
        <ele>237.078836</ele>
        <time>2019-06-06T14:14:49.000Z</time>
      </trkpt>
      <trkpt lat="50.347816" lon="26.519050">
        <ele>237.104138</ele>
        <time>2019-06-06T14:14:53.000Z</time>
      </trkpt>
      <trkpt lat="50.347717" lon="26.519047">
        <ele>237.125188</ele>
        <time>2019-06-06T14:14:56.000Z</time>
      </trkpt>
      <trkpt lat="50.347620" lon="26.519041">
        <ele>237.145825</ele>
        <time>2019-06-06T14:14:59.000Z</time>
      </trkpt>
      <trkpt lat="50.347523" lon="26.519047">
        <ele>237.166462</ele>
        <time>2019-06-06T14:15:02.000Z</time>
      </trkpt>
      <trkpt lat="50.347430" lon="26.519049">
        <ele>237.186235</ele>
        <time>2019-06-06T14:15:05.000Z</time>
      </trkpt>
      <trkpt lat="50.347340" lon="26.519054">
        <ele>237.205380</ele>
        <time>2019-06-06T14:15:08.000Z</time>
      </trkpt>
      <trkpt lat="50.347244" lon="26.519054">
        <ele>237.225789</ele>
        <time>2019-06-06T14:15:11.000Z</time>
      </trkpt>
      <trkpt lat="50.347140" lon="26.519054">
        <ele>237.247898</ele>
        <time>2019-06-06T14:15:14.000Z</time>
      </trkpt>
      <trkpt lat="50.347040" lon="26.519053">
        <ele>237.235805</ele>
        <time>2019-06-06T14:15:17.000Z</time>
      </trkpt>
      <trkpt lat="50.346935" lon="26.519045">
        <ele>237.216223</ele>
        <time>2019-06-06T14:15:20.000Z</time>
      </trkpt>
      <trkpt lat="50.346820" lon="26.519054">
        <ele>237.194775</ele>
        <time>2019-06-06T14:15:24.000Z</time>
      </trkpt>
      <trkpt lat="50.346706" lon="26.519030">
        <ele>237.173348</ele>
        <time>2019-06-06T14:15:28.000Z</time>
      </trkpt>
      <trkpt lat="50.346600" lon="26.519043">
        <ele>237.153543</ele>
        <time>2019-06-06T14:15:32.000Z</time>
      </trkpt>
      <trkpt lat="50.346508" lon="26.519037">
        <ele>237.136390</ele>
        <time>2019-06-06T14:15:36.000Z</time>
      </trkpt>
      <trkpt lat="50.346397" lon="26.519050">
        <ele>237.115656</ele>
        <time>2019-06-06T14:15:41.000Z</time>
      </trkpt>
      <trkpt lat="50.346302" lon="26.519047">
        <ele>237.097956</ele>
        <time>2019-06-06T14:15:46.000Z</time>
      </trkpt>
      <trkpt lat="50.346200" lon="26.519045">
        <ele>237.078954</ele>
        <time>2019-06-06T14:15:52.000Z</time>
      </trkpt>
      <trkpt lat="50.346107" lon="26.519094">
        <ele>237.060678</ele>
        <time>2019-06-06T14:15:58.000Z</time>
      </trkpt>
      <trkpt lat="50.346016" lon="26.519133">
        <ele>237.043104</ele>
        <time>2019-06-06T14:16:02.000Z</time>
      </trkpt>
      <trkpt lat="50.345924" lon="26.519182">
        <ele>237.025004</ele>
        <time>2019-06-06T14:16:07.000Z</time>
      </trkpt>
      <trkpt lat="50.345837" lon="26.519213">
        <ele>237.008384</ele>
        <time>2019-06-06T14:16:13.000Z</time>
      </trkpt>
      <trkpt lat="50.345770" lon="26.519321">
        <ele>236.990479</ele>
        <time>2019-06-06T14:16:19.000Z</time>
      </trkpt>
      <trkpt lat="50.345715" lon="26.519445">
        <ele>236.972528</ele>
        <time>2019-06-06T14:16:26.000Z</time>
      </trkpt>
      <trkpt lat="50.345646" lon="26.519558">
        <ele>236.953937</ele>
        <time>2019-06-06T14:16:30.000Z</time>
      </trkpt>
      <trkpt lat="50.345573" lon="26.519691">
        <ele>236.933083</ele>
        <time>2019-06-06T14:16:35.000Z</time>
      </trkpt>
      <trkpt lat="50.345500" lon="26.519815">
        <ele>236.910337</ele>
        <time>2019-06-06T14:16:39.000Z</time>
      </trkpt>
      <trkpt lat="50.345440" lon="26.519950">
        <ele>236.874868</ele>
        <time>2019-06-06T14:16:43.000Z</time>
      </trkpt>
      <trkpt lat="50.345387" lon="26.520110">
        <ele>236.836001</ele>
        <time>2019-06-06T14:16:47.000Z</time>
      </trkpt>
      <trkpt lat="50.345314" lon="26.520239">
        <ele>236.798828</ele>
        <time>2019-06-06T14:16:51.000Z</time>
      </trkpt>
      <trkpt lat="50.345245" lon="26.520342">
        <ele>236.766632</ele>
        <time>2019-06-06T14:16:55.000Z</time>
      </trkpt>
      <trkpt lat="50.345184" lon="26.520458">
        <ele>236.734224</ele>
        <time>2019-06-06T14:16:59.000Z</time>
      </trkpt>
      <trkpt lat="50.345123" lon="26.520586">
        <ele>236.699781</ele>
        <time>2019-06-06T14:17:03.000Z</time>
      </trkpt>
      <trkpt lat="50.345036" lon="26.520695">
        <ele>236.662148</ele>
        <time>2019-06-06T14:17:07.000Z</time>
      </trkpt>
      <trkpt lat="50.344970" lon="26.520838">
        <ele>236.624098</ele>
        <time>2019-06-06T14:17:11.000Z</time>
      </trkpt>
      <trkpt lat="50.344902" lon="26.520958">
        <ele>236.589498</ele>
        <time>2019-06-06T14:17:15.000Z</time>
      </trkpt>
      <trkpt lat="50.344840" lon="26.521084">
        <ele>236.555194</ele>
        <time>2019-06-06T14:17:19.000Z</time>
      </trkpt>
      <trkpt lat="50.344772" lon="26.521208">
        <ele>236.519944</ele>
        <time>2019-06-06T14:17:23.000Z</time>
      </trkpt>
      <trkpt lat="50.344700" lon="26.521330">
        <ele>236.484116</ele>
        <time>2019-06-06T14:17:27.000Z</time>
      </trkpt>
      <trkpt lat="50.344627" lon="26.521463">
        <ele>236.446294</ele>
        <time>2019-06-06T14:17:31.000Z</time>
      </trkpt>
      <trkpt lat="50.344570" lon="26.521606">
        <ele>236.409942</ele>
        <time>2019-06-06T14:17:35.000Z</time>
      </trkpt>
      <trkpt lat="50.344650" lon="26.521683">
        <ele>236.378222</ele>
        <time>2019-06-06T14:17:43.000Z</time>
      </trkpt>
      <trkpt lat="50.344715" lon="26.521572">
        <ele>236.345741</ele>
        <time>2019-06-06T14:17:47.000Z</time>
      </trkpt>
      <trkpt lat="50.344612" lon="26.521587">
        <ele>236.310793</ele>
        <time>2019-06-06T14:21:47.000Z</time>
      </trkpt>
      <trkpt lat="50.344536" lon="26.521732">
        <ele>236.024938</ele>
        <time>2019-06-06T14:21:51.000Z</time>
      </trkpt>
      <trkpt lat="50.344467" lon="26.521845">
        <ele>235.775308</ele>
        <time>2019-06-06T14:21:54.000Z</time>
      </trkpt>
      <trkpt lat="50.344402" lon="26.521975">
        <ele>235.511703</ele>
        <time>2019-06-06T14:21:57.000Z</time>
      </trkpt>
      <trkpt lat="50.344350" lon="26.522116">
        <ele>235.251767</ele>
        <time>2019-06-06T14:22:00.000Z</time>
      </trkpt>
      <trkpt lat="50.344290" lon="26.522251">
        <ele>234.989177</ele>
        <time>2019-06-06T14:22:03.000Z</time>
      </trkpt>
      <trkpt lat="50.344234" lon="26.522379">
        <ele>234.741467</ele>
        <time>2019-06-06T14:22:06.000Z</time>
      </trkpt>
      <trkpt lat="50.344170" lon="26.522512">
        <ele>234.475589</ele>
        <time>2019-06-06T14:22:09.000Z</time>
      </trkpt>
      <trkpt lat="50.344105" lon="26.522636">
        <ele>234.219455</ele>
        <time>2019-06-06T14:22:12.000Z</time>
      </trkpt>
      <trkpt lat="50.344032" lon="26.522749">
        <ele>233.962804</ele>
        <time>2019-06-06T14:22:15.000Z</time>
      </trkpt>
      <trkpt lat="50.343964" lon="26.522858">
        <ele>233.719500</ele>
        <time>2019-06-06T14:22:18.000Z</time>
      </trkpt>
      <trkpt lat="50.343884" lon="26.522985">
        <ele>233.434667</ele>
        <time>2019-06-06T14:22:21.000Z</time>
      </trkpt>
      <trkpt lat="50.343800" lon="26.523117">
        <ele>233.137121</ele>
        <time>2019-06-06T14:22:24.000Z</time>
      </trkpt>
      <trkpt lat="50.343704" lon="26.523252">
        <ele>232.814497</ele>
        <time>2019-06-06T14:22:27.000Z</time>
      </trkpt>
      <trkpt lat="50.343636" lon="26.523344">
        <ele>232.589794</ele>
        <time>2019-06-06T14:22:29.000Z</time>
      </trkpt>
      <trkpt lat="50.343548" lon="26.523445">
        <ele>232.316966</ele>
        <time>2019-06-06T14:22:32.000Z</time>
      </trkpt>
      <trkpt lat="50.343470" lon="26.523584">
        <ele>232.021523</ele>
        <time>2019-06-06T14:22:35.000Z</time>
      </trkpt>
      <trkpt lat="50.343400" lon="26.523740">
        <ele>231.672685</ele>
        <time>2019-06-06T14:22:38.000Z</time>
      </trkpt>
      <trkpt lat="50.343300" lon="26.523870">
        <ele>231.192164</ele>
        <time>2019-06-06T14:22:41.000Z</time>
      </trkpt>
      <trkpt lat="50.343224" lon="26.523994">
        <ele>230.786401</ele>
        <time>2019-06-06T14:22:44.000Z</time>
      </trkpt>
      <trkpt lat="50.343143" lon="26.524117">
        <ele>230.369264</ele>
        <time>2019-06-06T14:22:47.000Z</time>
      </trkpt>
      <trkpt lat="50.343052" lon="26.524267">
        <ele>229.880812</ele>
        <time>2019-06-06T14:22:50.000Z</time>
      </trkpt>
      <trkpt lat="50.342945" lon="26.524403">
        <ele>229.371293</ele>
        <time>2019-06-06T14:22:53.000Z</time>
      </trkpt>
      <trkpt lat="50.342854" lon="26.524544">
        <ele>228.898008</ele>
        <time>2019-06-06T14:22:56.000Z</time>
      </trkpt>
      <trkpt lat="50.342780" lon="26.524626">
        <ele>228.562826</ele>
        <time>2019-06-06T14:22:58.000Z</time>
      </trkpt>
      <trkpt lat="50.342690" lon="26.524782">
        <ele>228.066500</ele>
        <time>2019-06-06T14:23:01.000Z</time>
      </trkpt>
      <trkpt lat="50.342620" lon="26.524880">
        <ele>227.719351</ele>
        <time>2019-06-06T14:23:03.000Z</time>
      </trkpt>
      <trkpt lat="50.342560" lon="26.524984">
        <ele>227.388467</ele>
        <time>2019-06-06T14:23:05.000Z</time>
      </trkpt>
      <trkpt lat="50.342500" lon="26.525090">
        <ele>227.054065</ele>
        <time>2019-06-06T14:23:07.000Z</time>
      </trkpt>
      <trkpt lat="50.342407" lon="26.525223">
        <ele>226.588423</ele>
        <time>2019-06-06T14:23:10.000Z</time>
      </trkpt>
      <trkpt lat="50.342340" lon="26.525316">
        <ele>226.257406</ele>
        <time>2019-06-06T14:23:12.000Z</time>
      </trkpt>
      <trkpt lat="50.342266" lon="26.525427">
        <ele>225.878558</ele>
        <time>2019-06-06T14:23:14.000Z</time>
      </trkpt>
      <trkpt lat="50.342194" lon="26.525520">
        <ele>225.533481</ele>
        <time>2019-06-06T14:23:16.000Z</time>
      </trkpt>
      <trkpt lat="50.342120" lon="26.525618">
        <ele>225.175164</ele>
        <time>2019-06-06T14:23:18.000Z</time>
      </trkpt>
      <trkpt lat="50.342060" lon="26.525717">
        <ele>225.066989</ele>
        <time>2019-06-06T14:23:20.000Z</time>
      </trkpt>
      <trkpt lat="50.341970" lon="26.525852">
        <ele>224.929227</ele>
        <time>2019-06-06T14:23:23.000Z</time>
      </trkpt>
      <trkpt lat="50.341866" lon="26.525959">
        <ele>224.791661</ele>
        <time>2019-06-06T14:23:26.000Z</time>
      </trkpt>
      <trkpt lat="50.341778" lon="26.526009">
        <ele>224.688159</ele>
        <time>2019-06-06T14:23:28.000Z</time>
      </trkpt>
      <trkpt lat="50.341682" lon="26.526045">
        <ele>224.579014</ele>
        <time>2019-06-06T14:23:30.000Z</time>
      </trkpt>
      <trkpt lat="50.341557" lon="26.526060">
        <ele>224.440396</ele>
        <time>2019-06-06T14:23:33.000Z</time>
      </trkpt>
      <trkpt lat="50.341454" lon="26.526083">
        <ele>224.325358</ele>
        <time>2019-06-06T14:23:36.000Z</time>
      </trkpt>
      <trkpt lat="50.341324" lon="26.526106">
        <ele>224.180703</ele>
        <time>2019-06-06T14:23:39.000Z</time>
      </trkpt>
      <trkpt lat="50.341232" lon="26.526114">
        <ele>224.078822</ele>
        <time>2019-06-06T14:23:41.000Z</time>
      </trkpt>
      <trkpt lat="50.341137" lon="26.526127">
        <ele>223.973381</ele>
        <time>2019-06-06T14:23:43.000Z</time>
      </trkpt>
      <trkpt lat="50.341045" lon="26.526146">
        <ele>223.870776</ele>
        <time>2019-06-06T14:23:45.000Z</time>
      </trkpt>
      <trkpt lat="50.340946" lon="26.526152">
        <ele>223.761230</ele>
        <time>2019-06-06T14:23:47.000Z</time>
      </trkpt>
      <trkpt lat="50.340843" lon="26.526140">
        <ele>223.647028</ele>
        <time>2019-06-06T14:23:49.000Z</time>
      </trkpt>
      <trkpt lat="50.340744" lon="26.526129">
        <ele>223.537288</ele>
        <time>2019-06-06T14:23:51.000Z</time>
      </trkpt>
      <trkpt lat="50.340645" lon="26.526100">
        <ele>223.425927</ele>
        <time>2019-06-06T14:23:53.000Z</time>
      </trkpt>
      <trkpt lat="50.340550" lon="26.526072">
        <ele>223.319043</ele>
        <time>2019-06-06T14:23:55.000Z</time>
      </trkpt>
      <trkpt lat="50.340416" lon="26.526026">
        <ele>223.169750</ele>
        <time>2019-06-06T14:23:58.000Z</time>
      </trkpt>
      <trkpt lat="50.340324" lon="26.526003">
        <ele>223.180810</ele>
        <time>2019-06-06T14:24:00.000Z</time>
      </trkpt>
      <trkpt lat="50.340233" lon="26.525982">
        <ele>223.191731</ele>
        <time>2019-06-06T14:24:02.000Z</time>
      </trkpt>
      <trkpt lat="50.340103" lon="26.525976">
        <ele>223.207172</ele>
        <time>2019-06-06T14:24:05.000Z</time>
      </trkpt>
      <trkpt lat="50.339980" lon="26.525986">
        <ele>223.221794</ele>
        <time>2019-06-06T14:24:08.000Z</time>
      </trkpt>
      <trkpt lat="50.339893" lon="26.526003">
        <ele>223.232203</ele>
        <time>2019-06-06T14:24:10.000Z</time>
      </trkpt>
      <trkpt lat="50.339798" lon="26.526001">
        <ele>223.243483</ele>
        <time>2019-06-06T14:24:12.000Z</time>
      </trkpt>
      <trkpt lat="50.339706" lon="26.525988">
        <ele>223.254450</ele>
        <time>2019-06-06T14:24:14.000Z</time>
      </trkpt>
      <trkpt lat="50.339573" lon="26.525984">
        <ele>223.270243</ele>
        <time>2019-06-06T14:24:17.000Z</time>
      </trkpt>
      <trkpt lat="50.339447" lon="26.525980">
        <ele>223.285205</ele>
        <time>2019-06-06T14:24:20.000Z</time>
      </trkpt>
      <trkpt lat="50.339333" lon="26.525972">
        <ele>223.298753</ele>
        <time>2019-06-06T14:24:23.000Z</time>
      </trkpt>
      <trkpt lat="50.339220" lon="26.525959">
        <ele>223.312205</ele>
        <time>2019-06-06T14:24:26.000Z</time>
      </trkpt>
      <trkpt lat="50.339096" lon="26.525950">
        <ele>223.326942</ele>
        <time>2019-06-06T14:24:29.000Z</time>
      </trkpt>
      <trkpt lat="50.338978" lon="26.525927">
        <ele>223.341060</ele>
        <time>2019-06-06T14:24:32.000Z</time>
      </trkpt>
      <trkpt lat="50.338867" lon="26.525911">
        <ele>223.354294</ele>
        <time>2019-06-06T14:24:35.000Z</time>
      </trkpt>
      <trkpt lat="50.338745" lon="26.525898">
        <ele>223.368811</ele>
        <time>2019-06-06T14:24:38.000Z</time>
      </trkpt>
      <trkpt lat="50.338615" lon="26.525890">
        <ele>223.375609</ele>
        <time>2019-06-06T14:24:41.000Z</time>
      </trkpt>
      <trkpt lat="50.338480" lon="26.525875">
        <ele>223.275681</ele>
        <time>2019-06-06T14:24:44.000Z</time>
      </trkpt>
      <trkpt lat="50.338364" lon="26.525879">
        <ele>223.190011</ele>
        <time>2019-06-06T14:24:47.000Z</time>
      </trkpt>
      <trkpt lat="50.338250" lon="26.525864">
        <ele>223.105542</ele>
        <time>2019-06-06T14:24:50.000Z</time>
      </trkpt>
      <trkpt lat="50.338146" lon="26.525867">
        <ele>223.028739</ele>
        <time>2019-06-06T14:24:53.000Z</time>
      </trkpt>
      <trkpt lat="50.338047" lon="26.525860">
        <ele>222.955568</ele>
        <time>2019-06-06T14:24:56.000Z</time>
      </trkpt>
      <trkpt lat="50.337950" lon="26.525875">
        <ele>222.883599</ele>
        <time>2019-06-06T14:24:59.000Z</time>
      </trkpt>
      <trkpt lat="50.337850" lon="26.525839">
        <ele>222.807839</ele>
        <time>2019-06-06T14:25:03.000Z</time>
      </trkpt>
      <trkpt lat="50.337746" lon="26.525860">
        <ele>222.730415</ele>
        <time>2019-06-06T14:25:06.000Z</time>
      </trkpt>
      <trkpt lat="50.337640" lon="26.525858">
        <ele>222.652144</ele>
        <time>2019-06-06T14:25:09.000Z</time>
      </trkpt>
      <trkpt lat="50.337513" lon="26.525856">
        <ele>222.558367</ele>
        <time>2019-06-06T14:25:12.000Z</time>
      </trkpt>
      <trkpt lat="50.337387" lon="26.525866">
        <ele>222.465215</ele>
        <time>2019-06-06T14:25:15.000Z</time>
      </trkpt>
      <trkpt lat="50.337265" lon="26.525858">
        <ele>222.375057</ele>
        <time>2019-06-06T14:25:18.000Z</time>
      </trkpt>
      <trkpt lat="50.337154" lon="26.525846">
        <ele>222.292904</ele>
        <time>2019-06-06T14:25:21.000Z</time>
      </trkpt>
      <trkpt lat="50.337032" lon="26.525852">
        <ele>222.202780</ele>
        <time>2019-06-06T14:25:24.000Z</time>
      </trkpt>
      <trkpt lat="50.336910" lon="26.525870">
        <ele>222.112302</ele>
        <time>2019-06-06T14:25:27.000Z</time>
      </trkpt>
      <trkpt lat="50.336784" lon="26.525864">
        <ele>222.084922</ele>
        <time>2019-06-06T14:25:30.000Z</time>
      </trkpt>
      <trkpt lat="50.336670" lon="26.525858">
        <ele>222.155286</ele>
        <time>2019-06-06T14:25:33.000Z</time>
      </trkpt>
      <trkpt lat="50.336550" lon="26.525867">
        <ele>222.229396</ele>
        <time>2019-06-06T14:25:36.000Z</time>
      </trkpt>
      <trkpt lat="50.336430" lon="26.525856">
        <ele>222.303548</ele>
        <time>2019-06-06T14:25:39.000Z</time>
      </trkpt>
      <trkpt lat="50.336310" lon="26.525848">
        <ele>222.377640</ele>
        <time>2019-06-06T14:25:42.000Z</time>
      </trkpt>
      <trkpt lat="50.336190" lon="26.525839">
        <ele>222.451750</ele>
        <time>2019-06-06T14:25:45.000Z</time>
      </trkpt>
      <trkpt lat="50.336067" lon="26.525820">
        <ele>222.527994</ele>
        <time>2019-06-06T14:25:48.000Z</time>
      </trkpt>
      <trkpt lat="50.335940" lon="26.525787">
        <ele>222.607407</ele>
        <time>2019-06-06T14:25:51.000Z</time>
      </trkpt>
      <trkpt lat="50.335820" lon="26.525770">
        <ele>222.681734</ele>
        <time>2019-06-06T14:25:54.000Z</time>
      </trkpt>
      <trkpt lat="50.335697" lon="26.525759">
        <ele>222.757734</ele>
        <time>2019-06-06T14:25:57.000Z</time>
      </trkpt>
      <trkpt lat="50.335575" lon="26.525732">
        <ele>222.833740</ele>
        <time>2019-06-06T14:26:00.000Z</time>
      </trkpt>
      <trkpt lat="50.335457" lon="26.525707">
        <ele>222.907194</ele>
        <time>2019-06-06T14:26:03.000Z</time>
      </trkpt>
      <trkpt lat="50.335346" lon="26.525684">
        <ele>222.976264</ele>
        <time>2019-06-06T14:26:06.000Z</time>
      </trkpt>
      <trkpt lat="50.335243" lon="26.525679">
        <ele>223.039832</ele>
        <time>2019-06-06T14:26:09.000Z</time>
      </trkpt>
      <trkpt lat="50.335144" lon="26.525654">
        <ele>223.101692</ele>
        <time>2019-06-06T14:26:12.000Z</time>
      </trkpt>
      <trkpt lat="50.335037" lon="26.525640">
        <ele>223.166135</ele>
        <time>2019-06-06T14:26:15.000Z</time>
      </trkpt>
      <trkpt lat="50.334927" lon="26.525644">
        <ele>223.197879</ele>
        <time>2019-06-06T14:26:18.000Z</time>
      </trkpt>
      <trkpt lat="50.334824" lon="26.525644">
        <ele>223.227595</ele>
        <time>2019-06-06T14:26:21.000Z</time>
      </trkpt>
      <trkpt lat="50.334724" lon="26.525629">
        <ele>223.256578</ele>
        <time>2019-06-06T14:26:24.000Z</time>
      </trkpt>
      <trkpt lat="50.334625" lon="26.525630">
        <ele>223.285141</ele>
        <time>2019-06-06T14:26:27.000Z</time>
      </trkpt>
      <trkpt lat="50.334520" lon="26.525637">
        <ele>223.315461</ele>
        <time>2019-06-06T14:26:30.000Z</time>
      </trkpt>
      <trkpt lat="50.334408" lon="26.525623">
        <ele>223.347877</ele>
        <time>2019-06-06T14:26:33.000Z</time>
      </trkpt>
      <trkpt lat="50.334290" lon="26.525608">
        <ele>223.382033</ele>
        <time>2019-06-06T14:26:36.000Z</time>
      </trkpt>
      <trkpt lat="50.334170" lon="26.525583">
        <ele>223.416958</ele>
        <time>2019-06-06T14:26:39.000Z</time>
      </trkpt>
      <trkpt lat="50.334057" lon="26.525572">
        <ele>223.449622</ele>
        <time>2019-06-06T14:26:42.000Z</time>
      </trkpt>
      <trkpt lat="50.333940" lon="26.525560">
        <ele>223.483450</ele>
        <time>2019-06-06T14:26:45.000Z</time>
      </trkpt>
      <trkpt lat="50.333817" lon="26.525547">
        <ele>223.519017</ele>
        <time>2019-06-06T14:26:48.000Z</time>
      </trkpt>
      <trkpt lat="50.333687" lon="26.525530">
        <ele>223.556653</ele>
        <time>2019-06-06T14:26:51.000Z</time>
      </trkpt>
      <trkpt lat="50.333560" lon="26.525528">
        <ele>223.593296</ele>
        <time>2019-06-06T14:26:54.000Z</time>
      </trkpt>
      <trkpt lat="50.333470" lon="26.525549">
        <ele>223.619548</ele>
        <time>2019-06-06T14:26:56.000Z</time>
      </trkpt>
      <trkpt lat="50.333374" lon="26.525558">
        <ele>223.647294</ele>
        <time>2019-06-06T14:26:58.000Z</time>
      </trkpt>
      <trkpt lat="50.333282" lon="26.525557">
        <ele>223.673837</ele>
        <time>2019-06-06T14:27:00.000Z</time>
      </trkpt>
      <trkpt lat="50.333145" lon="26.525580">
        <ele>223.807111</ele>
        <time>2019-06-06T14:27:03.000Z</time>
      </trkpt>
      <trkpt lat="50.333015" lon="26.525587">
        <ele>223.961210</ele>
        <time>2019-06-06T14:27:06.000Z</time>
      </trkpt>
      <trkpt lat="50.332924" lon="26.525593">
        <ele>224.069111</ele>
        <time>2019-06-06T14:27:08.000Z</time>
      </trkpt>
      <trkpt lat="50.332790" lon="26.525590">
        <ele>224.227875</ele>
        <time>2019-06-06T14:27:11.000Z</time>
      </trkpt>
      <trkpt lat="50.332664" lon="26.525593">
        <ele>224.377162</ele>
        <time>2019-06-06T14:27:14.000Z</time>
      </trkpt>
      <trkpt lat="50.332546" lon="26.525602">
        <ele>224.517119</ele>
        <time>2019-06-06T14:27:17.000Z</time>
      </trkpt>
      <trkpt lat="50.332386" lon="26.525612">
        <ele>224.706819</ele>
        <time>2019-06-06T14:27:21.000Z</time>
      </trkpt>
      <trkpt lat="50.332268" lon="26.525627">
        <ele>224.847071</ele>
        <time>2019-06-06T14:27:24.000Z</time>
      </trkpt>
      <trkpt lat="50.332140" lon="26.525642">
        <ele>224.999133</ele>
        <time>2019-06-06T14:27:27.000Z</time>
      </trkpt>
      <trkpt lat="50.332020" lon="26.525665">
        <ele>225.142355</ele>
        <time>2019-06-06T14:27:30.000Z</time>
      </trkpt>
      <trkpt lat="50.331898" lon="26.525679">
        <ele>225.287273</ele>
        <time>2019-06-06T14:27:33.000Z</time>
      </trkpt>
      <trkpt lat="50.331780" lon="26.525686">
        <ele>225.427166</ele>
        <time>2019-06-06T14:27:36.000Z</time>
      </trkpt>
      <trkpt lat="50.331690" lon="26.525667">
        <ele>225.534751</ele>
        <time>2019-06-06T14:27:40.000Z</time>
      </trkpt>
      <trkpt lat="50.331580" lon="26.525646">
        <ele>225.666029</ele>
        <time>2019-06-06T14:27:42.000Z</time>
      </trkpt>
      <trkpt lat="50.331474" lon="26.525654">
        <ele>225.791751</ele>
        <time>2019-06-06T14:27:46.000Z</time>
      </trkpt>
      <trkpt lat="50.331364" lon="26.525661">
        <ele>225.991440</ele>
        <time>2019-06-06T14:27:50.000Z</time>
      </trkpt>
      <trkpt lat="50.331272" lon="26.525656">
        <ele>226.170521</ele>
        <time>2019-06-06T14:27:54.000Z</time>
      </trkpt>
      <trkpt lat="50.331180" lon="26.525670">
        <ele>226.350337</ele>
        <time>2019-06-06T14:27:57.000Z</time>
      </trkpt>
      <trkpt lat="50.331078" lon="26.525670">
        <ele>226.548764</ele>
        <time>2019-06-06T14:28:00.000Z</time>
      </trkpt>
      <trkpt lat="50.330970" lon="26.525679">
        <ele>226.759161</ele>
        <time>2019-06-06T14:28:03.000Z</time>
      </trkpt>
      <trkpt lat="50.330856" lon="26.525684">
        <ele>226.981019</ele>
        <time>2019-06-06T14:28:06.000Z</time>
      </trkpt>
      <trkpt lat="50.330750" lon="26.525690">
        <ele>227.187362</ele>
        <time>2019-06-06T14:28:09.000Z</time>
      </trkpt>
      <trkpt lat="50.330647" lon="26.525705">
        <ele>227.388598</ele>
        <time>2019-06-06T14:28:12.000Z</time>
      </trkpt>
      <trkpt lat="50.330536" lon="26.525711">
        <ele>227.604662</ele>
        <time>2019-06-06T14:28:16.000Z</time>
      </trkpt>
      <trkpt lat="50.330418" lon="26.525710">
        <ele>227.834219</ele>
        <time>2019-06-06T14:28:20.000Z</time>
      </trkpt>
      <trkpt lat="50.330296" lon="26.525710">
        <ele>228.071553</ele>
        <time>2019-06-06T14:28:24.000Z</time>
      </trkpt>
      <trkpt lat="50.330204" lon="26.525707">
        <ele>228.250565</ele>
        <time>2019-06-06T14:28:27.000Z</time>
      </trkpt>
      <trkpt lat="50.330112" lon="26.525711">
        <ele>228.429607</ele>
        <time>2019-06-06T14:28:30.000Z</time>
      </trkpt>
      <trkpt lat="50.329994" lon="26.525711">
        <ele>228.659160</ele>
        <time>2019-06-06T14:28:34.000Z</time>
      </trkpt>
      <trkpt lat="50.329890" lon="26.525660">
        <ele>228.871160</ele>
        <time>2019-06-06T14:28:38.000Z</time>
      </trkpt>
      <trkpt lat="50.329790" lon="26.525574">
        <ele>229.093084</ele>
        <time>2019-06-06T14:28:42.000Z</time>
      </trkpt>
      <trkpt lat="50.329704" lon="26.525503">
        <ele>229.282198</ele>
        <time>2019-06-06T14:28:45.000Z</time>
      </trkpt>
      <trkpt lat="50.329617" lon="26.525408">
        <ele>229.502575</ele>
        <time>2019-06-06T14:28:49.000Z</time>
      </trkpt>
      <trkpt lat="50.329520" lon="26.525307">
        <ele>229.747354</ele>
        <time>2019-06-06T14:28:53.000Z</time>
      </trkpt>
      <trkpt lat="50.329433" lon="26.525204">
        <ele>229.976536</ele>
        <time>2019-06-06T14:28:57.000Z</time>
      </trkpt>
      <trkpt lat="50.329334" lon="26.525112">
        <ele>230.218449</ele>
        <time>2019-06-06T14:29:01.000Z</time>
      </trkpt>
      <trkpt lat="50.329235" lon="26.525043">
        <ele>230.446171</ele>
        <time>2019-06-06T14:29:05.000Z</time>
      </trkpt>
      <trkpt lat="50.329132" lon="26.524958">
        <ele>230.690835</ele>
        <time>2019-06-06T14:29:09.000Z</time>
      </trkpt>
      <trkpt lat="50.329052" lon="26.524890">
        <ele>230.882118</ele>
        <time>2019-06-06T14:29:13.000Z</time>
      </trkpt>
      <trkpt lat="50.328945" lon="26.524778">
        <ele>231.152571</ele>
        <time>2019-06-06T14:29:18.000Z</time>
      </trkpt>
      <trkpt lat="50.328854" lon="26.524668">
        <ele>231.394135</ele>
        <time>2019-06-06T14:29:22.000Z</time>
      </trkpt>
      <trkpt lat="50.328773" lon="26.524597">
        <ele>231.589202</ele>
        <time>2019-06-06T14:29:25.000Z</time>
      </trkpt>
      <trkpt lat="50.328674" lon="26.524496">
        <ele>231.837494</ele>
        <time>2019-06-06T14:29:29.000Z</time>
      </trkpt>
      <trkpt lat="50.328583" lon="26.524403">
        <ele>232.065840</ele>
        <time>2019-06-06T14:29:33.000Z</time>
      </trkpt>
      <trkpt lat="50.328503" lon="26.524315">
        <ele>232.271280</ele>
        <time>2019-06-06T14:29:37.000Z</time>
      </trkpt>
      <trkpt lat="50.328420" lon="26.524258">
        <ele>232.461738</ele>
        <time>2019-06-06T14:29:40.000Z</time>
      </trkpt>
      <trkpt lat="50.328330" lon="26.524183">
        <ele>232.675981</ele>
        <time>2019-06-06T14:29:43.000Z</time>
      </trkpt>
      <trkpt lat="50.328250" lon="26.524094">
        <ele>232.882194</ele>
        <time>2019-06-06T14:29:46.000Z</time>
      </trkpt>
      <trkpt lat="50.328175" lon="26.523985">
        <ele>233.095835</ele>
        <time>2019-06-06T14:29:49.000Z</time>
      </trkpt>
      <trkpt lat="50.328130" lon="26.523844">
        <ele>233.232842</ele>
        <time>2019-06-06T14:29:52.000Z</time>
      </trkpt>
      <trkpt lat="50.328156" lon="26.523695">
        <ele>233.367091</ele>
        <time>2019-06-06T14:29:55.000Z</time>
      </trkpt>
      <trkpt lat="50.328200" lon="26.523570">
        <ele>233.491152</ele>
        <time>2019-06-06T14:29:58.000Z</time>
      </trkpt>
      <trkpt lat="50.328255" lon="26.523407">
        <ele>233.651390</ele>
        <time>2019-06-06T14:30:02.000Z</time>
      </trkpt>
      <trkpt lat="50.328312" lon="26.523243">
        <ele>233.813681</ele>
        <time>2019-06-06T14:30:06.000Z</time>
      </trkpt>
      <trkpt lat="50.328354" lon="26.523113">
        <ele>233.940311</ele>
        <time>2019-06-06T14:30:09.000Z</time>
      </trkpt>
      <trkpt lat="50.328400" lon="26.522984">
        <ele>234.068733</ele>
        <time>2019-06-06T14:30:12.000Z</time>
      </trkpt>
      <trkpt lat="50.328440" lon="26.522854">
        <ele>234.194157</ele>
        <time>2019-06-06T14:30:15.000Z</time>
      </trkpt>
      <trkpt lat="50.328480" lon="26.522722">
        <ele>234.321149</ele>
        <time>2019-06-06T14:30:18.000Z</time>
      </trkpt>
      <trkpt lat="50.328526" lon="26.522589">
        <ele>234.452616</ele>
        <time>2019-06-06T14:30:21.000Z</time>
      </trkpt>
      <trkpt lat="50.328575" lon="26.522465">
        <ele>234.579362</ele>
        <time>2019-06-06T14:30:24.000Z</time>
      </trkpt>
      <trkpt lat="50.328613" lon="26.522330">
        <ele>234.707592</ele>
        <time>2019-06-06T14:30:27.000Z</time>
      </trkpt>
      <trkpt lat="50.328655" lon="26.522196">
        <ele>234.837333</ele>
        <time>2019-06-06T14:30:30.000Z</time>
      </trkpt>
      <trkpt lat="50.328697" lon="26.522060">
        <ele>234.968637</ele>
        <time>2019-06-06T14:30:33.000Z</time>
      </trkpt>
      <trkpt lat="50.328747" lon="26.521936">
        <ele>235.096105</ele>
        <time>2019-06-06T14:30:36.000Z</time>
      </trkpt>
      <trkpt lat="50.328790" lon="26.521786">
        <ele>235.239012</ele>
        <time>2019-06-06T14:30:40.000Z</time>
      </trkpt>
      <trkpt lat="50.328840" lon="26.521627">
        <ele>235.393057</ele>
        <time>2019-06-06T14:30:44.000Z</time>
      </trkpt>
      <trkpt lat="50.328873" lon="26.521465">
        <ele>235.540847</ele>
        <time>2019-06-06T14:30:48.000Z</time>
      </trkpt>
      <trkpt lat="50.328870" lon="26.521280">
        <ele>236.090662</ele>
        <time>2019-06-06T14:30:52.000Z</time>
      </trkpt>
      <trkpt lat="50.328830" lon="26.521110">
        <ele>236.631795</ele>
        <time>2019-06-06T14:30:56.000Z</time>
      </trkpt>
      <trkpt lat="50.328747" lon="26.520988">
        <ele>237.164307</ele>
        <time>2019-06-06T14:31:00.000Z</time>
      </trkpt>
      <trkpt lat="50.328700" lon="26.520870">
        <ele>237.579714</ele>
        <time>2019-06-06T14:31:03.000Z</time>
      </trkpt>
      <trkpt lat="50.328640" lon="26.520718">
        <ele>238.113476</ele>
        <time>2019-06-06T14:31:07.000Z</time>
      </trkpt>
      <trkpt lat="50.328580" lon="26.520560">
        <ele>238.662562</ele>
        <time>2019-06-06T14:31:11.000Z</time>
      </trkpt>
      <trkpt lat="50.328540" lon="26.520401">
        <ele>239.172998</ele>
        <time>2019-06-06T14:31:15.000Z</time>
      </trkpt>
      <trkpt lat="50.328533" lon="26.520220">
        <ele>239.714589</ele>
        <time>2019-06-06T14:31:19.000Z</time>
      </trkpt>
      <trkpt lat="50.328472" lon="26.520073">
        <ele>240.238246</ele>
        <time>2019-06-06T14:31:23.000Z</time>
      </trkpt>
      <trkpt lat="50.328407" lon="26.519922">
        <ele>240.782196</ele>
        <time>2019-06-06T14:31:27.000Z</time>
      </trkpt>
      <trkpt lat="50.328354" lon="26.519768">
        <ele>241.304738</ele>
        <time>2019-06-06T14:31:31.000Z</time>
      </trkpt>
      <trkpt lat="50.328297" lon="26.519611">
        <ele>241.844186</ele>
        <time>2019-06-06T14:31:35.000Z</time>
      </trkpt>
      <trkpt lat="50.328243" lon="26.519464">
        <ele>242.350740</ele>
        <time>2019-06-06T14:31:39.000Z</time>
      </trkpt>
      <trkpt lat="50.328190" lon="26.519348">
        <ele>242.776797</ele>
        <time>2019-06-06T14:31:43.000Z</time>
      </trkpt>
      <trkpt lat="50.328144" lon="26.519226">
        <ele>243.199992</ele>
        <time>2019-06-06T14:31:48.000Z</time>
      </trkpt>
      <trkpt lat="50.328087" lon="26.519094">
        <ele>243.675969</ele>
        <time>2019-06-06T14:31:53.000Z</time>
      </trkpt>
      <trkpt lat="50.328030" lon="26.518942">
        <ele>243.833231</ele>
        <time>2019-06-06T14:31:58.000Z</time>
      </trkpt>
      <trkpt lat="50.327995" lon="26.518808">
        <ele>243.614788</ele>
        <time>2019-06-06T14:32:02.000Z</time>
      </trkpt>
      <trkpt lat="50.327946" lon="26.518663">
        <ele>243.367255</ele>
        <time>2019-06-06T14:32:06.000Z</time>
      </trkpt>
      <trkpt lat="50.327890" lon="26.518518">
        <ele>243.111564</ele>
        <time>2019-06-06T14:32:10.000Z</time>
      </trkpt>
      <trkpt lat="50.327824" lon="26.518400">
        <ele>242.874862</ele>
        <time>2019-06-06T14:32:14.000Z</time>
      </trkpt>
      <trkpt lat="50.327760" lon="26.518269">
        <ele>242.625975</ele>
        <time>2019-06-06T14:32:18.000Z</time>
      </trkpt>
      <trkpt lat="50.327698" lon="26.518122">
        <ele>242.360151</ele>
        <time>2019-06-06T14:32:22.000Z</time>
      </trkpt>
      <trkpt lat="50.327652" lon="26.517984">
        <ele>242.125264</ele>
        <time>2019-06-06T14:32:25.000Z</time>
      </trkpt>
      <trkpt lat="50.327600" lon="26.517857">
        <ele>241.897624</ele>
        <time>2019-06-06T14:32:28.000Z</time>
      </trkpt>
      <trkpt lat="50.327538" lon="26.517730">
        <ele>241.656402</ele>
        <time>2019-06-06T14:32:31.000Z</time>
      </trkpt>
      <trkpt lat="50.327477" lon="26.517601">
        <ele>241.414190</ele>
        <time>2019-06-06T14:32:34.000Z</time>
      </trkpt>
      <trkpt lat="50.327390" lon="26.517460">
        <ele>241.118325</ele>
        <time>2019-06-06T14:32:37.000Z</time>
      </trkpt>
      <trkpt lat="50.327316" lon="26.517357">
        <ele>240.884363</ele>
        <time>2019-06-06T14:32:39.000Z</time>
      </trkpt>
      <trkpt lat="50.327248" lon="26.517218">
        <ele>240.620144</ele>
        <time>2019-06-06T14:32:41.000Z</time>
      </trkpt>
      <trkpt lat="50.327180" lon="26.517073">
        <ele>240.348683</ele>
        <time>2019-06-06T14:32:43.000Z</time>
      </trkpt>
      <trkpt lat="50.327100" lon="26.516920">
        <ele>240.050290</ele>
        <time>2019-06-06T14:32:45.000Z</time>
      </trkpt>
      <trkpt lat="50.327020" lon="26.516748">
        <ele>239.729205</ele>
        <time>2019-06-06T14:32:47.000Z</time>
      </trkpt>
      <trkpt lat="50.326927" lon="26.516565">
        <ele>239.121079</ele>
        <time>2019-06-06T14:32:49.000Z</time>
      </trkpt>
      <trkpt lat="50.326828" lon="26.516370">
        <ele>238.454412</ele>
        <time>2019-06-06T14:32:51.000Z</time>
      </trkpt>
      <trkpt lat="50.326720" lon="26.516180">
        <ele>237.773682</ele>
        <time>2019-06-06T14:32:53.000Z</time>
      </trkpt>
      <trkpt lat="50.326633" lon="26.515984">
        <ele>237.134905</ele>
        <time>2019-06-06T14:32:55.000Z</time>
      </trkpt>
      <trkpt lat="50.326546" lon="26.515799">
        <ele>236.520065</ele>
        <time>2019-06-06T14:32:57.000Z</time>
      </trkpt>
      <trkpt lat="50.326460" lon="26.515610">
        <ele>235.899016</ele>
        <time>2019-06-06T14:32:59.000Z</time>
      </trkpt>
      <trkpt lat="50.326397" lon="26.515440">
        <ele>235.373034</ele>
        <time>2019-06-06T14:33:01.000Z</time>
      </trkpt>
      <trkpt lat="50.326336" lon="26.515276">
        <ele>234.865144</ele>
        <time>2019-06-06T14:33:03.000Z</time>
      </trkpt>
      <trkpt lat="50.326270" lon="26.515116">
        <ele>234.355410</ele>
        <time>2019-06-06T14:33:05.000Z</time>
      </trkpt>
      <trkpt lat="50.326210" lon="26.514969">
        <ele>233.888537</ele>
        <time>2019-06-06T14:33:07.000Z</time>
      </trkpt>
      <trkpt lat="50.326145" lon="26.514816">
        <ele>233.396765</ele>
        <time>2019-06-06T14:33:09.000Z</time>
      </trkpt>
      <trkpt lat="50.326084" lon="26.514656">
        <ele>232.898092</ele>
        <time>2019-06-06T14:33:11.000Z</time>
      </trkpt>
      <trkpt lat="50.326023" lon="26.514498">
        <ele>232.404006</ele>
        <time>2019-06-06T14:33:13.000Z</time>
      </trkpt>
      <trkpt lat="50.325962" lon="26.514340">
        <ele>232.167379</ele>
        <time>2019-06-06T14:33:15.000Z</time>
      </trkpt>
      <trkpt lat="50.325900" lon="26.514181">
        <ele>232.167379</ele>
        <time>2019-06-06T14:33:17.000Z</time>
      </trkpt>
      <trkpt lat="50.325848" lon="26.514019">
        <ele>232.167379</ele>
        <time>2019-06-06T14:33:19.000Z</time>
      </trkpt>
      <trkpt lat="50.325800" lon="26.513866">
        <ele>232.167379</ele>
        <time>2019-06-06T14:33:21.000Z</time>
      </trkpt>
      <trkpt lat="50.325756" lon="26.513716">
        <ele>232.167379</ele>
        <time>2019-06-06T14:33:23.000Z</time>
      </trkpt>
      <trkpt lat="50.325718" lon="26.513573">
        <ele>232.167379</ele>
        <time>2019-06-06T14:33:25.000Z</time>
      </trkpt>
      <trkpt lat="50.325676" lon="26.513433">
        <ele>232.167379</ele>
        <time>2019-06-06T14:33:27.000Z</time>
      </trkpt>
      <trkpt lat="50.325626" lon="26.513264">
        <ele>232.167379</ele>
        <time>2019-06-06T14:33:30.000Z</time>
      </trkpt>
      <trkpt lat="50.325634" lon="26.513119">
        <ele>232.167379</ele>
        <time>2019-06-06T14:33:34.000Z</time>
      </trkpt>
      <trkpt lat="50.325592" lon="26.512980">
        <ele>232.167379</ele>
        <time>2019-06-06T14:33:40.000Z</time>
      </trkpt>
    </trkseg>
  </trk>
</gpx>